<?xml version="1.0" encoding="UTF-8"?><gpx version="1.1" creator="Relive" xmlns="http://www.topografix.com/GPX/1/1" xmlns:xsi="http://www.w3.org/2001/XMLSchema-instance" xsi:schemaLocation="http://www.topografix.com/GPX/1/1 http://www.topografix.com/GPX/1/1/gpx.xsd http://www.garmin.com/xmlschemas/TrackPointExtension/v1 http://www.garmin.com/xmlschemas/TrackPointExtensionv1.xsd http://www.garmin.com/xmlschemas/GpxExtensions/v3 http://www.garmin.com/xmlschemas/GpxExtensionsv3.xsd" xmlns:gpxtpx="http://www.garmin.com/xmlschemas/TrackPointExtension/v1" xmlns:gpxx="http://www.garmin.com/xmlschemas/GpxExtensions/v3"><metadata><time>2021-07-03T05:30:48.000Z</time><name>Ghiacciaio Fellaria</name></metadata><trk><trkseg><trkpt lat="46.3092" lon="9.942279"><time>2021-07-03T05:30:48.000Z</time><ele>1946</ele></trkpt><trkpt lat="46.309134" lon="9.942254"><time>2021-07-03T05:30:52.000Z</time><ele>1946.2</ele></trkpt><trkpt lat="46.309105" lon="9.942184"><time>2021-07-03T05:30:58.000Z</time><ele>2013</ele></trkpt><trkpt lat="46.309085" lon="9.942141"><time>2021-07-03T05:31:02.000Z</time><ele>2013.4</ele></trkpt><trkpt lat="46.309071" lon="9.942132"><time>2021-07-03T05:31:04.000Z</time><ele>2013.4</ele></trkpt><trkpt lat="46.309019" lon="9.942008"><time>2021-07-03T05:31:14.000Z</time><ele>2014.2</ele></trkpt><trkpt lat="46.308999" lon="9.941984"><time>2021-07-03T05:31:17.000Z</time><ele>2014.4</ele></trkpt><trkpt lat="46.308993" lon="9.941962"><time>2021-07-03T05:31:19.000Z</time><ele>2014.6</ele></trkpt><trkpt lat="46.308955" lon="9.941957"><time>2021-07-03T05:31:26.000Z</time><ele>2015.2</ele></trkpt><trkpt lat="46.308948" lon="9.941963"><time>2021-07-03T05:31:27.000Z</time><ele>2015.4</ele></trkpt><trkpt lat="46.308921" lon="9.942042"><time>2021-07-03T05:31:33.000Z</time><ele>2015.8</ele></trkpt><trkpt lat="46.308927" lon="9.942059"><time>2021-07-03T05:31:35.000Z</time><ele>2016</ele></trkpt><trkpt lat="46.308932" lon="9.942073"><time>2021-07-03T05:31:37.000Z</time><ele>2016.2</ele></trkpt><trkpt lat="46.308941" lon="9.942136"><time>2021-07-03T05:31:43.000Z</time><ele>2016.8</ele></trkpt><trkpt lat="46.308945" lon="9.942161"><time>2021-07-03T05:31:45.000Z</time><ele>2017</ele></trkpt><trkpt lat="46.308944" lon="9.942195"><time>2021-07-03T05:31:48.000Z</time><ele>2017.4</ele></trkpt><trkpt lat="46.308964" lon="9.942228"><time>2021-07-03T05:31:52.000Z</time><ele>2017.6</ele></trkpt><trkpt lat="46.308985" lon="9.942282"><time>2021-07-03T05:31:57.000Z</time><ele>2018</ele></trkpt><trkpt lat="46.30899" lon="9.94229"><time>2021-07-03T05:31:58.000Z</time><ele>2018</ele></trkpt><trkpt lat="46.309" lon="9.942309"><time>2021-07-03T05:32:00.000Z</time><ele>2018.4</ele></trkpt><trkpt lat="46.309011" lon="9.942337"><time>2021-07-03T05:32:03.000Z</time><ele>2018.8</ele></trkpt><trkpt lat="46.309056" lon="9.942409"><time>2021-07-03T05:32:11.000Z</time><ele>2019.4</ele></trkpt><trkpt lat="46.309103" lon="9.942482"><time>2021-07-03T05:32:20.000Z</time><ele>2020.2</ele></trkpt><trkpt lat="46.309119" lon="9.942519"><time>2021-07-03T05:32:24.000Z</time><ele>2020.6</ele></trkpt><trkpt lat="46.309149" lon="9.942588"><time>2021-07-03T05:32:31.000Z</time><ele>2021.2</ele></trkpt><trkpt lat="46.309164" lon="9.94262"><time>2021-07-03T05:32:34.000Z</time><ele>2021.4</ele></trkpt><trkpt lat="46.309179" lon="9.942642"><time>2021-07-03T05:32:37.000Z</time><ele>2021.8</ele></trkpt><trkpt lat="46.309185" lon="9.94266"><time>2021-07-03T05:32:39.000Z</time><ele>2022</ele></trkpt><trkpt lat="46.309188" lon="9.942676"><time>2021-07-03T05:32:40.000Z</time><ele>2022</ele></trkpt><trkpt lat="46.309193" lon="9.942683"><time>2021-07-03T05:32:41.000Z</time><ele>2022</ele></trkpt><trkpt lat="46.309218" lon="9.942722"><time>2021-07-03T05:32:46.000Z</time><ele>2022.4</ele></trkpt><trkpt lat="46.309236" lon="9.942745"><time>2021-07-03T05:32:49.000Z</time><ele>2022.8</ele></trkpt><trkpt lat="46.309254" lon="9.942768"><time>2021-07-03T05:32:52.000Z</time><ele>2023</ele></trkpt><trkpt lat="46.309265" lon="9.942785"><time>2021-07-03T05:32:54.000Z</time><ele>2023.2</ele></trkpt><trkpt lat="46.30927" lon="9.942805"><time>2021-07-03T05:32:56.000Z</time><ele>2023.4</ele></trkpt><trkpt lat="46.309301" lon="9.942833"><time>2021-07-03T05:33:00.000Z</time><ele>2023.8</ele></trkpt><trkpt lat="46.309309" lon="9.942839"><time>2021-07-03T05:33:01.000Z</time><ele>2024</ele></trkpt><trkpt lat="46.309314" lon="9.942849"><time>2021-07-03T05:33:02.000Z</time><ele>2024</ele></trkpt><trkpt lat="46.309314" lon="9.942866"><time>2021-07-03T05:33:03.000Z</time><ele>2024.2</ele></trkpt><trkpt lat="46.309327" lon="9.942921"><time>2021-07-03T05:33:07.000Z</time><ele>2024.4</ele></trkpt><trkpt lat="46.309352" lon="9.942968"><time>2021-07-03T05:33:12.000Z</time><ele>2025</ele></trkpt><trkpt lat="46.309399" lon="9.943017"><time>2021-07-03T05:33:19.000Z</time><ele>2025.8</ele></trkpt><trkpt lat="46.309423" lon="9.943059"><time>2021-07-03T05:33:23.000Z</time><ele>2026.2</ele></trkpt><trkpt lat="46.309432" lon="9.943064"><time>2021-07-03T05:33:24.000Z</time><ele>2026.2</ele></trkpt><trkpt lat="46.30946" lon="9.943099"><time>2021-07-03T05:33:28.000Z</time><ele>2026.6</ele></trkpt><trkpt lat="46.309488" lon="9.943127"><time>2021-07-03T05:33:32.000Z</time><ele>2027</ele></trkpt><trkpt lat="46.309496" lon="9.943133"><time>2021-07-03T05:33:33.000Z</time><ele>2027.4</ele></trkpt><trkpt lat="46.30951" lon="9.943198"><time>2021-07-03T05:33:38.000Z</time><ele>2028</ele></trkpt><trkpt lat="46.309533" lon="9.943243"><time>2021-07-03T05:33:42.000Z</time><ele>2028.4</ele></trkpt><trkpt lat="46.309564" lon="9.943308"><time>2021-07-03T05:33:48.000Z</time><ele>2029</ele></trkpt><trkpt lat="46.309579" lon="9.943362"><time>2021-07-03T05:33:53.000Z</time><ele>2029.4</ele></trkpt><trkpt lat="46.309582" lon="9.943374"><time>2021-07-03T05:33:54.000Z</time><ele>2029.4</ele></trkpt><trkpt lat="46.309588" lon="9.943382"><time>2021-07-03T05:33:55.000Z</time><ele>2029.6</ele></trkpt><trkpt lat="46.309608" lon="9.943441"><time>2021-07-03T05:34:00.000Z</time><ele>2030</ele></trkpt><trkpt lat="46.309624" lon="9.943458"><time>2021-07-03T05:34:02.000Z</time><ele>2030.4</ele></trkpt><trkpt lat="46.309631" lon="9.943465"><time>2021-07-03T05:34:03.000Z</time><ele>2030.4</ele></trkpt><trkpt lat="46.309637" lon="9.943475"><time>2021-07-03T05:34:04.000Z</time><ele>2030.4</ele></trkpt><trkpt lat="46.309656" lon="9.943514"><time>2021-07-03T05:34:08.000Z</time><ele>2030.8</ele></trkpt><trkpt lat="46.309664" lon="9.943538"><time>2021-07-03T05:34:10.000Z</time><ele>2031</ele></trkpt><trkpt lat="46.309697" lon="9.943579"><time>2021-07-03T05:34:15.000Z</time><ele>2031.6</ele></trkpt><trkpt lat="46.309709" lon="9.943597"><time>2021-07-03T05:34:17.000Z</time><ele>2031.8</ele></trkpt><trkpt lat="46.309746" lon="9.943661"><time>2021-07-03T05:34:23.000Z</time><ele>2032.4</ele></trkpt><trkpt lat="46.309751" lon="9.943672"><time>2021-07-03T05:34:24.000Z</time><ele>2032.4</ele></trkpt><trkpt lat="46.309753" lon="9.943687"><time>2021-07-03T05:34:25.000Z</time><ele>2032.6</ele></trkpt><trkpt lat="46.309765" lon="9.943706"><time>2021-07-03T05:34:27.000Z</time><ele>2032.8</ele></trkpt><trkpt lat="46.309769" lon="9.943718"><time>2021-07-03T05:34:28.000Z</time><ele>2032.8</ele></trkpt><trkpt lat="46.309772" lon="9.943731"><time>2021-07-03T05:34:29.000Z</time><ele>2033</ele></trkpt><trkpt lat="46.309777" lon="9.943743"><time>2021-07-03T05:34:30.000Z</time><ele>2033</ele></trkpt><trkpt lat="46.309809" lon="9.94379"><time>2021-07-03T05:34:35.000Z</time><ele>2033.8</ele></trkpt><trkpt lat="46.309821" lon="9.943824"><time>2021-07-03T05:34:38.000Z</time><ele>2034</ele></trkpt><trkpt lat="46.309823" lon="9.943836"><time>2021-07-03T05:34:39.000Z</time><ele>2034.2</ele></trkpt><trkpt lat="46.30985" lon="9.943891"><time>2021-07-03T05:34:45.000Z</time><ele>2034.6</ele></trkpt><trkpt lat="46.309859" lon="9.9439"><time>2021-07-03T05:34:46.000Z</time><ele>2034.8</ele></trkpt><trkpt lat="46.309869" lon="9.943921"><time>2021-07-03T05:34:48.000Z</time><ele>2035</ele></trkpt><trkpt lat="46.309894" lon="9.94396"><time>2021-07-03T05:34:52.000Z</time><ele>2035.2</ele></trkpt><trkpt lat="46.309892" lon="9.943998"><time>2021-07-03T05:34:54.000Z</time><ele>2035.4</ele></trkpt><trkpt lat="46.309899" lon="9.944008"><time>2021-07-03T05:34:56.000Z</time><ele>2035.6</ele></trkpt><trkpt lat="46.309909" lon="9.94401"><time>2021-07-03T05:34:57.000Z</time><ele>2035.8</ele></trkpt><trkpt lat="46.30992" lon="9.944014"><time>2021-07-03T05:34:58.000Z</time><ele>2036</ele></trkpt><trkpt lat="46.309946" lon="9.944065"><time>2021-07-03T05:35:02.000Z</time><ele>2036.4</ele></trkpt><trkpt lat="46.309982" lon="9.944143"><time>2021-07-03T05:35:09.000Z</time><ele>2037</ele></trkpt><trkpt lat="46.309997" lon="9.944164"><time>2021-07-03T05:35:11.000Z</time><ele>2037.2</ele></trkpt><trkpt lat="46.310027" lon="9.944196"><time>2021-07-03T05:35:15.000Z</time><ele>2037.6</ele></trkpt><trkpt lat="46.310029" lon="9.944214"><time>2021-07-03T05:35:16.000Z</time><ele>2037.6</ele></trkpt><trkpt lat="46.31004" lon="9.944234"><time>2021-07-03T05:35:18.000Z</time><ele>2037.8</ele></trkpt><trkpt lat="46.310057" lon="9.944256"><time>2021-07-03T05:35:21.000Z</time><ele>2038.2</ele></trkpt><trkpt lat="46.310084" lon="9.944291"><time>2021-07-03T05:35:25.000Z</time><ele>2038.8</ele></trkpt><trkpt lat="46.310091" lon="9.944299"><time>2021-07-03T05:35:26.000Z</time><ele>2038.8</ele></trkpt><trkpt lat="46.310122" lon="9.944352"><time>2021-07-03T05:35:31.000Z</time><ele>2039.2</ele></trkpt><trkpt lat="46.310128" lon="9.944361"><time>2021-07-03T05:35:32.000Z</time><ele>2039.4</ele></trkpt><trkpt lat="46.310151" lon="9.944382"><time>2021-07-03T05:35:35.000Z</time><ele>2039.8</ele></trkpt><trkpt lat="46.3102" lon="9.944413"><time>2021-07-03T05:35:40.000Z</time><ele>2040.4</ele></trkpt><trkpt lat="46.310237" lon="9.944424"><time>2021-07-03T05:35:44.000Z</time><ele>2040.8</ele></trkpt><trkpt lat="46.310251" lon="9.944433"><time>2021-07-03T05:35:46.000Z</time><ele>2041</ele></trkpt><trkpt lat="46.310259" lon="9.944439"><time>2021-07-03T05:35:47.000Z</time><ele>2041.2</ele></trkpt><trkpt lat="46.310276" lon="9.944443"><time>2021-07-03T05:35:49.000Z</time><ele>2041.4</ele></trkpt><trkpt lat="46.3103" lon="9.944447"><time>2021-07-03T05:35:52.000Z</time><ele>2041.8</ele></trkpt><trkpt lat="46.310311" lon="9.94445"><time>2021-07-03T05:35:53.000Z</time><ele>2042</ele></trkpt><trkpt lat="46.310319" lon="9.944454"><time>2021-07-03T05:35:54.000Z</time><ele>2042</ele></trkpt><trkpt lat="46.310338" lon="9.944468"><time>2021-07-03T05:35:58.000Z</time><ele>2042.4</ele></trkpt><trkpt lat="46.310344" lon="9.944472"><time>2021-07-03T05:35:59.000Z</time><ele>2042.6</ele></trkpt><trkpt lat="46.310361" lon="9.944468"><time>2021-07-03T05:36:01.000Z</time><ele>2042.8</ele></trkpt><trkpt lat="46.310364" lon="9.944477"><time>2021-07-03T05:36:02.000Z</time><ele>2043</ele></trkpt><trkpt lat="46.310368" lon="9.944497"><time>2021-07-03T05:36:05.000Z</time><ele>2043.4</ele></trkpt><trkpt lat="46.310378" lon="9.9445"><time>2021-07-03T05:36:07.000Z</time><ele>2043.6</ele></trkpt><trkpt lat="46.310404" lon="9.944504"><time>2021-07-03T05:36:09.000Z</time><ele>2044</ele></trkpt><trkpt lat="46.310455" lon="9.944502"><time>2021-07-03T05:36:14.000Z</time><ele>2044.4</ele></trkpt><trkpt lat="46.31047" lon="9.944522"><time>2021-07-03T05:36:16.000Z</time><ele>2044.6</ele></trkpt><trkpt lat="46.310512" lon="9.944556"><time>2021-07-03T05:36:21.000Z</time><ele>2045.4</ele></trkpt><trkpt lat="46.310551" lon="9.944597"><time>2021-07-03T05:36:26.000Z</time><ele>2045.8</ele></trkpt><trkpt lat="46.310564" lon="9.944617"><time>2021-07-03T05:36:28.000Z</time><ele>2046</ele></trkpt><trkpt lat="46.310602" lon="9.944624"><time>2021-07-03T05:36:31.000Z</time><ele>2046.2</ele></trkpt><trkpt lat="46.310608" lon="9.944633"><time>2021-07-03T05:36:32.000Z</time><ele>2046.4</ele></trkpt><trkpt lat="46.310631" lon="9.94466"><time>2021-07-03T05:36:35.000Z</time><ele>2046.8</ele></trkpt><trkpt lat="46.310636" lon="9.944671"><time>2021-07-03T05:36:36.000Z</time><ele>2047</ele></trkpt><trkpt lat="46.310665" lon="9.944745"><time>2021-07-03T05:36:43.000Z</time><ele>2047.8</ele></trkpt><trkpt lat="46.310669" lon="9.944757"><time>2021-07-03T05:36:44.000Z</time><ele>2048</ele></trkpt><trkpt lat="46.31068" lon="9.944775"><time>2021-07-03T05:36:46.000Z</time><ele>2048.2</ele></trkpt><trkpt lat="46.310719" lon="9.944838"><time>2021-07-03T05:36:53.000Z</time><ele>2049.2</ele></trkpt><trkpt lat="46.310738" lon="9.944879"><time>2021-07-03T05:36:57.000Z</time><ele>2049.4</ele></trkpt><trkpt lat="46.310749" lon="9.944904"><time>2021-07-03T05:36:59.000Z</time><ele>2049.6</ele></trkpt><trkpt lat="46.31077" lon="9.944952"><time>2021-07-03T05:37:03.000Z</time><ele>2049.8</ele></trkpt><trkpt lat="46.31079" lon="9.944986"><time>2021-07-03T05:37:06.000Z</time><ele>2050.2</ele></trkpt><trkpt lat="46.310799" lon="9.945027"><time>2021-07-03T05:37:09.000Z</time><ele>2050.4</ele></trkpt><trkpt lat="46.310809" lon="9.945065"><time>2021-07-03T05:37:12.000Z</time><ele>2050.8</ele></trkpt><trkpt lat="46.310831" lon="9.945114"><time>2021-07-03T05:37:16.000Z</time><ele>2051.2</ele></trkpt><trkpt lat="46.310843" lon="9.945153"><time>2021-07-03T05:37:19.000Z</time><ele>2051.4</ele></trkpt><trkpt lat="46.31088" lon="9.945218"><time>2021-07-03T05:37:26.000Z</time><ele>2052.4</ele></trkpt><trkpt lat="46.310892" lon="9.945222"><time>2021-07-03T05:37:27.000Z</time><ele>2052.4</ele></trkpt><trkpt lat="46.310952" lon="9.945301"><time>2021-07-03T05:37:36.000Z</time><ele>2053.4</ele></trkpt><trkpt lat="46.310957" lon="9.945308"><time>2021-07-03T05:37:37.000Z</time><ele>2053.4</ele></trkpt><trkpt lat="46.31098" lon="9.945323"><time>2021-07-03T05:37:40.000Z</time><ele>2053.8</ele></trkpt><trkpt lat="46.311002" lon="9.945352"><time>2021-07-03T05:37:44.000Z</time><ele>2054.4</ele></trkpt><trkpt lat="46.311009" lon="9.945373"><time>2021-07-03T05:37:46.000Z</time><ele>2054.6</ele></trkpt><trkpt lat="46.311013" lon="9.945405"><time>2021-07-03T05:37:49.000Z</time><ele>2054.8</ele></trkpt><trkpt lat="46.310986" lon="9.945431"><time>2021-07-03T05:37:56.000Z</time><ele>2055.4</ele></trkpt><trkpt lat="46.310975" lon="9.94543"><time>2021-07-03T05:37:57.000Z</time><ele>2055.6</ele></trkpt><trkpt lat="46.310951" lon="9.945417"><time>2021-07-03T05:38:00.000Z</time><ele>2055.8</ele></trkpt><trkpt lat="46.310917" lon="9.945405"><time>2021-07-03T05:38:04.000Z</time><ele>2056</ele></trkpt><trkpt lat="46.310907" lon="9.945401"><time>2021-07-03T05:38:05.000Z</time><ele>2056.2</ele></trkpt><trkpt lat="46.310858" lon="9.945384"><time>2021-07-03T05:38:10.000Z</time><ele>2056.6</ele></trkpt><trkpt lat="46.310838" lon="9.945366"><time>2021-07-03T05:38:12.000Z</time><ele>2056.6</ele></trkpt><trkpt lat="46.310807" lon="9.945357"><time>2021-07-03T05:38:15.000Z</time><ele>2056.8</ele></trkpt><trkpt lat="46.310765" lon="9.945291"><time>2021-07-03T05:38:22.000Z</time><ele>2057.4</ele></trkpt><trkpt lat="46.310744" lon="9.945259"><time>2021-07-03T05:38:25.000Z</time><ele>2057.6</ele></trkpt><trkpt lat="46.310697" lon="9.945201"><time>2021-07-03T05:38:31.000Z</time><ele>2058</ele></trkpt><trkpt lat="46.310692" lon="9.945193"><time>2021-07-03T05:38:32.000Z</time><ele>2058.2</ele></trkpt><trkpt lat="46.310686" lon="9.945184"><time>2021-07-03T05:38:33.000Z</time><ele>2058.4</ele></trkpt><trkpt lat="46.310678" lon="9.945172"><time>2021-07-03T05:38:35.000Z</time><ele>2058.6</ele></trkpt><trkpt lat="46.310671" lon="9.945165"><time>2021-07-03T05:38:36.000Z</time><ele>2058.6</ele></trkpt><trkpt lat="46.310652" lon="9.945137"><time>2021-07-03T05:38:40.000Z</time><ele>2059</ele></trkpt><trkpt lat="46.310626" lon="9.945091"><time>2021-07-03T05:38:45.000Z</time><ele>2059.6</ele></trkpt><trkpt lat="46.310623" lon="9.945087"><time>2021-07-03T05:38:46.000Z</time><ele>2059.6</ele></trkpt><trkpt lat="46.310618" lon="9.945083"><time>2021-07-03T05:38:47.000Z</time><ele>2059.8</ele></trkpt><trkpt lat="46.310617" lon="9.945078"><time>2021-07-03T05:38:48.000Z</time><ele>2059.8</ele></trkpt><trkpt lat="46.310617" lon="9.945075"><time>2021-07-03T05:38:49.000Z</time><ele>2059.8</ele></trkpt><trkpt lat="46.310638" lon="9.945045"><time>2021-07-03T05:38:55.000Z</time><ele>2060.2</ele></trkpt><trkpt lat="46.310634" lon="9.945038"><time>2021-07-03T05:39:02.000Z</time><ele>2060.4</ele></trkpt><trkpt lat="46.310627" lon="9.945037"><time>2021-07-03T05:39:04.000Z</time><ele>2060.6</ele></trkpt><trkpt lat="46.31062" lon="9.945043"><time>2021-07-03T05:39:06.000Z</time><ele>2060.6</ele></trkpt><trkpt lat="46.31062" lon="9.945043"><time>2021-07-03T05:39:11.000Z</time><ele>2060.6</ele></trkpt><trkpt lat="46.31062" lon="9.945043"><time>2021-07-03T05:39:14.000Z</time><ele>2060.6</ele></trkpt><trkpt lat="46.310625" lon="9.94504"><time>2021-07-03T05:39:18.000Z</time><ele>2060.8</ele></trkpt><trkpt lat="46.310625" lon="9.945036"><time>2021-07-03T05:39:36.000Z</time><ele>2060</ele></trkpt><trkpt lat="46.310627" lon="9.94503"><time>2021-07-03T05:39:40.000Z</time><ele>2060</ele></trkpt><trkpt lat="46.310632" lon="9.945026"><time>2021-07-03T05:39:46.000Z</time><ele>2060.8</ele></trkpt><trkpt lat="46.310642" lon="9.945002"><time>2021-07-03T05:40:04.000Z</time><ele>2060.4</ele></trkpt><trkpt lat="46.310646" lon="9.944998"><time>2021-07-03T05:40:06.000Z</time><ele>2060.2</ele></trkpt><trkpt lat="46.310647" lon="9.944994"><time>2021-07-03T05:40:17.000Z</time><ele>2061</ele></trkpt><trkpt lat="46.310648" lon="9.944989"><time>2021-07-03T05:40:22.000Z</time><ele>2061</ele></trkpt><trkpt lat="46.310652" lon="9.94498"><time>2021-07-03T05:40:49.000Z</time><ele>2061</ele></trkpt><trkpt lat="46.310652" lon="9.944985"><time>2021-07-03T05:40:55.000Z</time><ele>2061</ele></trkpt><trkpt lat="46.310652" lon="9.944985"><time>2021-07-03T05:40:56.000Z</time><ele>2061</ele></trkpt><trkpt lat="46.310646" lon="9.944995"><time>2021-07-03T05:41:00.000Z</time><ele>2061</ele></trkpt><trkpt lat="46.310623" lon="9.945011"><time>2021-07-03T05:41:13.000Z</time><ele>2061</ele></trkpt><trkpt lat="46.31062" lon="9.945012"><time>2021-07-03T05:41:19.000Z</time><ele>2061</ele></trkpt><trkpt lat="46.31062" lon="9.945013"><time>2021-07-03T05:41:22.000Z</time><ele>2061</ele></trkpt><trkpt lat="46.310622" lon="9.945014"><time>2021-07-03T05:41:30.000Z</time><ele>2061</ele></trkpt><trkpt lat="46.310648" lon="9.945013"><time>2021-07-03T05:41:51.000Z</time><ele>2061</ele></trkpt><trkpt lat="46.310616" lon="9.945018"><time>2021-07-03T05:42:26.000Z</time><ele>2061</ele></trkpt><trkpt lat="46.310616" lon="9.945018"><time>2021-07-03T05:42:32.000Z</time><ele>2061</ele></trkpt><trkpt lat="46.310616" lon="9.945018"><time>2021-07-03T05:42:38.000Z</time><ele>2061</ele></trkpt><trkpt lat="46.310616" lon="9.945018"><time>2021-07-03T05:42:46.000Z</time><ele>2061</ele></trkpt><trkpt lat="46.310616" lon="9.945018"><time>2021-07-03T05:42:51.000Z</time><ele>2061</ele></trkpt><trkpt lat="46.310615" lon="9.945018"><time>2021-07-03T05:42:59.000Z</time><ele>2061</ele></trkpt><trkpt lat="46.310615" lon="9.945018"><time>2021-07-03T05:43:36.000Z</time><ele>2061</ele></trkpt><trkpt lat="46.310615" lon="9.945018"><time>2021-07-03T05:43:39.000Z</time><ele>2061</ele></trkpt><trkpt lat="46.310615" lon="9.945018"><time>2021-07-03T05:43:41.000Z</time><ele>2061</ele></trkpt><trkpt lat="46.310615" lon="9.945019"><time>2021-07-03T05:43:45.000Z</time><ele>2061</ele></trkpt><trkpt lat="46.310615" lon="9.945018"><time>2021-07-03T05:43:58.000Z</time><ele>2061</ele></trkpt><trkpt lat="46.310608" lon="9.945056"><time>2021-07-03T05:44:02.000Z</time><ele>2061</ele></trkpt><trkpt lat="46.310615" lon="9.9451"><time>2021-07-03T05:44:05.000Z</time><ele>2061</ele></trkpt><trkpt lat="46.310617" lon="9.945183"><time>2021-07-03T05:44:11.000Z</time><ele>2061</ele></trkpt><trkpt lat="46.310618" lon="9.945191"><time>2021-07-03T05:44:12.000Z</time><ele>2061</ele></trkpt><trkpt lat="46.310616" lon="9.945214"><time>2021-07-03T05:44:14.000Z</time><ele>2060.6</ele></trkpt><trkpt lat="46.310627" lon="9.945248"><time>2021-07-03T05:44:17.000Z</time><ele>2060.6</ele></trkpt><trkpt lat="46.310638" lon="9.945267"><time>2021-07-03T05:44:19.000Z</time><ele>2060.8</ele></trkpt><trkpt lat="46.310654" lon="9.945295"><time>2021-07-03T05:44:22.000Z</time><ele>2061</ele></trkpt><trkpt lat="46.310659" lon="9.945303"><time>2021-07-03T05:44:23.000Z</time><ele>2061</ele></trkpt><trkpt lat="46.310663" lon="9.945315"><time>2021-07-03T05:44:24.000Z</time><ele>2061.2</ele></trkpt><trkpt lat="46.310673" lon="9.945341"><time>2021-07-03T05:44:26.000Z</time><ele>2061.4</ele></trkpt><trkpt lat="46.310686" lon="9.945358"><time>2021-07-03T05:44:28.000Z</time><ele>2061.6</ele></trkpt><trkpt lat="46.310702" lon="9.945375"><time>2021-07-03T05:44:30.000Z</time><ele>2061.8</ele></trkpt><trkpt lat="46.31071" lon="9.945381"><time>2021-07-03T05:44:31.000Z</time><ele>2062</ele></trkpt><trkpt lat="46.310717" lon="9.945388"><time>2021-07-03T05:44:32.000Z</time><ele>2062</ele></trkpt><trkpt lat="46.310737" lon="9.945415"><time>2021-07-03T05:44:35.000Z</time><ele>2062.2</ele></trkpt><trkpt lat="46.310757" lon="9.945435"><time>2021-07-03T05:44:38.000Z</time><ele>2062.6</ele></trkpt><trkpt lat="46.310761" lon="9.945442"><time>2021-07-03T05:44:39.000Z</time><ele>2062.8</ele></trkpt><trkpt lat="46.310771" lon="9.945448"><time>2021-07-03T05:44:40.000Z</time><ele>2063</ele></trkpt><trkpt lat="46.310814" lon="9.945508"><time>2021-07-03T05:44:46.000Z</time><ele>2063.6</ele></trkpt><trkpt lat="46.310834" lon="9.945543"><time>2021-07-03T05:44:50.000Z</time><ele>2063.8</ele></trkpt><trkpt lat="46.310847" lon="9.945546"><time>2021-07-03T05:44:51.000Z</time><ele>2064</ele></trkpt><trkpt lat="46.310857" lon="9.945555"><time>2021-07-03T05:44:52.000Z</time><ele>2064</ele></trkpt><trkpt lat="46.310877" lon="9.945563"><time>2021-07-03T05:44:54.000Z</time><ele>2064.2</ele></trkpt><trkpt lat="46.310892" lon="9.94558"><time>2021-07-03T05:44:56.000Z</time><ele>2064.4</ele></trkpt><trkpt lat="46.310912" lon="9.945636"><time>2021-07-03T05:45:01.000Z</time><ele>2065</ele></trkpt><trkpt lat="46.310921" lon="9.945674"><time>2021-07-03T05:45:04.000Z</time><ele>2065.4</ele></trkpt><trkpt lat="46.310958" lon="9.945718"><time>2021-07-03T05:45:09.000Z</time><ele>2065.8</ele></trkpt><trkpt lat="46.310963" lon="9.945724"><time>2021-07-03T05:45:10.000Z</time><ele>2066</ele></trkpt><trkpt lat="46.310979" lon="9.945737"><time>2021-07-03T05:45:12.000Z</time><ele>2066.2</ele></trkpt><trkpt lat="46.311001" lon="9.945756"><time>2021-07-03T05:45:15.000Z</time><ele>2066.4</ele></trkpt><trkpt lat="46.311004" lon="9.945761"><time>2021-07-03T05:45:16.000Z</time><ele>2066.6</ele></trkpt><trkpt lat="46.311024" lon="9.945773"><time>2021-07-03T05:45:18.000Z</time><ele>2066.6</ele></trkpt><trkpt lat="46.311077" lon="9.945793"><time>2021-07-03T05:45:24.000Z</time><ele>2067.2</ele></trkpt><trkpt lat="46.311085" lon="9.9458"><time>2021-07-03T05:45:25.000Z</time><ele>2067.2</ele></trkpt><trkpt lat="46.311141" lon="9.945846"><time>2021-07-03T05:45:33.000Z</time><ele>2068.2</ele></trkpt><trkpt lat="46.31115" lon="9.945847"><time>2021-07-03T05:45:34.000Z</time><ele>2068.4</ele></trkpt><trkpt lat="46.311177" lon="9.945868"><time>2021-07-03T05:45:38.000Z</time><ele>2068.6</ele></trkpt><trkpt lat="46.31121" lon="9.945886"><time>2021-07-03T05:45:42.000Z</time><ele>2068.8</ele></trkpt><trkpt lat="46.31122" lon="9.945886"><time>2021-07-03T05:45:43.000Z</time><ele>2068.8</ele></trkpt><trkpt lat="46.311241" lon="9.945887"><time>2021-07-03T05:45:45.000Z</time><ele>2069.2</ele></trkpt><trkpt lat="46.31129" lon="9.945886"><time>2021-07-03T05:45:49.000Z</time><ele>2069.6</ele></trkpt><trkpt lat="46.311306" lon="9.945902"><time>2021-07-03T05:45:52.000Z</time><ele>2070</ele></trkpt><trkpt lat="46.311321" lon="9.945913"><time>2021-07-03T05:45:54.000Z</time><ele>2070.2</ele></trkpt><trkpt lat="46.311328" lon="9.945917"><time>2021-07-03T05:45:55.000Z</time><ele>2070.4</ele></trkpt><trkpt lat="46.311376" lon="9.945933"><time>2021-07-03T05:46:01.000Z</time><ele>2070.8</ele></trkpt><trkpt lat="46.311406" lon="9.945954"><time>2021-07-03T05:46:06.000Z</time><ele>2071.2</ele></trkpt><trkpt lat="46.311418" lon="9.945969"><time>2021-07-03T05:46:08.000Z</time><ele>2071.4</ele></trkpt><trkpt lat="46.311433" lon="9.945984"><time>2021-07-03T05:46:10.000Z</time><ele>2071.6</ele></trkpt><trkpt lat="46.31148" lon="9.94604"><time>2021-07-03T05:46:18.000Z</time><ele>2072.4</ele></trkpt><trkpt lat="46.311486" lon="9.946047"><time>2021-07-03T05:46:19.000Z</time><ele>2072.6</ele></trkpt><trkpt lat="46.311532" lon="9.946098"><time>2021-07-03T05:46:26.000Z</time><ele>2073.2</ele></trkpt><trkpt lat="46.311557" lon="9.946108"><time>2021-07-03T05:46:29.000Z</time><ele>2073.4</ele></trkpt><trkpt lat="46.311562" lon="9.946119"><time>2021-07-03T05:46:30.000Z</time><ele>2073.6</ele></trkpt><trkpt lat="46.3116" lon="9.946132"><time>2021-07-03T05:46:34.000Z</time><ele>2074</ele></trkpt><trkpt lat="46.311658" lon="9.946139"><time>2021-07-03T05:46:40.000Z</time><ele>2074.6</ele></trkpt><trkpt lat="46.311665" lon="9.946146"><time>2021-07-03T05:46:41.000Z</time><ele>2074.6</ele></trkpt><trkpt lat="46.311748" lon="9.946183"><time>2021-07-03T05:46:50.000Z</time><ele>2075.4</ele></trkpt><trkpt lat="46.311767" lon="9.946176"><time>2021-07-03T05:46:51.000Z</time><ele>2075.6</ele></trkpt><trkpt lat="46.311776" lon="9.946182"><time>2021-07-03T05:46:52.000Z</time><ele>2075.8</ele></trkpt><trkpt lat="46.311784" lon="9.946191"><time>2021-07-03T05:46:54.000Z</time><ele>2076</ele></trkpt><trkpt lat="46.311791" lon="9.946193"><time>2021-07-03T05:46:55.000Z</time><ele>2076</ele></trkpt><trkpt lat="46.311809" lon="9.946199"><time>2021-07-03T05:46:57.000Z</time><ele>2076.2</ele></trkpt><trkpt lat="46.311814" lon="9.946201"><time>2021-07-03T05:46:58.000Z</time><ele>2076.2</ele></trkpt><trkpt lat="46.311818" lon="9.946207"><time>2021-07-03T05:46:59.000Z</time><ele>2076.2</ele></trkpt><trkpt lat="46.31186" lon="9.94623"><time>2021-07-03T05:47:04.000Z</time><ele>2076.6</ele></trkpt><trkpt lat="46.311869" lon="9.946234"><time>2021-07-03T05:47:05.000Z</time><ele>2076.8</ele></trkpt><trkpt lat="46.311885" lon="9.946245"><time>2021-07-03T05:47:07.000Z</time><ele>2077</ele></trkpt><trkpt lat="46.311917" lon="9.946284"><time>2021-07-03T05:47:12.000Z</time><ele>2077.4</ele></trkpt><trkpt lat="46.311934" lon="9.946307"><time>2021-07-03T05:47:15.000Z</time><ele>2077.8</ele></trkpt><trkpt lat="46.311946" lon="9.946321"><time>2021-07-03T05:47:17.000Z</time><ele>2077.8</ele></trkpt><trkpt lat="46.312006" lon="9.946344"><time>2021-07-03T05:47:25.000Z</time><ele>2078.8</ele></trkpt><trkpt lat="46.312028" lon="9.946349"><time>2021-07-03T05:47:27.000Z</time><ele>2079</ele></trkpt><trkpt lat="46.312059" lon="9.946376"><time>2021-07-03T05:47:31.000Z</time><ele>2079.4</ele></trkpt><trkpt lat="46.312112" lon="9.946411"><time>2021-07-03T05:47:38.000Z</time><ele>2080</ele></trkpt><trkpt lat="46.312142" lon="9.946421"><time>2021-07-03T05:47:41.000Z</time><ele>2080.4</ele></trkpt><trkpt lat="46.312189" lon="9.946425"><time>2021-07-03T05:47:47.000Z</time><ele>2081</ele></trkpt><trkpt lat="46.312206" lon="9.946433"><time>2021-07-03T05:47:49.000Z</time><ele>2081</ele></trkpt><trkpt lat="46.312271" lon="9.946417"><time>2021-07-03T05:47:55.000Z</time><ele>2081.4</ele></trkpt><trkpt lat="46.312299" lon="9.946407"><time>2021-07-03T05:47:59.000Z</time><ele>2082.2</ele></trkpt><trkpt lat="46.312321" lon="9.946412"><time>2021-07-03T05:48:03.000Z</time><ele>2082.6</ele></trkpt><trkpt lat="46.31236" lon="9.946415"><time>2021-07-03T05:48:09.000Z</time><ele>2083</ele></trkpt><trkpt lat="46.31237" lon="9.946428"><time>2021-07-03T05:48:11.000Z</time><ele>2083.2</ele></trkpt><trkpt lat="46.312423" lon="9.946435"><time>2021-07-03T05:48:17.000Z</time><ele>2083.8</ele></trkpt><trkpt lat="46.312488" lon="9.946448"><time>2021-07-03T05:48:24.000Z</time><ele>2084.2</ele></trkpt><trkpt lat="46.312513" lon="9.94646"><time>2021-07-03T05:48:27.000Z</time><ele>2084.4</ele></trkpt><trkpt lat="46.312528" lon="9.946467"><time>2021-07-03T05:48:29.000Z</time><ele>2084.6</ele></trkpt><trkpt lat="46.312565" lon="9.946501"><time>2021-07-03T05:48:34.000Z</time><ele>2084.8</ele></trkpt><trkpt lat="46.312637" lon="9.946539"><time>2021-07-03T05:48:41.000Z</time><ele>2085</ele></trkpt><trkpt lat="46.312669" lon="9.946558"><time>2021-07-03T05:48:44.000Z</time><ele>2085.2</ele></trkpt><trkpt lat="46.312692" lon="9.94658"><time>2021-07-03T05:48:47.000Z</time><ele>2085.4</ele></trkpt><trkpt lat="46.312728" lon="9.946593"><time>2021-07-03T05:48:50.000Z</time><ele>2085.4</ele></trkpt><trkpt lat="46.31276" lon="9.946613"><time>2021-07-03T05:48:53.000Z</time><ele>2085.6</ele></trkpt><trkpt lat="46.312782" lon="9.946632"><time>2021-07-03T05:48:56.000Z</time><ele>2085.8</ele></trkpt><trkpt lat="46.312858" lon="9.94666"><time>2021-07-03T05:49:02.000Z</time><ele>2086.4</ele></trkpt><trkpt lat="46.312898" lon="9.946698"><time>2021-07-03T05:49:07.000Z</time><ele>2086.4</ele></trkpt><trkpt lat="46.312954" lon="9.946736"><time>2021-07-03T05:49:13.000Z</time><ele>2086.8</ele></trkpt><trkpt lat="46.312971" lon="9.946753"><time>2021-07-03T05:49:15.000Z</time><ele>2086.8</ele></trkpt><trkpt lat="46.313021" lon="9.946782"><time>2021-07-03T05:49:21.000Z</time><ele>2087</ele></trkpt><trkpt lat="46.31306" lon="9.94678"><time>2021-07-03T05:49:25.000Z</time><ele>2087.2</ele></trkpt><trkpt lat="46.313129" lon="9.946777"><time>2021-07-03T05:49:31.000Z</time><ele>2087.4</ele></trkpt><trkpt lat="46.313144" lon="9.946773"><time>2021-07-03T05:49:32.000Z</time><ele>2087.4</ele></trkpt><trkpt lat="46.313218" lon="9.94676"><time>2021-07-03T05:49:41.000Z</time><ele>2088.2</ele></trkpt><trkpt lat="46.313229" lon="9.94675"><time>2021-07-03T05:49:42.000Z</time><ele>2088.2</ele></trkpt><trkpt lat="46.313237" lon="9.946751"><time>2021-07-03T05:49:44.000Z</time><ele>2088.4</ele></trkpt><trkpt lat="46.313239" lon="9.946734"><time>2021-07-03T05:49:50.000Z</time><ele>2089</ele></trkpt><trkpt lat="46.313277" lon="9.946651"><time>2021-07-03T05:49:55.000Z</time><ele>2089.4</ele></trkpt><trkpt lat="46.313281" lon="9.946639"><time>2021-07-03T05:49:56.000Z</time><ele>2089.4</ele></trkpt><trkpt lat="46.313284" lon="9.946588"><time>2021-07-03T05:50:01.000Z</time><ele>2090</ele></trkpt><trkpt lat="46.313288" lon="9.946554"><time>2021-07-03T05:50:04.000Z</time><ele>2090.2</ele></trkpt><trkpt lat="46.313293" lon="9.946508"><time>2021-07-03T05:50:07.000Z</time><ele>2090.6</ele></trkpt><trkpt lat="46.313297" lon="9.946446"><time>2021-07-03T05:50:12.000Z</time><ele>2090.8</ele></trkpt><trkpt lat="46.313302" lon="9.946398"><time>2021-07-03T05:50:15.000Z</time><ele>2091</ele></trkpt><trkpt lat="46.3133" lon="9.946357"><time>2021-07-03T05:50:18.000Z</time><ele>2091.2</ele></trkpt><trkpt lat="46.313301" lon="9.946344"><time>2021-07-03T05:50:19.000Z</time><ele>2091.4</ele></trkpt><trkpt lat="46.313301" lon="9.946332"><time>2021-07-03T05:50:20.000Z</time><ele>2091.6</ele></trkpt><trkpt lat="46.313314" lon="9.946287"><time>2021-07-03T05:50:24.000Z</time><ele>2092</ele></trkpt><trkpt lat="46.313374" lon="9.946211"><time>2021-07-03T05:50:32.000Z</time><ele>2092.6</ele></trkpt><trkpt lat="46.313377" lon="9.946213"><time>2021-07-03T05:50:33.000Z</time><ele>2092.6</ele></trkpt><trkpt lat="46.313381" lon="9.946216"><time>2021-07-03T05:50:34.000Z</time><ele>2092.8</ele></trkpt><trkpt lat="46.313382" lon="9.946238"><time>2021-07-03T05:50:37.000Z</time><ele>2093</ele></trkpt><trkpt lat="46.313385" lon="9.946246"><time>2021-07-03T05:50:38.000Z</time><ele>2093</ele></trkpt><trkpt lat="46.313382" lon="9.94625"><time>2021-07-03T05:50:39.000Z</time><ele>2093.2</ele></trkpt><trkpt lat="46.313394" lon="9.946259"><time>2021-07-03T05:50:41.000Z</time><ele>2093.4</ele></trkpt><trkpt lat="46.313397" lon="9.946304"><time>2021-07-03T05:50:45.000Z</time><ele>2093.8</ele></trkpt><trkpt lat="46.313394" lon="9.946319"><time>2021-07-03T05:50:46.000Z</time><ele>2094</ele></trkpt><trkpt lat="46.313401" lon="9.946339"><time>2021-07-03T05:50:48.000Z</time><ele>2094</ele></trkpt><trkpt lat="46.313404" lon="9.946367"><time>2021-07-03T05:50:50.000Z</time><ele>2094.6</ele></trkpt><trkpt lat="46.313411" lon="9.946373"><time>2021-07-03T05:50:51.000Z</time><ele>2094.8</ele></trkpt><trkpt lat="46.313418" lon="9.946378"><time>2021-07-03T05:50:52.000Z</time><ele>2095</ele></trkpt><trkpt lat="46.313421" lon="9.946414"><time>2021-07-03T05:50:56.000Z</time><ele>2095.6</ele></trkpt><trkpt lat="46.313421" lon="9.946438"><time>2021-07-03T05:50:58.000Z</time><ele>2095.8</ele></trkpt><trkpt lat="46.313429" lon="9.946468"><time>2021-07-03T05:51:01.000Z</time><ele>2096.2</ele></trkpt><trkpt lat="46.313427" lon="9.946498"><time>2021-07-03T05:51:04.000Z</time><ele>2096.8</ele></trkpt><trkpt lat="46.313436" lon="9.946509"><time>2021-07-03T05:51:06.000Z</time><ele>2097</ele></trkpt><trkpt lat="46.313442" lon="9.946533"><time>2021-07-03T05:51:08.000Z</time><ele>2097.4</ele></trkpt><trkpt lat="46.313452" lon="9.946555"><time>2021-07-03T05:51:10.000Z</time><ele>2097.8</ele></trkpt><trkpt lat="46.31346" lon="9.946577"><time>2021-07-03T05:51:12.000Z</time><ele>2098</ele></trkpt><trkpt lat="46.313464" lon="9.946588"><time>2021-07-03T05:51:13.000Z</time><ele>2098.2</ele></trkpt><trkpt lat="46.313486" lon="9.946593"><time>2021-07-03T05:51:15.000Z</time><ele>2098.4</ele></trkpt><trkpt lat="46.31352" lon="9.946587"><time>2021-07-03T05:51:19.000Z</time><ele>2098.8</ele></trkpt><trkpt lat="46.313552" lon="9.94654"><time>2021-07-03T05:51:23.000Z</time><ele>2099</ele></trkpt><trkpt lat="46.313554" lon="9.946532"><time>2021-07-03T05:51:24.000Z</time><ele>2099.2</ele></trkpt><trkpt lat="46.31355" lon="9.946525"><time>2021-07-03T05:51:26.000Z</time><ele>2099.4</ele></trkpt><trkpt lat="46.313566" lon="9.946473"><time>2021-07-03T05:51:31.000Z</time><ele>2100</ele></trkpt><trkpt lat="46.313567" lon="9.946454"><time>2021-07-03T05:51:33.000Z</time><ele>2100.2</ele></trkpt><trkpt lat="46.313562" lon="9.946431"><time>2021-07-03T05:51:36.000Z</time><ele>2100.6</ele></trkpt><trkpt lat="46.313567" lon="9.946367"><time>2021-07-03T05:51:42.000Z</time><ele>2101.2</ele></trkpt><trkpt lat="46.313563" lon="9.946346"><time>2021-07-03T05:51:44.000Z</time><ele>2101.6</ele></trkpt><trkpt lat="46.313564" lon="9.946322"><time>2021-07-03T05:51:46.000Z</time><ele>2101.8</ele></trkpt><trkpt lat="46.313564" lon="9.946289"><time>2021-07-03T05:51:49.000Z</time><ele>2102.4</ele></trkpt><trkpt lat="46.313588" lon="9.946228"><time>2021-07-03T05:51:53.000Z</time><ele>2103</ele></trkpt><trkpt lat="46.313586" lon="9.946224"><time>2021-07-03T05:51:54.000Z</time><ele>2103.2</ele></trkpt><trkpt lat="46.313584" lon="9.946201"><time>2021-07-03T05:51:56.000Z</time><ele>2103.6</ele></trkpt><trkpt lat="46.313567" lon="9.946176"><time>2021-07-03T05:51:59.000Z</time><ele>2103.8</ele></trkpt><trkpt lat="46.313544" lon="9.946151"><time>2021-07-03T05:52:02.000Z</time><ele>2104</ele></trkpt><trkpt lat="46.313548" lon="9.946136"><time>2021-07-03T05:52:03.000Z</time><ele>2104</ele></trkpt><trkpt lat="46.313531" lon="9.94613"><time>2021-07-03T05:52:07.000Z</time><ele>2104.6</ele></trkpt><trkpt lat="46.313532" lon="9.946125"><time>2021-07-03T05:52:08.000Z</time><ele>2104.8</ele></trkpt><trkpt lat="46.31353" lon="9.946117"><time>2021-07-03T05:52:09.000Z</time><ele>2104.8</ele></trkpt><trkpt lat="46.313524" lon="9.946104"><time>2021-07-03T05:52:11.000Z</time><ele>2104.8</ele></trkpt><trkpt lat="46.313523" lon="9.946072"><time>2021-07-03T05:52:14.000Z</time><ele>2105.4</ele></trkpt><trkpt lat="46.313508" lon="9.946058"><time>2021-07-03T05:52:16.000Z</time><ele>2105.4</ele></trkpt><trkpt lat="46.313501" lon="9.946051"><time>2021-07-03T05:52:17.000Z</time><ele>2105.6</ele></trkpt><trkpt lat="46.313493" lon="9.946044"><time>2021-07-03T05:52:18.000Z</time><ele>2105.8</ele></trkpt><trkpt lat="46.313488" lon="9.946041"><time>2021-07-03T05:52:19.000Z</time><ele>2106</ele></trkpt><trkpt lat="46.313493" lon="9.945986"><time>2021-07-03T05:52:24.000Z</time><ele>2106.6</ele></trkpt><trkpt lat="46.313499" lon="9.945965"><time>2021-07-03T05:52:26.000Z</time><ele>2106.8</ele></trkpt><trkpt lat="46.313532" lon="9.945911"><time>2021-07-03T05:52:32.000Z</time><ele>2107</ele></trkpt><trkpt lat="46.313572" lon="9.945871"><time>2021-07-03T05:52:38.000Z</time><ele>2107.2</ele></trkpt><trkpt lat="46.313624" lon="9.945863"><time>2021-07-03T05:52:45.000Z</time><ele>2107.4</ele></trkpt><trkpt lat="46.313676" lon="9.945894"><time>2021-07-03T05:52:51.000Z</time><ele>2107.4</ele></trkpt><trkpt lat="46.313702" lon="9.945993"><time>2021-07-03T05:52:59.000Z</time><ele>2107.6</ele></trkpt><trkpt lat="46.313725" lon="9.946038"><time>2021-07-03T05:53:04.000Z</time><ele>2107.6</ele></trkpt><trkpt lat="46.313731" lon="9.946066"><time>2021-07-03T05:53:07.000Z</time><ele>2107.6</ele></trkpt><trkpt lat="46.31375" lon="9.946117"><time>2021-07-03T05:53:11.000Z</time><ele>2107.6</ele></trkpt><trkpt lat="46.313764" lon="9.946162"><time>2021-07-03T05:53:14.000Z</time><ele>2107.6</ele></trkpt><trkpt lat="46.313767" lon="9.946166"><time>2021-07-03T05:53:15.000Z</time><ele>2107.6</ele></trkpt><trkpt lat="46.313764" lon="9.946182"><time>2021-07-03T05:53:17.000Z</time><ele>2107.6</ele></trkpt><trkpt lat="46.313766" lon="9.946185"><time>2021-07-03T05:53:18.000Z</time><ele>2107.8</ele></trkpt><trkpt lat="46.313756" lon="9.946206"><time>2021-07-03T05:53:24.000Z</time><ele>2107.8</ele></trkpt><trkpt lat="46.313767" lon="9.946184"><time>2021-07-03T05:53:30.000Z</time><ele>2107.6</ele></trkpt><trkpt lat="46.313767" lon="9.946184"><time>2021-07-03T05:53:37.000Z</time><ele>2107.6</ele></trkpt><trkpt lat="46.313755" lon="9.946254"><time>2021-07-03T05:53:45.000Z</time><ele>2108</ele></trkpt><trkpt lat="46.313734" lon="9.946326"><time>2021-07-03T05:53:51.000Z</time><ele>2109</ele></trkpt><trkpt lat="46.313731" lon="9.946334"><time>2021-07-03T05:53:53.000Z</time><ele>2109.2</ele></trkpt><trkpt lat="46.313706" lon="9.946358"><time>2021-07-03T05:53:59.000Z</time><ele>2110.2</ele></trkpt><trkpt lat="46.313693" lon="9.946376"><time>2021-07-03T05:54:02.000Z</time><ele>2110.6</ele></trkpt><trkpt lat="46.31367" lon="9.94641"><time>2021-07-03T05:54:06.000Z</time><ele>2111</ele></trkpt><trkpt lat="46.313671" lon="9.946409"><time>2021-07-03T05:54:08.000Z</time><ele>2111.2</ele></trkpt><trkpt lat="46.313674" lon="9.946421"><time>2021-07-03T05:54:13.000Z</time><ele>2112</ele></trkpt><trkpt lat="46.313664" lon="9.946433"><time>2021-07-03T05:54:15.000Z</time><ele>2112.4</ele></trkpt><trkpt lat="46.313656" lon="9.946475"><time>2021-07-03T05:54:20.000Z</time><ele>2113</ele></trkpt><trkpt lat="46.313633" lon="9.946514"><time>2021-07-03T05:54:23.000Z</time><ele>2113.4</ele></trkpt><trkpt lat="46.313607" lon="9.94655"><time>2021-07-03T05:54:27.000Z</time><ele>2113.8</ele></trkpt><trkpt lat="46.31361" lon="9.946557"><time>2021-07-03T05:54:31.000Z</time><ele>2114.4</ele></trkpt><trkpt lat="46.313608" lon="9.946566"><time>2021-07-03T05:54:32.000Z</time><ele>2114.6</ele></trkpt><trkpt lat="46.313591" lon="9.946626"><time>2021-07-03T05:54:39.000Z</time><ele>2115.2</ele></trkpt><trkpt lat="46.313584" lon="9.946634"><time>2021-07-03T05:54:40.000Z</time><ele>2115.6</ele></trkpt><trkpt lat="46.31357" lon="9.946673"><time>2021-07-03T05:54:47.000Z</time><ele>2116.6</ele></trkpt><trkpt lat="46.313566" lon="9.946693"><time>2021-07-03T05:54:48.000Z</time><ele>2116.6</ele></trkpt><trkpt lat="46.313536" lon="9.946803"><time>2021-07-03T05:54:54.000Z</time><ele>2117.4</ele></trkpt><trkpt lat="46.313506" lon="9.946818"><time>2021-07-03T05:54:56.000Z</time><ele>2117.6</ele></trkpt><trkpt lat="46.313503" lon="9.946815"><time>2021-07-03T05:54:59.000Z</time><ele>2118</ele></trkpt><trkpt lat="46.313491" lon="9.946847"><time>2021-07-03T05:55:04.000Z</time><ele>2118.4</ele></trkpt><trkpt lat="46.313488" lon="9.946856"><time>2021-07-03T05:55:05.000Z</time><ele>2118.6</ele></trkpt><trkpt lat="46.313481" lon="9.946882"><time>2021-07-03T05:55:08.000Z</time><ele>2118.6</ele></trkpt><trkpt lat="46.313477" lon="9.946891"><time>2021-07-03T05:55:09.000Z</time><ele>2118.8</ele></trkpt><trkpt lat="46.313471" lon="9.946911"><time>2021-07-03T05:55:11.000Z</time><ele>2119.2</ele></trkpt><trkpt lat="46.313448" lon="9.946924"><time>2021-07-03T05:55:18.000Z</time><ele>2119.8</ele></trkpt><trkpt lat="46.313449" lon="9.946933"><time>2021-07-03T05:55:19.000Z</time><ele>2120</ele></trkpt><trkpt lat="46.313459" lon="9.946956"><time>2021-07-03T05:55:25.000Z</time><ele>2120</ele></trkpt><trkpt lat="46.313468" lon="9.94696"><time>2021-07-03T05:55:31.000Z</time><ele>2120.2</ele></trkpt><trkpt lat="46.313464" lon="9.946977"><time>2021-07-03T05:55:34.000Z</time><ele>2120.4</ele></trkpt><trkpt lat="46.313454" lon="9.947047"><time>2021-07-03T05:55:38.000Z</time><ele>2120.8</ele></trkpt><trkpt lat="46.313454" lon="9.94709"><time>2021-07-03T05:55:40.000Z</time><ele>2121</ele></trkpt><trkpt lat="46.313429" lon="9.94712"><time>2021-07-03T05:55:41.000Z</time><ele>2121.2</ele></trkpt><trkpt lat="46.313405" lon="9.947181"><time>2021-07-03T05:55:45.000Z</time><ele>2122.2</ele></trkpt><trkpt lat="46.313392" lon="9.947215"><time>2021-07-03T05:55:47.000Z</time><ele>2122.4</ele></trkpt><trkpt lat="46.313379" lon="9.947278"><time>2021-07-03T05:55:52.000Z</time><ele>2123.2</ele></trkpt><trkpt lat="46.313375" lon="9.947286"><time>2021-07-03T05:55:53.000Z</time><ele>2123.4</ele></trkpt><trkpt lat="46.313365" lon="9.947305"><time>2021-07-03T05:55:55.000Z</time><ele>2123.8</ele></trkpt><trkpt lat="46.313365" lon="9.947319"><time>2021-07-03T05:55:58.000Z</time><ele>2124</ele></trkpt><trkpt lat="46.31338" lon="9.947325"><time>2021-07-03T05:56:00.000Z</time><ele>2124.2</ele></trkpt><trkpt lat="46.313382" lon="9.947326"><time>2021-07-03T05:56:01.000Z</time><ele>2124.2</ele></trkpt><trkpt lat="46.313384" lon="9.947318"><time>2021-07-03T05:56:06.000Z</time><ele>2124.4</ele></trkpt><trkpt lat="46.31339" lon="9.947317"><time>2021-07-03T05:56:09.000Z</time><ele>2124.6</ele></trkpt><trkpt lat="46.313384" lon="9.947318"><time>2021-07-03T05:56:13.000Z</time><ele>2124.6</ele></trkpt><trkpt lat="46.313384" lon="9.947326"><time>2021-07-03T05:56:21.000Z</time><ele>2124.6</ele></trkpt><trkpt lat="46.313383" lon="9.947409"><time>2021-07-03T05:56:25.000Z</time><ele>2125.4</ele></trkpt><trkpt lat="46.31338" lon="9.947504"><time>2021-07-03T05:56:29.000Z</time><ele>2126</ele></trkpt><trkpt lat="46.313377" lon="9.947541"><time>2021-07-03T05:56:32.000Z</time><ele>2126.4</ele></trkpt><trkpt lat="46.31337" lon="9.947594"><time>2021-07-03T05:56:37.000Z</time><ele>2127.4</ele></trkpt><trkpt lat="46.313368" lon="9.947601"><time>2021-07-03T05:56:38.000Z</time><ele>2127.6</ele></trkpt><trkpt lat="46.313363" lon="9.947626"><time>2021-07-03T05:56:41.000Z</time><ele>2128</ele></trkpt><trkpt lat="46.313375" lon="9.947656"><time>2021-07-03T05:56:45.000Z</time><ele>2128.6</ele></trkpt><trkpt lat="46.313389" lon="9.94766"><time>2021-07-03T05:56:47.000Z</time><ele>2128.8</ele></trkpt><trkpt lat="46.313404" lon="9.947666"><time>2021-07-03T05:56:50.000Z</time><ele>2128.8</ele></trkpt><trkpt lat="46.313415" lon="9.947652"><time>2021-07-03T05:56:56.000Z</time><ele>2128.8</ele></trkpt><trkpt lat="46.313413" lon="9.947654"><time>2021-07-03T05:57:00.000Z</time><ele>2128.6</ele></trkpt><trkpt lat="46.313413" lon="9.947654"><time>2021-07-03T05:57:03.000Z</time><ele>2128.6</ele></trkpt><trkpt lat="46.313413" lon="9.947654"><time>2021-07-03T05:57:11.000Z</time><ele>2128.6</ele></trkpt><trkpt lat="46.313433" lon="9.947596"><time>2021-07-03T05:57:17.000Z</time><ele>2128.6</ele></trkpt><trkpt lat="46.313439" lon="9.947582"><time>2021-07-03T05:57:18.000Z</time><ele>2128.6</ele></trkpt><trkpt lat="46.313464" lon="9.947533"><time>2021-07-03T05:57:21.000Z</time><ele>2128.6</ele></trkpt><trkpt lat="46.313489" lon="9.94746"><time>2021-07-03T05:57:26.000Z</time><ele>2128.8</ele></trkpt><trkpt lat="46.313498" lon="9.947437"><time>2021-07-03T05:57:28.000Z</time><ele>2128.8</ele></trkpt><trkpt lat="46.313536" lon="9.947311"><time>2021-07-03T05:57:38.000Z</time><ele>2128.8</ele></trkpt><trkpt lat="46.313552" lon="9.947273"><time>2021-07-03T05:57:41.000Z</time><ele>2128.8</ele></trkpt><trkpt lat="46.313566" lon="9.947232"><time>2021-07-03T05:57:44.000Z</time><ele>2129.4</ele></trkpt><trkpt lat="46.313585" lon="9.947188"><time>2021-07-03T05:57:47.000Z</time><ele>2129.4</ele></trkpt><trkpt lat="46.313589" lon="9.947123"><time>2021-07-03T05:57:52.000Z</time><ele>2129.4</ele></trkpt><trkpt lat="46.313594" lon="9.947103"><time>2021-07-03T05:57:53.000Z</time><ele>2129.4</ele></trkpt><trkpt lat="46.313608" lon="9.94707"><time>2021-07-03T05:57:55.000Z</time><ele>2129</ele></trkpt><trkpt lat="46.313664" lon="9.946902"><time>2021-07-03T05:58:06.000Z</time><ele>2128.6</ele></trkpt><trkpt lat="46.313701" lon="9.946779"><time>2021-07-03T05:58:14.000Z</time><ele>2128.6</ele></trkpt><trkpt lat="46.313707" lon="9.946766"><time>2021-07-03T05:58:15.000Z</time><ele>2128.6</ele></trkpt><trkpt lat="46.313731" lon="9.946678"><time>2021-07-03T05:58:21.000Z</time><ele>2128.8</ele></trkpt><trkpt lat="46.313778" lon="9.946552"><time>2021-07-03T05:58:31.000Z</time><ele>2128.8</ele></trkpt><trkpt lat="46.313789" lon="9.946463"><time>2021-07-03T05:58:38.000Z</time><ele>2128.6</ele></trkpt><trkpt lat="46.313774" lon="9.946471"><time>2021-07-03T05:58:39.000Z</time><ele>2128.6</ele></trkpt><trkpt lat="46.31377" lon="9.946474"><time>2021-07-03T05:58:40.000Z</time><ele>2128.6</ele></trkpt><trkpt lat="46.313776" lon="9.946456"><time>2021-07-03T05:58:49.000Z</time><ele>2128.6</ele></trkpt><trkpt lat="46.31384" lon="9.946357"><time>2021-07-03T05:59:00.000Z</time><ele>2128.6</ele></trkpt><trkpt lat="46.313853" lon="9.946319"><time>2021-07-03T05:59:03.000Z</time><ele>2128.6</ele></trkpt><trkpt lat="46.31388" lon="9.946243"><time>2021-07-03T05:59:08.000Z</time><ele>2128.6</ele></trkpt><trkpt lat="46.313928" lon="9.946135"><time>2021-07-03T05:59:15.000Z</time><ele>2128.6</ele></trkpt><trkpt lat="46.313939" lon="9.946102"><time>2021-07-03T05:59:17.000Z</time><ele>2128.6</ele></trkpt><trkpt lat="46.313979" lon="9.945978"><time>2021-07-03T05:59:26.000Z</time><ele>2128.6</ele></trkpt><trkpt lat="46.314026" lon="9.945882"><time>2021-07-03T05:59:32.000Z</time><ele>2128.6</ele></trkpt><trkpt lat="46.314045" lon="9.945842"><time>2021-07-03T05:59:35.000Z</time><ele>2128.6</ele></trkpt><trkpt lat="46.314069" lon="9.945736"><time>2021-07-03T05:59:43.000Z</time><ele>2128.6</ele></trkpt><trkpt lat="46.314116" lon="9.945645"><time>2021-07-03T05:59:51.000Z</time><ele>2128.4</ele></trkpt><trkpt lat="46.31414" lon="9.945539"><time>2021-07-03T05:59:58.000Z</time><ele>2128.4</ele></trkpt><trkpt lat="46.314164" lon="9.945428"><time>2021-07-03T06:00:06.000Z</time><ele>2128.4</ele></trkpt><trkpt lat="46.314159" lon="9.945352"><time>2021-07-03T06:00:13.000Z</time><ele>2128.6</ele></trkpt><trkpt lat="46.314165" lon="9.945336"><time>2021-07-03T06:00:14.000Z</time><ele>2128.6</ele></trkpt><trkpt lat="46.314162" lon="9.945327"><time>2021-07-03T06:00:15.000Z</time><ele>2128.4</ele></trkpt><trkpt lat="46.314169" lon="9.945295"><time>2021-07-03T06:00:17.000Z</time><ele>2128.4</ele></trkpt><trkpt lat="46.314189" lon="9.945257"><time>2021-07-03T06:00:19.000Z</time><ele>2128.4</ele></trkpt><trkpt lat="46.314193" lon="9.945242"><time>2021-07-03T06:00:20.000Z</time><ele>2128.6</ele></trkpt><trkpt lat="46.314234" lon="9.945147"><time>2021-07-03T06:00:26.000Z</time><ele>2128.4</ele></trkpt><trkpt lat="46.314258" lon="9.945067"><time>2021-07-03T06:00:31.000Z</time><ele>2128.4</ele></trkpt><trkpt lat="46.314264" lon="9.945056"><time>2021-07-03T06:00:32.000Z</time><ele>2128.4</ele></trkpt><trkpt lat="46.314267" lon="9.945031"><time>2021-07-03T06:00:34.000Z</time><ele>2128.4</ele></trkpt><trkpt lat="46.314278" lon="9.945004"><time>2021-07-03T06:00:36.000Z</time><ele>2128.4</ele></trkpt><trkpt lat="46.314286" lon="9.944993"><time>2021-07-03T06:00:37.000Z</time><ele>2128.4</ele></trkpt><trkpt lat="46.314311" lon="9.944948"><time>2021-07-03T06:00:40.000Z</time><ele>2128.4</ele></trkpt><trkpt lat="46.314318" lon="9.944924"><time>2021-07-03T06:00:42.000Z</time><ele>2128.4</ele></trkpt><trkpt lat="46.314338" lon="9.944858"><time>2021-07-03T06:00:46.000Z</time><ele>2128.4</ele></trkpt><trkpt lat="46.314385" lon="9.94477"><time>2021-07-03T06:00:52.000Z</time><ele>2128.4</ele></trkpt><trkpt lat="46.314391" lon="9.944756"><time>2021-07-03T06:00:53.000Z</time><ele>2128.4</ele></trkpt><trkpt lat="46.314434" lon="9.944638"><time>2021-07-03T06:01:01.000Z</time><ele>2128.4</ele></trkpt><trkpt lat="46.314458" lon="9.94458"><time>2021-07-03T06:01:05.000Z</time><ele>2128.2</ele></trkpt><trkpt lat="46.314466" lon="9.944509"><time>2021-07-03T06:01:10.000Z</time><ele>2128.2</ele></trkpt><trkpt lat="46.314469" lon="9.944495"><time>2021-07-03T06:01:11.000Z</time><ele>2128.4</ele></trkpt><trkpt lat="46.31449" lon="9.944454"><time>2021-07-03T06:01:14.000Z</time><ele>2128.2</ele></trkpt><trkpt lat="46.314505" lon="9.944397"><time>2021-07-03T06:01:18.000Z</time><ele>2128</ele></trkpt><trkpt lat="46.314517" lon="9.944359"><time>2021-07-03T06:01:21.000Z</time><ele>2128</ele></trkpt><trkpt lat="46.314535" lon="9.944307"><time>2021-07-03T06:01:25.000Z</time><ele>2128</ele></trkpt><trkpt lat="46.31457" lon="9.944228"><time>2021-07-03T06:01:30.000Z</time><ele>2128.2</ele></trkpt><trkpt lat="46.31461" lon="9.944106"><time>2021-07-03T06:01:38.000Z</time><ele>2128</ele></trkpt><trkpt lat="46.31466" lon="9.943991"><time>2021-07-03T06:01:46.000Z</time><ele>2128</ele></trkpt><trkpt lat="46.314665" lon="9.943977"><time>2021-07-03T06:01:47.000Z</time><ele>2128</ele></trkpt><trkpt lat="46.314681" lon="9.943928"><time>2021-07-03T06:01:51.000Z</time><ele>2128</ele></trkpt><trkpt lat="46.314703" lon="9.943847"><time>2021-07-03T06:01:57.000Z</time><ele>2128</ele></trkpt><trkpt lat="46.314712" lon="9.943815"><time>2021-07-03T06:01:59.000Z</time><ele>2128</ele></trkpt><trkpt lat="46.314732" lon="9.943715"><time>2021-07-03T06:02:06.000Z</time><ele>2128</ele></trkpt><trkpt lat="46.314747" lon="9.943659"><time>2021-07-03T06:02:10.000Z</time><ele>2128</ele></trkpt><trkpt lat="46.314757" lon="9.943621"><time>2021-07-03T06:02:13.000Z</time><ele>2128</ele></trkpt><trkpt lat="46.314783" lon="9.943567"><time>2021-07-03T06:02:17.000Z</time><ele>2128</ele></trkpt><trkpt lat="46.314824" lon="9.943489"><time>2021-07-03T06:02:22.000Z</time><ele>2128.2</ele></trkpt><trkpt lat="46.314841" lon="9.943445"><time>2021-07-03T06:02:25.000Z</time><ele>2128.2</ele></trkpt><trkpt lat="46.314842" lon="9.943404"><time>2021-07-03T06:02:28.000Z</time><ele>2128.2</ele></trkpt><trkpt lat="46.314828" lon="9.943381"><time>2021-07-03T06:02:32.000Z</time><ele>2128.2</ele></trkpt><trkpt lat="46.314832" lon="9.943378"><time>2021-07-03T06:02:34.000Z</time><ele>2128.2</ele></trkpt><trkpt lat="46.314853" lon="9.94332"><time>2021-07-03T06:02:38.000Z</time><ele>2128</ele></trkpt><trkpt lat="46.314907" lon="9.94322"><time>2021-07-03T06:02:45.000Z</time><ele>2128.2</ele></trkpt><trkpt lat="46.314934" lon="9.943093"><time>2021-07-03T06:02:55.000Z</time><ele>2128</ele></trkpt><trkpt lat="46.31494" lon="9.943079"><time>2021-07-03T06:02:56.000Z</time><ele>2128</ele></trkpt><trkpt lat="46.31498" lon="9.943002"><time>2021-07-03T06:03:01.000Z</time><ele>2128</ele></trkpt><trkpt lat="46.314987" lon="9.94297"><time>2021-07-03T06:03:04.000Z</time><ele>2128</ele></trkpt><trkpt lat="46.315013" lon="9.942885"><time>2021-07-03T06:03:11.000Z</time><ele>2128</ele></trkpt><trkpt lat="46.315036" lon="9.942855"><time>2021-07-03T06:03:13.000Z</time><ele>2128.2</ele></trkpt><trkpt lat="46.315087" lon="9.942698"><time>2021-07-03T06:03:23.000Z</time><ele>2128</ele></trkpt><trkpt lat="46.315116" lon="9.942629"><time>2021-07-03T06:03:28.000Z</time><ele>2128.2</ele></trkpt><trkpt lat="46.315115" lon="9.942599"><time>2021-07-03T06:03:30.000Z</time><ele>2128.2</ele></trkpt><trkpt lat="46.315113" lon="9.942583"><time>2021-07-03T06:03:31.000Z</time><ele>2128.2</ele></trkpt><trkpt lat="46.31511" lon="9.942582"><time>2021-07-03T06:03:32.000Z</time><ele>2128.2</ele></trkpt><trkpt lat="46.315107" lon="9.942584"><time>2021-07-03T06:03:33.000Z</time><ele>2128.2</ele></trkpt><trkpt lat="46.315112" lon="9.942586"><time>2021-07-03T06:03:34.000Z</time><ele>2128.2</ele></trkpt><trkpt lat="46.31511" lon="9.942599"><time>2021-07-03T06:03:36.000Z</time><ele>2128.2</ele></trkpt><trkpt lat="46.315108" lon="9.94261"><time>2021-07-03T06:03:37.000Z</time><ele>2128</ele></trkpt><trkpt lat="46.315094" lon="9.942642"><time>2021-07-03T06:03:41.000Z</time><ele>2128.2</ele></trkpt><trkpt lat="46.315091" lon="9.942632"><time>2021-07-03T06:03:43.000Z</time><ele>2128.2</ele></trkpt><trkpt lat="46.315089" lon="9.94263"><time>2021-07-03T06:03:44.000Z</time><ele>2128.2</ele></trkpt><trkpt lat="46.315089" lon="9.942631"><time>2021-07-03T06:03:45.000Z</time><ele>2128.2</ele></trkpt><trkpt lat="46.315082" lon="9.942644"><time>2021-07-03T06:03:47.000Z</time><ele>2128</ele></trkpt><trkpt lat="46.315082" lon="9.942644"><time>2021-07-03T06:03:50.000Z</time><ele>2128</ele></trkpt><trkpt lat="46.315102" lon="9.942604"><time>2021-07-03T06:03:55.000Z</time><ele>2128.2</ele></trkpt><trkpt lat="46.315131" lon="9.942479"><time>2021-07-03T06:04:01.000Z</time><ele>2128.2</ele></trkpt><trkpt lat="46.315169" lon="9.942422"><time>2021-07-03T06:04:06.000Z</time><ele>2128.4</ele></trkpt><trkpt lat="46.315186" lon="9.942371"><time>2021-07-03T06:04:10.000Z</time><ele>2128.2</ele></trkpt><trkpt lat="46.315213" lon="9.942315"><time>2021-07-03T06:04:14.000Z</time><ele>2128</ele></trkpt><trkpt lat="46.315236" lon="9.942251"><time>2021-07-03T06:04:18.000Z</time><ele>2128.2</ele></trkpt><trkpt lat="46.31527" lon="9.942151"><time>2021-07-03T06:04:24.000Z</time><ele>2128.2</ele></trkpt><trkpt lat="46.31531" lon="9.942039"><time>2021-07-03T06:04:31.000Z</time><ele>2128.2</ele></trkpt><trkpt lat="46.315316" lon="9.942026"><time>2021-07-03T06:04:32.000Z</time><ele>2128.2</ele></trkpt><trkpt lat="46.315335" lon="9.941973"><time>2021-07-03T06:04:35.000Z</time><ele>2128.2</ele></trkpt><trkpt lat="46.315359" lon="9.941885"><time>2021-07-03T06:04:42.000Z</time><ele>2128.2</ele></trkpt><trkpt lat="46.315366" lon="9.941862"><time>2021-07-03T06:04:44.000Z</time><ele>2128.2</ele></trkpt><trkpt lat="46.315364" lon="9.941858"><time>2021-07-03T06:04:45.000Z</time><ele>2128.2</ele></trkpt><trkpt lat="46.315389" lon="9.941752"><time>2021-07-03T06:04:54.000Z</time><ele>2128.2</ele></trkpt><trkpt lat="46.31541" lon="9.941706"><time>2021-07-03T06:04:57.000Z</time><ele>2128.2</ele></trkpt><trkpt lat="46.315415" lon="9.941694"><time>2021-07-03T06:04:58.000Z</time><ele>2128.2</ele></trkpt><trkpt lat="46.31543" lon="9.941654"><time>2021-07-03T06:05:02.000Z</time><ele>2128.2</ele></trkpt><trkpt lat="46.315448" lon="9.941645"><time>2021-07-03T06:05:04.000Z</time><ele>2128.4</ele></trkpt><trkpt lat="46.315451" lon="9.941654"><time>2021-07-03T06:05:05.000Z</time><ele>2128.4</ele></trkpt><trkpt lat="46.315479" lon="9.941622"><time>2021-07-03T06:05:08.000Z</time><ele>2128.4</ele></trkpt><trkpt lat="46.315489" lon="9.941646"><time>2021-07-03T06:05:10.000Z</time><ele>2128.4</ele></trkpt><trkpt lat="46.3155" lon="9.941637"><time>2021-07-03T06:05:11.000Z</time><ele>2128.4</ele></trkpt><trkpt lat="46.315508" lon="9.941649"><time>2021-07-03T06:05:13.000Z</time><ele>2128.4</ele></trkpt><trkpt lat="46.315601" lon="9.941577"><time>2021-07-03T06:05:21.000Z</time><ele>2128.4</ele></trkpt><trkpt lat="46.31562" lon="9.941562"><time>2021-07-03T06:05:23.000Z</time><ele>2128.4</ele></trkpt><trkpt lat="46.315648" lon="9.941531"><time>2021-07-03T06:05:26.000Z</time><ele>2128.4</ele></trkpt><trkpt lat="46.31569" lon="9.941491"><time>2021-07-03T06:05:32.000Z</time><ele>2128.6</ele></trkpt><trkpt lat="46.315736" lon="9.941485"><time>2021-07-03T06:05:36.000Z</time><ele>2128.6</ele></trkpt><trkpt lat="46.315747" lon="9.941483"><time>2021-07-03T06:05:37.000Z</time><ele>2128.6</ele></trkpt><trkpt lat="46.31576" lon="9.94148"><time>2021-07-03T06:05:38.000Z</time><ele>2128.8</ele></trkpt><trkpt lat="46.315773" lon="9.941475"><time>2021-07-03T06:05:40.000Z</time><ele>2129</ele></trkpt><trkpt lat="46.315816" lon="9.941464"><time>2021-07-03T06:05:46.000Z</time><ele>2129.2</ele></trkpt><trkpt lat="46.315849" lon="9.941458"><time>2021-07-03T06:05:49.000Z</time><ele>2129.2</ele></trkpt><trkpt lat="46.315864" lon="9.941457"><time>2021-07-03T06:05:52.000Z</time><ele>2129.2</ele></trkpt><trkpt lat="46.315883" lon="9.941468"><time>2021-07-03T06:05:54.000Z</time><ele>2129.2</ele></trkpt><trkpt lat="46.315908" lon="9.941462"><time>2021-07-03T06:05:56.000Z</time><ele>2129</ele></trkpt><trkpt lat="46.315966" lon="9.941455"><time>2021-07-03T06:06:01.000Z</time><ele>2128.8</ele></trkpt><trkpt lat="46.315992" lon="9.941462"><time>2021-07-03T06:06:04.000Z</time><ele>2128.8</ele></trkpt><trkpt lat="46.316029" lon="9.941484"><time>2021-07-03T06:06:08.000Z</time><ele>2128.4</ele></trkpt><trkpt lat="46.316124" lon="9.941417"><time>2021-07-03T06:06:17.000Z</time><ele>2128</ele></trkpt><trkpt lat="46.316184" lon="9.941437"><time>2021-07-03T06:06:24.000Z</time><ele>2128</ele></trkpt><trkpt lat="46.31619" lon="9.941423"><time>2021-07-03T06:06:25.000Z</time><ele>2128</ele></trkpt><trkpt lat="46.316207" lon="9.941406"><time>2021-07-03T06:06:27.000Z</time><ele>2128.2</ele></trkpt><trkpt lat="46.316215" lon="9.941403"><time>2021-07-03T06:06:28.000Z</time><ele>2128.2</ele></trkpt><trkpt lat="46.316238" lon="9.94139"><time>2021-07-03T06:06:31.000Z</time><ele>2128.2</ele></trkpt><trkpt lat="46.316268" lon="9.94139"><time>2021-07-03T06:06:34.000Z</time><ele>2128</ele></trkpt><trkpt lat="46.31628" lon="9.941395"><time>2021-07-03T06:06:35.000Z</time><ele>2128</ele></trkpt><trkpt lat="46.316347" lon="9.941414"><time>2021-07-03T06:06:40.000Z</time><ele>2128.2</ele></trkpt><trkpt lat="46.316408" lon="9.941417"><time>2021-07-03T06:06:44.000Z</time><ele>2128.2</ele></trkpt><trkpt lat="46.316448" lon="9.941417"><time>2021-07-03T06:06:47.000Z</time><ele>2128</ele></trkpt><trkpt lat="46.316459" lon="9.94141"><time>2021-07-03T06:06:49.000Z</time><ele>2128</ele></trkpt><trkpt lat="46.316513" lon="9.941389"><time>2021-07-03T06:06:54.000Z</time><ele>2128</ele></trkpt><trkpt lat="46.316538" lon="9.941381"><time>2021-07-03T06:06:59.000Z</time><ele>2128.4</ele></trkpt><trkpt lat="46.31655" lon="9.941371"><time>2021-07-03T06:07:01.000Z</time><ele>2128.6</ele></trkpt><trkpt lat="46.316586" lon="9.941348"><time>2021-07-03T06:07:08.000Z</time><ele>2129.8</ele></trkpt><trkpt lat="46.316589" lon="9.941344"><time>2021-07-03T06:07:09.000Z</time><ele>2130</ele></trkpt><trkpt lat="46.316605" lon="9.94133"><time>2021-07-03T06:07:10.000Z</time><ele>2130</ele></trkpt><trkpt lat="46.316613" lon="9.941321"><time>2021-07-03T06:07:11.000Z</time><ele>2130.2</ele></trkpt><trkpt lat="46.316636" lon="9.941317"><time>2021-07-03T06:07:13.000Z</time><ele>2130.6</ele></trkpt><trkpt lat="46.316651" lon="9.941307"><time>2021-07-03T06:07:15.000Z</time><ele>2131</ele></trkpt><trkpt lat="46.316677" lon="9.9413"><time>2021-07-03T06:07:19.000Z</time><ele>2131.8</ele></trkpt><trkpt lat="46.316693" lon="9.941304"><time>2021-07-03T06:07:22.000Z</time><ele>2132.2</ele></trkpt><trkpt lat="46.31671" lon="9.941295"><time>2021-07-03T06:07:25.000Z</time><ele>2132.6</ele></trkpt><trkpt lat="46.316713" lon="9.941291"><time>2021-07-03T06:07:27.000Z</time><ele>2133</ele></trkpt><trkpt lat="46.31672" lon="9.941288"><time>2021-07-03T06:07:29.000Z</time><ele>2133.2</ele></trkpt><trkpt lat="46.316764" lon="9.94128"><time>2021-07-03T06:07:33.000Z</time><ele>2134</ele></trkpt><trkpt lat="46.316774" lon="9.941274"><time>2021-07-03T06:07:34.000Z</time><ele>2134.2</ele></trkpt><trkpt lat="46.316778" lon="9.941265"><time>2021-07-03T06:07:35.000Z</time><ele>2134.4</ele></trkpt><trkpt lat="46.316799" lon="9.941257"><time>2021-07-03T06:07:39.000Z</time><ele>2135</ele></trkpt><trkpt lat="46.316807" lon="9.94126"><time>2021-07-03T06:07:40.000Z</time><ele>2135</ele></trkpt><trkpt lat="46.316817" lon="9.941264"><time>2021-07-03T06:07:42.000Z</time><ele>2135.4</ele></trkpt><trkpt lat="46.316876" lon="9.941257"><time>2021-07-03T06:07:50.000Z</time><ele>2136.4</ele></trkpt><trkpt lat="46.316882" lon="9.94125"><time>2021-07-03T06:07:51.000Z</time><ele>2136.6</ele></trkpt><trkpt lat="46.316875" lon="9.941262"><time>2021-07-03T06:07:56.000Z</time><ele>2137</ele></trkpt><trkpt lat="46.31691" lon="9.941219"><time>2021-07-03T06:08:02.000Z</time><ele>2137.6</ele></trkpt><trkpt lat="46.316911" lon="9.941221"><time>2021-07-03T06:08:03.000Z</time><ele>2137.6</ele></trkpt><trkpt lat="46.316927" lon="9.94121"><time>2021-07-03T06:08:08.000Z</time><ele>2138.2</ele></trkpt><trkpt lat="46.31695" lon="9.941215"><time>2021-07-03T06:08:11.000Z</time><ele>2138.6</ele></trkpt><trkpt lat="46.316953" lon="9.941208"><time>2021-07-03T06:08:12.000Z</time><ele>2139</ele></trkpt><trkpt lat="46.316962" lon="9.9412"><time>2021-07-03T06:08:15.000Z</time><ele>2139.8</ele></trkpt><trkpt lat="46.316966" lon="9.941198"><time>2021-07-03T06:08:16.000Z</time><ele>2140</ele></trkpt><trkpt lat="46.31699" lon="9.941184"><time>2021-07-03T06:08:21.000Z</time><ele>2140.8</ele></trkpt><trkpt lat="46.317002" lon="9.941175"><time>2021-07-03T06:08:23.000Z</time><ele>2141.2</ele></trkpt><trkpt lat="46.317026" lon="9.941163"><time>2021-07-03T06:08:29.000Z</time><ele>2141.8</ele></trkpt><trkpt lat="46.317034" lon="9.941151"><time>2021-07-03T06:08:30.000Z</time><ele>2141.8</ele></trkpt><trkpt lat="46.317082" lon="9.941112"><time>2021-07-03T06:08:37.000Z</time><ele>2142.8</ele></trkpt><trkpt lat="46.317098" lon="9.941106"><time>2021-07-03T06:08:40.000Z</time><ele>2143.4</ele></trkpt><trkpt lat="46.317127" lon="9.94107"><time>2021-07-03T06:08:44.000Z</time><ele>2144</ele></trkpt><trkpt lat="46.317158" lon="9.941046"><time>2021-07-03T06:08:48.000Z</time><ele>2144.6</ele></trkpt><trkpt lat="46.317158" lon="9.941032"><time>2021-07-03T06:08:50.000Z</time><ele>2145</ele></trkpt><trkpt lat="46.317145" lon="9.941009"><time>2021-07-03T06:08:54.000Z</time><ele>2145.4</ele></trkpt><trkpt lat="46.317129" lon="9.941005"><time>2021-07-03T06:08:59.000Z</time><ele>2146.2</ele></trkpt><trkpt lat="46.3171" lon="9.941009"><time>2021-07-03T06:09:04.000Z</time><ele>2147</ele></trkpt><trkpt lat="46.317099" lon="9.941006"><time>2021-07-03T06:09:05.000Z</time><ele>2147.2</ele></trkpt><trkpt lat="46.317061" lon="9.941021"><time>2021-07-03T06:09:09.000Z</time><ele>2147.6</ele></trkpt><trkpt lat="46.317037" lon="9.94104"><time>2021-07-03T06:09:12.000Z</time><ele>2148.2</ele></trkpt><trkpt lat="46.317015" lon="9.941036"><time>2021-07-03T06:09:16.000Z</time><ele>2148.6</ele></trkpt><trkpt lat="46.316992" lon="9.941039"><time>2021-07-03T06:09:20.000Z</time><ele>2149.2</ele></trkpt><trkpt lat="46.316967" lon="9.941057"><time>2021-07-03T06:09:22.000Z</time><ele>2149.6</ele></trkpt><trkpt lat="46.316941" lon="9.941061"><time>2021-07-03T06:09:24.000Z</time><ele>2149.6</ele></trkpt><trkpt lat="46.316929" lon="9.941064"><time>2021-07-03T06:09:26.000Z</time><ele>2149.8</ele></trkpt><trkpt lat="46.316915" lon="9.941076"><time>2021-07-03T06:09:28.000Z</time><ele>2150.2</ele></trkpt><trkpt lat="46.316913" lon="9.941075"><time>2021-07-03T06:09:29.000Z</time><ele>2150.4</ele></trkpt><trkpt lat="46.31689" lon="9.94104"><time>2021-07-03T06:09:35.000Z</time><ele>2151</ele></trkpt><trkpt lat="46.316871" lon="9.94104"><time>2021-07-03T06:09:37.000Z</time><ele>2151.4</ele></trkpt><trkpt lat="46.316856" lon="9.94102"><time>2021-07-03T06:09:42.000Z</time><ele>2152</ele></trkpt><trkpt lat="46.316856" lon="9.941011"><time>2021-07-03T06:09:44.000Z</time><ele>2152.4</ele></trkpt><trkpt lat="46.316856" lon="9.940991"><time>2021-07-03T06:09:48.000Z</time><ele>2153</ele></trkpt><trkpt lat="46.316866" lon="9.940996"><time>2021-07-03T06:09:51.000Z</time><ele>2153.4</ele></trkpt><trkpt lat="46.316873" lon="9.940997"><time>2021-07-03T06:09:52.000Z</time><ele>2153.4</ele></trkpt><trkpt lat="46.316894" lon="9.941002"><time>2021-07-03T06:09:56.000Z</time><ele>2154.2</ele></trkpt><trkpt lat="46.316906" lon="9.940997"><time>2021-07-03T06:09:58.000Z</time><ele>2154.6</ele></trkpt><trkpt lat="46.316927" lon="9.940983"><time>2021-07-03T06:10:01.000Z</time><ele>2155</ele></trkpt><trkpt lat="46.316967" lon="9.940949"><time>2021-07-03T06:10:06.000Z</time><ele>2155.8</ele></trkpt><trkpt lat="46.31697" lon="9.940939"><time>2021-07-03T06:10:07.000Z</time><ele>2155.8</ele></trkpt><trkpt lat="46.316976" lon="9.940935"><time>2021-07-03T06:10:13.000Z</time><ele>2156.4</ele></trkpt><trkpt lat="46.316999" lon="9.940918"><time>2021-07-03T06:10:17.000Z</time><ele>2156.8</ele></trkpt><trkpt lat="46.317013" lon="9.940909"><time>2021-07-03T06:10:20.000Z</time><ele>2157</ele></trkpt><trkpt lat="46.31704" lon="9.94089"><time>2021-07-03T06:10:27.000Z</time><ele>2158</ele></trkpt><trkpt lat="46.317042" lon="9.940892"><time>2021-07-03T06:10:28.000Z</time><ele>2158</ele></trkpt><trkpt lat="46.317059" lon="9.940888"><time>2021-07-03T06:10:34.000Z</time><ele>2158.8</ele></trkpt><trkpt lat="46.317069" lon="9.940892"><time>2021-07-03T06:10:35.000Z</time><ele>2159</ele></trkpt><trkpt lat="46.3171" lon="9.940897"><time>2021-07-03T06:10:41.000Z</time><ele>2160.2</ele></trkpt><trkpt lat="46.317122" lon="9.94092"><time>2021-07-03T06:10:46.000Z</time><ele>2160.6</ele></trkpt><trkpt lat="46.317121" lon="9.940933"><time>2021-07-03T06:10:48.000Z</time><ele>2161</ele></trkpt><trkpt lat="46.317134" lon="9.940933"><time>2021-07-03T06:10:51.000Z</time><ele>2161.2</ele></trkpt><trkpt lat="46.31714" lon="9.940931"><time>2021-07-03T06:10:53.000Z</time><ele>2161.4</ele></trkpt><trkpt lat="46.317154" lon="9.940935"><time>2021-07-03T06:11:00.000Z</time><ele>2161.6</ele></trkpt><trkpt lat="46.31715" lon="9.940937"><time>2021-07-03T06:11:17.000Z</time><ele>2162.2</ele></trkpt><trkpt lat="46.31715" lon="9.940939"><time>2021-07-03T06:11:20.000Z</time><ele>2162.8</ele></trkpt><trkpt lat="46.317156" lon="9.940939"><time>2021-07-03T06:11:24.000Z</time><ele>2163.2</ele></trkpt><trkpt lat="46.317242" lon="9.94094"><time>2021-07-03T06:11:30.000Z</time><ele>2164</ele></trkpt><trkpt lat="46.317351" lon="9.940938"><time>2021-07-03T06:11:35.000Z</time><ele>2164.2</ele></trkpt><trkpt lat="46.317405" lon="9.940914"><time>2021-07-03T06:11:39.000Z</time><ele>2164.4</ele></trkpt><trkpt lat="46.317461" lon="9.940865"><time>2021-07-03T06:11:45.000Z</time><ele>2165.2</ele></trkpt><trkpt lat="46.317478" lon="9.940847"><time>2021-07-03T06:11:47.000Z</time><ele>2165.2</ele></trkpt><trkpt lat="46.317539" lon="9.940785"><time>2021-07-03T06:11:55.000Z</time><ele>2166.2</ele></trkpt><trkpt lat="46.317545" lon="9.940784"><time>2021-07-03T06:11:56.000Z</time><ele>2166.2</ele></trkpt><trkpt lat="46.317574" lon="9.940777"><time>2021-07-03T06:11:59.000Z</time><ele>2166.4</ele></trkpt><trkpt lat="46.317594" lon="9.940785"><time>2021-07-03T06:12:02.000Z</time><ele>2166.6</ele></trkpt><trkpt lat="46.317607" lon="9.940806"><time>2021-07-03T06:12:04.000Z</time><ele>2166.6</ele></trkpt><trkpt lat="46.31763" lon="9.94082"><time>2021-07-03T06:12:06.000Z</time><ele>2166.4</ele></trkpt><trkpt lat="46.317658" lon="9.940859"><time>2021-07-03T06:12:11.000Z</time><ele>2166.8</ele></trkpt><trkpt lat="46.317668" lon="9.940915"><time>2021-07-03T06:12:15.000Z</time><ele>2167.4</ele></trkpt><trkpt lat="46.317669" lon="9.940929"><time>2021-07-03T06:12:16.000Z</time><ele>2167.6</ele></trkpt><trkpt lat="46.317699" lon="9.940968"><time>2021-07-03T06:12:20.000Z</time><ele>2168.2</ele></trkpt><trkpt lat="46.317718" lon="9.941"><time>2021-07-03T06:12:24.000Z</time><ele>2168.6</ele></trkpt><trkpt lat="46.31771" lon="9.941067"><time>2021-07-03T06:12:29.000Z</time><ele>2169.4</ele></trkpt><trkpt lat="46.317706" lon="9.94109"><time>2021-07-03T06:12:30.000Z</time><ele>2169.6</ele></trkpt><trkpt lat="46.317711" lon="9.941098"><time>2021-07-03T06:12:31.000Z</time><ele>2169.8</ele></trkpt><trkpt lat="46.317741" lon="9.94111"><time>2021-07-03T06:12:34.000Z</time><ele>2170.2</ele></trkpt><trkpt lat="46.317756" lon="9.941119"><time>2021-07-03T06:12:36.000Z</time><ele>2170.2</ele></trkpt><trkpt lat="46.31776" lon="9.941121"><time>2021-07-03T06:12:38.000Z</time><ele>2170.2</ele></trkpt><trkpt lat="46.317755" lon="9.941112"><time>2021-07-03T06:12:41.000Z</time><ele>2170.2</ele></trkpt><trkpt lat="46.317757" lon="9.941116"><time>2021-07-03T06:12:43.000Z</time><ele>2170.2</ele></trkpt><trkpt lat="46.317746" lon="9.94114"><time>2021-07-03T06:12:46.000Z</time><ele>2170.2</ele></trkpt><trkpt lat="46.317741" lon="9.941155"><time>2021-07-03T06:12:49.000Z</time><ele>2170.2</ele></trkpt><trkpt lat="46.317745" lon="9.94115"><time>2021-07-03T06:12:53.000Z</time><ele>2170.2</ele></trkpt><trkpt lat="46.317745" lon="9.94115"><time>2021-07-03T06:13:01.000Z</time><ele>2170</ele></trkpt><trkpt lat="46.31776" lon="9.941124"><time>2021-07-03T06:13:24.000Z</time><ele>2170</ele></trkpt><trkpt lat="46.317764" lon="9.941123"><time>2021-07-03T06:13:31.000Z</time><ele>2169.8</ele></trkpt><trkpt lat="46.317769" lon="9.941122"><time>2021-07-03T06:13:39.000Z</time><ele>2170</ele></trkpt><trkpt lat="46.31777" lon="9.941096"><time>2021-07-03T06:14:18.000Z</time><ele>2169.8</ele></trkpt><trkpt lat="46.317769" lon="9.941098"><time>2021-07-03T06:14:20.000Z</time><ele>2169.8</ele></trkpt><trkpt lat="46.317803" lon="9.941066"><time>2021-07-03T06:14:33.000Z</time><ele>2169.8</ele></trkpt><trkpt lat="46.317818" lon="9.941038"><time>2021-07-03T06:14:38.000Z</time><ele>2169.8</ele></trkpt><trkpt lat="46.317811" lon="9.941035"><time>2021-07-03T06:14:42.000Z</time><ele>2169.8</ele></trkpt><trkpt lat="46.317812" lon="9.941043"><time>2021-07-03T06:14:44.000Z</time><ele>2169.8</ele></trkpt><trkpt lat="46.317802" lon="9.941049"><time>2021-07-03T06:14:45.000Z</time><ele>2169.8</ele></trkpt><trkpt lat="46.317798" lon="9.941046"><time>2021-07-03T06:14:48.000Z</time><ele>2169.8</ele></trkpt><trkpt lat="46.317803" lon="9.941042"><time>2021-07-03T06:14:55.000Z</time><ele>2169.8</ele></trkpt><trkpt lat="46.317794" lon="9.941052"><time>2021-07-03T06:15:21.000Z</time><ele>2169.8</ele></trkpt><trkpt lat="46.317794" lon="9.941052"><time>2021-07-03T06:15:22.000Z</time><ele>2169.8</ele></trkpt><trkpt lat="46.317844" lon="9.941092"><time>2021-07-03T06:15:52.000Z</time><ele>2169.8</ele></trkpt><trkpt lat="46.317861" lon="9.941123"><time>2021-07-03T06:15:54.000Z</time><ele>2169.8</ele></trkpt><trkpt lat="46.317883" lon="9.94114"><time>2021-07-03T06:15:56.000Z</time><ele>2169.8</ele></trkpt><trkpt lat="46.317896" lon="9.941199"><time>2021-07-03T06:16:00.000Z</time><ele>2170.6</ele></trkpt><trkpt lat="46.317903" lon="9.941202"><time>2021-07-03T06:16:02.000Z</time><ele>2171</ele></trkpt><trkpt lat="46.317942" lon="9.941228"><time>2021-07-03T06:16:09.000Z</time><ele>2171</ele></trkpt><trkpt lat="46.317959" lon="9.941223"><time>2021-07-03T06:16:12.000Z</time><ele>2170.6</ele></trkpt><trkpt lat="46.317987" lon="9.941213"><time>2021-07-03T06:16:15.000Z</time><ele>2170.6</ele></trkpt><trkpt lat="46.318016" lon="9.941214"><time>2021-07-03T06:16:20.000Z</time><ele>2169.8</ele></trkpt><trkpt lat="46.318024" lon="9.941206"><time>2021-07-03T06:16:21.000Z</time><ele>2169.8</ele></trkpt><trkpt lat="46.318036" lon="9.941198"><time>2021-07-03T06:16:23.000Z</time><ele>2169.4</ele></trkpt><trkpt lat="46.318046" lon="9.94119"><time>2021-07-03T06:16:25.000Z</time><ele>2169.2</ele></trkpt><trkpt lat="46.318062" lon="9.941182"><time>2021-07-03T06:16:28.000Z</time><ele>2168.6</ele></trkpt><trkpt lat="46.318074" lon="9.941174"><time>2021-07-03T06:16:31.000Z</time><ele>2168</ele></trkpt><trkpt lat="46.318086" lon="9.941154"><time>2021-07-03T06:16:33.000Z</time><ele>2167.8</ele></trkpt><trkpt lat="46.3181" lon="9.941134"><time>2021-07-03T06:16:35.000Z</time><ele>2167.4</ele></trkpt><trkpt lat="46.318121" lon="9.941109"><time>2021-07-03T06:16:39.000Z</time><ele>2167</ele></trkpt><trkpt lat="46.318136" lon="9.94109"><time>2021-07-03T06:16:41.000Z</time><ele>2166.8</ele></trkpt><trkpt lat="46.318158" lon="9.941069"><time>2021-07-03T06:16:43.000Z</time><ele>2166.4</ele></trkpt><trkpt lat="46.318168" lon="9.941055"><time>2021-07-03T06:16:45.000Z</time><ele>2166</ele></trkpt><trkpt lat="46.318187" lon="9.941044"><time>2021-07-03T06:16:47.000Z</time><ele>2165.8</ele></trkpt><trkpt lat="46.318218" lon="9.941042"><time>2021-07-03T06:16:50.000Z</time><ele>2165.6</ele></trkpt><trkpt lat="46.318237" lon="9.941046"><time>2021-07-03T06:16:52.000Z</time><ele>2165.2</ele></trkpt><trkpt lat="46.318245" lon="9.941051"><time>2021-07-03T06:16:53.000Z</time><ele>2165</ele></trkpt><trkpt lat="46.318255" lon="9.941055"><time>2021-07-03T06:16:54.000Z</time><ele>2165</ele></trkpt><trkpt lat="46.318255" lon="9.941065"><time>2021-07-03T06:16:55.000Z</time><ele>2164.8</ele></trkpt><trkpt lat="46.318259" lon="9.941071"><time>2021-07-03T06:16:56.000Z</time><ele>2164.8</ele></trkpt><trkpt lat="46.318273" lon="9.94108"><time>2021-07-03T06:16:58.000Z</time><ele>2164.4</ele></trkpt><trkpt lat="46.318286" lon="9.941083"><time>2021-07-03T06:17:00.000Z</time><ele>2164</ele></trkpt><trkpt lat="46.318294" lon="9.941097"><time>2021-07-03T06:17:05.000Z</time><ele>2163</ele></trkpt><trkpt lat="46.318297" lon="9.9411"><time>2021-07-03T06:17:06.000Z</time><ele>2162.8</ele></trkpt><trkpt lat="46.318304" lon="9.941097"><time>2021-07-03T06:17:07.000Z</time><ele>2162.6</ele></trkpt><trkpt lat="46.318311" lon="9.941095"><time>2021-07-03T06:17:08.000Z</time><ele>2162.2</ele></trkpt><trkpt lat="46.318319" lon="9.941086"><time>2021-07-03T06:17:10.000Z</time><ele>2161.8</ele></trkpt><trkpt lat="46.31833" lon="9.941073"><time>2021-07-03T06:17:12.000Z</time><ele>2161.2</ele></trkpt><trkpt lat="46.318353" lon="9.941061"><time>2021-07-03T06:17:14.000Z</time><ele>2160.8</ele></trkpt><trkpt lat="46.318363" lon="9.941053"><time>2021-07-03T06:17:16.000Z</time><ele>2160.4</ele></trkpt><trkpt lat="46.318361" lon="9.941064"><time>2021-07-03T06:17:17.000Z</time><ele>2160.2</ele></trkpt><trkpt lat="46.318371" lon="9.941074"><time>2021-07-03T06:17:19.000Z</time><ele>2159.8</ele></trkpt><trkpt lat="46.318377" lon="9.941078"><time>2021-07-03T06:17:20.000Z</time><ele>2159.6</ele></trkpt><trkpt lat="46.318396" lon="9.941083"><time>2021-07-03T06:17:24.000Z</time><ele>2158.6</ele></trkpt><trkpt lat="46.318405" lon="9.94108"><time>2021-07-03T06:17:25.000Z</time><ele>2158.4</ele></trkpt><trkpt lat="46.31843" lon="9.94109"><time>2021-07-03T06:17:28.000Z</time><ele>2157.6</ele></trkpt><trkpt lat="46.318453" lon="9.941085"><time>2021-07-03T06:17:30.000Z</time><ele>2157.4</ele></trkpt><trkpt lat="46.318491" lon="9.941096"><time>2021-07-03T06:17:34.000Z</time><ele>2157</ele></trkpt><trkpt lat="46.318527" lon="9.941071"><time>2021-07-03T06:17:39.000Z</time><ele>2157.2</ele></trkpt><trkpt lat="46.318524" lon="9.941082"><time>2021-07-03T06:17:42.000Z</time><ele>2157.4</ele></trkpt><trkpt lat="46.31854" lon="9.941082"><time>2021-07-03T06:17:44.000Z</time><ele>2157.6</ele></trkpt><trkpt lat="46.318546" lon="9.941066"><time>2021-07-03T06:17:52.000Z</time><ele>2158.2</ele></trkpt><trkpt lat="46.31859" lon="9.941106"><time>2021-07-03T06:18:13.000Z</time><ele>2158.2</ele></trkpt><trkpt lat="46.318626" lon="9.941125"><time>2021-07-03T06:18:16.000Z</time><ele>2158.4</ele></trkpt><trkpt lat="46.318655" lon="9.941159"><time>2021-07-03T06:18:20.000Z</time><ele>2158.6</ele></trkpt><trkpt lat="46.318709" lon="9.941191"><time>2021-07-03T06:18:28.000Z</time><ele>2159.2</ele></trkpt><trkpt lat="46.318716" lon="9.941194"><time>2021-07-03T06:18:29.000Z</time><ele>2159.2</ele></trkpt><trkpt lat="46.318749" lon="9.941211"><time>2021-07-03T06:18:33.000Z</time><ele>2159.4</ele></trkpt><trkpt lat="46.318768" lon="9.941215"><time>2021-07-03T06:18:35.000Z</time><ele>2159.6</ele></trkpt><trkpt lat="46.318798" lon="9.941238"><time>2021-07-03T06:18:39.000Z</time><ele>2159.8</ele></trkpt><trkpt lat="46.318815" lon="9.941245"><time>2021-07-03T06:18:41.000Z</time><ele>2160</ele></trkpt><trkpt lat="46.318828" lon="9.941261"><time>2021-07-03T06:18:44.000Z</time><ele>2160.4</ele></trkpt><trkpt lat="46.318836" lon="9.941274"><time>2021-07-03T06:18:45.000Z</time><ele>2160.6</ele></trkpt><trkpt lat="46.318844" lon="9.941283"><time>2021-07-03T06:18:46.000Z</time><ele>2160.6</ele></trkpt><trkpt lat="46.318873" lon="9.941309"><time>2021-07-03T06:18:51.000Z</time><ele>2161.2</ele></trkpt><trkpt lat="46.318913" lon="9.941325"><time>2021-07-03T06:18:55.000Z</time><ele>2161.6</ele></trkpt><trkpt lat="46.318923" lon="9.941332"><time>2021-07-03T06:18:56.000Z</time><ele>2161.6</ele></trkpt><trkpt lat="46.319012" lon="9.941323"><time>2021-07-03T06:19:05.000Z</time><ele>2162</ele></trkpt><trkpt lat="46.319039" lon="9.94131"><time>2021-07-03T06:19:08.000Z</time><ele>2162.4</ele></trkpt><trkpt lat="46.31908" lon="9.941307"><time>2021-07-03T06:19:12.000Z</time><ele>2162.4</ele></trkpt><trkpt lat="46.319098" lon="9.941311"><time>2021-07-03T06:19:14.000Z</time><ele>2162.6</ele></trkpt><trkpt lat="46.319123" lon="9.941286"><time>2021-07-03T06:19:19.000Z</time><ele>2162.6</ele></trkpt><trkpt lat="46.319133" lon="9.941279"><time>2021-07-03T06:19:21.000Z</time><ele>2162.8</ele></trkpt><trkpt lat="46.319154" lon="9.941281"><time>2021-07-03T06:19:24.000Z</time><ele>2162.8</ele></trkpt><trkpt lat="46.319163" lon="9.94128"><time>2021-07-03T06:19:25.000Z</time><ele>2162.8</ele></trkpt><trkpt lat="46.319182" lon="9.941288"><time>2021-07-03T06:19:29.000Z</time><ele>2162.8</ele></trkpt><trkpt lat="46.319175" lon="9.941319"><time>2021-07-03T06:19:32.000Z</time><ele>2162.8</ele></trkpt><trkpt lat="46.319174" lon="9.941325"><time>2021-07-03T06:19:35.000Z</time><ele>2162.8</ele></trkpt><trkpt lat="46.319176" lon="9.941333"><time>2021-07-03T06:19:37.000Z</time><ele>2162.8</ele></trkpt><trkpt lat="46.319175" lon="9.941404"><time>2021-07-03T06:19:42.000Z</time><ele>2162.8</ele></trkpt><trkpt lat="46.319203" lon="9.941485"><time>2021-07-03T06:19:49.000Z</time><ele>2163</ele></trkpt><trkpt lat="46.319223" lon="9.941575"><time>2021-07-03T06:19:55.000Z</time><ele>2163.2</ele></trkpt><trkpt lat="46.319233" lon="9.941622"><time>2021-07-03T06:19:59.000Z</time><ele>2163.4</ele></trkpt><trkpt lat="46.319253" lon="9.941678"><time>2021-07-03T06:20:02.000Z</time><ele>2163.2</ele></trkpt><trkpt lat="46.319291" lon="9.941758"><time>2021-07-03T06:20:11.000Z</time><ele>2163.6</ele></trkpt><trkpt lat="46.319293" lon="9.941782"><time>2021-07-03T06:20:13.000Z</time><ele>2163.8</ele></trkpt><trkpt lat="46.319307" lon="9.941809"><time>2021-07-03T06:20:15.000Z</time><ele>2164</ele></trkpt><trkpt lat="46.319324" lon="9.941812"><time>2021-07-03T06:20:19.000Z</time><ele>2164.6</ele></trkpt><trkpt lat="46.319341" lon="9.941835"><time>2021-07-03T06:20:23.000Z</time><ele>2165.2</ele></trkpt><trkpt lat="46.319369" lon="9.94184"><time>2021-07-03T06:20:26.000Z</time><ele>2165.8</ele></trkpt><trkpt lat="46.319392" lon="9.941871"><time>2021-07-03T06:20:31.000Z</time><ele>2166.2</ele></trkpt><trkpt lat="46.319406" lon="9.941897"><time>2021-07-03T06:20:35.000Z</time><ele>2166.8</ele></trkpt><trkpt lat="46.319413" lon="9.941901"><time>2021-07-03T06:20:36.000Z</time><ele>2166.8</ele></trkpt><trkpt lat="46.319443" lon="9.941941"><time>2021-07-03T06:20:43.000Z</time><ele>2168</ele></trkpt><trkpt lat="46.31945" lon="9.941945"><time>2021-07-03T06:20:44.000Z</time><ele>2168.2</ele></trkpt><trkpt lat="46.319476" lon="9.941967"><time>2021-07-03T06:20:48.000Z</time><ele>2168.6</ele></trkpt><trkpt lat="46.319486" lon="9.941987"><time>2021-07-03T06:20:51.000Z</time><ele>2168.8</ele></trkpt><trkpt lat="46.319487" lon="9.942001"><time>2021-07-03T06:20:52.000Z</time><ele>2169.2</ele></trkpt><trkpt lat="46.319515" lon="9.942003"><time>2021-07-03T06:20:57.000Z</time><ele>2169.8</ele></trkpt><trkpt lat="46.319538" lon="9.942021"><time>2021-07-03T06:21:00.000Z</time><ele>2170.2</ele></trkpt><trkpt lat="46.319561" lon="9.942041"><time>2021-07-03T06:21:03.000Z</time><ele>2170.6</ele></trkpt><trkpt lat="46.31957" lon="9.94204"><time>2021-07-03T06:21:07.000Z</time><ele>2171.2</ele></trkpt><trkpt lat="46.319581" lon="9.942055"><time>2021-07-03T06:21:11.000Z</time><ele>2171.8</ele></trkpt><trkpt lat="46.319603" lon="9.942065"><time>2021-07-03T06:21:15.000Z</time><ele>2172.2</ele></trkpt><trkpt lat="46.319626" lon="9.942069"><time>2021-07-03T06:21:18.000Z</time><ele>2172.6</ele></trkpt><trkpt lat="46.319637" lon="9.942086"><time>2021-07-03T06:21:22.000Z</time><ele>2173.4</ele></trkpt><trkpt lat="46.31966" lon="9.942089"><time>2021-07-03T06:21:26.000Z</time><ele>2173.6</ele></trkpt><trkpt lat="46.319694" lon="9.942095"><time>2021-07-03T06:21:31.000Z</time><ele>2174.2</ele></trkpt><trkpt lat="46.319711" lon="9.942095"><time>2021-07-03T06:21:33.000Z</time><ele>2174.4</ele></trkpt><trkpt lat="46.319778" lon="9.942096"><time>2021-07-03T06:21:39.000Z</time><ele>2175</ele></trkpt><trkpt lat="46.319809" lon="9.942105"><time>2021-07-03T06:21:44.000Z</time><ele>2175.4</ele></trkpt><trkpt lat="46.319834" lon="9.942127"><time>2021-07-03T06:21:49.000Z</time><ele>2176</ele></trkpt><trkpt lat="46.319857" lon="9.942125"><time>2021-07-03T06:21:52.000Z</time><ele>2176.4</ele></trkpt><trkpt lat="46.31987" lon="9.942147"><time>2021-07-03T06:21:55.000Z</time><ele>2176.8</ele></trkpt><trkpt lat="46.319897" lon="9.942152"><time>2021-07-03T06:21:58.000Z</time><ele>2177</ele></trkpt><trkpt lat="46.319907" lon="9.942206"><time>2021-07-03T06:22:02.000Z</time><ele>2177.6</ele></trkpt><trkpt lat="46.319914" lon="9.942212"><time>2021-07-03T06:22:03.000Z</time><ele>2177.6</ele></trkpt><trkpt lat="46.319922" lon="9.942288"><time>2021-07-03T06:22:10.000Z</time><ele>2178.2</ele></trkpt><trkpt lat="46.319927" lon="9.94233"><time>2021-07-03T06:22:13.000Z</time><ele>2178.6</ele></trkpt><trkpt lat="46.319937" lon="9.942417"><time>2021-07-03T06:22:20.000Z</time><ele>2179.2</ele></trkpt><trkpt lat="46.319948" lon="9.942452"><time>2021-07-03T06:22:23.000Z</time><ele>2179.4</ele></trkpt><trkpt lat="46.319969" lon="9.942483"><time>2021-07-03T06:22:26.000Z</time><ele>2179.8</ele></trkpt><trkpt lat="46.319974" lon="9.942491"><time>2021-07-03T06:22:27.000Z</time><ele>2180</ele></trkpt><trkpt lat="46.320015" lon="9.942497"><time>2021-07-03T06:22:33.000Z</time><ele>2180.6</ele></trkpt><trkpt lat="46.320023" lon="9.942508"><time>2021-07-03T06:22:35.000Z</time><ele>2180.8</ele></trkpt><trkpt lat="46.320036" lon="9.942534"><time>2021-07-03T06:22:39.000Z</time><ele>2181.6</ele></trkpt><trkpt lat="46.320038" lon="9.942556"><time>2021-07-03T06:22:41.000Z</time><ele>2181.8</ele></trkpt><trkpt lat="46.32004" lon="9.942564"><time>2021-07-03T06:22:42.000Z</time><ele>2181.8</ele></trkpt><trkpt lat="46.320042" lon="9.942573"><time>2021-07-03T06:22:43.000Z</time><ele>2181.8</ele></trkpt><trkpt lat="46.320068" lon="9.942591"><time>2021-07-03T06:22:48.000Z</time><ele>2182.4</ele></trkpt><trkpt lat="46.320116" lon="9.942598"><time>2021-07-03T06:22:52.000Z</time><ele>2182.8</ele></trkpt><trkpt lat="46.320124" lon="9.942613"><time>2021-07-03T06:22:53.000Z</time><ele>2183</ele></trkpt><trkpt lat="46.320137" lon="9.942616"><time>2021-07-03T06:22:54.000Z</time><ele>2183.2</ele></trkpt><trkpt lat="46.320159" lon="9.942632"><time>2021-07-03T06:22:57.000Z</time><ele>2183.6</ele></trkpt><trkpt lat="46.320183" lon="9.942646"><time>2021-07-03T06:23:01.000Z</time><ele>2184.2</ele></trkpt><trkpt lat="46.320209" lon="9.942648"><time>2021-07-03T06:23:04.000Z</time><ele>2184.4</ele></trkpt><trkpt lat="46.320247" lon="9.942653"><time>2021-07-03T06:23:11.000Z</time><ele>2185</ele></trkpt><trkpt lat="46.320266" lon="9.942632"><time>2021-07-03T06:23:14.000Z</time><ele>2185.2</ele></trkpt><trkpt lat="46.320299" lon="9.942588"><time>2021-07-03T06:23:18.000Z</time><ele>2185.4</ele></trkpt><trkpt lat="46.320321" lon="9.94255"><time>2021-07-03T06:23:22.000Z</time><ele>2185</ele></trkpt><trkpt lat="46.320384" lon="9.942485"><time>2021-07-03T06:23:31.000Z</time><ele>2185</ele></trkpt><trkpt lat="46.320409" lon="9.942431"><time>2021-07-03T06:23:36.000Z</time><ele>2184.8</ele></trkpt><trkpt lat="46.32042" lon="9.942415"><time>2021-07-03T06:23:38.000Z</time><ele>2184.8</ele></trkpt><trkpt lat="46.320455" lon="9.942371"><time>2021-07-03T06:23:43.000Z</time><ele>2185.4</ele></trkpt><trkpt lat="46.320478" lon="9.942359"><time>2021-07-03T06:23:46.000Z</time><ele>2185.6</ele></trkpt><trkpt lat="46.320514" lon="9.942306"><time>2021-07-03T06:23:52.000Z</time><ele>2186</ele></trkpt><trkpt lat="46.320515" lon="9.942304"><time>2021-07-03T06:23:53.000Z</time><ele>2186</ele></trkpt><trkpt lat="46.320517" lon="9.94229"><time>2021-07-03T06:23:54.000Z</time><ele>2185.8</ele></trkpt><trkpt lat="46.320555" lon="9.942243"><time>2021-07-03T06:24:00.000Z</time><ele>2185.8</ele></trkpt><trkpt lat="46.320582" lon="9.942222"><time>2021-07-03T06:24:03.000Z</time><ele>2186</ele></trkpt><trkpt lat="46.320593" lon="9.942227"><time>2021-07-03T06:24:07.000Z</time><ele>2186.2</ele></trkpt><trkpt lat="46.320643" lon="9.942272"><time>2021-07-03T06:24:16.000Z</time><ele>2186.8</ele></trkpt><trkpt lat="46.320618" lon="9.942276"><time>2021-07-03T06:24:22.000Z</time><ele>2186.6</ele></trkpt><trkpt lat="46.320616" lon="9.942275"><time>2021-07-03T06:24:31.000Z</time><ele>2186.8</ele></trkpt><trkpt lat="46.320616" lon="9.942275"><time>2021-07-03T06:24:40.000Z</time><ele>2187</ele></trkpt><trkpt lat="46.320612" lon="9.942287"><time>2021-07-03T06:24:52.000Z</time><ele>2187</ele></trkpt><trkpt lat="46.320612" lon="9.942291"><time>2021-07-03T06:24:54.000Z</time><ele>2187</ele></trkpt><trkpt lat="46.320621" lon="9.942385"><time>2021-07-03T06:24:59.000Z</time><ele>2187</ele></trkpt><trkpt lat="46.320635" lon="9.942415"><time>2021-07-03T06:25:01.000Z</time><ele>2187.2</ele></trkpt><trkpt lat="46.320645" lon="9.942474"><time>2021-07-03T06:25:04.000Z</time><ele>2187.2</ele></trkpt><trkpt lat="46.320647" lon="9.942488"><time>2021-07-03T06:25:05.000Z</time><ele>2187.4</ele></trkpt><trkpt lat="46.320651" lon="9.942494"><time>2021-07-03T06:25:06.000Z</time><ele>2187.4</ele></trkpt><trkpt lat="46.320692" lon="9.942497"><time>2021-07-03T06:25:11.000Z</time><ele>2188</ele></trkpt><trkpt lat="46.320708" lon="9.942501"><time>2021-07-03T06:25:13.000Z</time><ele>2188</ele></trkpt><trkpt lat="46.320745" lon="9.942508"><time>2021-07-03T06:25:16.000Z</time><ele>2188.4</ele></trkpt><trkpt lat="46.320773" lon="9.942528"><time>2021-07-03T06:25:19.000Z</time><ele>2188.8</ele></trkpt><trkpt lat="46.320832" lon="9.942557"><time>2021-07-03T06:25:26.000Z</time><ele>2189.4</ele></trkpt><trkpt lat="46.320839" lon="9.942559"><time>2021-07-03T06:25:27.000Z</time><ele>2189.4</ele></trkpt><trkpt lat="46.320848" lon="9.942569"><time>2021-07-03T06:25:29.000Z</time><ele>2189.6</ele></trkpt><trkpt lat="46.320876" lon="9.942591"><time>2021-07-03T06:25:33.000Z</time><ele>2189.8</ele></trkpt><trkpt lat="46.320908" lon="9.942591"><time>2021-07-03T06:25:37.000Z</time><ele>2190.4</ele></trkpt><trkpt lat="46.32093" lon="9.942601"><time>2021-07-03T06:25:39.000Z</time><ele>2190.6</ele></trkpt><trkpt lat="46.32094" lon="9.942606"><time>2021-07-03T06:25:40.000Z</time><ele>2190.8</ele></trkpt><trkpt lat="46.320958" lon="9.942616"><time>2021-07-03T06:25:42.000Z</time><ele>2191</ele></trkpt><trkpt lat="46.321002" lon="9.94264"><time>2021-07-03T06:25:48.000Z</time><ele>2191.6</ele></trkpt><trkpt lat="46.321062" lon="9.942718"><time>2021-07-03T06:25:58.000Z</time><ele>2192.4</ele></trkpt><trkpt lat="46.321073" lon="9.942777"><time>2021-07-03T06:26:03.000Z</time><ele>2192.6</ele></trkpt><trkpt lat="46.321096" lon="9.942796"><time>2021-07-03T06:26:06.000Z</time><ele>2193.2</ele></trkpt><trkpt lat="46.321142" lon="9.942837"><time>2021-07-03T06:26:12.000Z</time><ele>2193.4</ele></trkpt><trkpt lat="46.321164" lon="9.942864"><time>2021-07-03T06:26:16.000Z</time><ele>2193.8</ele></trkpt><trkpt lat="46.321198" lon="9.942878"><time>2021-07-03T06:26:21.000Z</time><ele>2194.2</ele></trkpt><trkpt lat="46.321188" lon="9.942906"><time>2021-07-03T06:26:24.000Z</time><ele>2194.4</ele></trkpt><trkpt lat="46.3212" lon="9.942875"><time>2021-07-03T06:26:26.000Z</time><ele>2194.6</ele></trkpt><trkpt lat="46.321206" lon="9.942872"><time>2021-07-03T06:26:28.000Z</time><ele>2194.6</ele></trkpt><trkpt lat="46.321208" lon="9.942905"><time>2021-07-03T06:26:34.000Z</time><ele>2194.8</ele></trkpt><trkpt lat="46.321213" lon="9.94291"><time>2021-07-03T06:26:35.000Z</time><ele>2195</ele></trkpt><trkpt lat="46.321252" lon="9.942951"><time>2021-07-03T06:26:41.000Z</time><ele>2195</ele></trkpt><trkpt lat="46.321258" lon="9.942963"><time>2021-07-03T06:26:42.000Z</time><ele>2195</ele></trkpt><trkpt lat="46.321332" lon="9.943"><time>2021-07-03T06:26:51.000Z</time><ele>2196</ele></trkpt><trkpt lat="46.321359" lon="9.943024"><time>2021-07-03T06:26:54.000Z</time><ele>2196.2</ele></trkpt><trkpt lat="46.321429" lon="9.943115"><time>2021-07-03T06:27:03.000Z</time><ele>2196.6</ele></trkpt><trkpt lat="46.321456" lon="9.943145"><time>2021-07-03T06:27:08.000Z</time><ele>2197</ele></trkpt><trkpt lat="46.321474" lon="9.943156"><time>2021-07-03T06:27:10.000Z</time><ele>2197.4</ele></trkpt><trkpt lat="46.321521" lon="9.943219"><time>2021-07-03T06:27:17.000Z</time><ele>2198.2</ele></trkpt><trkpt lat="46.321522" lon="9.943233"><time>2021-07-03T06:27:18.000Z</time><ele>2198.4</ele></trkpt><trkpt lat="46.321563" lon="9.943306"><time>2021-07-03T06:27:25.000Z</time><ele>2199.2</ele></trkpt><trkpt lat="46.321568" lon="9.943324"><time>2021-07-03T06:27:26.000Z</time><ele>2199.2</ele></trkpt><trkpt lat="46.321602" lon="9.9434"><time>2021-07-03T06:27:35.000Z</time><ele>2200.2</ele></trkpt><trkpt lat="46.321608" lon="9.943406"><time>2021-07-03T06:27:36.000Z</time><ele>2200.4</ele></trkpt><trkpt lat="46.321662" lon="9.943515"><time>2021-07-03T06:27:47.000Z</time><ele>2201.4</ele></trkpt><trkpt lat="46.321668" lon="9.943528"><time>2021-07-03T06:27:48.000Z</time><ele>2201.4</ele></trkpt><trkpt lat="46.321717" lon="9.943597"><time>2021-07-03T06:27:56.000Z</time><ele>2201.8</ele></trkpt><trkpt lat="46.321728" lon="9.943614"><time>2021-07-03T06:27:58.000Z</time><ele>2202</ele></trkpt><trkpt lat="46.321734" lon="9.943628"><time>2021-07-03T06:28:02.000Z</time><ele>2202.2</ele></trkpt><trkpt lat="46.321758" lon="9.943642"><time>2021-07-03T06:28:05.000Z</time><ele>2202.4</ele></trkpt><trkpt lat="46.321812" lon="9.943727"><time>2021-07-03T06:28:15.000Z</time><ele>2203.6</ele></trkpt><trkpt lat="46.321827" lon="9.943744"><time>2021-07-03T06:28:17.000Z</time><ele>2203.6</ele></trkpt><trkpt lat="46.321872" lon="9.943828"><time>2021-07-03T06:28:25.000Z</time><ele>2204.6</ele></trkpt><trkpt lat="46.321882" lon="9.943838"><time>2021-07-03T06:28:26.000Z</time><ele>2204.6</ele></trkpt><trkpt lat="46.321891" lon="9.943852"><time>2021-07-03T06:28:27.000Z</time><ele>2204.6</ele></trkpt><trkpt lat="46.321931" lon="9.943939"><time>2021-07-03T06:28:36.000Z</time><ele>2205.4</ele></trkpt><trkpt lat="46.321946" lon="9.943947"><time>2021-07-03T06:28:38.000Z</time><ele>2205.6</ele></trkpt><trkpt lat="46.321973" lon="9.94397"><time>2021-07-03T06:28:43.000Z</time><ele>2206</ele></trkpt><trkpt lat="46.321987" lon="9.943999"><time>2021-07-03T06:28:46.000Z</time><ele>2206.4</ele></trkpt><trkpt lat="46.321999" lon="9.94404"><time>2021-07-03T06:28:51.000Z</time><ele>2206.8</ele></trkpt><trkpt lat="46.322011" lon="9.94405"><time>2021-07-03T06:28:53.000Z</time><ele>2207</ele></trkpt><trkpt lat="46.322012" lon="9.944056"><time>2021-07-03T06:28:54.000Z</time><ele>2207</ele></trkpt><trkpt lat="46.322022" lon="9.944105"><time>2021-07-03T06:29:01.000Z</time><ele>2207.2</ele></trkpt><trkpt lat="46.322057" lon="9.944153"><time>2021-07-03T06:29:07.000Z</time><ele>2207.8</ele></trkpt><trkpt lat="46.322084" lon="9.944179"><time>2021-07-03T06:29:11.000Z</time><ele>2208</ele></trkpt><trkpt lat="46.322135" lon="9.944206"><time>2021-07-03T06:29:18.000Z</time><ele>2208.8</ele></trkpt><trkpt lat="46.322141" lon="9.944214"><time>2021-07-03T06:29:19.000Z</time><ele>2208.8</ele></trkpt><trkpt lat="46.322163" lon="9.944251"><time>2021-07-03T06:29:27.000Z</time><ele>2209.4</ele></trkpt><trkpt lat="46.322168" lon="9.944259"><time>2021-07-03T06:29:34.000Z</time><ele>2209.4</ele></trkpt><trkpt lat="46.322157" lon="9.944285"><time>2021-07-03T06:29:48.000Z</time><ele>2209.4</ele></trkpt><trkpt lat="46.322153" lon="9.944289"><time>2021-07-03T06:29:55.000Z</time><ele>2209.2</ele></trkpt><trkpt lat="46.322148" lon="9.944296"><time>2021-07-03T06:29:59.000Z</time><ele>2209.2</ele></trkpt><trkpt lat="46.322144" lon="9.944296"><time>2021-07-03T06:30:10.000Z</time><ele>2209.2</ele></trkpt><trkpt lat="46.322149" lon="9.9443"><time>2021-07-03T06:30:17.000Z</time><ele>2209.8</ele></trkpt><trkpt lat="46.322173" lon="9.944319"><time>2021-07-03T06:30:19.000Z</time><ele>2210</ele></trkpt><trkpt lat="46.322196" lon="9.944339"><time>2021-07-03T06:30:21.000Z</time><ele>2210.2</ele></trkpt><trkpt lat="46.322252" lon="9.944406"><time>2021-07-03T06:30:29.000Z</time><ele>2210.8</ele></trkpt><trkpt lat="46.322255" lon="9.944421"><time>2021-07-03T06:30:30.000Z</time><ele>2211</ele></trkpt><trkpt lat="46.322273" lon="9.944455"><time>2021-07-03T06:30:33.000Z</time><ele>2211.2</ele></trkpt><trkpt lat="46.322324" lon="9.944482"><time>2021-07-03T06:30:39.000Z</time><ele>2211.8</ele></trkpt><trkpt lat="46.322335" lon="9.944495"><time>2021-07-03T06:30:41.000Z</time><ele>2212</ele></trkpt><trkpt lat="46.322374" lon="9.944541"><time>2021-07-03T06:30:47.000Z</time><ele>2212.4</ele></trkpt><trkpt lat="46.322384" lon="9.944548"><time>2021-07-03T06:30:48.000Z</time><ele>2212.6</ele></trkpt><trkpt lat="46.322397" lon="9.944558"><time>2021-07-03T06:30:50.000Z</time><ele>2212.8</ele></trkpt><trkpt lat="46.322432" lon="9.944597"><time>2021-07-03T06:30:55.000Z</time><ele>2213</ele></trkpt><trkpt lat="46.322436" lon="9.944604"><time>2021-07-03T06:30:56.000Z</time><ele>2213</ele></trkpt><trkpt lat="46.322453" lon="9.944621"><time>2021-07-03T06:30:59.000Z</time><ele>2213.4</ele></trkpt><trkpt lat="46.322483" lon="9.944628"><time>2021-07-03T06:31:02.000Z</time><ele>2213.8</ele></trkpt><trkpt lat="46.322507" lon="9.94467"><time>2021-07-03T06:31:07.000Z</time><ele>2214</ele></trkpt><trkpt lat="46.322549" lon="9.944697"><time>2021-07-03T06:31:11.000Z</time><ele>2214.6</ele></trkpt><trkpt lat="46.322617" lon="9.9447"><time>2021-07-03T06:31:17.000Z</time><ele>2215</ele></trkpt><trkpt lat="46.32264" lon="9.944698"><time>2021-07-03T06:31:19.000Z</time><ele>2215</ele></trkpt><trkpt lat="46.322649" lon="9.944703"><time>2021-07-03T06:31:20.000Z</time><ele>2215.2</ele></trkpt><trkpt lat="46.322664" lon="9.944732"><time>2021-07-03T06:31:22.000Z</time><ele>2215.6</ele></trkpt><trkpt lat="46.322673" lon="9.944752"><time>2021-07-03T06:31:24.000Z</time><ele>2215.6</ele></trkpt><trkpt lat="46.322676" lon="9.944762"><time>2021-07-03T06:31:25.000Z</time><ele>2215.8</ele></trkpt><trkpt lat="46.322693" lon="9.944772"><time>2021-07-03T06:31:27.000Z</time><ele>2216.2</ele></trkpt><trkpt lat="46.322729" lon="9.944815"><time>2021-07-03T06:31:32.000Z</time><ele>2216.4</ele></trkpt><trkpt lat="46.322747" lon="9.944881"><time>2021-07-03T06:31:39.000Z</time><ele>2216.8</ele></trkpt><trkpt lat="46.322763" lon="9.944895"><time>2021-07-03T06:31:42.000Z</time><ele>2217</ele></trkpt><trkpt lat="46.322796" lon="9.944893"><time>2021-07-03T06:31:44.000Z</time><ele>2217.2</ele></trkpt><trkpt lat="46.322816" lon="9.944917"><time>2021-07-03T06:31:47.000Z</time><ele>2217.8</ele></trkpt><trkpt lat="46.322859" lon="9.944949"><time>2021-07-03T06:31:52.000Z</time><ele>2218.2</ele></trkpt><trkpt lat="46.322865" lon="9.944991"><time>2021-07-03T06:31:55.000Z</time><ele>2218.4</ele></trkpt><trkpt lat="46.322878" lon="9.945024"><time>2021-07-03T06:31:58.000Z</time><ele>2218.8</ele></trkpt><trkpt lat="46.322893" lon="9.945038"><time>2021-07-03T06:32:00.000Z</time><ele>2218.8</ele></trkpt><trkpt lat="46.322916" lon="9.945057"><time>2021-07-03T06:32:03.000Z</time><ele>2219</ele></trkpt><trkpt lat="46.322936" lon="9.945086"><time>2021-07-03T06:32:06.000Z</time><ele>2219.4</ele></trkpt><trkpt lat="46.322983" lon="9.945144"><time>2021-07-03T06:32:12.000Z</time><ele>2219.8</ele></trkpt><trkpt lat="46.323018" lon="9.945186"><time>2021-07-03T06:32:17.000Z</time><ele>2220.4</ele></trkpt><trkpt lat="46.323025" lon="9.945202"><time>2021-07-03T06:32:20.000Z</time><ele>2220.6</ele></trkpt><trkpt lat="46.323023" lon="9.945205"><time>2021-07-03T06:32:21.000Z</time><ele>2220.6</ele></trkpt><trkpt lat="46.323021" lon="9.945183"><time>2021-07-03T06:32:33.000Z</time><ele>2220.8</ele></trkpt><trkpt lat="46.323054" lon="9.945232"><time>2021-07-03T06:32:44.000Z</time><ele>2221.4</ele></trkpt><trkpt lat="46.323099" lon="9.94532"><time>2021-07-03T06:32:51.000Z</time><ele>2221.8</ele></trkpt><trkpt lat="46.323141" lon="9.94538"><time>2021-07-03T06:32:58.000Z</time><ele>2222.4</ele></trkpt><trkpt lat="46.323162" lon="9.945381"><time>2021-07-03T06:33:02.000Z</time><ele>2222.8</ele></trkpt><trkpt lat="46.323175" lon="9.945387"><time>2021-07-03T06:33:05.000Z</time><ele>2223</ele></trkpt><trkpt lat="46.323182" lon="9.94539"><time>2021-07-03T06:33:06.000Z</time><ele>2223</ele></trkpt><trkpt lat="46.32319" lon="9.945394"><time>2021-07-03T06:33:07.000Z</time><ele>2223.2</ele></trkpt><trkpt lat="46.323194" lon="9.945399"><time>2021-07-03T06:33:09.000Z</time><ele>2223.4</ele></trkpt><trkpt lat="46.323219" lon="9.945402"><time>2021-07-03T06:33:12.000Z</time><ele>2223.4</ele></trkpt><trkpt lat="46.323252" lon="9.945454"><time>2021-07-03T06:33:18.000Z</time><ele>2223.8</ele></trkpt><trkpt lat="46.323301" lon="9.945491"><time>2021-07-03T06:33:25.000Z</time><ele>2224.2</ele></trkpt><trkpt lat="46.323306" lon="9.9455"><time>2021-07-03T06:33:26.000Z</time><ele>2224.4</ele></trkpt><trkpt lat="46.323312" lon="9.945509"><time>2021-07-03T06:33:27.000Z</time><ele>2224.4</ele></trkpt><trkpt lat="46.323316" lon="9.945514"><time>2021-07-03T06:33:29.000Z</time><ele>2224.4</ele></trkpt><trkpt lat="46.32332" lon="9.945519"><time>2021-07-03T06:33:30.000Z</time><ele>2224.6</ele></trkpt><trkpt lat="46.32337" lon="9.945551"><time>2021-07-03T06:33:36.000Z</time><ele>2225.2</ele></trkpt><trkpt lat="46.323388" lon="9.945581"><time>2021-07-03T06:33:39.000Z</time><ele>2225.2</ele></trkpt><trkpt lat="46.323394" lon="9.945589"><time>2021-07-03T06:33:40.000Z</time><ele>2225.2</ele></trkpt><trkpt lat="46.323408" lon="9.945603"><time>2021-07-03T06:33:42.000Z</time><ele>2225.4</ele></trkpt><trkpt lat="46.323441" lon="9.945632"><time>2021-07-03T06:33:47.000Z</time><ele>2225.8</ele></trkpt><trkpt lat="46.323453" lon="9.945653"><time>2021-07-03T06:33:50.000Z</time><ele>2226.2</ele></trkpt><trkpt lat="46.323479" lon="9.945676"><time>2021-07-03T06:33:54.000Z</time><ele>2226.4</ele></trkpt><trkpt lat="46.323491" lon="9.945681"><time>2021-07-03T06:33:55.000Z</time><ele>2226.6</ele></trkpt><trkpt lat="46.323532" lon="9.945702"><time>2021-07-03T06:34:00.000Z</time><ele>2226.8</ele></trkpt><trkpt lat="46.323542" lon="9.945703"><time>2021-07-03T06:34:02.000Z</time><ele>2226.8</ele></trkpt><trkpt lat="46.323543" lon="9.945707"><time>2021-07-03T06:34:03.000Z</time><ele>2226.8</ele></trkpt><trkpt lat="46.323572" lon="9.945719"><time>2021-07-03T06:34:07.000Z</time><ele>2227</ele></trkpt><trkpt lat="46.323584" lon="9.945725"><time>2021-07-03T06:34:08.000Z</time><ele>2227</ele></trkpt><trkpt lat="46.323594" lon="9.945729"><time>2021-07-03T06:34:09.000Z</time><ele>2227</ele></trkpt><trkpt lat="46.323651" lon="9.945748"><time>2021-07-03T06:34:15.000Z</time><ele>2227</ele></trkpt><trkpt lat="46.32369" lon="9.945761"><time>2021-07-03T06:34:19.000Z</time><ele>2227.2</ele></trkpt><trkpt lat="46.323725" lon="9.945795"><time>2021-07-03T06:34:23.000Z</time><ele>2227.4</ele></trkpt><trkpt lat="46.323744" lon="9.945801"><time>2021-07-03T06:34:25.000Z</time><ele>2227.6</ele></trkpt><trkpt lat="46.323793" lon="9.945825"><time>2021-07-03T06:34:30.000Z</time><ele>2227.8</ele></trkpt><trkpt lat="46.323861" lon="9.94584"><time>2021-07-03T06:34:38.000Z</time><ele>2228.4</ele></trkpt><trkpt lat="46.323867" lon="9.945842"><time>2021-07-03T06:34:39.000Z</time><ele>2228.6</ele></trkpt><trkpt lat="46.323903" lon="9.945902"><time>2021-07-03T06:34:46.000Z</time><ele>2229</ele></trkpt><trkpt lat="46.32391" lon="9.945995"><time>2021-07-03T06:34:52.000Z</time><ele>2228.4</ele></trkpt><trkpt lat="46.323913" lon="9.946012"><time>2021-07-03T06:34:53.000Z</time><ele>2228.4</ele></trkpt><trkpt lat="46.323918" lon="9.946027"><time>2021-07-03T06:34:54.000Z</time><ele>2228.2</ele></trkpt><trkpt lat="46.323957" lon="9.946119"><time>2021-07-03T06:35:01.000Z</time><ele>2228.6</ele></trkpt><trkpt lat="46.323959" lon="9.946137"><time>2021-07-03T06:35:02.000Z</time><ele>2228.8</ele></trkpt><trkpt lat="46.323987" lon="9.946195"><time>2021-07-03T06:35:08.000Z</time><ele>2229.6</ele></trkpt><trkpt lat="46.324006" lon="9.946231"><time>2021-07-03T06:35:15.000Z</time><ele>2230.8</ele></trkpt><trkpt lat="46.324031" lon="9.946241"><time>2021-07-03T06:35:19.000Z</time><ele>2231.6</ele></trkpt><trkpt lat="46.324035" lon="9.94625"><time>2021-07-03T06:35:20.000Z</time><ele>2231.6</ele></trkpt><trkpt lat="46.32404" lon="9.94625"><time>2021-07-03T06:35:21.000Z</time><ele>2232</ele></trkpt><trkpt lat="46.324043" lon="9.946313"><time>2021-07-03T06:35:27.000Z</time><ele>2233</ele></trkpt><trkpt lat="46.324045" lon="9.94632"><time>2021-07-03T06:35:28.000Z</time><ele>2233.2</ele></trkpt><trkpt lat="46.324062" lon="9.946351"><time>2021-07-03T06:35:33.000Z</time><ele>2234.2</ele></trkpt><trkpt lat="46.324074" lon="9.946361"><time>2021-07-03T06:35:36.000Z</time><ele>2234.8</ele></trkpt><trkpt lat="46.324087" lon="9.946367"><time>2021-07-03T06:35:39.000Z</time><ele>2235.2</ele></trkpt><trkpt lat="46.324096" lon="9.946416"><time>2021-07-03T06:35:44.000Z</time><ele>2236</ele></trkpt><trkpt lat="46.324098" lon="9.946427"><time>2021-07-03T06:35:45.000Z</time><ele>2236.2</ele></trkpt><trkpt lat="46.324117" lon="9.946453"><time>2021-07-03T06:35:50.000Z</time><ele>2236.8</ele></trkpt><trkpt lat="46.324171" lon="9.946501"><time>2021-07-03T06:36:00.000Z</time><ele>2236.6</ele></trkpt><trkpt lat="46.324219" lon="9.946553"><time>2021-07-03T06:36:07.000Z</time><ele>2236.2</ele></trkpt><trkpt lat="46.324289" lon="9.946607"><time>2021-07-03T06:36:15.000Z</time><ele>2235.6</ele></trkpt><trkpt lat="46.324352" lon="9.946644"><time>2021-07-03T06:36:21.000Z</time><ele>2235.2</ele></trkpt><trkpt lat="46.324373" lon="9.946649"><time>2021-07-03T06:36:23.000Z</time><ele>2235.2</ele></trkpt><trkpt lat="46.324423" lon="9.94668"><time>2021-07-03T06:36:30.000Z</time><ele>2235.8</ele></trkpt><trkpt lat="46.324449" lon="9.946692"><time>2021-07-03T06:36:35.000Z</time><ele>2236.4</ele></trkpt><trkpt lat="46.324469" lon="9.946706"><time>2021-07-03T06:36:39.000Z</time><ele>2237</ele></trkpt><trkpt lat="46.324489" lon="9.946717"><time>2021-07-03T06:36:43.000Z</time><ele>2237.4</ele></trkpt><trkpt lat="46.324502" lon="9.946774"><time>2021-07-03T06:36:48.000Z</time><ele>2238.4</ele></trkpt><trkpt lat="46.324505" lon="9.946814"><time>2021-07-03T06:36:54.000Z</time><ele>2239.2</ele></trkpt><trkpt lat="46.324509" lon="9.946822"><time>2021-07-03T06:36:55.000Z</time><ele>2239.6</ele></trkpt><trkpt lat="46.324542" lon="9.94688"><time>2021-07-03T06:37:02.000Z</time><ele>2240.4</ele></trkpt><trkpt lat="46.324547" lon="9.946877"><time>2021-07-03T06:37:03.000Z</time><ele>2240.6</ele></trkpt><trkpt lat="46.324568" lon="9.946897"><time>2021-07-03T06:37:08.000Z</time><ele>2241.6</ele></trkpt><trkpt lat="46.324604" lon="9.946939"><time>2021-07-03T06:37:15.000Z</time><ele>2242.6</ele></trkpt><trkpt lat="46.324609" lon="9.946944"><time>2021-07-03T06:37:16.000Z</time><ele>2243</ele></trkpt><trkpt lat="46.32463" lon="9.946978"><time>2021-07-03T06:37:21.000Z</time><ele>2243.8</ele></trkpt><trkpt lat="46.324665" lon="9.946994"><time>2021-07-03T06:37:27.000Z</time><ele>2244.6</ele></trkpt><trkpt lat="46.324684" lon="9.947006"><time>2021-07-03T06:37:30.000Z</time><ele>2245</ele></trkpt><trkpt lat="46.324712" lon="9.94703"><time>2021-07-03T06:37:36.000Z</time><ele>2245.8</ele></trkpt><trkpt lat="46.324718" lon="9.947038"><time>2021-07-03T06:37:37.000Z</time><ele>2246</ele></trkpt><trkpt lat="46.32476" lon="9.947076"><time>2021-07-03T06:37:44.000Z</time><ele>2247</ele></trkpt><trkpt lat="46.324774" lon="9.947046"><time>2021-07-03T06:37:50.000Z</time><ele>2248</ele></trkpt><trkpt lat="46.324778" lon="9.947046"><time>2021-07-03T06:37:51.000Z</time><ele>2248.2</ele></trkpt><trkpt lat="46.324781" lon="9.947074"><time>2021-07-03T06:37:56.000Z</time><ele>2249.2</ele></trkpt><trkpt lat="46.324792" lon="9.947092"><time>2021-07-03T06:37:58.000Z</time><ele>2249.4</ele></trkpt><trkpt lat="46.324859" lon="9.947144"><time>2021-07-03T06:38:06.000Z</time><ele>2250</ele></trkpt><trkpt lat="46.324868" lon="9.947143"><time>2021-07-03T06:38:08.000Z</time><ele>2250.2</ele></trkpt><trkpt lat="46.324889" lon="9.94716"><time>2021-07-03T06:38:12.000Z</time><ele>2251.4</ele></trkpt><trkpt lat="46.324939" lon="9.947173"><time>2021-07-03T06:38:18.000Z</time><ele>2251.6</ele></trkpt><trkpt lat="46.324975" lon="9.947242"><time>2021-07-03T06:38:26.000Z</time><ele>2252</ele></trkpt><trkpt lat="46.325028" lon="9.947271"><time>2021-07-03T06:38:33.000Z</time><ele>2252.4</ele></trkpt><trkpt lat="46.325045" lon="9.947275"><time>2021-07-03T06:38:35.000Z</time><ele>2252.4</ele></trkpt><trkpt lat="46.32512" lon="9.947328"><time>2021-07-03T06:38:43.000Z</time><ele>2252.6</ele></trkpt><trkpt lat="46.325175" lon="9.947367"><time>2021-07-03T06:38:50.000Z</time><ele>2252.6</ele></trkpt><trkpt lat="46.325183" lon="9.947374"><time>2021-07-03T06:38:51.000Z</time><ele>2252.8</ele></trkpt><trkpt lat="46.325254" lon="9.947421"><time>2021-07-03T06:38:59.000Z</time><ele>2253.4</ele></trkpt><trkpt lat="46.325278" lon="9.947432"><time>2021-07-03T06:39:01.000Z</time><ele>2253.6</ele></trkpt><trkpt lat="46.325328" lon="9.947478"><time>2021-07-03T06:39:07.000Z</time><ele>2253.8</ele></trkpt><trkpt lat="46.325344" lon="9.947487"><time>2021-07-03T06:39:09.000Z</time><ele>2253.8</ele></trkpt><trkpt lat="46.325419" lon="9.947491"><time>2021-07-03T06:39:17.000Z</time><ele>2254.4</ele></trkpt><trkpt lat="46.325429" lon="9.947482"><time>2021-07-03T06:39:18.000Z</time><ele>2254.6</ele></trkpt><trkpt lat="46.325461" lon="9.947453"><time>2021-07-03T06:39:22.000Z</time><ele>2254.8</ele></trkpt><trkpt lat="46.325472" lon="9.947461"><time>2021-07-03T06:39:24.000Z</time><ele>2255</ele></trkpt><trkpt lat="46.325472" lon="9.94747"><time>2021-07-03T06:39:25.000Z</time><ele>2255</ele></trkpt><trkpt lat="46.325477" lon="9.947481"><time>2021-07-03T06:39:26.000Z</time><ele>2255</ele></trkpt><trkpt lat="46.325481" lon="9.947498"><time>2021-07-03T06:39:31.000Z</time><ele>2255.2</ele></trkpt><trkpt lat="46.32547" lon="9.947525"><time>2021-07-03T06:39:33.000Z</time><ele>2255.4</ele></trkpt><trkpt lat="46.325504" lon="9.947558"><time>2021-07-03T06:39:38.000Z</time><ele>2256.4</ele></trkpt><trkpt lat="46.325519" lon="9.947592"><time>2021-07-03T06:39:41.000Z</time><ele>2256.6</ele></trkpt><trkpt lat="46.325555" lon="9.947653"><time>2021-07-03T06:39:49.000Z</time><ele>2257.6</ele></trkpt><trkpt lat="46.325574" lon="9.947671"><time>2021-07-03T06:39:54.000Z</time><ele>2257.8</ele></trkpt><trkpt lat="46.325561" lon="9.947679"><time>2021-07-03T06:40:00.000Z</time><ele>2257.8</ele></trkpt><trkpt lat="46.325562" lon="9.947679"><time>2021-07-03T06:40:05.000Z</time><ele>2258</ele></trkpt><trkpt lat="46.325562" lon="9.947672"><time>2021-07-03T06:40:16.000Z</time><ele>2257.8</ele></trkpt><trkpt lat="46.325562" lon="9.947672"><time>2021-07-03T06:40:17.000Z</time><ele>2257.8</ele></trkpt><trkpt lat="46.325562" lon="9.947672"><time>2021-07-03T06:40:24.000Z</time><ele>2258</ele></trkpt><trkpt lat="46.325558" lon="9.947682"><time>2021-07-03T06:40:37.000Z</time><ele>2257.8</ele></trkpt><trkpt lat="46.325558" lon="9.947684"><time>2021-07-03T06:40:39.000Z</time><ele>2257.8</ele></trkpt><trkpt lat="46.325558" lon="9.947687"><time>2021-07-03T06:40:44.000Z</time><ele>2257.8</ele></trkpt><trkpt lat="46.325585" lon="9.947695"><time>2021-07-03T06:41:17.000Z</time><ele>2257.8</ele></trkpt><trkpt lat="46.325584" lon="9.947695"><time>2021-07-03T06:41:20.000Z</time><ele>2257.8</ele></trkpt><trkpt lat="46.325574" lon="9.94772"><time>2021-07-03T06:41:44.000Z</time><ele>2257.8</ele></trkpt><trkpt lat="46.325557" lon="9.947765"><time>2021-07-03T06:42:06.000Z</time><ele>2257.8</ele></trkpt><trkpt lat="46.325555" lon="9.947774"><time>2021-07-03T06:42:14.000Z</time><ele>2257.8</ele></trkpt><trkpt lat="46.325555" lon="9.947833"><time>2021-07-03T06:42:23.000Z</time><ele>2257.8</ele></trkpt><trkpt lat="46.325569" lon="9.947833"><time>2021-07-03T06:42:38.000Z</time><ele>2257.8</ele></trkpt><trkpt lat="46.325581" lon="9.947798"><time>2021-07-03T06:42:55.000Z</time><ele>2257.8</ele></trkpt><trkpt lat="46.325607" lon="9.94779"><time>2021-07-03T06:43:01.000Z</time><ele>2257.8</ele></trkpt><trkpt lat="46.325652" lon="9.94781"><time>2021-07-03T06:43:05.000Z</time><ele>2257.8</ele></trkpt><trkpt lat="46.325677" lon="9.947801"><time>2021-07-03T06:43:07.000Z</time><ele>2257.8</ele></trkpt><trkpt lat="46.325731" lon="9.947799"><time>2021-07-03T06:43:12.000Z</time><ele>2258</ele></trkpt><trkpt lat="46.325775" lon="9.947808"><time>2021-07-03T06:43:18.000Z</time><ele>2258.8</ele></trkpt><trkpt lat="46.325782" lon="9.947812"><time>2021-07-03T06:43:19.000Z</time><ele>2258.8</ele></trkpt><trkpt lat="46.325831" lon="9.947815"><time>2021-07-03T06:43:26.000Z</time><ele>2259.2</ele></trkpt><trkpt lat="46.325841" lon="9.947826"><time>2021-07-03T06:43:28.000Z</time><ele>2259.4</ele></trkpt><trkpt lat="46.325852" lon="9.947837"><time>2021-07-03T06:43:30.000Z</time><ele>2259.6</ele></trkpt><trkpt lat="46.32586" lon="9.947836"><time>2021-07-03T06:43:31.000Z</time><ele>2259.6</ele></trkpt><trkpt lat="46.325868" lon="9.947836"><time>2021-07-03T06:43:32.000Z</time><ele>2259.8</ele></trkpt><trkpt lat="46.325887" lon="9.94788"><time>2021-07-03T06:43:38.000Z</time><ele>2260.4</ele></trkpt><trkpt lat="46.325886" lon="9.947899"><time>2021-07-03T06:43:39.000Z</time><ele>2260.2</ele></trkpt><trkpt lat="46.325888" lon="9.947949"><time>2021-07-03T06:43:42.000Z</time><ele>2260.4</ele></trkpt><trkpt lat="46.325897" lon="9.947962"><time>2021-07-03T06:43:44.000Z</time><ele>2260.4</ele></trkpt><trkpt lat="46.325921" lon="9.948008"><time>2021-07-03T06:43:49.000Z</time><ele>2260.8</ele></trkpt><trkpt lat="46.325936" lon="9.948026"><time>2021-07-03T06:43:51.000Z</time><ele>2261.2</ele></trkpt><trkpt lat="46.326006" lon="9.948057"><time>2021-07-03T06:44:00.000Z</time><ele>2261.6</ele></trkpt><trkpt lat="46.326042" lon="9.948051"><time>2021-07-03T06:44:05.000Z</time><ele>2261.8</ele></trkpt><trkpt lat="46.326048" lon="9.94805"><time>2021-07-03T06:44:06.000Z</time><ele>2261.8</ele></trkpt><trkpt lat="46.326059" lon="9.948046"><time>2021-07-03T06:44:08.000Z</time><ele>2262</ele></trkpt><trkpt lat="46.32608" lon="9.948054"><time>2021-07-03T06:44:10.000Z</time><ele>2262.2</ele></trkpt><trkpt lat="46.326152" lon="9.94805"><time>2021-07-03T06:44:19.000Z</time><ele>2263</ele></trkpt><trkpt lat="46.326202" lon="9.948049"><time>2021-07-03T06:44:26.000Z</time><ele>2263.6</ele></trkpt><trkpt lat="46.326206" lon="9.948051"><time>2021-07-03T06:44:27.000Z</time><ele>2263.8</ele></trkpt><trkpt lat="46.326227" lon="9.948047"><time>2021-07-03T06:44:29.000Z</time><ele>2264</ele></trkpt><trkpt lat="46.326265" lon="9.948067"><time>2021-07-03T06:44:34.000Z</time><ele>2264.4</ele></trkpt><trkpt lat="46.326323" lon="9.948072"><time>2021-07-03T06:44:40.000Z</time><ele>2265</ele></trkpt><trkpt lat="46.326343" lon="9.948063"><time>2021-07-03T06:44:42.000Z</time><ele>2265.2</ele></trkpt><trkpt lat="46.326361" lon="9.948067"><time>2021-07-03T06:44:44.000Z</time><ele>2265.4</ele></trkpt><trkpt lat="46.326371" lon="9.948068"><time>2021-07-03T06:44:46.000Z</time><ele>2265.6</ele></trkpt><trkpt lat="46.326371" lon="9.948072"><time>2021-07-03T06:44:47.000Z</time><ele>2265.6</ele></trkpt><trkpt lat="46.326369" lon="9.948077"><time>2021-07-03T06:44:49.000Z</time><ele>2265.8</ele></trkpt><trkpt lat="46.326384" lon="9.948085"><time>2021-07-03T06:44:55.000Z</time><ele>2266</ele></trkpt><trkpt lat="46.326386" lon="9.948087"><time>2021-07-03T06:44:56.000Z</time><ele>2266.2</ele></trkpt><trkpt lat="46.326411" lon="9.948135"><time>2021-07-03T06:45:02.000Z</time><ele>2267</ele></trkpt><trkpt lat="46.326426" lon="9.948164"><time>2021-07-03T06:45:05.000Z</time><ele>2267.2</ele></trkpt><trkpt lat="46.326445" lon="9.948187"><time>2021-07-03T06:45:08.000Z</time><ele>2267.2</ele></trkpt><trkpt lat="46.326463" lon="9.948211"><time>2021-07-03T06:45:12.000Z</time><ele>2267.4</ele></trkpt><trkpt lat="46.326497" lon="9.948241"><time>2021-07-03T06:45:17.000Z</time><ele>2268</ele></trkpt><trkpt lat="46.32651" lon="9.948247"><time>2021-07-03T06:45:19.000Z</time><ele>2268.2</ele></trkpt><trkpt lat="46.326514" lon="9.948248"><time>2021-07-03T06:45:20.000Z</time><ele>2268.4</ele></trkpt><trkpt lat="46.326529" lon="9.948258"><time>2021-07-03T06:45:23.000Z</time><ele>2268.8</ele></trkpt><trkpt lat="46.326546" lon="9.948279"><time>2021-07-03T06:45:26.000Z</time><ele>2269</ele></trkpt><trkpt lat="46.326552" lon="9.948286"><time>2021-07-03T06:45:27.000Z</time><ele>2269.4</ele></trkpt><trkpt lat="46.326588" lon="9.948341"><time>2021-07-03T06:45:34.000Z</time><ele>2270.2</ele></trkpt><trkpt lat="46.326607" lon="9.948346"><time>2021-07-03T06:45:36.000Z</time><ele>2270.4</ele></trkpt><trkpt lat="46.326657" lon="9.948422"><time>2021-07-03T06:45:44.000Z</time><ele>2271.4</ele></trkpt><trkpt lat="46.326665" lon="9.948443"><time>2021-07-03T06:45:46.000Z</time><ele>2271.6</ele></trkpt><trkpt lat="46.326682" lon="9.948462"><time>2021-07-03T06:45:49.000Z</time><ele>2272</ele></trkpt><trkpt lat="46.326687" lon="9.948459"><time>2021-07-03T06:45:52.000Z</time><ele>2272.2</ele></trkpt><trkpt lat="46.326687" lon="9.948473"><time>2021-07-03T06:45:55.000Z</time><ele>2272.4</ele></trkpt><trkpt lat="46.326695" lon="9.948474"><time>2021-07-03T06:45:57.000Z</time><ele>2272.4</ele></trkpt><trkpt lat="46.326707" lon="9.948476"><time>2021-07-03T06:45:59.000Z</time><ele>2272.4</ele></trkpt><trkpt lat="46.32676" lon="9.948491"><time>2021-07-03T06:46:05.000Z</time><ele>2273.2</ele></trkpt><trkpt lat="46.326801" lon="9.948507"><time>2021-07-03T06:46:11.000Z</time><ele>2273.2</ele></trkpt><trkpt lat="46.326808" lon="9.948531"><time>2021-07-03T06:46:13.000Z</time><ele>2273.2</ele></trkpt><trkpt lat="46.326822" lon="9.948553"><time>2021-07-03T06:46:19.000Z</time><ele>2272.8</ele></trkpt><trkpt lat="46.326829" lon="9.94854"><time>2021-07-03T06:46:27.000Z</time><ele>2272.8</ele></trkpt><trkpt lat="46.326894" lon="9.948584"><time>2021-07-03T06:46:36.000Z</time><ele>2272.4</ele></trkpt><trkpt lat="46.326913" lon="9.948586"><time>2021-07-03T06:46:37.000Z</time><ele>2272.4</ele></trkpt><trkpt lat="46.32699" lon="9.948669"><time>2021-07-03T06:46:44.000Z</time><ele>2272.4</ele></trkpt><trkpt lat="46.327036" lon="9.948716"><time>2021-07-03T06:46:51.000Z</time><ele>2272.2</ele></trkpt><trkpt lat="46.327044" lon="9.948732"><time>2021-07-03T06:46:53.000Z</time><ele>2272.2</ele></trkpt><trkpt lat="46.327049" lon="9.948749"><time>2021-07-03T06:46:54.000Z</time><ele>2272.4</ele></trkpt><trkpt lat="46.327073" lon="9.948761"><time>2021-07-03T06:46:56.000Z</time><ele>2272.4</ele></trkpt><trkpt lat="46.327088" lon="9.948772"><time>2021-07-03T06:46:58.000Z</time><ele>2272.2</ele></trkpt><trkpt lat="46.327111" lon="9.9488"><time>2021-07-03T06:47:02.000Z</time><ele>2272.2</ele></trkpt><trkpt lat="46.327125" lon="9.948821"><time>2021-07-03T06:47:04.000Z</time><ele>2272.2</ele></trkpt><trkpt lat="46.327151" lon="9.94884"><time>2021-07-03T06:47:07.000Z</time><ele>2272</ele></trkpt><trkpt lat="46.32716" lon="9.948843"><time>2021-07-03T06:47:08.000Z</time><ele>2272</ele></trkpt><trkpt lat="46.327223" lon="9.948899"><time>2021-07-03T06:47:17.000Z</time><ele>2272.2</ele></trkpt><trkpt lat="46.327232" lon="9.948903"><time>2021-07-03T06:47:18.000Z</time><ele>2272</ele></trkpt><trkpt lat="46.327263" lon="9.948908"><time>2021-07-03T06:47:21.000Z</time><ele>2271.6</ele></trkpt><trkpt lat="46.327277" lon="9.948913"><time>2021-07-03T06:47:23.000Z</time><ele>2271.4</ele></trkpt><trkpt lat="46.327302" lon="9.948944"><time>2021-07-03T06:47:28.000Z</time><ele>2272</ele></trkpt><trkpt lat="46.327308" lon="9.948954"><time>2021-07-03T06:47:30.000Z</time><ele>2272.4</ele></trkpt><trkpt lat="46.327312" lon="9.948965"><time>2021-07-03T06:47:31.000Z</time><ele>2272.4</ele></trkpt><trkpt lat="46.327315" lon="9.948977"><time>2021-07-03T06:47:32.000Z</time><ele>2272.4</ele></trkpt><trkpt lat="46.327333" lon="9.948994"><time>2021-07-03T06:47:35.000Z</time><ele>2272.8</ele></trkpt><trkpt lat="46.32735" lon="9.948998"><time>2021-07-03T06:47:37.000Z</time><ele>2273</ele></trkpt><trkpt lat="46.327351" lon="9.94904"><time>2021-07-03T06:47:41.000Z</time><ele>2273.6</ele></trkpt><trkpt lat="46.32738" lon="9.949075"><time>2021-07-03T06:47:48.000Z</time><ele>2274.6</ele></trkpt><trkpt lat="46.327386" lon="9.949082"><time>2021-07-03T06:47:50.000Z</time><ele>2275</ele></trkpt><trkpt lat="46.327416" lon="9.949095"><time>2021-07-03T06:47:55.000Z</time><ele>2275.8</ele></trkpt><trkpt lat="46.327453" lon="9.949125"><time>2021-07-03T06:48:00.000Z</time><ele>2276.8</ele></trkpt><trkpt lat="46.327465" lon="9.949128"><time>2021-07-03T06:48:02.000Z</time><ele>2277.2</ele></trkpt><trkpt lat="46.327493" lon="9.949145"><time>2021-07-03T06:48:06.000Z</time><ele>2277.6</ele></trkpt><trkpt lat="46.327498" lon="9.949156"><time>2021-07-03T06:48:07.000Z</time><ele>2277.8</ele></trkpt><trkpt lat="46.327513" lon="9.949181"><time>2021-07-03T06:48:09.000Z</time><ele>2278</ele></trkpt><trkpt lat="46.327548" lon="9.94923"><time>2021-07-03T06:48:17.000Z</time><ele>2278.4</ele></trkpt><trkpt lat="46.327557" lon="9.949237"><time>2021-07-03T06:48:19.000Z</time><ele>2278.8</ele></trkpt><trkpt lat="46.327558" lon="9.949247"><time>2021-07-03T06:48:20.000Z</time><ele>2279.2</ele></trkpt><trkpt lat="46.327567" lon="9.949263"><time>2021-07-03T06:48:23.000Z</time><ele>2279.6</ele></trkpt><trkpt lat="46.327577" lon="9.949262"><time>2021-07-03T06:48:26.000Z</time><ele>2280.4</ele></trkpt><trkpt lat="46.32759" lon="9.949272"><time>2021-07-03T06:48:30.000Z</time><ele>2281</ele></trkpt><trkpt lat="46.327594" lon="9.949282"><time>2021-07-03T06:48:32.000Z</time><ele>2281.4</ele></trkpt><trkpt lat="46.327611" lon="9.949298"><time>2021-07-03T06:48:38.000Z</time><ele>2282.2</ele></trkpt><trkpt lat="46.327611" lon="9.949315"><time>2021-07-03T06:48:40.000Z</time><ele>2282.4</ele></trkpt><trkpt lat="46.327631" lon="9.949354"><time>2021-07-03T06:48:46.000Z</time><ele>2283.4</ele></trkpt><trkpt lat="46.327648" lon="9.949411"><time>2021-07-03T06:48:53.000Z</time><ele>2284.6</ele></trkpt><trkpt lat="46.327656" lon="9.949431"><time>2021-07-03T06:48:56.000Z</time><ele>2285</ele></trkpt><trkpt lat="46.327661" lon="9.949432"><time>2021-07-03T06:48:57.000Z</time><ele>2285</ele></trkpt><trkpt lat="46.327684" lon="9.949451"><time>2021-07-03T06:49:01.000Z</time><ele>2285.8</ele></trkpt><trkpt lat="46.327706" lon="9.949474"><time>2021-07-03T06:49:05.000Z</time><ele>2286.2</ele></trkpt><trkpt lat="46.327723" lon="9.949491"><time>2021-07-03T06:49:08.000Z</time><ele>2286.8</ele></trkpt><trkpt lat="46.327732" lon="9.949517"><time>2021-07-03T06:49:11.000Z</time><ele>2287.4</ele></trkpt><trkpt lat="46.327743" lon="9.949536"><time>2021-07-03T06:49:13.000Z</time><ele>2287.8</ele></trkpt><trkpt lat="46.327752" lon="9.949538"><time>2021-07-03T06:49:14.000Z</time><ele>2288</ele></trkpt><trkpt lat="46.327801" lon="9.949577"><time>2021-07-03T06:49:23.000Z</time><ele>2289</ele></trkpt><trkpt lat="46.327839" lon="9.949621"><time>2021-07-03T06:49:31.000Z</time><ele>2290</ele></trkpt><trkpt lat="46.327842" lon="9.949631"><time>2021-07-03T06:49:33.000Z</time><ele>2290.2</ele></trkpt><trkpt lat="46.327855" lon="9.949659"><time>2021-07-03T06:49:38.000Z</time><ele>2291.2</ele></trkpt><trkpt lat="46.327866" lon="9.949682"><time>2021-07-03T06:49:41.000Z</time><ele>2291.8</ele></trkpt><trkpt lat="46.327876" lon="9.949695"><time>2021-07-03T06:49:43.000Z</time><ele>2292.2</ele></trkpt><trkpt lat="46.327899" lon="9.949696"><time>2021-07-03T06:49:49.000Z</time><ele>2292.8</ele></trkpt><trkpt lat="46.3279" lon="9.94971"><time>2021-07-03T06:49:51.000Z</time><ele>2293.2</ele></trkpt><trkpt lat="46.327913" lon="9.949732"><time>2021-07-03T06:49:56.000Z</time><ele>2293.8</ele></trkpt><trkpt lat="46.327914" lon="9.949739"><time>2021-07-03T06:49:58.000Z</time><ele>2294.2</ele></trkpt><trkpt lat="46.327932" lon="9.949784"><time>2021-07-03T06:50:04.000Z</time><ele>2295</ele></trkpt><trkpt lat="46.327941" lon="9.949806"><time>2021-07-03T06:50:07.000Z</time><ele>2295.4</ele></trkpt><trkpt lat="46.327958" lon="9.949844"><time>2021-07-03T06:50:12.000Z</time><ele>2296.2</ele></trkpt><trkpt lat="46.327972" lon="9.949863"><time>2021-07-03T06:50:15.000Z</time><ele>2296.6</ele></trkpt><trkpt lat="46.327995" lon="9.949889"><time>2021-07-03T06:50:20.000Z</time><ele>2297.2</ele></trkpt><trkpt lat="46.328015" lon="9.949938"><time>2021-07-03T06:50:25.000Z</time><ele>2297.8</ele></trkpt><trkpt lat="46.328035" lon="9.94997"><time>2021-07-03T06:50:30.000Z</time><ele>2298.4</ele></trkpt><trkpt lat="46.32805" lon="9.949994"><time>2021-07-03T06:50:34.000Z</time><ele>2298.8</ele></trkpt><trkpt lat="46.328059" lon="9.949995"><time>2021-07-03T06:50:35.000Z</time><ele>2299</ele></trkpt><trkpt lat="46.328073" lon="9.950017"><time>2021-07-03T06:50:39.000Z</time><ele>2299.8</ele></trkpt><trkpt lat="46.328072" lon="9.950063"><time>2021-07-03T06:50:42.000Z</time><ele>2300.2</ele></trkpt><trkpt lat="46.328113" lon="9.950113"><time>2021-07-03T06:50:50.000Z</time><ele>2301</ele></trkpt><trkpt lat="46.328121" lon="9.950114"><time>2021-07-03T06:50:52.000Z</time><ele>2301.4</ele></trkpt><trkpt lat="46.328147" lon="9.950138"><time>2021-07-03T06:50:58.000Z</time><ele>2302</ele></trkpt><trkpt lat="46.328161" lon="9.950152"><time>2021-07-03T06:51:00.000Z</time><ele>2302.2</ele></trkpt><trkpt lat="46.328174" lon="9.950194"><time>2021-07-03T06:51:07.000Z</time><ele>2303.2</ele></trkpt><trkpt lat="46.328188" lon="9.950223"><time>2021-07-03T06:51:11.000Z</time><ele>2303.8</ele></trkpt><trkpt lat="46.328198" lon="9.950251"><time>2021-07-03T06:51:15.000Z</time><ele>2304.2</ele></trkpt><trkpt lat="46.328204" lon="9.950293"><time>2021-07-03T06:51:20.000Z</time><ele>2304.6</ele></trkpt><trkpt lat="46.328224" lon="9.950336"><time>2021-07-03T06:51:26.000Z</time><ele>2305.4</ele></trkpt><trkpt lat="46.328252" lon="9.950368"><time>2021-07-03T06:51:32.000Z</time><ele>2306.4</ele></trkpt><trkpt lat="46.328257" lon="9.950369"><time>2021-07-03T06:51:33.000Z</time><ele>2306.4</ele></trkpt><trkpt lat="46.32829" lon="9.950406"><time>2021-07-03T06:51:41.000Z</time><ele>2307.6</ele></trkpt><trkpt lat="46.328341" lon="9.95044"><time>2021-07-03T06:51:50.000Z</time><ele>2308.6</ele></trkpt><trkpt lat="46.328342" lon="9.950441"><time>2021-07-03T06:51:51.000Z</time><ele>2308.8</ele></trkpt><trkpt lat="46.328366" lon="9.950446"><time>2021-07-03T06:51:56.000Z</time><ele>2309.6</ele></trkpt><trkpt lat="46.328369" lon="9.950452"><time>2021-07-03T06:51:57.000Z</time><ele>2309.8</ele></trkpt><trkpt lat="46.328416" lon="9.950476"><time>2021-07-03T06:52:05.000Z</time><ele>2310.6</ele></trkpt><trkpt lat="46.328444" lon="9.950509"><time>2021-07-03T06:52:14.000Z</time><ele>2311.8</ele></trkpt><trkpt lat="46.328453" lon="9.950514"><time>2021-07-03T06:52:15.000Z</time><ele>2311.8</ele></trkpt><trkpt lat="46.328487" lon="9.950536"><time>2021-07-03T06:52:22.000Z</time><ele>2312.8</ele></trkpt><trkpt lat="46.328506" lon="9.950548"><time>2021-07-03T06:52:25.000Z</time><ele>2313.4</ele></trkpt><trkpt lat="46.328528" lon="9.950563"><time>2021-07-03T06:52:30.000Z</time><ele>2314</ele></trkpt><trkpt lat="46.328532" lon="9.950551"><time>2021-07-03T06:52:34.000Z</time><ele>2314.4</ele></trkpt><trkpt lat="46.328562" lon="9.950568"><time>2021-07-03T06:52:40.000Z</time><ele>2315</ele></trkpt><trkpt lat="46.328591" lon="9.950556"><time>2021-07-03T06:52:45.000Z</time><ele>2315.4</ele></trkpt><trkpt lat="46.328586" lon="9.95056"><time>2021-07-03T06:52:51.000Z</time><ele>2315.8</ele></trkpt><trkpt lat="46.32856" lon="9.950609"><time>2021-07-03T06:52:59.000Z</time><ele>2315.6</ele></trkpt><trkpt lat="46.328561" lon="9.950607"><time>2021-07-03T06:53:18.000Z</time><ele>2315.8</ele></trkpt><trkpt lat="46.328561" lon="9.950607"><time>2021-07-03T06:53:21.000Z</time><ele>2315.8</ele></trkpt><trkpt lat="46.328561" lon="9.950607"><time>2021-07-03T06:53:23.000Z</time><ele>2315.8</ele></trkpt><trkpt lat="46.328561" lon="9.950607"><time>2021-07-03T06:53:25.000Z</time><ele>2315.8</ele></trkpt><trkpt lat="46.328561" lon="9.950602"><time>2021-07-03T06:53:31.000Z</time><ele>2315.8</ele></trkpt><trkpt lat="46.328562" lon="9.950596"><time>2021-07-03T06:53:35.000Z</time><ele>2315.8</ele></trkpt><trkpt lat="46.328569" lon="9.950577"><time>2021-07-03T06:53:38.000Z</time><ele>2315.8</ele></trkpt><trkpt lat="46.328585" lon="9.950565"><time>2021-07-03T06:53:42.000Z</time><ele>2315.8</ele></trkpt><trkpt lat="46.328589" lon="9.950565"><time>2021-07-03T06:53:46.000Z</time><ele>2315.8</ele></trkpt><trkpt lat="46.328591" lon="9.950565"><time>2021-07-03T06:53:50.000Z</time><ele>2316</ele></trkpt><trkpt lat="46.328591" lon="9.950565"><time>2021-07-03T06:53:54.000Z</time><ele>2315.8</ele></trkpt><trkpt lat="46.328584" lon="9.950581"><time>2021-07-03T06:54:06.000Z</time><ele>2315.8</ele></trkpt><trkpt lat="46.328578" lon="9.950603"><time>2021-07-03T06:54:16.000Z</time><ele>2315.8</ele></trkpt><trkpt lat="46.328577" lon="9.950611"><time>2021-07-03T06:54:18.000Z</time><ele>2315.8</ele></trkpt><trkpt lat="46.328577" lon="9.950615"><time>2021-07-03T06:54:20.000Z</time><ele>2315.8</ele></trkpt><trkpt lat="46.328577" lon="9.950616"><time>2021-07-03T06:54:21.000Z</time><ele>2315.8</ele></trkpt><trkpt lat="46.328577" lon="9.950617"><time>2021-07-03T06:54:24.000Z</time><ele>2315.8</ele></trkpt><trkpt lat="46.328584" lon="9.950616"><time>2021-07-03T06:54:36.000Z</time><ele>2315.8</ele></trkpt><trkpt lat="46.328587" lon="9.950613"><time>2021-07-03T06:54:39.000Z</time><ele>2315.8</ele></trkpt><trkpt lat="46.328588" lon="9.950611"><time>2021-07-03T06:54:40.000Z</time><ele>2315.8</ele></trkpt><trkpt lat="46.328588" lon="9.950605"><time>2021-07-03T06:54:45.000Z</time><ele>2315.8</ele></trkpt><trkpt lat="46.328588" lon="9.950604"><time>2021-07-03T06:54:47.000Z</time><ele>2315.8</ele></trkpt><trkpt lat="46.328591" lon="9.950598"><time>2021-07-03T06:54:57.000Z</time><ele>2315.8</ele></trkpt><trkpt lat="46.328591" lon="9.950596"><time>2021-07-03T06:55:00.000Z</time><ele>2315.8</ele></trkpt><trkpt lat="46.32861" lon="9.95055"><time>2021-07-03T06:55:25.000Z</time><ele>2315.8</ele></trkpt><trkpt lat="46.328616" lon="9.950546"><time>2021-07-03T06:55:33.000Z</time><ele>2315.8</ele></trkpt><trkpt lat="46.328617" lon="9.950546"><time>2021-07-03T06:55:37.000Z</time><ele>2315.8</ele></trkpt><trkpt lat="46.328615" lon="9.950552"><time>2021-07-03T06:55:46.000Z</time><ele>2315.8</ele></trkpt><trkpt lat="46.32861" lon="9.950558"><time>2021-07-03T06:55:59.000Z</time><ele>2315.8</ele></trkpt><trkpt lat="46.328608" lon="9.95056"><time>2021-07-03T06:56:02.000Z</time><ele>2315.8</ele></trkpt><trkpt lat="46.328602" lon="9.950565"><time>2021-07-03T06:56:16.000Z</time><ele>2315.8</ele></trkpt><trkpt lat="46.3286" lon="9.950565"><time>2021-07-03T06:56:41.000Z</time><ele>2315.8</ele></trkpt><trkpt lat="46.3286" lon="9.950565"><time>2021-07-03T06:56:48.000Z</time><ele>2315.8</ele></trkpt><trkpt lat="46.3286" lon="9.950564"><time>2021-07-03T06:56:57.000Z</time><ele>2315.8</ele></trkpt><trkpt lat="46.328599" lon="9.950564"><time>2021-07-03T06:57:07.000Z</time><ele>2315.8</ele></trkpt><trkpt lat="46.328599" lon="9.950564"><time>2021-07-03T06:57:26.000Z</time><ele>2315.8</ele></trkpt><trkpt lat="46.328599" lon="9.950564"><time>2021-07-03T06:57:28.000Z</time><ele>2315.8</ele></trkpt><trkpt lat="46.328599" lon="9.950564"><time>2021-07-03T06:57:30.000Z</time><ele>2315.8</ele></trkpt><trkpt lat="46.328574" lon="9.950417"><time>2021-07-03T06:57:49.000Z</time><ele>2315.8</ele></trkpt><trkpt lat="46.328566" lon="9.950393"><time>2021-07-03T06:57:50.000Z</time><ele>2315.8</ele></trkpt><trkpt lat="46.328559" lon="9.95037"><time>2021-07-03T06:57:51.000Z</time><ele>2315.8</ele></trkpt><trkpt lat="46.328552" lon="9.950347"><time>2021-07-03T06:57:52.000Z</time><ele>2315.8</ele></trkpt><trkpt lat="46.328539" lon="9.950308"><time>2021-07-03T06:57:55.000Z</time><ele>2315.8</ele></trkpt><trkpt lat="46.328537" lon="9.950292"><time>2021-07-03T06:57:58.000Z</time><ele>2315.8</ele></trkpt><trkpt lat="46.328525" lon="9.950252"><time>2021-07-03T06:58:03.000Z</time><ele>2315.8</ele></trkpt><trkpt lat="46.328534" lon="9.950197"><time>2021-07-03T06:58:08.000Z</time><ele>2315.8</ele></trkpt><trkpt lat="46.328521" lon="9.95015"><time>2021-07-03T06:58:15.000Z</time><ele>2315.8</ele></trkpt><trkpt lat="46.328524" lon="9.950139"><time>2021-07-03T06:58:17.000Z</time><ele>2323.8</ele></trkpt><trkpt lat="46.328531" lon="9.950105"><time>2021-07-03T06:58:21.000Z</time><ele>2324</ele></trkpt><trkpt lat="46.328532" lon="9.950093"><time>2021-07-03T06:58:23.000Z</time><ele>2324.6</ele></trkpt><trkpt lat="46.328535" lon="9.950077"><time>2021-07-03T06:58:25.000Z</time><ele>2324.8</ele></trkpt><trkpt lat="46.328527" lon="9.950021"><time>2021-07-03T06:58:31.000Z</time><ele>2325.4</ele></trkpt><trkpt lat="46.328523" lon="9.95001"><time>2021-07-03T06:58:33.000Z</time><ele>2325.8</ele></trkpt><trkpt lat="46.328521" lon="9.949999"><time>2021-07-03T06:58:35.000Z</time><ele>2326.2</ele></trkpt><trkpt lat="46.328513" lon="9.949971"><time>2021-07-03T06:58:38.000Z</time><ele>2326.4</ele></trkpt><trkpt lat="46.328505" lon="9.94996"><time>2021-07-03T06:58:40.000Z</time><ele>2326.6</ele></trkpt><trkpt lat="46.328503" lon="9.949933"><time>2021-07-03T06:58:43.000Z</time><ele>2327</ele></trkpt><trkpt lat="46.328501" lon="9.949924"><time>2021-07-03T06:58:44.000Z</time><ele>2327.2</ele></trkpt><trkpt lat="46.328492" lon="9.949879"><time>2021-07-03T06:58:50.000Z</time><ele>2327.8</ele></trkpt><trkpt lat="46.328484" lon="9.949846"><time>2021-07-03T06:58:53.000Z</time><ele>2328</ele></trkpt><trkpt lat="46.328479" lon="9.949827"><time>2021-07-03T06:58:55.000Z</time><ele>2328.4</ele></trkpt><trkpt lat="46.328479" lon="9.949817"><time>2021-07-03T06:58:56.000Z</time><ele>2328.6</ele></trkpt><trkpt lat="46.328473" lon="9.949796"><time>2021-07-03T06:58:59.000Z</time><ele>2329</ele></trkpt><trkpt lat="46.32847" lon="9.949792"><time>2021-07-03T06:59:00.000Z</time><ele>2329.4</ele></trkpt><trkpt lat="46.328466" lon="9.949776"><time>2021-07-03T06:59:02.000Z</time><ele>2329.6</ele></trkpt><trkpt lat="46.328464" lon="9.949769"><time>2021-07-03T06:59:03.000Z</time><ele>2329.8</ele></trkpt><trkpt lat="46.328453" lon="9.94976"><time>2021-07-03T06:59:05.000Z</time><ele>2330</ele></trkpt><trkpt lat="46.328447" lon="9.949752"><time>2021-07-03T06:59:09.000Z</time><ele>2330</ele></trkpt><trkpt lat="46.328455" lon="9.94976"><time>2021-07-03T06:59:12.000Z</time><ele>2330.2</ele></trkpt><trkpt lat="46.328458" lon="9.949759"><time>2021-07-03T06:59:19.000Z</time><ele>2330.4</ele></trkpt><trkpt lat="46.328458" lon="9.949759"><time>2021-07-03T06:59:20.000Z</time><ele>2330.6</ele></trkpt><trkpt lat="46.328458" lon="9.949757"><time>2021-07-03T06:59:30.000Z</time><ele>2330.2</ele></trkpt><trkpt lat="46.328458" lon="9.949755"><time>2021-07-03T06:59:39.000Z</time><ele>2331.2</ele></trkpt><trkpt lat="46.328457" lon="9.949734"><time>2021-07-03T06:59:44.000Z</time><ele>2332.2</ele></trkpt><trkpt lat="46.328438" lon="9.949695"><time>2021-07-03T06:59:50.000Z</time><ele>2333.2</ele></trkpt><trkpt lat="46.328427" lon="9.949649"><time>2021-07-03T06:59:58.000Z</time><ele>2334.4</ele></trkpt><trkpt lat="46.328423" lon="9.949619"><time>2021-07-03T07:00:03.000Z</time><ele>2335.4</ele></trkpt><trkpt lat="46.328422" lon="9.949605"><time>2021-07-03T07:00:05.000Z</time><ele>2336</ele></trkpt><trkpt lat="46.328416" lon="9.949561"><time>2021-07-03T07:00:11.000Z</time><ele>2336.6</ele></trkpt><trkpt lat="46.328413" lon="9.949528"><time>2021-07-03T07:00:15.000Z</time><ele>2337.2</ele></trkpt><trkpt lat="46.328408" lon="9.949505"><time>2021-07-03T07:00:18.000Z</time><ele>2337.8</ele></trkpt><trkpt lat="46.328404" lon="9.949483"><time>2021-07-03T07:00:21.000Z</time><ele>2338.2</ele></trkpt><trkpt lat="46.328397" lon="9.949444"><time>2021-07-03T07:00:26.000Z</time><ele>2338.8</ele></trkpt><trkpt lat="46.328394" lon="9.9494"><time>2021-07-03T07:00:32.000Z</time><ele>2340</ele></trkpt><trkpt lat="46.328394" lon="9.949346"><time>2021-07-03T07:00:40.000Z</time><ele>2341.4</ele></trkpt><trkpt lat="46.328414" lon="9.949248"><time>2021-07-03T07:00:48.000Z</time><ele>2342.4</ele></trkpt><trkpt lat="46.328418" lon="9.949229"><time>2021-07-03T07:00:49.000Z</time><ele>2342.4</ele></trkpt><trkpt lat="46.328415" lon="9.949139"><time>2021-07-03T07:00:53.000Z</time><ele>2343</ele></trkpt><trkpt lat="46.328412" lon="9.949106"><time>2021-07-03T07:00:55.000Z</time><ele>2343.4</ele></trkpt><trkpt lat="46.328409" lon="9.949098"><time>2021-07-03T07:00:56.000Z</time><ele>2343.6</ele></trkpt><trkpt lat="46.328405" lon="9.949086"><time>2021-07-03T07:00:57.000Z</time><ele>2343.6</ele></trkpt><trkpt lat="46.328398" lon="9.94907"><time>2021-07-03T07:01:00.000Z</time><ele>2344</ele></trkpt><trkpt lat="46.328395" lon="9.949061"><time>2021-07-03T07:01:02.000Z</time><ele>2344.4</ele></trkpt><trkpt lat="46.328389" lon="9.949058"><time>2021-07-03T07:01:03.000Z</time><ele>2344.6</ele></trkpt><trkpt lat="46.328387" lon="9.949052"><time>2021-07-03T07:01:05.000Z</time><ele>2345</ele></trkpt><trkpt lat="46.328388" lon="9.949033"><time>2021-07-03T07:01:09.000Z</time><ele>2345.6</ele></trkpt><trkpt lat="46.328385" lon="9.949023"><time>2021-07-03T07:01:10.000Z</time><ele>2345.6</ele></trkpt><trkpt lat="46.328384" lon="9.948997"><time>2021-07-03T07:01:15.000Z</time><ele>2346.6</ele></trkpt><trkpt lat="46.328346" lon="9.948961"><time>2021-07-03T07:01:20.000Z</time><ele>2347.2</ele></trkpt><trkpt lat="46.328341" lon="9.948959"><time>2021-07-03T07:01:22.000Z</time><ele>2347.6</ele></trkpt><trkpt lat="46.328355" lon="9.948931"><time>2021-07-03T07:01:27.000Z</time><ele>2348.4</ele></trkpt><trkpt lat="46.328366" lon="9.948938"><time>2021-07-03T07:01:36.000Z</time><ele>2348.8</ele></trkpt><trkpt lat="46.328366" lon="9.948938"><time>2021-07-03T07:01:39.000Z</time><ele>2348.8</ele></trkpt><trkpt lat="46.328356" lon="9.948937"><time>2021-07-03T07:01:54.000Z</time><ele>2348.8</ele></trkpt><trkpt lat="46.328354" lon="9.948934"><time>2021-07-03T07:02:06.000Z</time><ele>2348.6</ele></trkpt><trkpt lat="46.328353" lon="9.948933"><time>2021-07-03T07:02:13.000Z</time><ele>2348.6</ele></trkpt><trkpt lat="46.328352" lon="9.948932"><time>2021-07-03T07:02:16.000Z</time><ele>2348.8</ele></trkpt><trkpt lat="46.328347" lon="9.94893"><time>2021-07-03T07:02:28.000Z</time><ele>2348.8</ele></trkpt><trkpt lat="46.328346" lon="9.948928"><time>2021-07-03T07:02:31.000Z</time><ele>2348.8</ele></trkpt><trkpt lat="46.328337" lon="9.948925"><time>2021-07-03T07:02:36.000Z</time><ele>2348.6</ele></trkpt><trkpt lat="46.328337" lon="9.948925"><time>2021-07-03T07:02:38.000Z</time><ele>2349</ele></trkpt><trkpt lat="46.328337" lon="9.948925"><time>2021-07-03T07:02:40.000Z</time><ele>2349.2</ele></trkpt><trkpt lat="46.328337" lon="9.948925"><time>2021-07-03T07:02:45.000Z</time><ele>2349.8</ele></trkpt><trkpt lat="46.328355" lon="9.948932"><time>2021-07-03T07:02:53.000Z</time><ele>2350.4</ele></trkpt><trkpt lat="46.328375" lon="9.948942"><time>2021-07-03T07:02:56.000Z</time><ele>2350.8</ele></trkpt><trkpt lat="46.328414" lon="9.948982"><time>2021-07-03T07:03:06.000Z</time><ele>2351.8</ele></trkpt><trkpt lat="46.32845" lon="9.949007"><time>2021-07-03T07:03:22.000Z</time><ele>2352.6</ele></trkpt><trkpt lat="46.328451" lon="9.949008"><time>2021-07-03T07:03:24.000Z</time><ele>2352.8</ele></trkpt><trkpt lat="46.328533" lon="9.949062"><time>2021-07-03T07:03:31.000Z</time><ele>2354</ele></trkpt><trkpt lat="46.328537" lon="9.949078"><time>2021-07-03T07:03:33.000Z</time><ele>2354.2</ele></trkpt><trkpt lat="46.328527" lon="9.949082"><time>2021-07-03T07:03:37.000Z</time><ele>2354.8</ele></trkpt><trkpt lat="46.328528" lon="9.949081"><time>2021-07-03T07:03:39.000Z</time><ele>2355</ele></trkpt><trkpt lat="46.328528" lon="9.949082"><time>2021-07-03T07:03:51.000Z</time><ele>2356.2</ele></trkpt><trkpt lat="46.32856" lon="9.949102"><time>2021-07-03T07:04:02.000Z</time><ele>2356.8</ele></trkpt><trkpt lat="46.328572" lon="9.94912"><time>2021-07-03T07:04:06.000Z</time><ele>2357.2</ele></trkpt><trkpt lat="46.328575" lon="9.949154"><time>2021-07-03T07:04:14.000Z</time><ele>2358.2</ele></trkpt><trkpt lat="46.328588" lon="9.949188"><time>2021-07-03T07:04:22.000Z</time><ele>2359.4</ele></trkpt><trkpt lat="46.328595" lon="9.949246"><time>2021-07-03T07:04:29.000Z</time><ele>2360.6</ele></trkpt><trkpt lat="46.328681" lon="9.949334"><time>2021-07-03T07:04:47.000Z</time><ele>2361.2</ele></trkpt><trkpt lat="46.328683" lon="9.949338"><time>2021-07-03T07:04:51.000Z</time><ele>2361.8</ele></trkpt><trkpt lat="46.328695" lon="9.949375"><time>2021-07-03T07:05:01.000Z</time><ele>2362.8</ele></trkpt><trkpt lat="46.328723" lon="9.94941"><time>2021-07-03T07:05:08.000Z</time><ele>2363.8</ele></trkpt><trkpt lat="46.328776" lon="9.949479"><time>2021-07-03T07:05:19.000Z</time><ele>2365</ele></trkpt><trkpt lat="46.328827" lon="9.949485"><time>2021-07-03T07:05:37.000Z</time><ele>2366</ele></trkpt><trkpt lat="46.32883" lon="9.949492"><time>2021-07-03T07:05:44.000Z</time><ele>2367.2</ele></trkpt><trkpt lat="46.328862" lon="9.949516"><time>2021-07-03T07:05:55.000Z</time><ele>2368.4</ele></trkpt><trkpt lat="46.328948" lon="9.94955"><time>2021-07-03T07:06:14.000Z</time><ele>2369.4</ele></trkpt><trkpt lat="46.328976" lon="9.949557"><time>2021-07-03T07:06:29.000Z</time><ele>2370.4</ele></trkpt><trkpt lat="46.329051" lon="9.949628"><time>2021-07-03T07:06:39.000Z</time><ele>2371.6</ele></trkpt><trkpt lat="46.329066" lon="9.949643"><time>2021-07-03T07:06:40.000Z</time><ele>2371.6</ele></trkpt><trkpt lat="46.329083" lon="9.949654"><time>2021-07-03T07:06:41.000Z</time><ele>2371.6</ele></trkpt><trkpt lat="46.329145" lon="9.949687"><time>2021-07-03T07:06:47.000Z</time><ele>2372.2</ele></trkpt><trkpt lat="46.329162" lon="9.949688"><time>2021-07-03T07:06:50.000Z</time><ele>2372.8</ele></trkpt><trkpt lat="46.329182" lon="9.949732"><time>2021-07-03T07:06:55.000Z</time><ele>2373.2</ele></trkpt><trkpt lat="46.329223" lon="9.94973"><time>2021-07-03T07:07:02.000Z</time><ele>2373.6</ele></trkpt><trkpt lat="46.329232" lon="9.949752"><time>2021-07-03T07:07:05.000Z</time><ele>2373.8</ele></trkpt><trkpt lat="46.32924" lon="9.949765"><time>2021-07-03T07:07:06.000Z</time><ele>2374</ele></trkpt><trkpt lat="46.329252" lon="9.949805"><time>2021-07-03T07:07:09.000Z</time><ele>2374</ele></trkpt><trkpt lat="46.329256" lon="9.949813"><time>2021-07-03T07:07:10.000Z</time><ele>2374</ele></trkpt><trkpt lat="46.329265" lon="9.949823"><time>2021-07-03T07:07:11.000Z</time><ele>2374.2</ele></trkpt><trkpt lat="46.329281" lon="9.949828"><time>2021-07-03T07:07:14.000Z</time><ele>2375</ele></trkpt><trkpt lat="46.32928" lon="9.949836"><time>2021-07-03T07:07:16.000Z</time><ele>2375.2</ele></trkpt><trkpt lat="46.329271" lon="9.949869"><time>2021-07-03T07:07:22.000Z</time><ele>2375.6</ele></trkpt><trkpt lat="46.329272" lon="9.949868"><time>2021-07-03T07:07:29.000Z</time><ele>2375.8</ele></trkpt><trkpt lat="46.329272" lon="9.949868"><time>2021-07-03T07:07:30.000Z</time><ele>2375.8</ele></trkpt><trkpt lat="46.329272" lon="9.949868"><time>2021-07-03T07:07:39.000Z</time><ele>2375.6</ele></trkpt><trkpt lat="46.329272" lon="9.949866"><time>2021-07-03T07:07:42.000Z</time><ele>2375.6</ele></trkpt><trkpt lat="46.329281" lon="9.949849"><time>2021-07-03T07:07:55.000Z</time><ele>2375.2</ele></trkpt><trkpt lat="46.329285" lon="9.949846"><time>2021-07-03T07:08:02.000Z</time><ele>2375.6</ele></trkpt><trkpt lat="46.329285" lon="9.949846"><time>2021-07-03T07:08:16.000Z</time><ele>2375.8</ele></trkpt><trkpt lat="46.329285" lon="9.949846"><time>2021-07-03T07:08:17.000Z</time><ele>2376</ele></trkpt><trkpt lat="46.329283" lon="9.94985"><time>2021-07-03T07:08:24.000Z</time><ele>2375.6</ele></trkpt><trkpt lat="46.329283" lon="9.949864"><time>2021-07-03T07:08:35.000Z</time><ele>2375.4</ele></trkpt><trkpt lat="46.329288" lon="9.949866"><time>2021-07-03T07:08:41.000Z</time><ele>2375.6</ele></trkpt><trkpt lat="46.329289" lon="9.949867"><time>2021-07-03T07:08:43.000Z</time><ele>2375.8</ele></trkpt><trkpt lat="46.32929" lon="9.94987"><time>2021-07-03T07:08:47.000Z</time><ele>2376.2</ele></trkpt><trkpt lat="46.329291" lon="9.949872"><time>2021-07-03T07:08:48.000Z</time><ele>2376.2</ele></trkpt><trkpt lat="46.32933" lon="9.949936"><time>2021-07-03T07:13:32.000Z</time><ele>2376</ele></trkpt><trkpt lat="46.329313" lon="9.949909"><time>2021-07-03T07:13:38.000Z</time><ele>2376</ele></trkpt><trkpt lat="46.329303" lon="9.949876"><time>2021-07-03T07:13:40.000Z</time><ele>2376</ele></trkpt><trkpt lat="46.329305" lon="9.949878"><time>2021-07-03T07:13:41.000Z</time><ele>2376</ele></trkpt><trkpt lat="46.329309" lon="9.949872"><time>2021-07-03T07:13:48.000Z</time><ele>2376</ele></trkpt><trkpt lat="46.329309" lon="9.949872"><time>2021-07-03T07:13:52.000Z</time><ele>2376</ele></trkpt><trkpt lat="46.329279" lon="9.949832"><time>2021-07-03T07:14:55.000Z</time><ele>2376</ele></trkpt><trkpt lat="46.329276" lon="9.949832"><time>2021-07-03T07:14:58.000Z</time><ele>2376</ele></trkpt><trkpt lat="46.329261" lon="9.949818"><time>2021-07-03T07:15:10.000Z</time><ele>2376</ele></trkpt><trkpt lat="46.329255" lon="9.949791"><time>2021-07-03T07:15:13.000Z</time><ele>2376</ele></trkpt><trkpt lat="46.329236" lon="9.949741"><time>2021-07-03T07:15:17.000Z</time><ele>2376</ele></trkpt><trkpt lat="46.329231" lon="9.949733"><time>2021-07-03T07:15:19.000Z</time><ele>2376</ele></trkpt><trkpt lat="46.329243" lon="9.949749"><time>2021-07-03T07:15:23.000Z</time><ele>2376</ele></trkpt><trkpt lat="46.329245" lon="9.949753"><time>2021-07-03T07:15:24.000Z</time><ele>2376</ele></trkpt><trkpt lat="46.329249" lon="9.949756"><time>2021-07-03T07:15:28.000Z</time><ele>2376</ele></trkpt><trkpt lat="46.329261" lon="9.949759"><time>2021-07-03T07:15:32.000Z</time><ele>2376</ele></trkpt><trkpt lat="46.329261" lon="9.949759"><time>2021-07-03T07:15:40.000Z</time><ele>2376</ele></trkpt><trkpt lat="46.329261" lon="9.949759"><time>2021-07-03T07:15:43.000Z</time><ele>2376</ele></trkpt><trkpt lat="46.329252" lon="9.949785"><time>2021-07-03T07:16:03.000Z</time><ele>2376</ele></trkpt><trkpt lat="46.329252" lon="9.949787"><time>2021-07-03T07:16:05.000Z</time><ele>2376</ele></trkpt><trkpt lat="46.329252" lon="9.949817"><time>2021-07-03T07:16:10.000Z</time><ele>2376</ele></trkpt><trkpt lat="46.329253" lon="9.949824"><time>2021-07-03T07:16:13.000Z</time><ele>2376</ele></trkpt><trkpt lat="46.329255" lon="9.94983"><time>2021-07-03T07:16:37.000Z</time><ele>2376</ele></trkpt><trkpt lat="46.329253" lon="9.949841"><time>2021-07-03T07:16:45.000Z</time><ele>2376</ele></trkpt><trkpt lat="46.329253" lon="9.949843"><time>2021-07-03T07:16:48.000Z</time><ele>2376</ele></trkpt><trkpt lat="46.329255" lon="9.949843"><time>2021-07-03T07:16:53.000Z</time><ele>2376</ele></trkpt><trkpt lat="46.329264" lon="9.949841"><time>2021-07-03T07:17:29.000Z</time><ele>2376</ele></trkpt><trkpt lat="46.329261" lon="9.949861"><time>2021-07-03T07:17:49.000Z</time><ele>2376</ele></trkpt><trkpt lat="46.329263" lon="9.949865"><time>2021-07-03T07:17:59.000Z</time><ele>2376</ele></trkpt><trkpt lat="46.329262" lon="9.949859"><time>2021-07-03T07:18:21.000Z</time><ele>2376</ele></trkpt><trkpt lat="46.329259" lon="9.94985"><time>2021-07-03T07:18:27.000Z</time><ele>2376</ele></trkpt><trkpt lat="46.32927" lon="9.949861"><time>2021-07-03T07:18:57.000Z</time><ele>2376</ele></trkpt><trkpt lat="46.329271" lon="9.949865"><time>2021-07-03T07:19:34.000Z</time><ele>2376</ele></trkpt><trkpt lat="46.329272" lon="9.949866"><time>2021-07-03T07:19:58.000Z</time><ele>2376</ele></trkpt><trkpt lat="46.329272" lon="9.949867"><time>2021-07-03T07:20:04.000Z</time><ele>2376</ele></trkpt><trkpt lat="46.329272" lon="9.949868"><time>2021-07-03T07:20:18.000Z</time><ele>2376</ele></trkpt><trkpt lat="46.329273" lon="9.94987"><time>2021-07-03T07:20:35.000Z</time><ele>2376</ele></trkpt><trkpt lat="46.329273" lon="9.94987"><time>2021-07-03T07:20:40.000Z</time><ele>2376</ele></trkpt><trkpt lat="46.329273" lon="9.949872"><time>2021-07-03T07:20:53.000Z</time><ele>2376</ele></trkpt><trkpt lat="46.329273" lon="9.949872"><time>2021-07-03T07:20:59.000Z</time><ele>2376</ele></trkpt><trkpt lat="46.329273" lon="9.949872"><time>2021-07-03T07:21:04.000Z</time><ele>2376</ele></trkpt><trkpt lat="46.329274" lon="9.949873"><time>2021-07-03T07:21:15.000Z</time><ele>2376</ele></trkpt><trkpt lat="46.329274" lon="9.949876"><time>2021-07-03T07:21:35.000Z</time><ele>2376</ele></trkpt><trkpt lat="46.329274" lon="9.949876"><time>2021-07-03T07:21:41.000Z</time><ele>2376</ele></trkpt><trkpt lat="46.329275" lon="9.949877"><time>2021-07-03T07:21:47.000Z</time><ele>2376</ele></trkpt><trkpt lat="46.329275" lon="9.949878"><time>2021-07-03T07:21:58.000Z</time><ele>2376</ele></trkpt><trkpt lat="46.329275" lon="9.949878"><time>2021-07-03T07:22:00.000Z</time><ele>2376</ele></trkpt><trkpt lat="46.329275" lon="9.949878"><time>2021-07-03T07:22:05.000Z</time><ele>2376</ele></trkpt><trkpt lat="46.329275" lon="9.949878"><time>2021-07-03T07:22:06.000Z</time><ele>2376</ele></trkpt><trkpt lat="46.329275" lon="9.949878"><time>2021-07-03T07:22:13.000Z</time><ele>2376</ele></trkpt><trkpt lat="46.329274" lon="9.949878"><time>2021-07-03T07:22:29.000Z</time><ele>2376</ele></trkpt><trkpt lat="46.329274" lon="9.949877"><time>2021-07-03T07:22:42.000Z</time><ele>2376</ele></trkpt><trkpt lat="46.329274" lon="9.949877"><time>2021-07-03T07:22:48.000Z</time><ele>2376</ele></trkpt><trkpt lat="46.329274" lon="9.949875"><time>2021-07-03T07:23:11.000Z</time><ele>2376</ele></trkpt><trkpt lat="46.329274" lon="9.949875"><time>2021-07-03T07:23:17.000Z</time><ele>2376</ele></trkpt><trkpt lat="46.329299" lon="9.949914"><time>2021-07-03T07:23:21.000Z</time><ele>2376</ele></trkpt><trkpt lat="46.329282" lon="9.95003"><time>2021-07-03T07:23:31.000Z</time><ele>2376</ele></trkpt><trkpt lat="46.329299" lon="9.950157"><time>2021-07-03T07:23:36.000Z</time><ele>2376</ele></trkpt><trkpt lat="46.329329" lon="9.950127"><time>2021-07-03T07:23:39.000Z</time><ele>2376</ele></trkpt><trkpt lat="46.329339" lon="9.95011"><time>2021-07-03T07:23:42.000Z</time><ele>2376</ele></trkpt><trkpt lat="46.329351" lon="9.9501"><time>2021-07-03T07:23:46.000Z</time><ele>2376</ele></trkpt><trkpt lat="46.329376" lon="9.950101"><time>2021-07-03T07:23:53.000Z</time><ele>2376</ele></trkpt><trkpt lat="46.329372" lon="9.950091"><time>2021-07-03T07:23:54.000Z</time><ele>2376</ele></trkpt><trkpt lat="46.329306" lon="9.95009"><time>2021-07-03T07:23:57.000Z</time><ele>2376</ele></trkpt><trkpt lat="46.329285" lon="9.950088"><time>2021-07-03T07:24:01.000Z</time><ele>2376</ele></trkpt><trkpt lat="46.329323" lon="9.950066"><time>2021-07-03T07:24:05.000Z</time><ele>2376</ele></trkpt><trkpt lat="46.329317" lon="9.950061"><time>2021-07-03T07:24:07.000Z</time><ele>2376</ele></trkpt><trkpt lat="46.329328" lon="9.950027"><time>2021-07-03T07:24:09.000Z</time><ele>2376</ele></trkpt><trkpt lat="46.329399" lon="9.950023"><time>2021-07-03T07:24:14.000Z</time><ele>2376</ele></trkpt><trkpt lat="46.329518" lon="9.949964"><time>2021-07-03T07:24:22.000Z</time><ele>2376</ele></trkpt><trkpt lat="46.329518" lon="9.949936"><time>2021-07-03T07:24:24.000Z</time><ele>2376</ele></trkpt><trkpt lat="46.329512" lon="9.949937"><time>2021-07-03T07:24:25.000Z</time><ele>2376</ele></trkpt><trkpt lat="46.329519" lon="9.94992"><time>2021-07-03T07:24:28.000Z</time><ele>2376</ele></trkpt><trkpt lat="46.329536" lon="9.949888"><time>2021-07-03T07:24:30.000Z</time><ele>2376</ele></trkpt><trkpt lat="46.329565" lon="9.94988"><time>2021-07-03T07:24:37.000Z</time><ele>2376</ele></trkpt><trkpt lat="46.329578" lon="9.949798"><time>2021-07-03T07:24:41.000Z</time><ele>2376</ele></trkpt><trkpt lat="46.329564" lon="9.949817"><time>2021-07-03T07:24:45.000Z</time><ele>2376</ele></trkpt><trkpt lat="46.329501" lon="9.949822"><time>2021-07-03T07:24:52.000Z</time><ele>2376</ele></trkpt><trkpt lat="46.329452" lon="9.949834"><time>2021-07-03T07:24:55.000Z</time><ele>2376</ele></trkpt><trkpt lat="46.329385" lon="9.949843"><time>2021-07-03T07:24:59.000Z</time><ele>2376</ele></trkpt><trkpt lat="46.329299" lon="9.949833"><time>2021-07-03T07:25:04.000Z</time><ele>2376</ele></trkpt><trkpt lat="46.329263" lon="9.949845"><time>2021-07-03T07:25:08.000Z</time><ele>2376</ele></trkpt><trkpt lat="46.329367" lon="9.94981"><time>2021-07-03T07:25:15.000Z</time><ele>2376</ele></trkpt><trkpt lat="46.329385" lon="9.949756"><time>2021-07-03T07:25:21.000Z</time><ele>2376</ele></trkpt><trkpt lat="46.329331" lon="9.949744"><time>2021-07-03T07:25:25.000Z</time><ele>2376</ele></trkpt><trkpt lat="46.329265" lon="9.949753"><time>2021-07-03T07:25:30.000Z</time><ele>2376</ele></trkpt><trkpt lat="46.329237" lon="9.949724"><time>2021-07-03T07:25:32.000Z</time><ele>2376</ele></trkpt><trkpt lat="46.329253" lon="9.949761"><time>2021-07-03T07:25:38.000Z</time><ele>2376.4</ele></trkpt><trkpt lat="46.329263" lon="9.949797"><time>2021-07-03T07:25:45.000Z</time><ele>2377</ele></trkpt><trkpt lat="46.32926" lon="9.949799"><time>2021-07-03T07:25:47.000Z</time><ele>2377</ele></trkpt><trkpt lat="46.329271" lon="9.94986"><time>2021-07-03T07:25:51.000Z</time><ele>2376.6</ele></trkpt><trkpt lat="46.329297" lon="9.949868"><time>2021-07-03T07:25:58.000Z</time><ele>2376.6</ele></trkpt><trkpt lat="46.329277" lon="9.949816"><time>2021-07-03T07:26:09.000Z</time><ele>2377</ele></trkpt><trkpt lat="46.329277" lon="9.949816"><time>2021-07-03T07:26:11.000Z</time><ele>2377</ele></trkpt><trkpt lat="46.329277" lon="9.949817"><time>2021-07-03T07:26:14.000Z</time><ele>2377</ele></trkpt><trkpt lat="46.329277" lon="9.949821"><time>2021-07-03T07:26:16.000Z</time><ele>2377</ele></trkpt><trkpt lat="46.329277" lon="9.949826"><time>2021-07-03T07:26:18.000Z</time><ele>2376.8</ele></trkpt><trkpt lat="46.329276" lon="9.949846"><time>2021-07-03T07:26:52.000Z</time><ele>2376.4</ele></trkpt><trkpt lat="46.329276" lon="9.949847"><time>2021-07-03T07:26:59.000Z</time><ele>2376</ele></trkpt><trkpt lat="46.329282" lon="9.949851"><time>2021-07-03T07:27:12.000Z</time><ele>2376.2</ele></trkpt><trkpt lat="46.329282" lon="9.949852"><time>2021-07-03T07:27:13.000Z</time><ele>2376.2</ele></trkpt><trkpt lat="46.329285" lon="9.949856"><time>2021-07-03T07:27:19.000Z</time><ele>2376.2</ele></trkpt><trkpt lat="46.329285" lon="9.949856"><time>2021-07-03T07:27:22.000Z</time><ele>2376.6</ele></trkpt><trkpt lat="46.329285" lon="9.949855"><time>2021-07-03T07:27:26.000Z</time><ele>2376.4</ele></trkpt><trkpt lat="46.329285" lon="9.949855"><time>2021-07-03T07:27:28.000Z</time><ele>2376.4</ele></trkpt><trkpt lat="46.329282" lon="9.949847"><time>2021-07-03T07:27:40.000Z</time><ele>2376.6</ele></trkpt><trkpt lat="46.329278" lon="9.949839"><time>2021-07-03T07:27:49.000Z</time><ele>2377</ele></trkpt><trkpt lat="46.32927" lon="9.949836"><time>2021-07-03T07:27:58.000Z</time><ele>2376.6</ele></trkpt><trkpt lat="46.329272" lon="9.949841"><time>2021-07-03T07:28:12.000Z</time><ele>2376.4</ele></trkpt><trkpt lat="46.329277" lon="9.949843"><time>2021-07-03T07:28:23.000Z</time><ele>2376.6</ele></trkpt><trkpt lat="46.329303" lon="9.949831"><time>2021-07-03T07:28:38.000Z</time><ele>2376.8</ele></trkpt><trkpt lat="46.329311" lon="9.949815"><time>2021-07-03T07:28:42.000Z</time><ele>2376.8</ele></trkpt><trkpt lat="46.329315" lon="9.949801"><time>2021-07-03T07:28:46.000Z</time><ele>2376.8</ele></trkpt><trkpt lat="46.329322" lon="9.949783"><time>2021-07-03T07:28:53.000Z</time><ele>2376.4</ele></trkpt><trkpt lat="46.329323" lon="9.94978"><time>2021-07-03T07:28:54.000Z</time><ele>2376.4</ele></trkpt><trkpt lat="46.329341" lon="9.949679"><time>2021-07-03T07:29:02.000Z</time><ele>2375.8</ele></trkpt><trkpt lat="46.329358" lon="9.949613"><time>2021-07-03T07:29:07.000Z</time><ele>2375.4</ele></trkpt><trkpt lat="46.329363" lon="9.949542"><time>2021-07-03T07:29:13.000Z</time><ele>2375.2</ele></trkpt><trkpt lat="46.329352" lon="9.949497"><time>2021-07-03T07:29:16.000Z</time><ele>2375.2</ele></trkpt><trkpt lat="46.329355" lon="9.949458"><time>2021-07-03T07:29:20.000Z</time><ele>2375</ele></trkpt><trkpt lat="46.329369" lon="9.949453"><time>2021-07-03T07:29:23.000Z</time><ele>2374.8</ele></trkpt><trkpt lat="46.329388" lon="9.949464"><time>2021-07-03T07:29:30.000Z</time><ele>2374.8</ele></trkpt><trkpt lat="46.329392" lon="9.949459"><time>2021-07-03T07:29:34.000Z</time><ele>2374.8</ele></trkpt><trkpt lat="46.329392" lon="9.949459"><time>2021-07-03T07:29:36.000Z</time><ele>2374.8</ele></trkpt><trkpt lat="46.329392" lon="9.949459"><time>2021-07-03T07:29:37.000Z</time><ele>2374.8</ele></trkpt><trkpt lat="46.329392" lon="9.949459"><time>2021-07-03T07:29:41.000Z</time><ele>2374.8</ele></trkpt><trkpt lat="46.329392" lon="9.949459"><time>2021-07-03T07:29:42.000Z</time><ele>2374.8</ele></trkpt><trkpt lat="46.329392" lon="9.94946"><time>2021-07-03T07:29:45.000Z</time><ele>2375</ele></trkpt><trkpt lat="46.329392" lon="9.94946"><time>2021-07-03T07:29:46.000Z</time><ele>2375</ele></trkpt><trkpt lat="46.329392" lon="9.94946"><time>2021-07-03T07:29:47.000Z</time><ele>2374.8</ele></trkpt><trkpt lat="46.329392" lon="9.949461"><time>2021-07-03T07:29:48.000Z</time><ele>2374.8</ele></trkpt><trkpt lat="46.329396" lon="9.949462"><time>2021-07-03T07:29:53.000Z</time><ele>2375</ele></trkpt><trkpt lat="46.329401" lon="9.949462"><time>2021-07-03T07:30:08.000Z</time><ele>2374</ele></trkpt><trkpt lat="46.329401" lon="9.949462"><time>2021-07-03T07:30:09.000Z</time><ele>2374</ele></trkpt><trkpt lat="46.3294" lon="9.949443"><time>2021-07-03T07:30:14.000Z</time><ele>2373.8</ele></trkpt><trkpt lat="46.329401" lon="9.949419"><time>2021-07-03T07:30:18.000Z</time><ele>2373.8</ele></trkpt><trkpt lat="46.329411" lon="9.949396"><time>2021-07-03T07:30:36.000Z</time><ele>2374</ele></trkpt><trkpt lat="46.329412" lon="9.949395"><time>2021-07-03T07:30:37.000Z</time><ele>2374</ele></trkpt><trkpt lat="46.329429" lon="9.949308"><time>2021-07-03T07:30:44.000Z</time><ele>2374.4</ele></trkpt><trkpt lat="46.329442" lon="9.949242"><time>2021-07-03T07:30:47.000Z</time><ele>2374.6</ele></trkpt><trkpt lat="46.329448" lon="9.949216"><time>2021-07-03T07:30:48.000Z</time><ele>2374.6</ele></trkpt><trkpt lat="46.329451" lon="9.949194"><time>2021-07-03T07:30:49.000Z</time><ele>2374.6</ele></trkpt><trkpt lat="46.329458" lon="9.949169"><time>2021-07-03T07:30:50.000Z</time><ele>2374.6</ele></trkpt><trkpt lat="46.329467" lon="9.949141"><time>2021-07-03T07:30:52.000Z</time><ele>2374.6</ele></trkpt><trkpt lat="46.329488" lon="9.949097"><time>2021-07-03T07:30:57.000Z</time><ele>2374.8</ele></trkpt><trkpt lat="46.329494" lon="9.949089"><time>2021-07-03T07:30:58.000Z</time><ele>2375</ele></trkpt><trkpt lat="46.329518" lon="9.949077"><time>2021-07-03T07:31:01.000Z</time><ele>2375</ele></trkpt><trkpt lat="46.329529" lon="9.94906"><time>2021-07-03T07:31:03.000Z</time><ele>2375.2</ele></trkpt><trkpt lat="46.32954" lon="9.949037"><time>2021-07-03T07:31:07.000Z</time><ele>2375.6</ele></trkpt><trkpt lat="46.329542" lon="9.949031"><time>2021-07-03T07:31:08.000Z</time><ele>2375.8</ele></trkpt><trkpt lat="46.329555" lon="9.949024"><time>2021-07-03T07:31:10.000Z</time><ele>2376</ele></trkpt><trkpt lat="46.32956" lon="9.949019"><time>2021-07-03T07:31:12.000Z</time><ele>2376.2</ele></trkpt><trkpt lat="46.329563" lon="9.949015"><time>2021-07-03T07:31:14.000Z</time><ele>2376</ele></trkpt><trkpt lat="46.32957" lon="9.949002"><time>2021-07-03T07:31:17.000Z</time><ele>2376</ele></trkpt><trkpt lat="46.329585" lon="9.948936"><time>2021-07-03T07:31:24.000Z</time><ele>2376.8</ele></trkpt><trkpt lat="46.32959" lon="9.948922"><time>2021-07-03T07:31:26.000Z</time><ele>2377</ele></trkpt><trkpt lat="46.329604" lon="9.948897"><time>2021-07-03T07:31:30.000Z</time><ele>2377.6</ele></trkpt><trkpt lat="46.329636" lon="9.948878"><time>2021-07-03T07:31:34.000Z</time><ele>2378</ele></trkpt><trkpt lat="46.329647" lon="9.948877"><time>2021-07-03T07:31:35.000Z</time><ele>2378.2</ele></trkpt><trkpt lat="46.329654" lon="9.948877"><time>2021-07-03T07:31:36.000Z</time><ele>2378.2</ele></trkpt><trkpt lat="46.329661" lon="9.948875"><time>2021-07-03T07:31:37.000Z</time><ele>2378.4</ele></trkpt><trkpt lat="46.329667" lon="9.948867"><time>2021-07-03T07:31:38.000Z</time><ele>2378.4</ele></trkpt><trkpt lat="46.32967" lon="9.948862"><time>2021-07-03T07:31:39.000Z</time><ele>2378.6</ele></trkpt><trkpt lat="46.329672" lon="9.948856"><time>2021-07-03T07:31:41.000Z</time><ele>2379</ele></trkpt><trkpt lat="46.329671" lon="9.948842"><time>2021-07-03T07:31:43.000Z</time><ele>2379.2</ele></trkpt><trkpt lat="46.329681" lon="9.948827"><time>2021-07-03T07:31:46.000Z</time><ele>2379.8</ele></trkpt><trkpt lat="46.329691" lon="9.948813"><time>2021-07-03T07:31:48.000Z</time><ele>2380</ele></trkpt><trkpt lat="46.329701" lon="9.9488"><time>2021-07-03T07:31:50.000Z</time><ele>2380.4</ele></trkpt><trkpt lat="46.329709" lon="9.948796"><time>2021-07-03T07:31:51.000Z</time><ele>2380.4</ele></trkpt><trkpt lat="46.329721" lon="9.948792"><time>2021-07-03T07:31:52.000Z</time><ele>2380.4</ele></trkpt><trkpt lat="46.32977" lon="9.948776"><time>2021-07-03T07:31:59.000Z</time><ele>2380.8</ele></trkpt><trkpt lat="46.329804" lon="9.948753"><time>2021-07-03T07:32:05.000Z</time><ele>2381.4</ele></trkpt><trkpt lat="46.329823" lon="9.948747"><time>2021-07-03T07:32:08.000Z</time><ele>2381.6</ele></trkpt><trkpt lat="46.329863" lon="9.948732"><time>2021-07-03T07:32:14.000Z</time><ele>2382</ele></trkpt><trkpt lat="46.329894" lon="9.948721"><time>2021-07-03T07:32:18.000Z</time><ele>2382.2</ele></trkpt><trkpt lat="46.329926" lon="9.948693"><time>2021-07-03T07:32:22.000Z</time><ele>2382.4</ele></trkpt><trkpt lat="46.329992" lon="9.948644"><time>2021-07-03T07:32:31.000Z</time><ele>2383.4</ele></trkpt><trkpt lat="46.329996" lon="9.948641"><time>2021-07-03T07:32:32.000Z</time><ele>2383.6</ele></trkpt><trkpt lat="46.330039" lon="9.94859"><time>2021-07-03T07:32:40.000Z</time><ele>2384.2</ele></trkpt><trkpt lat="46.330036" lon="9.948584"><time>2021-07-03T07:32:42.000Z</time><ele>2384.4</ele></trkpt><trkpt lat="46.330045" lon="9.948583"><time>2021-07-03T07:32:45.000Z</time><ele>2384.4</ele></trkpt><trkpt lat="46.330046" lon="9.94858"><time>2021-07-03T07:32:47.000Z</time><ele>2384.4</ele></trkpt><trkpt lat="46.330059" lon="9.948556"><time>2021-07-03T07:32:52.000Z</time><ele>2384.6</ele></trkpt><trkpt lat="46.330069" lon="9.948525"><time>2021-07-03T07:32:55.000Z</time><ele>2384.8</ele></trkpt><trkpt lat="46.33007" lon="9.948516"><time>2021-07-03T07:32:56.000Z</time><ele>2384.8</ele></trkpt><trkpt lat="46.330106" lon="9.94843"><time>2021-07-03T07:33:04.000Z</time><ele>2385.4</ele></trkpt><trkpt lat="46.330155" lon="9.948363"><time>2021-07-03T07:33:11.000Z</time><ele>2385.4</ele></trkpt><trkpt lat="46.330172" lon="9.948338"><time>2021-07-03T07:33:14.000Z</time><ele>2385.6</ele></trkpt><trkpt lat="46.330174" lon="9.948334"><time>2021-07-03T07:33:15.000Z</time><ele>2385.6</ele></trkpt><trkpt lat="46.33018" lon="9.948327"><time>2021-07-03T07:33:16.000Z</time><ele>2385.6</ele></trkpt><trkpt lat="46.330192" lon="9.948317"><time>2021-07-03T07:33:18.000Z</time><ele>2385.8</ele></trkpt><trkpt lat="46.330208" lon="9.948304"><time>2021-07-03T07:33:20.000Z</time><ele>2385.8</ele></trkpt><trkpt lat="46.330229" lon="9.948279"><time>2021-07-03T07:33:23.000Z</time><ele>2386</ele></trkpt><trkpt lat="46.330249" lon="9.948264"><time>2021-07-03T07:33:26.000Z</time><ele>2386</ele></trkpt><trkpt lat="46.330313" lon="9.948202"><time>2021-07-03T07:33:34.000Z</time><ele>2386.4</ele></trkpt><trkpt lat="46.330352" lon="9.948155"><time>2021-07-03T07:33:40.000Z</time><ele>2386.6</ele></trkpt><trkpt lat="46.330367" lon="9.94812"><time>2021-07-03T07:33:44.000Z</time><ele>2387.2</ele></trkpt><trkpt lat="46.330403" lon="9.948052"><time>2021-07-03T07:33:51.000Z</time><ele>2387.8</ele></trkpt><trkpt lat="46.33041" lon="9.94804"><time>2021-07-03T07:33:52.000Z</time><ele>2387.8</ele></trkpt><trkpt lat="46.330417" lon="9.948016"><time>2021-07-03T07:33:54.000Z</time><ele>2388</ele></trkpt><trkpt lat="46.330463" lon="9.947947"><time>2021-07-03T07:34:01.000Z</time><ele>2388</ele></trkpt><trkpt lat="46.330474" lon="9.947942"><time>2021-07-03T07:34:02.000Z</time><ele>2388.2</ele></trkpt><trkpt lat="46.330485" lon="9.947927"><time>2021-07-03T07:34:05.000Z</time><ele>2388.4</ele></trkpt><trkpt lat="46.33049" lon="9.947922"><time>2021-07-03T07:34:06.000Z</time><ele>2388.6</ele></trkpt><trkpt lat="46.330494" lon="9.947917"><time>2021-07-03T07:34:07.000Z</time><ele>2388.8</ele></trkpt><trkpt lat="46.3305" lon="9.947904"><time>2021-07-03T07:34:09.000Z</time><ele>2389</ele></trkpt><trkpt lat="46.330506" lon="9.947846"><time>2021-07-03T07:34:14.000Z</time><ele>2389.8</ele></trkpt><trkpt lat="46.330512" lon="9.947822"><time>2021-07-03T07:34:16.000Z</time><ele>2390</ele></trkpt><trkpt lat="46.33053" lon="9.94778"><time>2021-07-03T07:34:19.000Z</time><ele>2390.4</ele></trkpt><trkpt lat="46.330536" lon="9.947748"><time>2021-07-03T07:34:22.000Z</time><ele>2391</ele></trkpt><trkpt lat="46.330549" lon="9.947659"><time>2021-07-03T07:34:28.000Z</time><ele>2391.2</ele></trkpt><trkpt lat="46.330561" lon="9.947548"><time>2021-07-03T07:34:36.000Z</time><ele>2391.2</ele></trkpt><trkpt lat="46.330565" lon="9.94747"><time>2021-07-03T07:34:43.000Z</time><ele>2391.8</ele></trkpt><trkpt lat="46.330555" lon="9.947451"><time>2021-07-03T07:34:45.000Z</time><ele>2392</ele></trkpt><trkpt lat="46.330546" lon="9.947423"><time>2021-07-03T07:34:48.000Z</time><ele>2392.2</ele></trkpt><trkpt lat="46.330551" lon="9.947397"><time>2021-07-03T07:34:51.000Z</time><ele>2392.4</ele></trkpt><trkpt lat="46.330552" lon="9.947384"><time>2021-07-03T07:34:52.000Z</time><ele>2392.4</ele></trkpt><trkpt lat="46.33055" lon="9.947374"><time>2021-07-03T07:34:53.000Z</time><ele>2392.4</ele></trkpt><trkpt lat="46.330551" lon="9.947335"><time>2021-07-03T07:34:57.000Z</time><ele>2392.4</ele></trkpt><trkpt lat="46.330552" lon="9.947327"><time>2021-07-03T07:34:58.000Z</time><ele>2392.4</ele></trkpt><trkpt lat="46.330553" lon="9.947311"><time>2021-07-03T07:35:01.000Z</time><ele>2393.2</ele></trkpt><trkpt lat="46.330568" lon="9.947298"><time>2021-07-03T07:35:04.000Z</time><ele>2393.8</ele></trkpt><trkpt lat="46.330584" lon="9.94728"><time>2021-07-03T07:35:07.000Z</time><ele>2394</ele></trkpt><trkpt lat="46.3306" lon="9.947248"><time>2021-07-03T07:35:10.000Z</time><ele>2394.2</ele></trkpt><trkpt lat="46.330625" lon="9.947211"><time>2021-07-03T07:35:15.000Z</time><ele>2394.6</ele></trkpt><trkpt lat="46.330637" lon="9.9472"><time>2021-07-03T07:35:17.000Z</time><ele>2395</ele></trkpt><trkpt lat="46.330644" lon="9.947191"><time>2021-07-03T07:35:18.000Z</time><ele>2395.2</ele></trkpt><trkpt lat="46.330648" lon="9.947185"><time>2021-07-03T07:35:19.000Z</time><ele>2395.2</ele></trkpt><trkpt lat="46.330655" lon="9.947165"><time>2021-07-03T07:35:21.000Z</time><ele>2395.6</ele></trkpt><trkpt lat="46.330679" lon="9.947137"><time>2021-07-03T07:35:25.000Z</time><ele>2396.2</ele></trkpt><trkpt lat="46.330686" lon="9.947129"><time>2021-07-03T07:35:26.000Z</time><ele>2396.4</ele></trkpt><trkpt lat="46.330693" lon="9.94711"><time>2021-07-03T07:35:28.000Z</time><ele>2396.8</ele></trkpt><trkpt lat="46.330702" lon="9.947069"><time>2021-07-03T07:35:32.000Z</time><ele>2397.2</ele></trkpt><trkpt lat="46.330703" lon="9.947065"><time>2021-07-03T07:35:34.000Z</time><ele>2397.6</ele></trkpt><trkpt lat="46.330701" lon="9.947064"><time>2021-07-03T07:35:35.000Z</time><ele>2397.6</ele></trkpt><trkpt lat="46.330697" lon="9.947062"><time>2021-07-03T07:35:36.000Z</time><ele>2397.8</ele></trkpt><trkpt lat="46.330707" lon="9.947036"><time>2021-07-03T07:35:41.000Z</time><ele>2398</ele></trkpt><trkpt lat="46.330719" lon="9.94701"><time>2021-07-03T07:35:45.000Z</time><ele>2398.2</ele></trkpt><trkpt lat="46.330729" lon="9.946992"><time>2021-07-03T07:35:47.000Z</time><ele>2398.6</ele></trkpt><trkpt lat="46.330734" lon="9.946986"><time>2021-07-03T07:35:48.000Z</time><ele>2398.6</ele></trkpt><trkpt lat="46.330782" lon="9.946933"><time>2021-07-03T07:35:57.000Z</time><ele>2399.4</ele></trkpt><trkpt lat="46.330788" lon="9.946929"><time>2021-07-03T07:35:59.000Z</time><ele>2400</ele></trkpt><trkpt lat="46.330823" lon="9.946894"><time>2021-07-03T07:36:05.000Z</time><ele>2400.6</ele></trkpt><trkpt lat="46.330835" lon="9.946856"><time>2021-07-03T07:36:10.000Z</time><ele>2401</ele></trkpt><trkpt lat="46.330839" lon="9.946841"><time>2021-07-03T07:36:12.000Z</time><ele>2401.4</ele></trkpt><trkpt lat="46.330842" lon="9.946814"><time>2021-07-03T07:36:17.000Z</time><ele>2401.8</ele></trkpt><trkpt lat="46.330851" lon="9.946817"><time>2021-07-03T07:36:20.000Z</time><ele>2402</ele></trkpt><trkpt lat="46.330859" lon="9.946809"><time>2021-07-03T07:36:22.000Z</time><ele>2402.2</ele></trkpt><trkpt lat="46.330885" lon="9.94677"><time>2021-07-03T07:36:26.000Z</time><ele>2402.6</ele></trkpt><trkpt lat="46.33089" lon="9.946745"><time>2021-07-03T07:36:29.000Z</time><ele>2403.2</ele></trkpt><trkpt lat="46.330882" lon="9.946712"><time>2021-07-03T07:36:33.000Z</time><ele>2403.4</ele></trkpt><trkpt lat="46.330915" lon="9.946671"><time>2021-07-03T07:36:38.000Z</time><ele>2404.4</ele></trkpt><trkpt lat="46.330904" lon="9.946658"><time>2021-07-03T07:36:40.000Z</time><ele>2404.8</ele></trkpt><trkpt lat="46.330897" lon="9.946644"><time>2021-07-03T07:36:43.000Z</time><ele>2405.2</ele></trkpt><trkpt lat="46.330897" lon="9.946643"><time>2021-07-03T07:36:44.000Z</time><ele>2405.4</ele></trkpt><trkpt lat="46.3309" lon="9.946615"><time>2021-07-03T07:36:48.000Z</time><ele>2406</ele></trkpt><trkpt lat="46.330917" lon="9.946589"><time>2021-07-03T07:36:52.000Z</time><ele>2406.4</ele></trkpt><trkpt lat="46.330941" lon="9.946553"><time>2021-07-03T07:36:57.000Z</time><ele>2407.4</ele></trkpt><trkpt lat="46.330937" lon="9.946537"><time>2021-07-03T07:37:04.000Z</time><ele>2408.2</ele></trkpt><trkpt lat="46.330958" lon="9.946515"><time>2021-07-03T07:37:13.000Z</time><ele>2408.2</ele></trkpt><trkpt lat="46.330971" lon="9.946497"><time>2021-07-03T07:37:16.000Z</time><ele>2408.6</ele></trkpt><trkpt lat="46.33101" lon="9.94645"><time>2021-07-03T07:37:23.000Z</time><ele>2409.6</ele></trkpt><trkpt lat="46.331015" lon="9.9464"><time>2021-07-03T07:37:28.000Z</time><ele>2410.8</ele></trkpt><trkpt lat="46.331021" lon="9.946383"><time>2021-07-03T07:37:30.000Z</time><ele>2411</ele></trkpt><trkpt lat="46.331038" lon="9.946334"><time>2021-07-03T07:37:34.000Z</time><ele>2411.8</ele></trkpt><trkpt lat="46.331052" lon="9.946326"><time>2021-07-03T07:37:37.000Z</time><ele>2412.4</ele></trkpt><trkpt lat="46.33107" lon="9.946317"><time>2021-07-03T07:37:40.000Z</time><ele>2412.8</ele></trkpt><trkpt lat="46.331077" lon="9.946305"><time>2021-07-03T07:37:43.000Z</time><ele>2413</ele></trkpt><trkpt lat="46.331078" lon="9.946303"><time>2021-07-03T07:37:45.000Z</time><ele>2413.2</ele></trkpt><trkpt lat="46.33111" lon="9.946282"><time>2021-07-03T07:37:50.000Z</time><ele>2413.4</ele></trkpt><trkpt lat="46.331136" lon="9.946256"><time>2021-07-03T07:37:54.000Z</time><ele>2413.8</ele></trkpt><trkpt lat="46.331165" lon="9.946224"><time>2021-07-03T07:37:59.000Z</time><ele>2414.4</ele></trkpt><trkpt lat="46.331199" lon="9.946203"><time>2021-07-03T07:38:05.000Z</time><ele>2415</ele></trkpt><trkpt lat="46.331229" lon="9.946165"><time>2021-07-03T07:38:09.000Z</time><ele>2415.2</ele></trkpt><trkpt lat="46.331284" lon="9.946101"><time>2021-07-03T07:38:17.000Z</time><ele>2416</ele></trkpt><trkpt lat="46.331322" lon="9.946047"><time>2021-07-03T07:38:25.000Z</time><ele>2416.8</ele></trkpt><trkpt lat="46.331331" lon="9.946044"><time>2021-07-03T07:38:26.000Z</time><ele>2417</ele></trkpt><trkpt lat="46.331358" lon="9.945992"><time>2021-07-03T07:38:32.000Z</time><ele>2417.4</ele></trkpt><trkpt lat="46.331388" lon="9.945895"><time>2021-07-03T07:38:39.000Z</time><ele>2417.8</ele></trkpt><trkpt lat="46.331398" lon="9.94586"><time>2021-07-03T07:38:42.000Z</time><ele>2418</ele></trkpt><trkpt lat="46.331405" lon="9.945818"><time>2021-07-03T07:38:46.000Z</time><ele>2418.6</ele></trkpt><trkpt lat="46.331404" lon="9.945804"><time>2021-07-03T07:38:48.000Z</time><ele>2418.4</ele></trkpt><trkpt lat="46.33141" lon="9.945748"><time>2021-07-03T07:38:53.000Z</time><ele>2417.8</ele></trkpt><trkpt lat="46.331414" lon="9.945727"><time>2021-07-03T07:38:57.000Z</time><ele>2417.2</ele></trkpt><trkpt lat="46.331416" lon="9.945708"><time>2021-07-03T07:38:59.000Z</time><ele>2417</ele></trkpt><trkpt lat="46.33142" lon="9.945628"><time>2021-07-03T07:39:05.000Z</time><ele>2416.8</ele></trkpt><trkpt lat="46.331418" lon="9.945554"><time>2021-07-03T07:39:11.000Z</time><ele>2416.6</ele></trkpt><trkpt lat="46.331419" lon="9.945534"><time>2021-07-03T07:39:13.000Z</time><ele>2416.6</ele></trkpt><trkpt lat="46.331424" lon="9.945433"><time>2021-07-03T07:39:21.000Z</time><ele>2416.8</ele></trkpt><trkpt lat="46.331429" lon="9.945367"><time>2021-07-03T07:39:25.000Z</time><ele>2416.8</ele></trkpt><trkpt lat="46.331434" lon="9.945344"><time>2021-07-03T07:39:27.000Z</time><ele>2417</ele></trkpt><trkpt lat="46.331444" lon="9.945316"><time>2021-07-03T07:39:29.000Z</time><ele>2417.2</ele></trkpt><trkpt lat="46.331432" lon="9.94526"><time>2021-07-03T07:39:34.000Z</time><ele>2417.6</ele></trkpt><trkpt lat="46.331431" lon="9.945264"><time>2021-07-03T07:39:35.000Z</time><ele>2417.6</ele></trkpt><trkpt lat="46.331432" lon="9.945273"><time>2021-07-03T07:39:36.000Z</time><ele>2417.8</ele></trkpt><trkpt lat="46.331445" lon="9.945209"><time>2021-07-03T07:39:42.000Z</time><ele>2418</ele></trkpt><trkpt lat="46.331471" lon="9.945103"><time>2021-07-03T07:39:50.000Z</time><ele>2417.8</ele></trkpt><trkpt lat="46.331484" lon="9.945013"><time>2021-07-03T07:39:59.000Z</time><ele>2418</ele></trkpt><trkpt lat="46.331491" lon="9.945008"><time>2021-07-03T07:40:00.000Z</time><ele>2418</ele></trkpt><trkpt lat="46.331495" lon="9.944916"><time>2021-07-03T07:40:07.000Z</time><ele>2417.4</ele></trkpt><trkpt lat="46.331501" lon="9.944874"><time>2021-07-03T07:40:11.000Z</time><ele>2416.8</ele></trkpt><trkpt lat="46.331508" lon="9.944799"><time>2021-07-03T07:40:16.000Z</time><ele>2416.2</ele></trkpt><trkpt lat="46.331471" lon="9.944702"><time>2021-07-03T07:40:24.000Z</time><ele>2417</ele></trkpt><trkpt lat="46.33147" lon="9.944665"><time>2021-07-03T07:40:28.000Z</time><ele>2417.4</ele></trkpt><trkpt lat="46.331475" lon="9.944649"><time>2021-07-03T07:40:30.000Z</time><ele>2417.8</ele></trkpt><trkpt lat="46.331473" lon="9.944646"><time>2021-07-03T07:40:31.000Z</time><ele>2418</ele></trkpt><trkpt lat="46.331472" lon="9.944583"><time>2021-07-03T07:40:38.000Z</time><ele>2418.2</ele></trkpt><trkpt lat="46.331497" lon="9.944562"><time>2021-07-03T07:40:44.000Z</time><ele>2418.6</ele></trkpt><trkpt lat="46.331504" lon="9.944565"><time>2021-07-03T07:40:45.000Z</time><ele>2418.8</ele></trkpt><trkpt lat="46.331519" lon="9.94458"><time>2021-07-03T07:40:52.000Z</time><ele>2418.4</ele></trkpt><trkpt lat="46.331522" lon="9.94458"><time>2021-07-03T07:40:58.000Z</time><ele>2418.4</ele></trkpt><trkpt lat="46.331532" lon="9.944571"><time>2021-07-03T07:41:26.000Z</time><ele>2418.8</ele></trkpt><trkpt lat="46.331532" lon="9.944568"><time>2021-07-03T07:41:30.000Z</time><ele>2418.8</ele></trkpt><trkpt lat="46.331529" lon="9.944563"><time>2021-07-03T07:41:36.000Z</time><ele>2418.8</ele></trkpt><trkpt lat="46.331549" lon="9.944585"><time>2021-07-03T07:42:07.000Z</time><ele>2417.6</ele></trkpt><trkpt lat="46.331579" lon="9.944663"><time>2021-07-03T07:42:11.000Z</time><ele>2417.2</ele></trkpt><trkpt lat="46.331612" lon="9.944787"><time>2021-07-03T07:42:18.000Z</time><ele>2417</ele></trkpt><trkpt lat="46.331635" lon="9.944846"><time>2021-07-03T07:42:24.000Z</time><ele>2417.2</ele></trkpt><trkpt lat="46.331637" lon="9.944857"><time>2021-07-03T07:42:25.000Z</time><ele>2417.4</ele></trkpt><trkpt lat="46.331638" lon="9.944868"><time>2021-07-03T07:42:26.000Z</time><ele>2417.4</ele></trkpt><trkpt lat="46.331654" lon="9.944936"><time>2021-07-03T07:42:34.000Z</time><ele>2418</ele></trkpt><trkpt lat="46.331675" lon="9.944979"><time>2021-07-03T07:42:42.000Z</time><ele>2418.2</ele></trkpt><trkpt lat="46.331675" lon="9.945006"><time>2021-07-03T07:42:46.000Z</time><ele>2419</ele></trkpt><trkpt lat="46.33169" lon="9.945044"><time>2021-07-03T07:42:50.000Z</time><ele>2419.2</ele></trkpt><trkpt lat="46.331731" lon="9.945122"><time>2021-07-03T07:42:57.000Z</time><ele>2419.6</ele></trkpt><trkpt lat="46.331739" lon="9.945135"><time>2021-07-03T07:42:58.000Z</time><ele>2419.8</ele></trkpt><trkpt lat="46.331765" lon="9.945156"><time>2021-07-03T07:43:01.000Z</time><ele>2420</ele></trkpt><trkpt lat="46.331766" lon="9.945155"><time>2021-07-03T07:43:02.000Z</time><ele>2420</ele></trkpt><trkpt lat="46.331768" lon="9.945161"><time>2021-07-03T07:43:04.000Z</time><ele>2420.2</ele></trkpt><trkpt lat="46.331797" lon="9.945233"><time>2021-07-03T07:43:11.000Z</time><ele>2420.2</ele></trkpt><trkpt lat="46.331836" lon="9.945261"><time>2021-07-03T07:43:18.000Z</time><ele>2420.4</ele></trkpt><trkpt lat="46.331889" lon="9.945303"><time>2021-07-03T07:43:25.000Z</time><ele>2421.2</ele></trkpt><trkpt lat="46.331903" lon="9.945313"><time>2021-07-03T07:43:27.000Z</time><ele>2421.4</ele></trkpt><trkpt lat="46.331946" lon="9.945344"><time>2021-07-03T07:43:32.000Z</time><ele>2422.2</ele></trkpt><trkpt lat="46.331953" lon="9.945351"><time>2021-07-03T07:43:34.000Z</time><ele>2422.2</ele></trkpt><trkpt lat="46.331978" lon="9.945358"><time>2021-07-03T07:43:38.000Z</time><ele>2422.6</ele></trkpt><trkpt lat="46.332021" lon="9.945372"><time>2021-07-03T07:43:43.000Z</time><ele>2422.6</ele></trkpt><trkpt lat="46.332068" lon="9.945373"><time>2021-07-03T07:43:49.000Z</time><ele>2422.8</ele></trkpt><trkpt lat="46.332174" lon="9.945336"><time>2021-07-03T07:44:01.000Z</time><ele>2422.2</ele></trkpt><trkpt lat="46.332181" lon="9.945332"><time>2021-07-03T07:44:02.000Z</time><ele>2422.2</ele></trkpt><trkpt lat="46.332236" lon="9.945307"><time>2021-07-03T07:44:09.000Z</time><ele>2421.8</ele></trkpt><trkpt lat="46.332269" lon="9.945255"><time>2021-07-03T07:44:15.000Z</time><ele>2421.2</ele></trkpt><trkpt lat="46.332277" lon="9.94525"><time>2021-07-03T07:44:16.000Z</time><ele>2421.2</ele></trkpt><trkpt lat="46.332286" lon="9.94525"><time>2021-07-03T07:44:17.000Z</time><ele>2421.2</ele></trkpt><trkpt lat="46.332299" lon="9.94525"><time>2021-07-03T07:44:18.000Z</time><ele>2421.2</ele></trkpt><trkpt lat="46.33235" lon="9.945263"><time>2021-07-03T07:44:26.000Z</time><ele>2421.2</ele></trkpt><trkpt lat="46.332347" lon="9.945267"><time>2021-07-03T07:44:28.000Z</time><ele>2421.2</ele></trkpt><trkpt lat="46.332361" lon="9.945259"><time>2021-07-03T07:44:38.000Z</time><ele>2421.2</ele></trkpt><trkpt lat="46.332359" lon="9.945264"><time>2021-07-03T07:44:44.000Z</time><ele>2421.2</ele></trkpt><trkpt lat="46.332359" lon="9.945264"><time>2021-07-03T07:44:46.000Z</time><ele>2421.2</ele></trkpt><trkpt lat="46.332359" lon="9.945264"><time>2021-07-03T07:44:49.000Z</time><ele>2421.2</ele></trkpt><trkpt lat="46.332361" lon="9.945265"><time>2021-07-03T07:44:51.000Z</time><ele>2421</ele></trkpt><trkpt lat="46.332363" lon="9.945271"><time>2021-07-03T07:45:06.000Z</time><ele>2421</ele></trkpt><trkpt lat="46.33243" lon="9.945233"><time>2021-07-03T07:45:23.000Z</time><ele>2421.4</ele></trkpt><trkpt lat="46.332477" lon="9.9452"><time>2021-07-03T07:45:27.000Z</time><ele>2421.4</ele></trkpt><trkpt lat="46.332496" lon="9.945188"><time>2021-07-03T07:45:29.000Z</time><ele>2421.4</ele></trkpt><trkpt lat="46.332541" lon="9.945201"><time>2021-07-03T07:45:35.000Z</time><ele>2421.4</ele></trkpt><trkpt lat="46.332557" lon="9.945199"><time>2021-07-03T07:45:37.000Z</time><ele>2421.4</ele></trkpt><trkpt lat="46.332566" lon="9.945198"><time>2021-07-03T07:45:38.000Z</time><ele>2421.4</ele></trkpt><trkpt lat="46.332619" lon="9.945159"><time>2021-07-03T07:45:46.000Z</time><ele>2421.4</ele></trkpt><trkpt lat="46.332665" lon="9.945113"><time>2021-07-03T07:45:54.000Z</time><ele>2419.8</ele></trkpt><trkpt lat="46.332697" lon="9.945091"><time>2021-07-03T07:45:59.000Z</time><ele>2418.8</ele></trkpt><trkpt lat="46.332704" lon="9.945089"><time>2021-07-03T07:46:00.000Z</time><ele>2418.6</ele></trkpt><trkpt lat="46.332716" lon="9.945092"><time>2021-07-03T07:46:02.000Z</time><ele>2418.4</ele></trkpt><trkpt lat="46.332722" lon="9.945092"><time>2021-07-03T07:46:03.000Z</time><ele>2418.4</ele></trkpt><trkpt lat="46.332725" lon="9.945096"><time>2021-07-03T07:46:04.000Z</time><ele>2418.4</ele></trkpt><trkpt lat="46.332734" lon="9.945096"><time>2021-07-03T07:46:05.000Z</time><ele>2418.4</ele></trkpt><trkpt lat="46.33275" lon="9.945095"><time>2021-07-03T07:46:07.000Z</time><ele>2418.4</ele></trkpt><trkpt lat="46.33278" lon="9.945089"><time>2021-07-03T07:46:10.000Z</time><ele>2418</ele></trkpt><trkpt lat="46.33281" lon="9.945082"><time>2021-07-03T07:46:14.000Z</time><ele>2417.6</ele></trkpt><trkpt lat="46.332834" lon="9.945081"><time>2021-07-03T07:46:17.000Z</time><ele>2417.2</ele></trkpt><trkpt lat="46.332889" lon="9.945079"><time>2021-07-03T07:46:23.000Z</time><ele>2417.2</ele></trkpt><trkpt lat="46.332946" lon="9.945049"><time>2021-07-03T07:46:31.000Z</time><ele>2417.4</ele></trkpt><trkpt lat="46.333009" lon="9.945004"><time>2021-07-03T07:46:40.000Z</time><ele>2417.6</ele></trkpt><trkpt lat="46.333074" lon="9.944949"><time>2021-07-03T07:46:49.000Z</time><ele>2417.2</ele></trkpt><trkpt lat="46.33308" lon="9.944941"><time>2021-07-03T07:46:50.000Z</time><ele>2417.2</ele></trkpt><trkpt lat="46.333104" lon="9.94491"><time>2021-07-03T07:46:54.000Z</time><ele>2417</ele></trkpt><trkpt lat="46.333134" lon="9.944891"><time>2021-07-03T07:46:58.000Z</time><ele>2417</ele></trkpt><trkpt lat="46.333183" lon="9.944865"><time>2021-07-03T07:47:04.000Z</time><ele>2416.6</ele></trkpt><trkpt lat="46.33319" lon="9.944849"><time>2021-07-03T07:47:05.000Z</time><ele>2416.6</ele></trkpt><trkpt lat="46.333206" lon="9.944818"><time>2021-07-03T07:47:07.000Z</time><ele>2416.4</ele></trkpt><trkpt lat="46.333254" lon="9.9447"><time>2021-07-03T07:47:17.000Z</time><ele>2416.8</ele></trkpt><trkpt lat="46.33327" lon="9.944617"><time>2021-07-03T07:47:24.000Z</time><ele>2417</ele></trkpt><trkpt lat="46.333269" lon="9.944611"><time>2021-07-03T07:47:25.000Z</time><ele>2417</ele></trkpt><trkpt lat="46.333257" lon="9.944578"><time>2021-07-03T07:47:29.000Z</time><ele>2417.2</ele></trkpt><trkpt lat="46.333244" lon="9.944545"><time>2021-07-03T07:47:33.000Z</time><ele>2417.6</ele></trkpt><trkpt lat="46.333243" lon="9.944538"><time>2021-07-03T07:47:34.000Z</time><ele>2417.6</ele></trkpt><trkpt lat="46.33326" lon="9.944508"><time>2021-07-03T07:47:37.000Z</time><ele>2418</ele></trkpt><trkpt lat="46.333267" lon="9.944484"><time>2021-07-03T07:47:39.000Z</time><ele>2418</ele></trkpt><trkpt lat="46.333271" lon="9.944471"><time>2021-07-03T07:47:40.000Z</time><ele>2418</ele></trkpt><trkpt lat="46.333281" lon="9.944447"><time>2021-07-03T07:47:42.000Z</time><ele>2418.2</ele></trkpt><trkpt lat="46.333281" lon="9.944426"><time>2021-07-03T07:47:45.000Z</time><ele>2418.6</ele></trkpt><trkpt lat="46.333294" lon="9.94442"><time>2021-07-03T07:47:47.000Z</time><ele>2419</ele></trkpt><trkpt lat="46.333322" lon="9.944405"><time>2021-07-03T07:47:51.000Z</time><ele>2419.2</ele></trkpt><trkpt lat="46.333354" lon="9.944416"><time>2021-07-03T07:47:55.000Z</time><ele>2419.2</ele></trkpt><trkpt lat="46.333364" lon="9.944425"><time>2021-07-03T07:47:56.000Z</time><ele>2419.2</ele></trkpt><trkpt lat="46.333411" lon="9.944453"><time>2021-07-03T07:48:02.000Z</time><ele>2419.2</ele></trkpt><trkpt lat="46.333474" lon="9.944494"><time>2021-07-03T07:48:10.000Z</time><ele>2419.4</ele></trkpt><trkpt lat="46.333479" lon="9.944503"><time>2021-07-03T07:48:14.000Z</time><ele>2419.2</ele></trkpt><trkpt lat="46.333478" lon="9.944503"><time>2021-07-03T07:48:17.000Z</time><ele>2419</ele></trkpt><trkpt lat="46.333487" lon="9.944515"><time>2021-07-03T07:48:28.000Z</time><ele>2419</ele></trkpt><trkpt lat="46.333513" lon="9.944533"><time>2021-07-03T07:48:34.000Z</time><ele>2419.2</ele></trkpt><trkpt lat="46.333555" lon="9.944547"><time>2021-07-03T07:48:39.000Z</time><ele>2419.6</ele></trkpt><trkpt lat="46.333572" lon="9.944544"><time>2021-07-03T07:48:41.000Z</time><ele>2419.6</ele></trkpt><trkpt lat="46.333607" lon="9.944547"><time>2021-07-03T07:48:47.000Z</time><ele>2419.8</ele></trkpt><trkpt lat="46.333645" lon="9.94456"><time>2021-07-03T07:48:54.000Z</time><ele>2419.8</ele></trkpt><trkpt lat="46.333701" lon="9.944571"><time>2021-07-03T07:49:02.000Z</time><ele>2420.2</ele></trkpt><trkpt lat="46.333738" lon="9.944574"><time>2021-07-03T07:49:08.000Z</time><ele>2420.6</ele></trkpt><trkpt lat="46.333745" lon="9.944573"><time>2021-07-03T07:49:09.000Z</time><ele>2421</ele></trkpt><trkpt lat="46.333791" lon="9.94458"><time>2021-07-03T07:49:17.000Z</time><ele>2421.6</ele></trkpt><trkpt lat="46.333796" lon="9.944579"><time>2021-07-03T07:49:18.000Z</time><ele>2421.8</ele></trkpt><trkpt lat="46.333804" lon="9.944593"><time>2021-07-03T07:49:21.000Z</time><ele>2422</ele></trkpt><trkpt lat="46.333817" lon="9.944603"><time>2021-07-03T07:49:24.000Z</time><ele>2422.4</ele></trkpt><trkpt lat="46.333857" lon="9.944588"><time>2021-07-03T07:49:31.000Z</time><ele>2422.8</ele></trkpt><trkpt lat="46.333858" lon="9.944584"><time>2021-07-03T07:49:32.000Z</time><ele>2423</ele></trkpt><trkpt lat="46.333868" lon="9.944584"><time>2021-07-03T07:49:34.000Z</time><ele>2423.2</ele></trkpt><trkpt lat="46.333877" lon="9.944588"><time>2021-07-03T07:49:37.000Z</time><ele>2423.8</ele></trkpt><trkpt lat="46.333887" lon="9.944612"><time>2021-07-03T07:49:40.000Z</time><ele>2424.2</ele></trkpt><trkpt lat="46.333909" lon="9.94461"><time>2021-07-03T07:49:48.000Z</time><ele>2424.8</ele></trkpt><trkpt lat="46.333911" lon="9.94461"><time>2021-07-03T07:49:49.000Z</time><ele>2425.2</ele></trkpt><trkpt lat="46.33392" lon="9.944611"><time>2021-07-03T07:49:55.000Z</time><ele>2425.6</ele></trkpt><trkpt lat="46.333926" lon="9.944611"><time>2021-07-03T07:50:09.000Z</time><ele>2425.6</ele></trkpt><trkpt lat="46.333926" lon="9.944608"><time>2021-07-03T07:50:16.000Z</time><ele>2426</ele></trkpt><trkpt lat="46.33393" lon="9.944616"><time>2021-07-03T07:50:19.000Z</time><ele>2426.2</ele></trkpt><trkpt lat="46.333947" lon="9.944677"><time>2021-07-03T07:50:22.000Z</time><ele>2426.2</ele></trkpt><trkpt lat="46.333991" lon="9.944785"><time>2021-07-03T07:50:29.000Z</time><ele>2426.8</ele></trkpt><trkpt lat="46.333991" lon="9.944794"><time>2021-07-03T07:50:30.000Z</time><ele>2427</ele></trkpt><trkpt lat="46.333995" lon="9.944817"><time>2021-07-03T07:50:32.000Z</time><ele>2427.2</ele></trkpt><trkpt lat="46.334026" lon="9.944846"><time>2021-07-03T07:50:38.000Z</time><ele>2428</ele></trkpt><trkpt lat="46.334029" lon="9.944844"><time>2021-07-03T07:50:39.000Z</time><ele>2428.2</ele></trkpt><trkpt lat="46.334049" lon="9.944852"><time>2021-07-03T07:50:43.000Z</time><ele>2429</ele></trkpt><trkpt lat="46.334055" lon="9.944855"><time>2021-07-03T07:50:44.000Z</time><ele>2429</ele></trkpt><trkpt lat="46.334056" lon="9.944855"><time>2021-07-03T07:50:45.000Z</time><ele>2429.4</ele></trkpt><trkpt lat="46.33406" lon="9.944864"><time>2021-07-03T07:50:47.000Z</time><ele>2429.6</ele></trkpt><trkpt lat="46.33406" lon="9.944871"><time>2021-07-03T07:50:48.000Z</time><ele>2429.8</ele></trkpt><trkpt lat="46.334062" lon="9.944883"><time>2021-07-03T07:50:49.000Z</time><ele>2430</ele></trkpt><trkpt lat="46.334081" lon="9.944905"><time>2021-07-03T07:50:53.000Z</time><ele>2430.4</ele></trkpt><trkpt lat="46.334093" lon="9.944904"><time>2021-07-03T07:50:55.000Z</time><ele>2430.8</ele></trkpt><trkpt lat="46.334097" lon="9.944903"><time>2021-07-03T07:50:57.000Z</time><ele>2430.8</ele></trkpt><trkpt lat="46.334103" lon="9.944895"><time>2021-07-03T07:51:01.000Z</time><ele>2431.4</ele></trkpt><trkpt lat="46.334109" lon="9.944889"><time>2021-07-03T07:51:02.000Z</time><ele>2431.6</ele></trkpt><trkpt lat="46.334147" lon="9.944866"><time>2021-07-03T07:51:10.000Z</time><ele>2432.6</ele></trkpt><trkpt lat="46.334167" lon="9.944806"><time>2021-07-03T07:51:17.000Z</time><ele>2433</ele></trkpt><trkpt lat="46.334171" lon="9.944792"><time>2021-07-03T07:51:20.000Z</time><ele>2433.4</ele></trkpt><trkpt lat="46.334181" lon="9.944788"><time>2021-07-03T07:51:22.000Z</time><ele>2433.6</ele></trkpt><trkpt lat="46.334211" lon="9.944786"><time>2021-07-03T07:51:29.000Z</time><ele>2434.2</ele></trkpt><trkpt lat="46.334206" lon="9.944777"><time>2021-07-03T07:51:36.000Z</time><ele>2434.8</ele></trkpt><trkpt lat="46.334211" lon="9.944775"><time>2021-07-03T07:51:48.000Z</time><ele>2434.8</ele></trkpt><trkpt lat="46.334211" lon="9.944775"><time>2021-07-03T07:51:56.000Z</time><ele>2435.4</ele></trkpt><trkpt lat="46.334216" lon="9.944772"><time>2021-07-03T07:52:01.000Z</time><ele>2435.8</ele></trkpt><trkpt lat="46.334251" lon="9.944769"><time>2021-07-03T07:52:07.000Z</time><ele>2436.4</ele></trkpt><trkpt lat="46.334287" lon="9.944747"><time>2021-07-03T07:52:16.000Z</time><ele>2436.8</ele></trkpt><trkpt lat="46.334302" lon="9.944728"><time>2021-07-03T07:52:21.000Z</time><ele>2437.6</ele></trkpt><trkpt lat="46.334305" lon="9.944718"><time>2021-07-03T07:52:22.000Z</time><ele>2438</ele></trkpt><trkpt lat="46.334309" lon="9.94471"><time>2021-07-03T07:52:23.000Z</time><ele>2438.2</ele></trkpt><trkpt lat="46.334347" lon="9.944661"><time>2021-07-03T07:52:33.000Z</time><ele>2439</ele></trkpt><trkpt lat="46.334422" lon="9.944659"><time>2021-07-03T07:52:58.000Z</time><ele>2439.4</ele></trkpt><trkpt lat="46.334423" lon="9.944659"><time>2021-07-03T07:53:00.000Z</time><ele>2439.2</ele></trkpt><trkpt lat="46.334472" lon="9.944664"><time>2021-07-03T07:53:12.000Z</time><ele>2440</ele></trkpt><trkpt lat="46.334485" lon="9.944663"><time>2021-07-03T07:53:14.000Z</time><ele>2440</ele></trkpt><trkpt lat="46.334497" lon="9.944661"><time>2021-07-03T07:53:16.000Z</time><ele>2440.2</ele></trkpt><trkpt lat="46.334503" lon="9.944656"><time>2021-07-03T07:53:18.000Z</time><ele>2440.4</ele></trkpt><trkpt lat="46.334503" lon="9.944658"><time>2021-07-03T07:53:19.000Z</time><ele>2440.4</ele></trkpt><trkpt lat="46.334503" lon="9.944663"><time>2021-07-03T07:53:31.000Z</time><ele>2440.2</ele></trkpt><trkpt lat="46.334503" lon="9.944663"><time>2021-07-03T07:53:32.000Z</time><ele>2440.2</ele></trkpt><trkpt lat="46.334501" lon="9.944663"><time>2021-07-03T07:53:34.000Z</time><ele>2439.8</ele></trkpt><trkpt lat="46.334498" lon="9.944668"><time>2021-07-03T07:53:35.000Z</time><ele>2439.6</ele></trkpt><trkpt lat="46.334487" lon="9.944704"><time>2021-07-03T07:53:37.000Z</time><ele>2439.2</ele></trkpt><trkpt lat="46.334472" lon="9.944731"><time>2021-07-03T07:53:39.000Z</time><ele>2439</ele></trkpt><trkpt lat="46.334467" lon="9.944748"><time>2021-07-03T07:53:40.000Z</time><ele>2439</ele></trkpt><trkpt lat="46.334449" lon="9.944785"><time>2021-07-03T07:53:43.000Z</time><ele>2438.8</ele></trkpt><trkpt lat="46.334441" lon="9.944794"><time>2021-07-03T07:53:44.000Z</time><ele>2438.6</ele></trkpt><trkpt lat="46.334435" lon="9.944804"><time>2021-07-03T07:53:46.000Z</time><ele>2438.4</ele></trkpt><trkpt lat="46.334416" lon="9.944834"><time>2021-07-03T07:53:51.000Z</time><ele>2438</ele></trkpt><trkpt lat="46.334416" lon="9.944847"><time>2021-07-03T07:53:54.000Z</time><ele>2437.6</ele></trkpt><trkpt lat="46.334407" lon="9.944861"><time>2021-07-03T07:53:56.000Z</time><ele>2437.4</ele></trkpt><trkpt lat="46.334402" lon="9.944873"><time>2021-07-03T07:53:58.000Z</time><ele>2437.4</ele></trkpt><trkpt lat="46.334382" lon="9.944926"><time>2021-07-03T07:54:06.000Z</time><ele>2437.6</ele></trkpt><trkpt lat="46.334361" lon="9.944982"><time>2021-07-03T07:54:13.000Z</time><ele>2437.6</ele></trkpt><trkpt lat="46.334354" lon="9.94503"><time>2021-07-03T07:54:20.000Z</time><ele>2437.6</ele></trkpt><trkpt lat="46.334355" lon="9.945055"><time>2021-07-03T07:54:23.000Z</time><ele>2437.8</ele></trkpt><trkpt lat="46.334366" lon="9.945102"><time>2021-07-03T07:54:30.000Z</time><ele>2437.6</ele></trkpt><trkpt lat="46.334386" lon="9.945173"><time>2021-07-03T07:54:41.000Z</time><ele>2437.4</ele></trkpt><trkpt lat="46.334374" lon="9.945259"><time>2021-07-03T07:54:49.000Z</time><ele>2437.6</ele></trkpt><trkpt lat="46.334373" lon="9.94533"><time>2021-07-03T07:54:59.000Z</time><ele>2437.6</ele></trkpt><trkpt lat="46.334393" lon="9.945346"><time>2021-07-03T07:55:05.000Z</time><ele>2437.6</ele></trkpt><trkpt lat="46.334391" lon="9.945386"><time>2021-07-03T07:55:12.000Z</time><ele>2437.6</ele></trkpt><trkpt lat="46.334389" lon="9.945392"><time>2021-07-03T07:55:13.000Z</time><ele>2437.6</ele></trkpt><trkpt lat="46.334368" lon="9.94548"><time>2021-07-03T07:55:21.000Z</time><ele>2437.6</ele></trkpt><trkpt lat="46.33435" lon="9.945534"><time>2021-07-03T07:55:28.000Z</time><ele>2437.6</ele></trkpt><trkpt lat="46.334369" lon="9.945617"><time>2021-07-03T07:55:39.000Z</time><ele>2437.6</ele></trkpt><trkpt lat="46.334378" lon="9.945676"><time>2021-07-03T07:55:47.000Z</time><ele>2437.6</ele></trkpt><trkpt lat="46.334376" lon="9.945701"><time>2021-07-03T07:55:50.000Z</time><ele>2437.6</ele></trkpt><trkpt lat="46.334373" lon="9.945709"><time>2021-07-03T07:55:51.000Z</time><ele>2436.2</ele></trkpt><trkpt lat="46.33437" lon="9.945728"><time>2021-07-03T07:55:53.000Z</time><ele>2435</ele></trkpt><trkpt lat="46.334382" lon="9.945761"><time>2021-07-03T07:55:56.000Z</time><ele>2434.6</ele></trkpt><trkpt lat="46.334392" lon="9.945786"><time>2021-07-03T07:55:58.000Z</time><ele>2434.6</ele></trkpt><trkpt lat="46.3344" lon="9.945832"><time>2021-07-03T07:56:03.000Z</time><ele>2434.4</ele></trkpt><trkpt lat="46.334405" lon="9.945853"><time>2021-07-03T07:56:05.000Z</time><ele>2434.4</ele></trkpt><trkpt lat="46.334412" lon="9.945863"><time>2021-07-03T07:56:06.000Z</time><ele>2434.4</ele></trkpt><trkpt lat="46.334449" lon="9.945879"><time>2021-07-03T07:56:11.000Z</time><ele>2434</ele></trkpt><trkpt lat="46.334461" lon="9.945879"><time>2021-07-03T07:56:13.000Z</time><ele>2434</ele></trkpt><trkpt lat="46.334464" lon="9.945881"><time>2021-07-03T07:56:14.000Z</time><ele>2434</ele></trkpt><trkpt lat="46.334467" lon="9.945895"><time>2021-07-03T07:56:16.000Z</time><ele>2433.6</ele></trkpt><trkpt lat="46.334477" lon="9.945923"><time>2021-07-03T07:56:20.000Z</time><ele>2433.4</ele></trkpt><trkpt lat="46.334478" lon="9.945937"><time>2021-07-03T07:56:21.000Z</time><ele>2433.4</ele></trkpt><trkpt lat="46.334477" lon="9.945945"><time>2021-07-03T07:56:22.000Z</time><ele>2433.6</ele></trkpt><trkpt lat="46.334477" lon="9.945949"><time>2021-07-03T07:56:23.000Z</time><ele>2434</ele></trkpt><trkpt lat="46.33448" lon="9.945954"><time>2021-07-03T07:56:24.000Z</time><ele>2434.2</ele></trkpt><trkpt lat="46.334478" lon="9.945956"><time>2021-07-03T07:56:26.000Z</time><ele>2434.4</ele></trkpt><trkpt lat="46.33448" lon="9.945982"><time>2021-07-03T07:56:29.000Z</time><ele>2434.8</ele></trkpt><trkpt lat="46.334485" lon="9.946004"><time>2021-07-03T07:56:31.000Z</time><ele>2435.2</ele></trkpt><trkpt lat="46.334492" lon="9.946008"><time>2021-07-03T07:56:32.000Z</time><ele>2435.4</ele></trkpt><trkpt lat="46.334507" lon="9.946006"><time>2021-07-03T07:56:35.000Z</time><ele>2436.2</ele></trkpt><trkpt lat="46.33451" lon="9.946005"><time>2021-07-03T07:56:36.000Z</time><ele>2436.4</ele></trkpt><trkpt lat="46.334515" lon="9.946014"><time>2021-07-03T07:56:39.000Z</time><ele>2436.6</ele></trkpt><trkpt lat="46.334525" lon="9.946018"><time>2021-07-03T07:56:42.000Z</time><ele>2437.4</ele></trkpt><trkpt lat="46.334538" lon="9.946011"><time>2021-07-03T07:56:45.000Z</time><ele>2437.6</ele></trkpt><trkpt lat="46.334563" lon="9.946014"><time>2021-07-03T07:56:49.000Z</time><ele>2438.2</ele></trkpt><trkpt lat="46.334565" lon="9.946019"><time>2021-07-03T07:56:50.000Z</time><ele>2438.4</ele></trkpt><trkpt lat="46.334569" lon="9.946024"><time>2021-07-03T07:56:51.000Z</time><ele>2438.6</ele></trkpt><trkpt lat="46.334581" lon="9.946031"><time>2021-07-03T07:56:54.000Z</time><ele>2439.4</ele></trkpt><trkpt lat="46.334587" lon="9.946027"><time>2021-07-03T07:56:55.000Z</time><ele>2439.6</ele></trkpt><trkpt lat="46.334621" lon="9.945998"><time>2021-07-03T07:57:01.000Z</time><ele>2440.6</ele></trkpt><trkpt lat="46.334636" lon="9.945997"><time>2021-07-03T07:57:03.000Z</time><ele>2440.6</ele></trkpt><trkpt lat="46.334684" lon="9.94599"><time>2021-07-03T07:57:11.000Z</time><ele>2441.6</ele></trkpt><trkpt lat="46.334702" lon="9.945995"><time>2021-07-03T07:57:15.000Z</time><ele>2442.2</ele></trkpt><trkpt lat="46.334711" lon="9.945991"><time>2021-07-03T07:57:16.000Z</time><ele>2442.4</ele></trkpt><trkpt lat="46.334723" lon="9.945985"><time>2021-07-03T07:57:18.000Z</time><ele>2442.6</ele></trkpt><trkpt lat="46.33473" lon="9.945985"><time>2021-07-03T07:57:19.000Z</time><ele>2442.8</ele></trkpt><trkpt lat="46.334743" lon="9.945988"><time>2021-07-03T07:57:22.000Z</time><ele>2443.4</ele></trkpt><trkpt lat="46.334747" lon="9.945989"><time>2021-07-03T07:57:23.000Z</time><ele>2443.6</ele></trkpt><trkpt lat="46.334746" lon="9.945994"><time>2021-07-03T07:57:24.000Z</time><ele>2443.8</ele></trkpt><trkpt lat="46.334746" lon="9.945998"><time>2021-07-03T07:57:25.000Z</time><ele>2444</ele></trkpt><trkpt lat="46.334754" lon="9.946017"><time>2021-07-03T07:57:28.000Z</time><ele>2444.4</ele></trkpt><trkpt lat="46.334773" lon="9.946023"><time>2021-07-03T07:57:32.000Z</time><ele>2445.2</ele></trkpt><trkpt lat="46.334787" lon="9.946029"><time>2021-07-03T07:57:38.000Z</time><ele>2446.4</ele></trkpt><trkpt lat="46.334791" lon="9.946031"><time>2021-07-03T07:57:39.000Z</time><ele>2446.4</ele></trkpt><trkpt lat="46.334816" lon="9.946086"><time>2021-07-03T07:57:46.000Z</time><ele>2447.4</ele></trkpt><trkpt lat="46.334824" lon="9.946101"><time>2021-07-03T07:57:48.000Z</time><ele>2447.6</ele></trkpt><trkpt lat="46.334846" lon="9.9461"><time>2021-07-03T07:57:54.000Z</time><ele>2448.4</ele></trkpt><trkpt lat="46.33485" lon="9.9461"><time>2021-07-03T07:57:55.000Z</time><ele>2448.6</ele></trkpt><trkpt lat="46.334877" lon="9.946076"><time>2021-07-03T07:58:00.000Z</time><ele>2449.6</ele></trkpt><trkpt lat="46.334876" lon="9.946072"><time>2021-07-03T07:58:01.000Z</time><ele>2449.8</ele></trkpt><trkpt lat="46.334879" lon="9.946064"><time>2021-07-03T07:58:06.000Z</time><ele>2450</ele></trkpt><trkpt lat="46.334863" lon="9.94605"><time>2021-07-03T07:58:17.000Z</time><ele>2450</ele></trkpt><trkpt lat="46.334872" lon="9.946061"><time>2021-07-03T07:58:32.000Z</time><ele>2449.8</ele></trkpt><trkpt lat="46.334873" lon="9.946061"><time>2021-07-03T07:58:38.000Z</time><ele>2449.8</ele></trkpt><trkpt lat="46.334875" lon="9.946061"><time>2021-07-03T07:58:40.000Z</time><ele>2450</ele></trkpt><trkpt lat="46.334877" lon="9.946061"><time>2021-07-03T07:58:43.000Z</time><ele>2450.6</ele></trkpt><trkpt lat="46.334883" lon="9.94606"><time>2021-07-03T07:58:49.000Z</time><ele>2451.8</ele></trkpt><trkpt lat="46.334896" lon="9.946053"><time>2021-07-03T07:58:56.000Z</time><ele>2452.8</ele></trkpt><trkpt lat="46.334927" lon="9.946036"><time>2021-07-03T07:59:03.000Z</time><ele>2453.6</ele></trkpt><trkpt lat="46.334949" lon="9.946032"><time>2021-07-03T07:59:07.000Z</time><ele>2454</ele></trkpt><trkpt lat="46.335009" lon="9.945995"><time>2021-07-03T07:59:20.000Z</time><ele>2455</ele></trkpt><trkpt lat="46.335021" lon="9.945986"><time>2021-07-03T07:59:23.000Z</time><ele>2455.2</ele></trkpt><trkpt lat="46.33504" lon="9.945972"><time>2021-07-03T07:59:26.000Z</time><ele>2455.2</ele></trkpt><trkpt lat="46.335054" lon="9.945956"><time>2021-07-03T07:59:29.000Z</time><ele>2455.2</ele></trkpt><trkpt lat="46.335057" lon="9.945939"><time>2021-07-03T07:59:33.000Z</time><ele>2455.4</ele></trkpt><trkpt lat="46.335058" lon="9.94593"><time>2021-07-03T07:59:36.000Z</time><ele>2455.4</ele></trkpt><trkpt lat="46.335064" lon="9.945914"><time>2021-07-03T07:59:45.000Z</time><ele>2455.4</ele></trkpt><trkpt lat="46.335065" lon="9.945908"><time>2021-07-03T07:59:52.000Z</time><ele>2456.2</ele></trkpt><trkpt lat="46.335083" lon="9.945886"><time>2021-07-03T08:00:00.000Z</time><ele>2457.2</ele></trkpt><trkpt lat="46.335085" lon="9.945883"><time>2021-07-03T08:00:02.000Z</time><ele>2457.6</ele></trkpt><trkpt lat="46.335086" lon="9.94588"><time>2021-07-03T08:00:04.000Z</time><ele>2458</ele></trkpt><trkpt lat="46.335087" lon="9.945877"><time>2021-07-03T08:00:05.000Z</time><ele>2458.4</ele></trkpt><trkpt lat="46.335088" lon="9.945868"><time>2021-07-03T08:00:07.000Z</time><ele>2458.6</ele></trkpt><trkpt lat="46.335156" lon="9.945838"><time>2021-07-03T08:00:15.000Z</time><ele>2458.6</ele></trkpt><trkpt lat="46.335247" lon="9.945806"><time>2021-07-03T08:00:23.000Z</time><ele>2458.4</ele></trkpt><trkpt lat="46.335252" lon="9.945807"><time>2021-07-03T08:00:24.000Z</time><ele>2458.4</ele></trkpt><trkpt lat="46.335271" lon="9.945827"><time>2021-07-03T08:00:28.000Z</time><ele>2458.4</ele></trkpt><trkpt lat="46.335303" lon="9.945837"><time>2021-07-03T08:00:32.000Z</time><ele>2458.4</ele></trkpt><trkpt lat="46.335338" lon="9.94582"><time>2021-07-03T08:00:38.000Z</time><ele>2459.4</ele></trkpt><trkpt lat="46.335343" lon="9.945822"><time>2021-07-03T08:00:39.000Z</time><ele>2459.6</ele></trkpt><trkpt lat="46.335356" lon="9.945826"><time>2021-07-03T08:00:42.000Z</time><ele>2459.6</ele></trkpt><trkpt lat="46.335388" lon="9.945842"><time>2021-07-03T08:00:46.000Z</time><ele>2459.6</ele></trkpt><trkpt lat="46.335398" lon="9.945843"><time>2021-07-03T08:00:48.000Z</time><ele>2459.6</ele></trkpt><trkpt lat="46.335433" lon="9.945855"><time>2021-07-03T08:00:58.000Z</time><ele>2460.2</ele></trkpt><trkpt lat="46.335447" lon="9.94588"><time>2021-07-03T08:01:01.000Z</time><ele>2460.4</ele></trkpt><trkpt lat="46.335469" lon="9.945922"><time>2021-07-03T08:01:07.000Z</time><ele>2460.6</ele></trkpt><trkpt lat="46.335492" lon="9.945941"><time>2021-07-03T08:01:12.000Z</time><ele>2460.6</ele></trkpt><trkpt lat="46.335508" lon="9.945965"><time>2021-07-03T08:01:15.000Z</time><ele>2460.6</ele></trkpt><trkpt lat="46.335513" lon="9.94597"><time>2021-07-03T08:01:16.000Z</time><ele>2460.8</ele></trkpt><trkpt lat="46.335535" lon="9.945975"><time>2021-07-03T08:01:22.000Z</time><ele>2461.4</ele></trkpt><trkpt lat="46.335545" lon="9.945985"><time>2021-07-03T08:01:24.000Z</time><ele>2461.6</ele></trkpt><trkpt lat="46.335565" lon="9.94599"><time>2021-07-03T08:01:29.000Z</time><ele>2462</ele></trkpt><trkpt lat="46.335609" lon="9.946029"><time>2021-07-03T08:01:36.000Z</time><ele>2462.6</ele></trkpt><trkpt lat="46.335611" lon="9.94603"><time>2021-07-03T08:01:37.000Z</time><ele>2462.6</ele></trkpt><trkpt lat="46.335644" lon="9.946052"><time>2021-07-03T08:01:44.000Z</time><ele>2462.6</ele></trkpt><trkpt lat="46.335682" lon="9.946073"><time>2021-07-03T08:01:50.000Z</time><ele>2462.8</ele></trkpt><trkpt lat="46.335696" lon="9.946086"><time>2021-07-03T08:01:53.000Z</time><ele>2462.8</ele></trkpt><trkpt lat="46.335746" lon="9.946142"><time>2021-07-03T08:02:02.000Z</time><ele>2462.4</ele></trkpt><trkpt lat="46.335761" lon="9.946162"><time>2021-07-03T08:02:05.000Z</time><ele>2462.2</ele></trkpt><trkpt lat="46.335768" lon="9.946187"><time>2021-07-03T08:02:08.000Z</time><ele>2462.2</ele></trkpt><trkpt lat="46.335784" lon="9.946214"><time>2021-07-03T08:02:11.000Z</time><ele>2462.2</ele></trkpt><trkpt lat="46.335851" lon="9.946286"><time>2021-07-03T08:02:21.000Z</time><ele>2462</ele></trkpt><trkpt lat="46.335862" lon="9.946303"><time>2021-07-03T08:02:23.000Z</time><ele>2461.2</ele></trkpt><trkpt lat="46.335892" lon="9.94634"><time>2021-07-03T08:02:27.000Z</time><ele>2461.2</ele></trkpt><trkpt lat="46.335926" lon="9.946376"><time>2021-07-03T08:02:32.000Z</time><ele>2461.2</ele></trkpt><trkpt lat="46.335956" lon="9.946417"><time>2021-07-03T08:02:37.000Z</time><ele>2460.2</ele></trkpt><trkpt lat="46.335977" lon="9.946437"><time>2021-07-03T08:02:39.000Z</time><ele>2459.8</ele></trkpt><trkpt lat="46.336004" lon="9.946459"><time>2021-07-03T08:02:42.000Z</time><ele>2459.6</ele></trkpt><trkpt lat="46.336063" lon="9.946521"><time>2021-07-03T08:02:50.000Z</time><ele>2459.8</ele></trkpt><trkpt lat="46.336113" lon="9.946605"><time>2021-07-03T08:02:59.000Z</time><ele>2459.4</ele></trkpt><trkpt lat="46.336118" lon="9.946617"><time>2021-07-03T08:03:00.000Z</time><ele>2459.2</ele></trkpt><trkpt lat="46.336129" lon="9.946629"><time>2021-07-03T08:03:02.000Z</time><ele>2459</ele></trkpt><trkpt lat="46.33615" lon="9.946641"><time>2021-07-03T08:03:06.000Z</time><ele>2458.8</ele></trkpt><trkpt lat="46.336162" lon="9.946651"><time>2021-07-03T08:03:08.000Z</time><ele>2458.6</ele></trkpt><trkpt lat="46.33617" lon="9.946661"><time>2021-07-03T08:03:10.000Z</time><ele>2458.4</ele></trkpt><trkpt lat="46.336183" lon="9.946681"><time>2021-07-03T08:03:13.000Z</time><ele>2458</ele></trkpt><trkpt lat="46.33619" lon="9.946689"><time>2021-07-03T08:03:14.000Z</time><ele>2457.8</ele></trkpt><trkpt lat="46.336221" lon="9.946716"><time>2021-07-03T08:03:19.000Z</time><ele>2457</ele></trkpt><trkpt lat="46.336227" lon="9.946717"><time>2021-07-03T08:03:20.000Z</time><ele>2457</ele></trkpt><trkpt lat="46.336235" lon="9.946719"><time>2021-07-03T08:03:21.000Z</time><ele>2457</ele></trkpt><trkpt lat="46.336253" lon="9.946728"><time>2021-07-03T08:03:24.000Z</time><ele>2456.8</ele></trkpt><trkpt lat="46.336267" lon="9.94674"><time>2021-07-03T08:03:27.000Z</time><ele>2456.8</ele></trkpt><trkpt lat="46.336313" lon="9.94676"><time>2021-07-03T08:03:34.000Z</time><ele>2456.2</ele></trkpt><trkpt lat="46.336329" lon="9.946771"><time>2021-07-03T08:03:36.000Z</time><ele>2456</ele></trkpt><trkpt lat="46.336345" lon="9.946779"><time>2021-07-03T08:03:38.000Z</time><ele>2456</ele></trkpt><trkpt lat="46.336388" lon="9.946797"><time>2021-07-03T08:03:43.000Z</time><ele>2455.8</ele></trkpt><trkpt lat="46.33642" lon="9.946807"><time>2021-07-03T08:03:48.000Z</time><ele>2455.4</ele></trkpt><trkpt lat="46.336424" lon="9.946808"><time>2021-07-03T08:03:49.000Z</time><ele>2455.4</ele></trkpt><trkpt lat="46.336435" lon="9.94682"><time>2021-07-03T08:03:51.000Z</time><ele>2455.2</ele></trkpt><trkpt lat="46.336446" lon="9.94683"><time>2021-07-03T08:03:52.000Z</time><ele>2455.2</ele></trkpt><trkpt lat="46.336481" lon="9.946852"><time>2021-07-03T08:03:57.000Z</time><ele>2455</ele></trkpt><trkpt lat="46.336485" lon="9.946854"><time>2021-07-03T08:03:58.000Z</time><ele>2454.8</ele></trkpt><trkpt lat="46.336504" lon="9.946861"><time>2021-07-03T08:04:00.000Z</time><ele>2454.8</ele></trkpt><trkpt lat="46.336507" lon="9.946867"><time>2021-07-03T08:04:02.000Z</time><ele>2454.6</ele></trkpt><trkpt lat="46.336505" lon="9.946878"><time>2021-07-03T08:04:04.000Z</time><ele>2454.4</ele></trkpt><trkpt lat="46.336503" lon="9.946857"><time>2021-07-03T08:04:08.000Z</time><ele>2454.2</ele></trkpt><trkpt lat="46.336532" lon="9.946839"><time>2021-07-03T08:04:11.000Z</time><ele>2454</ele></trkpt><trkpt lat="46.33656" lon="9.946837"><time>2021-07-03T08:04:18.000Z</time><ele>2454</ele></trkpt><trkpt lat="46.336579" lon="9.946867"><time>2021-07-03T08:04:22.000Z</time><ele>2453.8</ele></trkpt><trkpt lat="46.336596" lon="9.946877"><time>2021-07-03T08:04:26.000Z</time><ele>2453.6</ele></trkpt><trkpt lat="46.336627" lon="9.9469"><time>2021-07-03T08:04:31.000Z</time><ele>2452.8</ele></trkpt><trkpt lat="46.336631" lon="9.946905"><time>2021-07-03T08:04:32.000Z</time><ele>2452.6</ele></trkpt><trkpt lat="46.33667" lon="9.946977"><time>2021-07-03T08:04:38.000Z</time><ele>2452.4</ele></trkpt><trkpt lat="46.336676" lon="9.946989"><time>2021-07-03T08:04:39.000Z</time><ele>2452.2</ele></trkpt><trkpt lat="46.336702" lon="9.947035"><time>2021-07-03T08:04:44.000Z</time><ele>2452.2</ele></trkpt><trkpt lat="46.336707" lon="9.947057"><time>2021-07-03T08:04:46.000Z</time><ele>2452.2</ele></trkpt><trkpt lat="46.336721" lon="9.947103"><time>2021-07-03T08:04:51.000Z</time><ele>2451.6</ele></trkpt><trkpt lat="46.336723" lon="9.94711"><time>2021-07-03T08:04:52.000Z</time><ele>2451.6</ele></trkpt><trkpt lat="46.336727" lon="9.947119"><time>2021-07-03T08:04:53.000Z</time><ele>2451.2</ele></trkpt><trkpt lat="46.336734" lon="9.947156"><time>2021-07-03T08:04:56.000Z</time><ele>2450.4</ele></trkpt><trkpt lat="46.336742" lon="9.94718"><time>2021-07-03T08:04:58.000Z</time><ele>2450.2</ele></trkpt><trkpt lat="46.336757" lon="9.947192"><time>2021-07-03T08:05:00.000Z</time><ele>2449.8</ele></trkpt><trkpt lat="46.336762" lon="9.947206"><time>2021-07-03T08:05:03.000Z</time><ele>2449.4</ele></trkpt><trkpt lat="46.336782" lon="9.947236"><time>2021-07-03T08:05:07.000Z</time><ele>2449.6</ele></trkpt><trkpt lat="46.33681" lon="9.947285"><time>2021-07-03T08:05:16.000Z</time><ele>2450</ele></trkpt><trkpt lat="46.336821" lon="9.947306"><time>2021-07-03T08:05:21.000Z</time><ele>2450</ele></trkpt><trkpt lat="46.336823" lon="9.947306"><time>2021-07-03T08:05:22.000Z</time><ele>2450</ele></trkpt><trkpt lat="46.336827" lon="9.947305"><time>2021-07-03T08:05:23.000Z</time><ele>2450</ele></trkpt><trkpt lat="46.336833" lon="9.947299"><time>2021-07-03T08:05:25.000Z</time><ele>2450</ele></trkpt><trkpt lat="46.336863" lon="9.947343"><time>2021-07-03T08:05:30.000Z</time><ele>2449.8</ele></trkpt><trkpt lat="46.336878" lon="9.947386"><time>2021-07-03T08:05:36.000Z</time><ele>2449.6</ele></trkpt><trkpt lat="46.336895" lon="9.947416"><time>2021-07-03T08:05:47.000Z</time><ele>2449</ele></trkpt><trkpt lat="46.336907" lon="9.947435"><time>2021-07-03T08:05:52.000Z</time><ele>2448.4</ele></trkpt><trkpt lat="46.336913" lon="9.94744"><time>2021-07-03T08:05:54.000Z</time><ele>2448</ele></trkpt><trkpt lat="46.336945" lon="9.947469"><time>2021-07-03T08:06:00.000Z</time><ele>2447.4</ele></trkpt><trkpt lat="46.336959" lon="9.947501"><time>2021-07-03T08:06:03.000Z</time><ele>2447.2</ele></trkpt><trkpt lat="46.336982" lon="9.947547"><time>2021-07-03T08:06:09.000Z</time><ele>2446.4</ele></trkpt><trkpt lat="46.336995" lon="9.947563"><time>2021-07-03T08:06:11.000Z</time><ele>2446</ele></trkpt><trkpt lat="46.337016" lon="9.947581"><time>2021-07-03T08:06:20.000Z</time><ele>2445.6</ele></trkpt><trkpt lat="46.337016" lon="9.947577"><time>2021-07-03T08:06:25.000Z</time><ele>2445.4</ele></trkpt><trkpt lat="46.337016" lon="9.947577"><time>2021-07-03T08:06:26.000Z</time><ele>2445.2</ele></trkpt><trkpt lat="46.337016" lon="9.947577"><time>2021-07-03T08:06:35.000Z</time><ele>2445.4</ele></trkpt><trkpt lat="46.337088" lon="9.947669"><time>2021-07-03T08:06:47.000Z</time><ele>2444.6</ele></trkpt><trkpt lat="46.337167" lon="9.947772"><time>2021-07-03T08:06:54.000Z</time><ele>2444.8</ele></trkpt><trkpt lat="46.337207" lon="9.947835"><time>2021-07-03T08:07:01.000Z</time><ele>2444.4</ele></trkpt><trkpt lat="46.337221" lon="9.947857"><time>2021-07-03T08:07:04.000Z</time><ele>2444</ele></trkpt><trkpt lat="46.337233" lon="9.947887"><time>2021-07-03T08:07:09.000Z</time><ele>2443</ele></trkpt><trkpt lat="46.337263" lon="9.947975"><time>2021-07-03T08:07:16.000Z</time><ele>2442.2</ele></trkpt><trkpt lat="46.337291" lon="9.947995"><time>2021-07-03T08:07:19.000Z</time><ele>2442.2</ele></trkpt><trkpt lat="46.337309" lon="9.948034"><time>2021-07-03T08:07:22.000Z</time><ele>2442.4</ele></trkpt><trkpt lat="46.337318" lon="9.948067"><time>2021-07-03T08:07:25.000Z</time><ele>2442.4</ele></trkpt><trkpt lat="46.337344" lon="9.948095"><time>2021-07-03T08:07:31.000Z</time><ele>2442.6</ele></trkpt><trkpt lat="46.337346" lon="9.948127"><time>2021-07-03T08:07:37.000Z</time><ele>2443.2</ele></trkpt><trkpt lat="46.337351" lon="9.948172"><time>2021-07-03T08:07:43.000Z</time><ele>2444.2</ele></trkpt><trkpt lat="46.337353" lon="9.948181"><time>2021-07-03T08:07:45.000Z</time><ele>2444.4</ele></trkpt><trkpt lat="46.337361" lon="9.948251"><time>2021-07-03T08:07:52.000Z</time><ele>2444</ele></trkpt><trkpt lat="46.337372" lon="9.948314"><time>2021-07-03T08:07:58.000Z</time><ele>2443.4</ele></trkpt><trkpt lat="46.337392" lon="9.948347"><time>2021-07-03T08:08:05.000Z</time><ele>2444.2</ele></trkpt><trkpt lat="46.337416" lon="9.948393"><time>2021-07-03T08:08:13.000Z</time><ele>2445.2</ele></trkpt><trkpt lat="46.337424" lon="9.948398"><time>2021-07-03T08:08:14.000Z</time><ele>2445.2</ele></trkpt><trkpt lat="46.337443" lon="9.948417"><time>2021-07-03T08:08:20.000Z</time><ele>2445.8</ele></trkpt><trkpt lat="46.337443" lon="9.948427"><time>2021-07-03T08:08:22.000Z</time><ele>2446.2</ele></trkpt><trkpt lat="46.337456" lon="9.94845"><time>2021-07-03T08:08:28.000Z</time><ele>2447</ele></trkpt><trkpt lat="46.337466" lon="9.948445"><time>2021-07-03T08:08:30.000Z</time><ele>2447.4</ele></trkpt><trkpt lat="46.337473" lon="9.948438"><time>2021-07-03T08:08:32.000Z</time><ele>2447.4</ele></trkpt><trkpt lat="46.337489" lon="9.948419"><time>2021-07-03T08:08:36.000Z</time><ele>2448</ele></trkpt><trkpt lat="46.33749" lon="9.94842"><time>2021-07-03T08:08:37.000Z</time><ele>2448</ele></trkpt><trkpt lat="46.337495" lon="9.948417"><time>2021-07-03T08:08:41.000Z</time><ele>2448.4</ele></trkpt><trkpt lat="46.337497" lon="9.948426"><time>2021-07-03T08:08:43.000Z</time><ele>2448.6</ele></trkpt><trkpt lat="46.337531" lon="9.948426"><time>2021-07-03T08:08:49.000Z</time><ele>2449.4</ele></trkpt><trkpt lat="46.337539" lon="9.948424"><time>2021-07-03T08:08:50.000Z</time><ele>2449.4</ele></trkpt><trkpt lat="46.337553" lon="9.948444"><time>2021-07-03T08:08:56.000Z</time><ele>2449.8</ele></trkpt><trkpt lat="46.337561" lon="9.948451"><time>2021-07-03T08:09:00.000Z</time><ele>2450.2</ele></trkpt><trkpt lat="46.337569" lon="9.948455"><time>2021-07-03T08:09:02.000Z</time><ele>2450.4</ele></trkpt><trkpt lat="46.337568" lon="9.948456"><time>2021-07-03T08:09:04.000Z</time><ele>2451</ele></trkpt><trkpt lat="46.337579" lon="9.948497"><time>2021-07-03T08:09:09.000Z</time><ele>2451.6</ele></trkpt><trkpt lat="46.3376" lon="9.948502"><time>2021-07-03T08:09:11.000Z</time><ele>2451.6</ele></trkpt><trkpt lat="46.337621" lon="9.948537"><time>2021-07-03T08:09:19.000Z</time><ele>2452.6</ele></trkpt><trkpt lat="46.337633" lon="9.948558"><time>2021-07-03T08:09:26.000Z</time><ele>2453.4</ele></trkpt><trkpt lat="46.337643" lon="9.948541"><time>2021-07-03T08:09:31.000Z</time><ele>2453.4</ele></trkpt><trkpt lat="46.337652" lon="9.948542"><time>2021-07-03T08:09:33.000Z</time><ele>2453.8</ele></trkpt><trkpt lat="46.337672" lon="9.948532"><time>2021-07-03T08:09:39.000Z</time><ele>2454.6</ele></trkpt><trkpt lat="46.337675" lon="9.948533"><time>2021-07-03T08:09:40.000Z</time><ele>2455</ele></trkpt><trkpt lat="46.337691" lon="9.948504"><time>2021-07-03T08:09:45.000Z</time><ele>2456.2</ele></trkpt><trkpt lat="46.337695" lon="9.948504"><time>2021-07-03T08:09:46.000Z</time><ele>2456.4</ele></trkpt><trkpt lat="46.337738" lon="9.948537"><time>2021-07-03T08:09:51.000Z</time><ele>2456.6</ele></trkpt><trkpt lat="46.337778" lon="9.948537"><time>2021-07-03T08:09:57.000Z</time><ele>2456.2</ele></trkpt><trkpt lat="46.337847" lon="9.948588"><time>2021-07-03T08:10:06.000Z</time><ele>2455.6</ele></trkpt><trkpt lat="46.337869" lon="9.948613"><time>2021-07-03T08:10:10.000Z</time><ele>2455</ele></trkpt><trkpt lat="46.3379" lon="9.948634"><time>2021-07-03T08:10:14.000Z</time><ele>2454.4</ele></trkpt><trkpt lat="46.337938" lon="9.948643"><time>2021-07-03T08:10:18.000Z</time><ele>2454</ele></trkpt><trkpt lat="46.33797" lon="9.94865"><time>2021-07-03T08:10:21.000Z</time><ele>2453.8</ele></trkpt><trkpt lat="46.338024" lon="9.948661"><time>2021-07-03T08:10:27.000Z</time><ele>2454.4</ele></trkpt><trkpt lat="46.338044" lon="9.948671"><time>2021-07-03T08:10:29.000Z</time><ele>2454.4</ele></trkpt><trkpt lat="46.338097" lon="9.948702"><time>2021-07-03T08:10:34.000Z</time><ele>2453.8</ele></trkpt><trkpt lat="46.338113" lon="9.94871"><time>2021-07-03T08:10:36.000Z</time><ele>2453.8</ele></trkpt><trkpt lat="46.338117" lon="9.948719"><time>2021-07-03T08:10:37.000Z</time><ele>2453.8</ele></trkpt><trkpt lat="46.338135" lon="9.948756"><time>2021-07-03T08:10:42.000Z</time><ele>2454</ele></trkpt><trkpt lat="46.338137" lon="9.948766"><time>2021-07-03T08:10:43.000Z</time><ele>2454</ele></trkpt><trkpt lat="46.338138" lon="9.948782"><time>2021-07-03T08:10:45.000Z</time><ele>2454</ele></trkpt><trkpt lat="46.338157" lon="9.948796"><time>2021-07-03T08:10:48.000Z</time><ele>2454</ele></trkpt><trkpt lat="46.338162" lon="9.948795"><time>2021-07-03T08:10:49.000Z</time><ele>2454.2</ele></trkpt><trkpt lat="46.338176" lon="9.948818"><time>2021-07-03T08:10:52.000Z</time><ele>2454.2</ele></trkpt><trkpt lat="46.338181" lon="9.94883"><time>2021-07-03T08:10:53.000Z</time><ele>2454.2</ele></trkpt><trkpt lat="46.338196" lon="9.948846"><time>2021-07-03T08:10:56.000Z</time><ele>2454.2</ele></trkpt><trkpt lat="46.338214" lon="9.948891"><time>2021-07-03T08:11:03.000Z</time><ele>2453.6</ele></trkpt><trkpt lat="46.338217" lon="9.948898"><time>2021-07-03T08:11:05.000Z</time><ele>2453.4</ele></trkpt><trkpt lat="46.338229" lon="9.948902"><time>2021-07-03T08:11:07.000Z</time><ele>2453.2</ele></trkpt><trkpt lat="46.338243" lon="9.948918"><time>2021-07-03T08:11:09.000Z</time><ele>2453.2</ele></trkpt><trkpt lat="46.338247" lon="9.948928"><time>2021-07-03T08:11:10.000Z</time><ele>2453.2</ele></trkpt><trkpt lat="46.338255" lon="9.948936"><time>2021-07-03T08:11:12.000Z</time><ele>2453.4</ele></trkpt><trkpt lat="46.338263" lon="9.94893"><time>2021-07-03T08:11:14.000Z</time><ele>2453.4</ele></trkpt><trkpt lat="46.338279" lon="9.948953"><time>2021-07-03T08:11:17.000Z</time><ele>2453.4</ele></trkpt><trkpt lat="46.338275" lon="9.948958"><time>2021-07-03T08:11:21.000Z</time><ele>2453.4</ele></trkpt><trkpt lat="46.338266" lon="9.948931"><time>2021-07-03T08:11:26.000Z</time><ele>2453.4</ele></trkpt><trkpt lat="46.338265" lon="9.948913"><time>2021-07-03T08:11:30.000Z</time><ele>2453.4</ele></trkpt><trkpt lat="46.338257" lon="9.948912"><time>2021-07-03T08:11:34.000Z</time><ele>2453.6</ele></trkpt><trkpt lat="46.338257" lon="9.948912"><time>2021-07-03T08:11:36.000Z</time><ele>2453.6</ele></trkpt><trkpt lat="46.338265" lon="9.948912"><time>2021-07-03T08:11:47.000Z</time><ele>2454.6</ele></trkpt><trkpt lat="46.338268" lon="9.94892"><time>2021-07-03T08:11:52.000Z</time><ele>2455</ele></trkpt><trkpt lat="46.338291" lon="9.948936"><time>2021-07-03T08:11:55.000Z</time><ele>2455.4</ele></trkpt><trkpt lat="46.338335" lon="9.948976"><time>2021-07-03T08:11:59.000Z</time><ele>2456</ele></trkpt><trkpt lat="46.338345" lon="9.948986"><time>2021-07-03T08:12:00.000Z</time><ele>2456.2</ele></trkpt><trkpt lat="46.338357" lon="9.94899"><time>2021-07-03T08:12:01.000Z</time><ele>2456.4</ele></trkpt><trkpt lat="46.338371" lon="9.948996"><time>2021-07-03T08:12:04.000Z</time><ele>2456.8</ele></trkpt><trkpt lat="46.338369" lon="9.948997"><time>2021-07-03T08:12:05.000Z</time><ele>2457.2</ele></trkpt><trkpt lat="46.338373" lon="9.948997"><time>2021-07-03T08:12:11.000Z</time><ele>2457.2</ele></trkpt><trkpt lat="46.338413" lon="9.948978"><time>2021-07-03T08:12:21.000Z</time><ele>2457.4</ele></trkpt><trkpt lat="46.338416" lon="9.948969"><time>2021-07-03T08:12:25.000Z</time><ele>2458.2</ele></trkpt><trkpt lat="46.338413" lon="9.948938"><time>2021-07-03T08:12:29.000Z</time><ele>2459</ele></trkpt><trkpt lat="46.338419" lon="9.94892"><time>2021-07-03T08:12:32.000Z</time><ele>2459.4</ele></trkpt><trkpt lat="46.338419" lon="9.948916"><time>2021-07-03T08:12:35.000Z</time><ele>2460</ele></trkpt><trkpt lat="46.338424" lon="9.948923"><time>2021-07-03T08:12:37.000Z</time><ele>2460.2</ele></trkpt><trkpt lat="46.338426" lon="9.948939"><time>2021-07-03T08:12:39.000Z</time><ele>2460.4</ele></trkpt><trkpt lat="46.338444" lon="9.948971"><time>2021-07-03T08:12:46.000Z</time><ele>2461.4</ele></trkpt><trkpt lat="46.338447" lon="9.948974"><time>2021-07-03T08:12:47.000Z</time><ele>2461.6</ele></trkpt><trkpt lat="46.338453" lon="9.949005"><time>2021-07-03T08:12:52.000Z</time><ele>2462.2</ele></trkpt><trkpt lat="46.338454" lon="9.94901"><time>2021-07-03T08:12:53.000Z</time><ele>2462.6</ele></trkpt><trkpt lat="46.338454" lon="9.94902"><time>2021-07-03T08:12:56.000Z</time><ele>2463</ele></trkpt><trkpt lat="46.338459" lon="9.949024"><time>2021-07-03T08:12:58.000Z</time><ele>2463.6</ele></trkpt><trkpt lat="46.338464" lon="9.949068"><time>2021-07-03T08:13:03.000Z</time><ele>2464.2</ele></trkpt><trkpt lat="46.338467" lon="9.949126"><time>2021-07-03T08:13:09.000Z</time><ele>2464.6</ele></trkpt><trkpt lat="46.338476" lon="9.949134"><time>2021-07-03T08:13:12.000Z</time><ele>2465</ele></trkpt><trkpt lat="46.338483" lon="9.949141"><time>2021-07-03T08:13:15.000Z</time><ele>2465.6</ele></trkpt><trkpt lat="46.338486" lon="9.949146"><time>2021-07-03T08:13:16.000Z</time><ele>2465.8</ele></trkpt><trkpt lat="46.338534" lon="9.949179"><time>2021-07-03T08:13:23.000Z</time><ele>2466.6</ele></trkpt><trkpt lat="46.338543" lon="9.949186"><time>2021-07-03T08:13:26.000Z</time><ele>2466.6</ele></trkpt><trkpt lat="46.33855" lon="9.949182"><time>2021-07-03T08:13:36.000Z</time><ele>2466.8</ele></trkpt><trkpt lat="46.33855" lon="9.949182"><time>2021-07-03T08:13:44.000Z</time><ele>2467</ele></trkpt><trkpt lat="46.338583" lon="9.949143"><time>2021-07-03T08:13:49.000Z</time><ele>2467.2</ele></trkpt><trkpt lat="46.33859" lon="9.949136"><time>2021-07-03T08:13:50.000Z</time><ele>2467.2</ele></trkpt><trkpt lat="46.338611" lon="9.949115"><time>2021-07-03T08:13:53.000Z</time><ele>2467.6</ele></trkpt><trkpt lat="46.33864" lon="9.949088"><time>2021-07-03T08:13:56.000Z</time><ele>2468</ele></trkpt><trkpt lat="46.338672" lon="9.949088"><time>2021-07-03T08:14:04.000Z</time><ele>2468.2</ele></trkpt><trkpt lat="46.338684" lon="9.949112"><time>2021-07-03T08:14:10.000Z</time><ele>2468.2</ele></trkpt><trkpt lat="46.338688" lon="9.949118"><time>2021-07-03T08:14:11.000Z</time><ele>2468.2</ele></trkpt><trkpt lat="46.338723" lon="9.949133"><time>2021-07-03T08:14:17.000Z</time><ele>2467.4</ele></trkpt><trkpt lat="46.33876" lon="9.949144"><time>2021-07-03T08:14:28.000Z</time><ele>2468.2</ele></trkpt><trkpt lat="46.338779" lon="9.949164"><time>2021-07-03T08:14:36.000Z</time><ele>2468.2</ele></trkpt><trkpt lat="46.338782" lon="9.94916"><time>2021-07-03T08:14:49.000Z</time><ele>2467.8</ele></trkpt><trkpt lat="46.338782" lon="9.949161"><time>2021-07-03T08:14:57.000Z</time><ele>2467.8</ele></trkpt><trkpt lat="46.338808" lon="9.949167"><time>2021-07-03T08:15:06.000Z</time><ele>2467.8</ele></trkpt><trkpt lat="46.338822" lon="9.949168"><time>2021-07-03T08:15:08.000Z</time><ele>2467.8</ele></trkpt><trkpt lat="46.338842" lon="9.949168"><time>2021-07-03T08:15:11.000Z</time><ele>2467.8</ele></trkpt><trkpt lat="46.33887" lon="9.949169"><time>2021-07-03T08:15:16.000Z</time><ele>2468</ele></trkpt><trkpt lat="46.338955" lon="9.949194"><time>2021-07-03T08:15:31.000Z</time><ele>2466.8</ele></trkpt><trkpt lat="46.339021" lon="9.949279"><time>2021-07-03T08:15:37.000Z</time><ele>2466.4</ele></trkpt><trkpt lat="46.339042" lon="9.949308"><time>2021-07-03T08:15:39.000Z</time><ele>2466.4</ele></trkpt><trkpt lat="46.339064" lon="9.949328"><time>2021-07-03T08:15:41.000Z</time><ele>2466.2</ele></trkpt><trkpt lat="46.339079" lon="9.949344"><time>2021-07-03T08:15:44.000Z</time><ele>2466.2</ele></trkpt><trkpt lat="46.339107" lon="9.949361"><time>2021-07-03T08:15:48.000Z</time><ele>2466</ele></trkpt><trkpt lat="46.339122" lon="9.949368"><time>2021-07-03T08:15:51.000Z</time><ele>2466.4</ele></trkpt><trkpt lat="46.339134" lon="9.949375"><time>2021-07-03T08:15:53.000Z</time><ele>2466.6</ele></trkpt><trkpt lat="46.339138" lon="9.94938"><time>2021-07-03T08:15:54.000Z</time><ele>2466.6</ele></trkpt><trkpt lat="46.33915" lon="9.949391"><time>2021-07-03T08:15:56.000Z</time><ele>2466.6</ele></trkpt><trkpt lat="46.33916" lon="9.949397"><time>2021-07-03T08:16:00.000Z</time><ele>2466.8</ele></trkpt><trkpt lat="46.339165" lon="9.94939"><time>2021-07-03T08:16:01.000Z</time><ele>2466.8</ele></trkpt><trkpt lat="46.339173" lon="9.949365"><time>2021-07-03T08:16:06.000Z</time><ele>2467.6</ele></trkpt><trkpt lat="46.339173" lon="9.94936"><time>2021-07-03T08:16:07.000Z</time><ele>2467.6</ele></trkpt><trkpt lat="46.339181" lon="9.949342"><time>2021-07-03T08:16:10.000Z</time><ele>2468</ele></trkpt><trkpt lat="46.339185" lon="9.949339"><time>2021-07-03T08:16:12.000Z</time><ele>2468.4</ele></trkpt><trkpt lat="46.339199" lon="9.949344"><time>2021-07-03T08:16:15.000Z</time><ele>2468.8</ele></trkpt><trkpt lat="46.339208" lon="9.949348"><time>2021-07-03T08:16:17.000Z</time><ele>2469</ele></trkpt><trkpt lat="46.339214" lon="9.949357"><time>2021-07-03T08:16:19.000Z</time><ele>2469.2</ele></trkpt><trkpt lat="46.339215" lon="9.949361"><time>2021-07-03T08:16:20.000Z</time><ele>2469.2</ele></trkpt><trkpt lat="46.339234" lon="9.949364"><time>2021-07-03T08:16:23.000Z</time><ele>2469.6</ele></trkpt><trkpt lat="46.339258" lon="9.949374"><time>2021-07-03T08:16:27.000Z</time><ele>2470</ele></trkpt><trkpt lat="46.339261" lon="9.949378"><time>2021-07-03T08:16:30.000Z</time><ele>2470</ele></trkpt><trkpt lat="46.339268" lon="9.949382"><time>2021-07-03T08:16:35.000Z</time><ele>2470</ele></trkpt><trkpt lat="46.339274" lon="9.949383"><time>2021-07-03T08:16:37.000Z</time><ele>2470.4</ele></trkpt><trkpt lat="46.339279" lon="9.949373"><time>2021-07-03T08:16:39.000Z</time><ele>2470.6</ele></trkpt><trkpt lat="46.339287" lon="9.949346"><time>2021-07-03T08:16:44.000Z</time><ele>2471.4</ele></trkpt><trkpt lat="46.3393" lon="9.949353"><time>2021-07-03T08:16:48.000Z</time><ele>2472</ele></trkpt><trkpt lat="46.339301" lon="9.949352"><time>2021-07-03T08:16:58.000Z</time><ele>2472.2</ele></trkpt><trkpt lat="46.339296" lon="9.94935"><time>2021-07-03T08:17:02.000Z</time><ele>2472.2</ele></trkpt><trkpt lat="46.339291" lon="9.949346"><time>2021-07-03T08:17:23.000Z</time><ele>2472.2</ele></trkpt><trkpt lat="46.33929" lon="9.949346"><time>2021-07-03T08:17:29.000Z</time><ele>2472.2</ele></trkpt><trkpt lat="46.33929" lon="9.949347"><time>2021-07-03T08:17:34.000Z</time><ele>2472.2</ele></trkpt><trkpt lat="46.33929" lon="9.949347"><time>2021-07-03T08:17:37.000Z</time><ele>2472</ele></trkpt><trkpt lat="46.33929" lon="9.949351"><time>2021-07-03T08:17:42.000Z</time><ele>2472.4</ele></trkpt><trkpt lat="46.33929" lon="9.949352"><time>2021-07-03T08:17:43.000Z</time><ele>2472.4</ele></trkpt><trkpt lat="46.339291" lon="9.949359"><time>2021-07-03T08:17:47.000Z</time><ele>2473</ele></trkpt><trkpt lat="46.339292" lon="9.94936"><time>2021-07-03T08:17:49.000Z</time><ele>2473.6</ele></trkpt><trkpt lat="46.339301" lon="9.949378"><time>2021-07-03T08:17:55.000Z</time><ele>2474.6</ele></trkpt><trkpt lat="46.339325" lon="9.94938"><time>2021-07-03T08:18:01.000Z</time><ele>2474.8</ele></trkpt><trkpt lat="46.339336" lon="9.949381"><time>2021-07-03T08:18:04.000Z</time><ele>2474.8</ele></trkpt><trkpt lat="46.339386" lon="9.949423"><time>2021-07-03T08:18:10.000Z</time><ele>2475</ele></trkpt><trkpt lat="46.339449" lon="9.949421"><time>2021-07-03T08:18:20.000Z</time><ele>2474.8</ele></trkpt><trkpt lat="46.339478" lon="9.949439"><time>2021-07-03T08:18:25.000Z</time><ele>2474.6</ele></trkpt><trkpt lat="46.339483" lon="9.949443"><time>2021-07-03T08:18:26.000Z</time><ele>2474.4</ele></trkpt><trkpt lat="46.339484" lon="9.949449"><time>2021-07-03T08:18:28.000Z</time><ele>2474.2</ele></trkpt><trkpt lat="46.33948" lon="9.949437"><time>2021-07-03T08:18:38.000Z</time><ele>2474.6</ele></trkpt><trkpt lat="46.339474" lon="9.949437"><time>2021-07-03T08:18:49.000Z</time><ele>2474.6</ele></trkpt><trkpt lat="46.339473" lon="9.949434"><time>2021-07-03T08:18:52.000Z</time><ele>2474.6</ele></trkpt><trkpt lat="46.339456" lon="9.949434"><time>2021-07-03T08:18:57.000Z</time><ele>2474.4</ele></trkpt><trkpt lat="46.339456" lon="9.949434"><time>2021-07-03T08:18:59.000Z</time><ele>2474.4</ele></trkpt><trkpt lat="46.339456" lon="9.949434"><time>2021-07-03T08:19:01.000Z</time><ele>2474.6</ele></trkpt><trkpt lat="46.339456" lon="9.949434"><time>2021-07-03T08:19:07.000Z</time><ele>2474.6</ele></trkpt><trkpt lat="46.339458" lon="9.949439"><time>2021-07-03T08:19:20.000Z</time><ele>2474.6</ele></trkpt><trkpt lat="46.339458" lon="9.949439"><time>2021-07-03T08:19:22.000Z</time><ele>2474.6</ele></trkpt><trkpt lat="46.339458" lon="9.949441"><time>2021-07-03T08:19:25.000Z</time><ele>2474.6</ele></trkpt><trkpt lat="46.339458" lon="9.949442"><time>2021-07-03T08:19:27.000Z</time><ele>2474.6</ele></trkpt><trkpt lat="46.339459" lon="9.949453"><time>2021-07-03T08:19:44.000Z</time><ele>2474.6</ele></trkpt><trkpt lat="46.339457" lon="9.94945"><time>2021-07-03T08:20:00.000Z</time><ele>2474.6</ele></trkpt><trkpt lat="46.339451" lon="9.949447"><time>2021-07-03T08:20:28.000Z</time><ele>2474.6</ele></trkpt><trkpt lat="46.339468" lon="9.949459"><time>2021-07-03T08:20:52.000Z</time><ele>2474.6</ele></trkpt><trkpt lat="46.339468" lon="9.949459"><time>2021-07-03T08:20:53.000Z</time><ele>2474.6</ele></trkpt><trkpt lat="46.339473" lon="9.949454"><time>2021-07-03T08:20:58.000Z</time><ele>2474.6</ele></trkpt><trkpt lat="46.339482" lon="9.949449"><time>2021-07-03T08:21:00.000Z</time><ele>2474.6</ele></trkpt><trkpt lat="46.339492" lon="9.949444"><time>2021-07-03T08:21:02.000Z</time><ele>2474.6</ele></trkpt><trkpt lat="46.3395" lon="9.949442"><time>2021-07-03T08:21:04.000Z</time><ele>2474.6</ele></trkpt><trkpt lat="46.33952" lon="9.949439"><time>2021-07-03T08:21:10.000Z</time><ele>2474.6</ele></trkpt><trkpt lat="46.339532" lon="9.949446"><time>2021-07-03T08:21:19.000Z</time><ele>2474.6</ele></trkpt><trkpt lat="46.339533" lon="9.949457"><time>2021-07-03T08:21:22.000Z</time><ele>2474.6</ele></trkpt><trkpt lat="46.339534" lon="9.949468"><time>2021-07-03T08:21:25.000Z</time><ele>2474.6</ele></trkpt><trkpt lat="46.339536" lon="9.9495"><time>2021-07-03T08:21:33.000Z</time><ele>2474.6</ele></trkpt><trkpt lat="46.339536" lon="9.949519"><time>2021-07-03T08:21:37.000Z</time><ele>2474.6</ele></trkpt><trkpt lat="46.339543" lon="9.949547"><time>2021-07-03T08:21:45.000Z</time><ele>2474.6</ele></trkpt><trkpt lat="46.339547" lon="9.949555"><time>2021-07-03T08:21:55.000Z</time><ele>2474.6</ele></trkpt><trkpt lat="46.339548" lon="9.949557"><time>2021-07-03T08:22:04.000Z</time><ele>2469.4</ele></trkpt><trkpt lat="46.339548" lon="9.949558"><time>2021-07-03T08:22:13.000Z</time><ele>2469.4</ele></trkpt><trkpt lat="46.339635" lon="9.949708"><time>2021-07-03T08:22:22.000Z</time><ele>2468.6</ele></trkpt><trkpt lat="46.339661" lon="9.949768"><time>2021-07-03T08:22:24.000Z</time><ele>2468.4</ele></trkpt><trkpt lat="46.339676" lon="9.9498"><time>2021-07-03T08:22:25.000Z</time><ele>2468.4</ele></trkpt><trkpt lat="46.339697" lon="9.949855"><time>2021-07-03T08:22:28.000Z</time><ele>2468.2</ele></trkpt><trkpt lat="46.3397" lon="9.949864"><time>2021-07-03T08:22:29.000Z</time><ele>2468</ele></trkpt><trkpt lat="46.339704" lon="9.949872"><time>2021-07-03T08:22:30.000Z</time><ele>2468</ele></trkpt><trkpt lat="46.339707" lon="9.949879"><time>2021-07-03T08:22:31.000Z</time><ele>2468</ele></trkpt><trkpt lat="46.339722" lon="9.949904"><time>2021-07-03T08:22:34.000Z</time><ele>2467.8</ele></trkpt><trkpt lat="46.339749" lon="9.949943"><time>2021-07-03T08:22:39.000Z</time><ele>2467.6</ele></trkpt><trkpt lat="46.339763" lon="9.949955"><time>2021-07-03T08:22:41.000Z</time><ele>2467.4</ele></trkpt><trkpt lat="46.339776" lon="9.949971"><time>2021-07-03T08:22:43.000Z</time><ele>2467.4</ele></trkpt><trkpt lat="46.339792" lon="9.949994"><time>2021-07-03T08:22:47.000Z</time><ele>2467.2</ele></trkpt><trkpt lat="46.339801" lon="9.949998"><time>2021-07-03T08:22:49.000Z</time><ele>2467.2</ele></trkpt><trkpt lat="46.339808" lon="9.949993"><time>2021-07-03T08:22:50.000Z</time><ele>2467.2</ele></trkpt><trkpt lat="46.339821" lon="9.949978"><time>2021-07-03T08:22:53.000Z</time><ele>2467.4</ele></trkpt><trkpt lat="46.339834" lon="9.94998"><time>2021-07-03T08:22:55.000Z</time><ele>2467.4</ele></trkpt><trkpt lat="46.339839" lon="9.949982"><time>2021-07-03T08:22:56.000Z</time><ele>2467.4</ele></trkpt><trkpt lat="46.339872" lon="9.950034"><time>2021-07-03T08:23:02.000Z</time><ele>2467.4</ele></trkpt><trkpt lat="46.339876" lon="9.950035"><time>2021-07-03T08:23:03.000Z</time><ele>2467.4</ele></trkpt><trkpt lat="46.33992" lon="9.950083"><time>2021-07-03T08:23:12.000Z</time><ele>2468.2</ele></trkpt><trkpt lat="46.339928" lon="9.95009"><time>2021-07-03T08:23:17.000Z</time><ele>2468.4</ele></trkpt><trkpt lat="46.339936" lon="9.950088"><time>2021-07-03T08:23:19.000Z</time><ele>2468.6</ele></trkpt><trkpt lat="46.339991" lon="9.950085"><time>2021-07-03T08:23:26.000Z</time><ele>2468.4</ele></trkpt><trkpt lat="46.339995" lon="9.950089"><time>2021-07-03T08:23:27.000Z</time><ele>2468.4</ele></trkpt><trkpt lat="46.34002" lon="9.950103"><time>2021-07-03T08:23:31.000Z</time><ele>2468.6</ele></trkpt><trkpt lat="46.340063" lon="9.9501"><time>2021-07-03T08:23:36.000Z</time><ele>2468.4</ele></trkpt><trkpt lat="46.34012" lon="9.950129"><time>2021-07-03T08:23:44.000Z</time><ele>2468.2</ele></trkpt><trkpt lat="46.340134" lon="9.950141"><time>2021-07-03T08:23:46.000Z</time><ele>2468</ele></trkpt><trkpt lat="46.34017" lon="9.950173"><time>2021-07-03T08:23:53.000Z</time><ele>2467.4</ele></trkpt><trkpt lat="46.340187" lon="9.950184"><time>2021-07-03T08:23:55.000Z</time><ele>2467.2</ele></trkpt><trkpt lat="46.340244" lon="9.95022"><time>2021-07-03T08:24:03.000Z</time><ele>2467.4</ele></trkpt><trkpt lat="46.340306" lon="9.950267"><time>2021-07-03T08:24:11.000Z</time><ele>2467.2</ele></trkpt><trkpt lat="46.340311" lon="9.950274"><time>2021-07-03T08:24:12.000Z</time><ele>2467</ele></trkpt><trkpt lat="46.340355" lon="9.950314"><time>2021-07-03T08:24:18.000Z</time><ele>2466.8</ele></trkpt><trkpt lat="46.340395" lon="9.950352"><time>2021-07-03T08:24:24.000Z</time><ele>2466.6</ele></trkpt><trkpt lat="46.340411" lon="9.950425"><time>2021-07-03T08:24:32.000Z</time><ele>2466.8</ele></trkpt><trkpt lat="46.340415" lon="9.950441"><time>2021-07-03T08:24:34.000Z</time><ele>2467.2</ele></trkpt><trkpt lat="46.340435" lon="9.950485"><time>2021-07-03T08:24:38.000Z</time><ele>2467.6</ele></trkpt><trkpt lat="46.340477" lon="9.950481"><time>2021-07-03T08:24:44.000Z</time><ele>2467.6</ele></trkpt><trkpt lat="46.340532" lon="9.950469"><time>2021-07-03T08:24:52.000Z</time><ele>2468.4</ele></trkpt><trkpt lat="46.340534" lon="9.950469"><time>2021-07-03T08:24:53.000Z</time><ele>2468.6</ele></trkpt><trkpt lat="46.34058" lon="9.950472"><time>2021-07-03T08:25:00.000Z</time><ele>2469</ele></trkpt><trkpt lat="46.340637" lon="9.95048"><time>2021-07-03T08:25:08.000Z</time><ele>2469.4</ele></trkpt><trkpt lat="46.340641" lon="9.950483"><time>2021-07-03T08:25:09.000Z</time><ele>2469.4</ele></trkpt><trkpt lat="46.340647" lon="9.95049"><time>2021-07-03T08:25:11.000Z</time><ele>2469.8</ele></trkpt><trkpt lat="46.340638" lon="9.950534"><time>2021-07-03T08:25:16.000Z</time><ele>2470.6</ele></trkpt><trkpt lat="46.340641" lon="9.950562"><time>2021-07-03T08:25:19.000Z</time><ele>2470.8</ele></trkpt><trkpt lat="46.340656" lon="9.950615"><time>2021-07-03T08:25:25.000Z</time><ele>2471.8</ele></trkpt><trkpt lat="46.340663" lon="9.950639"><time>2021-07-03T08:25:27.000Z</time><ele>2471.8</ele></trkpt><trkpt lat="46.340658" lon="9.95069"><time>2021-07-03T08:25:33.000Z</time><ele>2472.2</ele></trkpt><trkpt lat="46.34065" lon="9.950727"><time>2021-07-03T08:25:37.000Z</time><ele>2473</ele></trkpt><trkpt lat="46.340627" lon="9.950764"><time>2021-07-03T08:25:41.000Z</time><ele>2473.4</ele></trkpt><trkpt lat="46.340621" lon="9.950819"><time>2021-07-03T08:25:49.000Z</time><ele>2473.8</ele></trkpt><trkpt lat="46.340651" lon="9.950806"><time>2021-07-03T08:25:56.000Z</time><ele>2473.8</ele></trkpt><trkpt lat="46.340665" lon="9.950806"><time>2021-07-03T08:26:00.000Z</time><ele>2474.2</ele></trkpt><trkpt lat="46.340664" lon="9.950818"><time>2021-07-03T08:26:04.000Z</time><ele>2474.4</ele></trkpt><trkpt lat="46.340674" lon="9.950852"><time>2021-07-03T08:26:09.000Z</time><ele>2475.4</ele></trkpt><trkpt lat="46.340676" lon="9.95087"><time>2021-07-03T08:26:13.000Z</time><ele>2475.8</ele></trkpt><trkpt lat="46.340674" lon="9.950867"><time>2021-07-03T08:26:24.000Z</time><ele>2476</ele></trkpt><trkpt lat="46.340674" lon="9.950874"><time>2021-07-03T08:26:25.000Z</time><ele>2476</ele></trkpt><trkpt lat="46.340652" lon="9.950954"><time>2021-07-03T08:26:30.000Z</time><ele>2476.4</ele></trkpt><trkpt lat="46.34064" lon="9.950984"><time>2021-07-03T08:26:32.000Z</time><ele>2476.4</ele></trkpt><trkpt lat="46.340605" lon="9.951113"><time>2021-07-03T08:26:42.000Z</time><ele>2476.8</ele></trkpt><trkpt lat="46.340604" lon="9.951177"><time>2021-07-03T08:26:48.000Z</time><ele>2477.6</ele></trkpt><trkpt lat="46.340609" lon="9.951218"><time>2021-07-03T08:26:52.000Z</time><ele>2478.2</ele></trkpt><trkpt lat="46.34061" lon="9.951226"><time>2021-07-03T08:26:53.000Z</time><ele>2478.4</ele></trkpt><trkpt lat="46.340611" lon="9.951245"><time>2021-07-03T08:26:55.000Z</time><ele>2478.6</ele></trkpt><trkpt lat="46.340612" lon="9.951285"><time>2021-07-03T08:26:59.000Z</time><ele>2479.4</ele></trkpt><trkpt lat="46.340614" lon="9.951293"><time>2021-07-03T08:27:00.000Z</time><ele>2479.4</ele></trkpt><trkpt lat="46.340616" lon="9.951302"><time>2021-07-03T08:27:01.000Z</time><ele>2479.6</ele></trkpt><trkpt lat="46.340628" lon="9.951334"><time>2021-07-03T08:27:04.000Z</time><ele>2480.2</ele></trkpt><trkpt lat="46.340629" lon="9.951345"><time>2021-07-03T08:27:06.000Z</time><ele>2480.4</ele></trkpt><trkpt lat="46.340624" lon="9.951346"><time>2021-07-03T08:27:09.000Z</time><ele>2480.6</ele></trkpt><trkpt lat="46.340625" lon="9.951344"><time>2021-07-03T08:27:10.000Z</time><ele>2480.8</ele></trkpt><trkpt lat="46.340627" lon="9.951352"><time>2021-07-03T08:27:20.000Z</time><ele>2481</ele></trkpt><trkpt lat="46.340627" lon="9.951352"><time>2021-07-03T08:27:27.000Z</time><ele>2481.2</ele></trkpt><trkpt lat="46.340628" lon="9.951352"><time>2021-07-03T08:27:38.000Z</time><ele>2481.2</ele></trkpt><trkpt lat="46.340627" lon="9.951353"><time>2021-07-03T08:27:46.000Z</time><ele>2481.4</ele></trkpt><trkpt lat="46.340626" lon="9.951353"><time>2021-07-03T08:27:51.000Z</time><ele>2481.2</ele></trkpt><trkpt lat="46.340626" lon="9.951353"><time>2021-07-03T08:28:00.000Z</time><ele>2481.2</ele></trkpt><trkpt lat="46.340626" lon="9.951351"><time>2021-07-03T08:28:08.000Z</time><ele>2480.8</ele></trkpt><trkpt lat="46.340627" lon="9.951349"><time>2021-07-03T08:28:10.000Z</time><ele>2480.6</ele></trkpt><trkpt lat="46.34063" lon="9.951349"><time>2021-07-03T08:28:21.000Z</time><ele>2481.4</ele></trkpt><trkpt lat="46.340662" lon="9.951445"><time>2021-07-03T08:28:40.000Z</time><ele>2479.8</ele></trkpt><trkpt lat="46.340687" lon="9.951526"><time>2021-07-03T08:28:45.000Z</time><ele>2479</ele></trkpt><trkpt lat="46.340706" lon="9.951571"><time>2021-07-03T08:28:47.000Z</time><ele>2478.8</ele></trkpt><trkpt lat="46.340726" lon="9.951636"><time>2021-07-03T08:28:50.000Z</time><ele>2478.6</ele></trkpt><trkpt lat="46.340751" lon="9.951728"><time>2021-07-03T08:28:58.000Z</time><ele>2478.4</ele></trkpt><trkpt lat="46.340775" lon="9.951786"><time>2021-07-03T08:29:05.000Z</time><ele>2477.6</ele></trkpt><trkpt lat="46.340786" lon="9.951802"><time>2021-07-03T08:29:08.000Z</time><ele>2477.2</ele></trkpt><trkpt lat="46.340793" lon="9.951825"><time>2021-07-03T08:29:13.000Z</time><ele>2477</ele></trkpt><trkpt lat="46.340778" lon="9.951835"><time>2021-07-03T08:29:20.000Z</time><ele>2476.8</ele></trkpt><trkpt lat="46.340778" lon="9.951835"><time>2021-07-03T08:29:23.000Z</time><ele>2476.8</ele></trkpt><trkpt lat="46.340778" lon="9.951835"><time>2021-07-03T08:29:27.000Z</time><ele>2476.8</ele></trkpt><trkpt lat="46.340778" lon="9.951834"><time>2021-07-03T08:29:32.000Z</time><ele>2477</ele></trkpt><trkpt lat="46.340778" lon="9.951833"><time>2021-07-03T08:29:33.000Z</time><ele>2477</ele></trkpt><trkpt lat="46.340769" lon="9.951827"><time>2021-07-03T08:29:43.000Z</time><ele>2476.8</ele></trkpt><trkpt lat="46.340769" lon="9.951827"><time>2021-07-03T08:29:47.000Z</time><ele>2477</ele></trkpt><trkpt lat="46.34077" lon="9.951826"><time>2021-07-03T08:29:53.000Z</time><ele>2476.8</ele></trkpt><trkpt lat="46.34077" lon="9.951826"><time>2021-07-03T08:29:54.000Z</time><ele>2476.8</ele></trkpt><trkpt lat="46.340784" lon="9.951817"><time>2021-07-03T08:30:05.000Z</time><ele>2476.6</ele></trkpt><trkpt lat="46.340801" lon="9.951809"><time>2021-07-03T08:30:19.000Z</time><ele>2476.6</ele></trkpt><trkpt lat="46.340801" lon="9.951805"><time>2021-07-03T08:30:22.000Z</time><ele>2476.6</ele></trkpt><trkpt lat="46.340804" lon="9.951802"><time>2021-07-03T08:30:25.000Z</time><ele>2476.4</ele></trkpt><trkpt lat="46.340796" lon="9.951788"><time>2021-07-03T08:30:45.000Z</time><ele>2476.6</ele></trkpt><trkpt lat="46.340821" lon="9.951901"><time>2021-07-03T08:31:27.000Z</time><ele>2476.8</ele></trkpt><trkpt lat="46.340855" lon="9.952024"><time>2021-07-03T08:31:33.000Z</time><ele>2475.4</ele></trkpt><trkpt lat="46.340864" lon="9.952045"><time>2021-07-03T08:31:35.000Z</time><ele>2474.2</ele></trkpt><trkpt lat="46.340874" lon="9.952051"><time>2021-07-03T08:31:36.000Z</time><ele>2474</ele></trkpt><trkpt lat="46.340877" lon="9.952082"><time>2021-07-03T08:31:40.000Z</time><ele>2473.8</ele></trkpt><trkpt lat="46.340874" lon="9.952089"><time>2021-07-03T08:31:42.000Z</time><ele>2473.6</ele></trkpt><trkpt lat="46.340872" lon="9.95209"><time>2021-07-03T08:31:44.000Z</time><ele>2473</ele></trkpt><trkpt lat="46.340883" lon="9.952109"><time>2021-07-03T08:31:48.000Z</time><ele>2472.6</ele></trkpt><trkpt lat="46.340887" lon="9.952115"><time>2021-07-03T08:31:50.000Z</time><ele>2472.2</ele></trkpt><trkpt lat="46.340889" lon="9.952116"><time>2021-07-03T08:31:51.000Z</time><ele>2472</ele></trkpt><trkpt lat="46.340894" lon="9.952116"><time>2021-07-03T08:32:01.000Z</time><ele>2471.6</ele></trkpt><trkpt lat="46.340905" lon="9.952122"><time>2021-07-03T08:32:02.000Z</time><ele>2471.4</ele></trkpt><trkpt lat="46.340935" lon="9.952158"><time>2021-07-03T08:32:06.000Z</time><ele>2471</ele></trkpt><trkpt lat="46.340942" lon="9.952168"><time>2021-07-03T08:32:07.000Z</time><ele>2471</ele></trkpt><trkpt lat="46.34095" lon="9.952178"><time>2021-07-03T08:32:08.000Z</time><ele>2471</ele></trkpt><trkpt lat="46.340958" lon="9.952253"><time>2021-07-03T08:32:15.000Z</time><ele>2472.2</ele></trkpt><trkpt lat="46.340955" lon="9.952263"><time>2021-07-03T08:32:16.000Z</time><ele>2472.4</ele></trkpt><trkpt lat="46.340958" lon="9.952293"><time>2021-07-03T08:32:18.000Z</time><ele>2472.4</ele></trkpt><trkpt lat="46.340973" lon="9.952319"><time>2021-07-03T08:32:21.000Z</time><ele>2472.4</ele></trkpt><trkpt lat="46.341004" lon="9.952344"><time>2021-07-03T08:32:27.000Z</time><ele>2472.4</ele></trkpt><trkpt lat="46.341008" lon="9.952351"><time>2021-07-03T08:32:29.000Z</time><ele>2472.2</ele></trkpt><trkpt lat="46.341015" lon="9.952355"><time>2021-07-03T08:32:38.000Z</time><ele>2472</ele></trkpt><trkpt lat="46.341034" lon="9.952392"><time>2021-07-03T08:32:46.000Z</time><ele>2471.4</ele></trkpt><trkpt lat="46.341034" lon="9.952396"><time>2021-07-03T08:32:47.000Z</time><ele>2471.2</ele></trkpt><trkpt lat="46.341035" lon="9.952403"><time>2021-07-03T08:32:48.000Z</time><ele>2471.2</ele></trkpt><trkpt lat="46.341036" lon="9.952408"><time>2021-07-03T08:32:49.000Z</time><ele>2471.2</ele></trkpt><trkpt lat="46.341039" lon="9.952412"><time>2021-07-03T08:32:50.000Z</time><ele>2471.2</ele></trkpt><trkpt lat="46.34104" lon="9.952416"><time>2021-07-03T08:32:51.000Z</time><ele>2471.2</ele></trkpt><trkpt lat="46.341032" lon="9.952453"><time>2021-07-03T08:32:55.000Z</time><ele>2470.2</ele></trkpt><trkpt lat="46.341033" lon="9.952464"><time>2021-07-03T08:32:56.000Z</time><ele>2470</ele></trkpt><trkpt lat="46.341066" lon="9.952501"><time>2021-07-03T08:33:01.000Z</time><ele>2468.8</ele></trkpt><trkpt lat="46.341083" lon="9.95251"><time>2021-07-03T08:33:04.000Z</time><ele>2468.2</ele></trkpt><trkpt lat="46.341121" lon="9.952525"><time>2021-07-03T08:33:08.000Z</time><ele>2468</ele></trkpt><trkpt lat="46.341143" lon="9.952523"><time>2021-07-03T08:33:10.000Z</time><ele>2467.6</ele></trkpt><trkpt lat="46.341146" lon="9.952538"><time>2021-07-03T08:33:13.000Z</time><ele>2467.2</ele></trkpt><trkpt lat="46.341143" lon="9.952564"><time>2021-07-03T08:33:15.000Z</time><ele>2467</ele></trkpt><trkpt lat="46.341141" lon="9.952642"><time>2021-07-03T08:33:21.000Z</time><ele>2466.8</ele></trkpt><trkpt lat="46.341149" lon="9.952663"><time>2021-07-03T08:33:24.000Z</time><ele>2466.6</ele></trkpt><trkpt lat="46.341151" lon="9.952663"><time>2021-07-03T08:33:25.000Z</time><ele>2466.6</ele></trkpt><trkpt lat="46.341147" lon="9.952652"><time>2021-07-03T08:33:28.000Z</time><ele>2466.6</ele></trkpt><trkpt lat="46.341155" lon="9.95263"><time>2021-07-03T08:33:34.000Z</time><ele>2466.8</ele></trkpt><trkpt lat="46.341155" lon="9.95263"><time>2021-07-03T08:33:35.000Z</time><ele>2466.8</ele></trkpt><trkpt lat="46.341159" lon="9.95263"><time>2021-07-03T08:33:50.000Z</time><ele>2466.6</ele></trkpt><trkpt lat="46.341164" lon="9.952628"><time>2021-07-03T08:33:51.000Z</time><ele>2466.6</ele></trkpt><trkpt lat="46.341181" lon="9.952632"><time>2021-07-03T08:33:53.000Z</time><ele>2466.6</ele></trkpt><trkpt lat="46.341196" lon="9.952636"><time>2021-07-03T08:33:55.000Z</time><ele>2466.4</ele></trkpt><trkpt lat="46.341234" lon="9.952634"><time>2021-07-03T08:34:04.000Z</time><ele>2466.2</ele></trkpt><trkpt lat="46.341249" lon="9.952628"><time>2021-07-03T08:34:07.000Z</time><ele>2466.4</ele></trkpt><trkpt lat="46.341272" lon="9.952617"><time>2021-07-03T08:34:13.000Z</time><ele>2467.2</ele></trkpt><trkpt lat="46.341283" lon="9.952618"><time>2021-07-03T08:34:16.000Z</time><ele>2467.8</ele></trkpt><trkpt lat="46.341323" lon="9.952624"><time>2021-07-03T08:34:23.000Z</time><ele>2468.4</ele></trkpt><trkpt lat="46.341332" lon="9.952631"><time>2021-07-03T08:34:25.000Z</time><ele>2468.4</ele></trkpt><trkpt lat="46.341332" lon="9.952659"><time>2021-07-03T08:34:29.000Z</time><ele>2468.8</ele></trkpt><trkpt lat="46.341332" lon="9.95267"><time>2021-07-03T08:34:30.000Z</time><ele>2469</ele></trkpt><trkpt lat="46.341342" lon="9.952715"><time>2021-07-03T08:34:36.000Z</time><ele>2469.4</ele></trkpt><trkpt lat="46.341352" lon="9.952735"><time>2021-07-03T08:34:39.000Z</time><ele>2469.4</ele></trkpt><trkpt lat="46.34137" lon="9.952776"><time>2021-07-03T08:34:45.000Z</time><ele>2470</ele></trkpt><trkpt lat="46.341371" lon="9.952791"><time>2021-07-03T08:34:49.000Z</time><ele>2470.8</ele></trkpt><trkpt lat="46.341372" lon="9.952808"><time>2021-07-03T08:34:51.000Z</time><ele>2471</ele></trkpt><trkpt lat="46.341392" lon="9.952854"><time>2021-07-03T08:34:59.000Z</time><ele>2471.6</ele></trkpt><trkpt lat="46.341398" lon="9.952861"><time>2021-07-03T08:35:02.000Z</time><ele>2472</ele></trkpt><trkpt lat="46.341398" lon="9.952875"><time>2021-07-03T08:35:05.000Z</time><ele>2472.2</ele></trkpt><trkpt lat="46.341394" lon="9.952922"><time>2021-07-03T08:35:11.000Z</time><ele>2472.2</ele></trkpt><trkpt lat="46.341399" lon="9.952932"><time>2021-07-03T08:35:13.000Z</time><ele>2472.2</ele></trkpt><trkpt lat="46.341408" lon="9.952954"><time>2021-07-03T08:35:19.000Z</time><ele>2473</ele></trkpt><trkpt lat="46.341408" lon="9.952956"><time>2021-07-03T08:35:22.000Z</time><ele>2473.4</ele></trkpt><trkpt lat="46.341404" lon="9.952958"><time>2021-07-03T08:35:29.000Z</time><ele>2473.4</ele></trkpt><trkpt lat="46.341404" lon="9.952958"><time>2021-07-03T08:35:33.000Z</time><ele>2473.2</ele></trkpt><trkpt lat="46.341407" lon="9.952958"><time>2021-07-03T08:35:40.000Z</time><ele>2473.8</ele></trkpt><trkpt lat="46.341408" lon="9.952959"><time>2021-07-03T08:35:45.000Z</time><ele>2474</ele></trkpt><trkpt lat="46.341427" lon="9.952978"><time>2021-07-03T08:35:58.000Z</time><ele>2473.6</ele></trkpt><trkpt lat="46.341425" lon="9.952981"><time>2021-07-03T08:36:08.000Z</time><ele>2473.8</ele></trkpt><trkpt lat="46.341425" lon="9.952981"><time>2021-07-03T08:36:16.000Z</time><ele>2474.4</ele></trkpt><trkpt lat="46.341425" lon="9.952981"><time>2021-07-03T08:36:20.000Z</time><ele>2474.6</ele></trkpt><trkpt lat="46.341426" lon="9.952982"><time>2021-07-03T08:36:30.000Z</time><ele>2474</ele></trkpt><trkpt lat="46.341432" lon="9.953013"><time>2021-07-03T08:36:40.000Z</time><ele>2475.2</ele></trkpt><trkpt lat="46.341428" lon="9.953194"><time>2021-07-03T08:36:54.000Z</time><ele>2476.2</ele></trkpt><trkpt lat="46.341429" lon="9.953218"><time>2021-07-03T08:36:55.000Z</time><ele>2476.2</ele></trkpt><trkpt lat="46.341433" lon="9.953267"><time>2021-07-03T08:36:57.000Z</time><ele>2476.6</ele></trkpt><trkpt lat="46.34144" lon="9.953292"><time>2021-07-03T08:37:00.000Z</time><ele>2477</ele></trkpt><trkpt lat="46.341441" lon="9.953296"><time>2021-07-03T08:37:01.000Z</time><ele>2477.2</ele></trkpt><trkpt lat="46.341443" lon="9.953299"><time>2021-07-03T08:37:02.000Z</time><ele>2477.2</ele></trkpt><trkpt lat="46.341452" lon="9.953361"><time>2021-07-03T08:37:09.000Z</time><ele>2477.4</ele></trkpt><trkpt lat="46.341468" lon="9.953381"><time>2021-07-03T08:37:12.000Z</time><ele>2477.8</ele></trkpt><trkpt lat="46.341478" lon="9.95341"><time>2021-07-03T08:37:16.000Z</time><ele>2478</ele></trkpt><trkpt lat="46.341478" lon="9.953428"><time>2021-07-03T08:37:18.000Z</time><ele>2478.4</ele></trkpt><trkpt lat="46.34148" lon="9.953438"><time>2021-07-03T08:37:19.000Z</time><ele>2478.6</ele></trkpt><trkpt lat="46.341482" lon="9.953457"><time>2021-07-03T08:37:21.000Z</time><ele>2479</ele></trkpt><trkpt lat="46.341493" lon="9.953485"><time>2021-07-03T08:37:24.000Z</time><ele>2479.2</ele></trkpt><trkpt lat="46.341501" lon="9.953495"><time>2021-07-03T08:37:26.000Z</time><ele>2479.4</ele></trkpt><trkpt lat="46.341501" lon="9.9535"><time>2021-07-03T08:37:27.000Z</time><ele>2479.6</ele></trkpt><trkpt lat="46.3415" lon="9.953515"><time>2021-07-03T08:37:29.000Z</time><ele>2479.8</ele></trkpt><trkpt lat="46.341507" lon="9.953537"><time>2021-07-03T08:37:31.000Z</time><ele>2480</ele></trkpt><trkpt lat="46.341519" lon="9.953549"><time>2021-07-03T08:37:33.000Z</time><ele>2480.4</ele></trkpt><trkpt lat="46.341524" lon="9.953553"><time>2021-07-03T08:37:34.000Z</time><ele>2480.4</ele></trkpt><trkpt lat="46.341554" lon="9.95359"><time>2021-07-03T08:37:41.000Z</time><ele>2481.2</ele></trkpt><trkpt lat="46.341558" lon="9.953598"><time>2021-07-03T08:37:42.000Z</time><ele>2481.2</ele></trkpt><trkpt lat="46.341573" lon="9.953625"><time>2021-07-03T08:37:45.000Z</time><ele>2481.6</ele></trkpt><trkpt lat="46.341579" lon="9.953644"><time>2021-07-03T08:37:47.000Z</time><ele>2482</ele></trkpt><trkpt lat="46.341582" lon="9.953649"><time>2021-07-03T08:37:49.000Z</time><ele>2482.6</ele></trkpt><trkpt lat="46.341585" lon="9.953654"><time>2021-07-03T08:37:50.000Z</time><ele>2482.8</ele></trkpt><trkpt lat="46.341584" lon="9.953661"><time>2021-07-03T08:37:51.000Z</time><ele>2483</ele></trkpt><trkpt lat="46.341582" lon="9.953681"><time>2021-07-03T08:37:55.000Z</time><ele>2483.6</ele></trkpt><trkpt lat="46.341582" lon="9.953684"><time>2021-07-03T08:37:56.000Z</time><ele>2483.6</ele></trkpt><trkpt lat="46.34158" lon="9.953688"><time>2021-07-03T08:37:57.000Z</time><ele>2483.8</ele></trkpt><trkpt lat="46.341578" lon="9.953687"><time>2021-07-03T08:38:08.000Z</time><ele>2483.2</ele></trkpt><trkpt lat="46.341579" lon="9.953687"><time>2021-07-03T08:38:11.000Z</time><ele>2483.4</ele></trkpt><trkpt lat="46.341584" lon="9.953698"><time>2021-07-03T08:38:26.000Z</time><ele>2484.8</ele></trkpt><trkpt lat="46.34162" lon="9.953707"><time>2021-07-03T08:38:35.000Z</time><ele>2486</ele></trkpt><trkpt lat="46.341662" lon="9.95371"><time>2021-07-03T08:38:40.000Z</time><ele>2486.8</ele></trkpt><trkpt lat="46.341679" lon="9.953723"><time>2021-07-03T08:38:42.000Z</time><ele>2487</ele></trkpt><trkpt lat="46.341715" lon="9.953722"><time>2021-07-03T08:38:49.000Z</time><ele>2488.4</ele></trkpt><trkpt lat="46.341747" lon="9.953719"><time>2021-07-03T08:38:57.000Z</time><ele>2489.6</ele></trkpt><trkpt lat="46.341753" lon="9.95372"><time>2021-07-03T08:38:58.000Z</time><ele>2489.8</ele></trkpt><trkpt lat="46.341774" lon="9.953714"><time>2021-07-03T08:39:03.000Z</time><ele>2490.6</ele></trkpt><trkpt lat="46.341789" lon="9.953746"><time>2021-07-03T08:39:08.000Z</time><ele>2491.2</ele></trkpt><trkpt lat="46.341801" lon="9.953752"><time>2021-07-03T08:39:11.000Z</time><ele>2491.8</ele></trkpt><trkpt lat="46.34181" lon="9.95375"><time>2021-07-03T08:39:14.000Z</time><ele>2492</ele></trkpt><trkpt lat="46.341822" lon="9.953739"><time>2021-07-03T08:39:18.000Z</time><ele>2492.8</ele></trkpt><trkpt lat="46.341845" lon="9.953749"><time>2021-07-03T08:39:23.000Z</time><ele>2493.4</ele></trkpt><trkpt lat="46.341856" lon="9.953771"><time>2021-07-03T08:39:27.000Z</time><ele>2493.8</ele></trkpt><trkpt lat="46.341883" lon="9.953779"><time>2021-07-03T08:39:31.000Z</time><ele>2494.6</ele></trkpt><trkpt lat="46.341893" lon="9.953771"><time>2021-07-03T08:39:33.000Z</time><ele>2495</ele></trkpt><trkpt lat="46.341921" lon="9.953767"><time>2021-07-03T08:39:39.000Z</time><ele>2496</ele></trkpt><trkpt lat="46.341926" lon="9.953769"><time>2021-07-03T08:39:40.000Z</time><ele>2496.4</ele></trkpt><trkpt lat="46.341941" lon="9.953749"><time>2021-07-03T08:39:46.000Z</time><ele>2497.4</ele></trkpt><trkpt lat="46.341944" lon="9.953743"><time>2021-07-03T08:39:47.000Z</time><ele>2497.4</ele></trkpt><trkpt lat="46.341975" lon="9.953737"><time>2021-07-03T08:39:55.000Z</time><ele>2498.2</ele></trkpt><trkpt lat="46.341981" lon="9.953735"><time>2021-07-03T08:39:56.000Z</time><ele>2498.4</ele></trkpt><trkpt lat="46.341996" lon="9.953713"><time>2021-07-03T08:40:02.000Z</time><ele>2499.2</ele></trkpt><trkpt lat="46.342007" lon="9.953721"><time>2021-07-03T08:40:05.000Z</time><ele>2499.4</ele></trkpt><trkpt lat="46.342021" lon="9.953741"><time>2021-07-03T08:40:09.000Z</time><ele>2500.2</ele></trkpt><trkpt lat="46.342029" lon="9.953741"><time>2021-07-03T08:40:10.000Z</time><ele>2500.6</ele></trkpt><trkpt lat="46.342063" lon="9.953775"><time>2021-07-03T08:40:18.000Z</time><ele>2500.6</ele></trkpt><trkpt lat="46.342074" lon="9.953754"><time>2021-07-03T08:40:22.000Z</time><ele>2501.6</ele></trkpt><trkpt lat="46.342081" lon="9.953743"><time>2021-07-03T08:40:27.000Z</time><ele>2502.4</ele></trkpt><trkpt lat="46.342086" lon="9.953744"><time>2021-07-03T08:40:29.000Z</time><ele>2502.6</ele></trkpt><trkpt lat="46.342118" lon="9.953751"><time>2021-07-03T08:40:35.000Z</time><ele>2503.2</ele></trkpt><trkpt lat="46.342128" lon="9.953743"><time>2021-07-03T08:40:38.000Z</time><ele>2503.8</ele></trkpt><trkpt lat="46.342142" lon="9.953732"><time>2021-07-03T08:40:42.000Z</time><ele>2504.4</ele></trkpt><trkpt lat="46.342145" lon="9.953729"><time>2021-07-03T08:40:43.000Z</time><ele>2504.8</ele></trkpt><trkpt lat="46.34218" lon="9.953736"><time>2021-07-03T08:40:51.000Z</time><ele>2505.6</ele></trkpt><trkpt lat="46.342193" lon="9.95374"><time>2021-07-03T08:40:54.000Z</time><ele>2505.8</ele></trkpt><trkpt lat="46.342205" lon="9.953742"><time>2021-07-03T08:40:59.000Z</time><ele>2506.6</ele></trkpt><trkpt lat="46.34219" lon="9.953743"><time>2021-07-03T08:41:20.000Z</time><ele>2506.8</ele></trkpt><trkpt lat="46.342186" lon="9.953744"><time>2021-07-03T08:41:27.000Z</time><ele>2506.6</ele></trkpt><trkpt lat="46.342185" lon="9.953742"><time>2021-07-03T08:41:35.000Z</time><ele>2506.4</ele></trkpt><trkpt lat="46.34219" lon="9.953728"><time>2021-07-03T08:41:45.000Z</time><ele>2506.8</ele></trkpt><trkpt lat="46.342191" lon="9.953727"><time>2021-07-03T08:41:47.000Z</time><ele>2506.8</ele></trkpt><trkpt lat="46.342191" lon="9.953724"><time>2021-07-03T08:41:52.000Z</time><ele>2507</ele></trkpt><trkpt lat="46.342193" lon="9.953717"><time>2021-07-03T08:41:56.000Z</time><ele>2507.4</ele></trkpt><trkpt lat="46.342193" lon="9.953716"><time>2021-07-03T08:42:00.000Z</time><ele>2508</ele></trkpt><trkpt lat="46.34224" lon="9.953717"><time>2021-07-03T08:42:15.000Z</time><ele>2509</ele></trkpt><trkpt lat="46.342312" lon="9.953728"><time>2021-07-03T08:42:20.000Z</time><ele>2509.6</ele></trkpt><trkpt lat="46.342328" lon="9.953728"><time>2021-07-03T08:42:21.000Z</time><ele>2509.8</ele></trkpt><trkpt lat="46.342353" lon="9.953729"><time>2021-07-03T08:42:23.000Z</time><ele>2510.2</ele></trkpt><trkpt lat="46.342389" lon="9.953732"><time>2021-07-03T08:42:28.000Z</time><ele>2511.2</ele></trkpt><trkpt lat="46.342399" lon="9.95373"><time>2021-07-03T08:42:29.000Z</time><ele>2511.4</ele></trkpt><trkpt lat="46.342419" lon="9.953716"><time>2021-07-03T08:42:35.000Z</time><ele>2512.4</ele></trkpt><trkpt lat="46.342446" lon="9.953694"><time>2021-07-03T08:42:40.000Z</time><ele>2513.2</ele></trkpt><trkpt lat="46.342452" lon="9.953695"><time>2021-07-03T08:42:42.000Z</time><ele>2513.6</ele></trkpt><trkpt lat="46.342462" lon="9.953705"><time>2021-07-03T08:42:45.000Z</time><ele>2514</ele></trkpt><trkpt lat="46.3425" lon="9.953727"><time>2021-07-03T08:42:51.000Z</time><ele>2514.6</ele></trkpt><trkpt lat="46.342519" lon="9.953727"><time>2021-07-03T08:42:54.000Z</time><ele>2515</ele></trkpt><trkpt lat="46.34253" lon="9.953722"><time>2021-07-03T08:42:56.000Z</time><ele>2515.4</ele></trkpt><trkpt lat="46.342539" lon="9.95371"><time>2021-07-03T08:42:58.000Z</time><ele>2515.8</ele></trkpt><trkpt lat="46.342565" lon="9.95369"><time>2021-07-03T08:43:04.000Z</time><ele>2516.8</ele></trkpt><trkpt lat="46.34261" lon="9.953683"><time>2021-07-03T08:43:13.000Z</time><ele>2518</ele></trkpt><trkpt lat="46.342636" lon="9.953677"><time>2021-07-03T08:43:20.000Z</time><ele>2519.2</ele></trkpt><trkpt lat="46.342641" lon="9.953677"><time>2021-07-03T08:43:22.000Z</time><ele>2519.4</ele></trkpt><trkpt lat="46.342669" lon="9.953704"><time>2021-07-03T08:43:29.000Z</time><ele>2520.2</ele></trkpt><trkpt lat="46.342682" lon="9.953693"><time>2021-07-03T08:43:31.000Z</time><ele>2520.8</ele></trkpt><trkpt lat="46.342699" lon="9.953674"><time>2021-07-03T08:43:35.000Z</time><ele>2521.2</ele></trkpt><trkpt lat="46.342707" lon="9.953669"><time>2021-07-03T08:43:36.000Z</time><ele>2521.4</ele></trkpt><trkpt lat="46.34276" lon="9.953669"><time>2021-07-03T08:43:44.000Z</time><ele>2522.6</ele></trkpt><trkpt lat="46.342775" lon="9.953675"><time>2021-07-03T08:43:50.000Z</time><ele>2523.4</ele></trkpt><trkpt lat="46.342785" lon="9.953683"><time>2021-07-03T08:43:52.000Z</time><ele>2523.6</ele></trkpt><trkpt lat="46.342813" lon="9.953694"><time>2021-07-03T08:44:00.000Z</time><ele>2524.8</ele></trkpt><trkpt lat="46.342818" lon="9.95369"><time>2021-07-03T08:44:02.000Z</time><ele>2525.2</ele></trkpt><trkpt lat="46.342851" lon="9.95366"><time>2021-07-03T08:44:09.000Z</time><ele>2526</ele></trkpt><trkpt lat="46.342855" lon="9.953657"><time>2021-07-03T08:44:10.000Z</time><ele>2526.2</ele></trkpt><trkpt lat="46.342892" lon="9.953664"><time>2021-07-03T08:44:19.000Z</time><ele>2527.2</ele></trkpt><trkpt lat="46.342919" lon="9.953667"><time>2021-07-03T08:44:26.000Z</time><ele>2528.4</ele></trkpt><trkpt lat="46.342934" lon="9.953662"><time>2021-07-03T08:44:28.000Z</time><ele>2528.8</ele></trkpt><trkpt lat="46.342948" lon="9.953658"><time>2021-07-03T08:44:32.000Z</time><ele>2529.4</ele></trkpt><trkpt lat="46.342967" lon="9.953667"><time>2021-07-03T08:44:38.000Z</time><ele>2530.2</ele></trkpt><trkpt lat="46.34298" lon="9.953671"><time>2021-07-03T08:44:41.000Z</time><ele>2530.6</ele></trkpt><trkpt lat="46.343006" lon="9.953663"><time>2021-07-03T08:44:48.000Z</time><ele>2531.8</ele></trkpt><trkpt lat="46.343011" lon="9.953664"><time>2021-07-03T08:44:49.000Z</time><ele>2531.8</ele></trkpt><trkpt lat="46.343036" lon="9.95366"><time>2021-07-03T08:44:56.000Z</time><ele>2532.8</ele></trkpt><trkpt lat="46.343035" lon="9.95366"><time>2021-07-03T08:44:57.000Z</time><ele>2533</ele></trkpt><trkpt lat="46.343035" lon="9.953661"><time>2021-07-03T08:45:13.000Z</time><ele>2533.2</ele></trkpt><trkpt lat="46.343035" lon="9.953661"><time>2021-07-03T08:45:15.000Z</time><ele>2533.2</ele></trkpt><trkpt lat="46.343036" lon="9.953661"><time>2021-07-03T08:45:20.000Z</time><ele>2533</ele></trkpt><trkpt lat="46.343036" lon="9.953664"><time>2021-07-03T08:45:30.000Z</time><ele>2533.2</ele></trkpt><trkpt lat="46.343035" lon="9.953668"><time>2021-07-03T08:45:35.000Z</time><ele>2533</ele></trkpt><trkpt lat="46.343035" lon="9.95367"><time>2021-07-03T08:45:39.000Z</time><ele>2533</ele></trkpt><trkpt lat="46.34303" lon="9.953671"><time>2021-07-03T08:45:42.000Z</time><ele>2533.2</ele></trkpt><trkpt lat="46.343024" lon="9.953673"><time>2021-07-03T08:45:48.000Z</time><ele>2532.8</ele></trkpt><trkpt lat="46.343019" lon="9.953678"><time>2021-07-03T08:46:01.000Z</time><ele>2532.8</ele></trkpt><trkpt lat="46.34302" lon="9.953676"><time>2021-07-03T08:46:07.000Z</time><ele>2533.8</ele></trkpt><trkpt lat="46.34302" lon="9.953676"><time>2021-07-03T08:46:08.000Z</time><ele>2533.8</ele></trkpt><trkpt lat="46.343021" lon="9.953676"><time>2021-07-03T08:46:11.000Z</time><ele>2534.4</ele></trkpt><trkpt lat="46.343033" lon="9.953661"><time>2021-07-03T08:46:15.000Z</time><ele>2535</ele></trkpt><trkpt lat="46.343048" lon="9.953652"><time>2021-07-03T08:46:20.000Z</time><ele>2535.4</ele></trkpt><trkpt lat="46.343069" lon="9.953642"><time>2021-07-03T08:46:27.000Z</time><ele>2536</ele></trkpt><trkpt lat="46.343105" lon="9.953626"><time>2021-07-03T08:46:35.000Z</time><ele>2537</ele></trkpt><trkpt lat="46.343122" lon="9.953625"><time>2021-07-03T08:46:39.000Z</time><ele>2538</ele></trkpt><trkpt lat="46.343126" lon="9.953625"><time>2021-07-03T08:46:41.000Z</time><ele>2538.2</ele></trkpt><trkpt lat="46.34316" lon="9.953629"><time>2021-07-03T08:46:50.000Z</time><ele>2539.2</ele></trkpt><trkpt lat="46.343187" lon="9.953634"><time>2021-07-03T08:46:56.000Z</time><ele>2540.2</ele></trkpt><trkpt lat="46.343207" lon="9.953652"><time>2021-07-03T08:47:03.000Z</time><ele>2541.4</ele></trkpt><trkpt lat="46.343224" lon="9.953675"><time>2021-07-03T08:47:09.000Z</time><ele>2542.4</ele></trkpt><trkpt lat="46.343236" lon="9.953685"><time>2021-07-03T08:47:13.000Z</time><ele>2543</ele></trkpt><trkpt lat="46.343245" lon="9.953693"><time>2021-07-03T08:47:16.000Z</time><ele>2543.4</ele></trkpt><trkpt lat="46.343256" lon="9.953707"><time>2021-07-03T08:47:20.000Z</time><ele>2544.6</ele></trkpt><trkpt lat="46.343323" lon="9.953782"><time>2021-07-03T08:47:32.000Z</time><ele>2545.4</ele></trkpt><trkpt lat="46.34333" lon="9.953786"><time>2021-07-03T08:47:33.000Z</time><ele>2545.8</ele></trkpt><trkpt lat="46.34336" lon="9.953809"><time>2021-07-03T08:47:40.000Z</time><ele>2546.6</ele></trkpt><trkpt lat="46.343358" lon="9.953809"><time>2021-07-03T08:47:44.000Z</time><ele>2546.8</ele></trkpt><trkpt lat="46.343359" lon="9.953814"><time>2021-07-03T08:48:02.000Z</time><ele>2547.8</ele></trkpt><trkpt lat="46.34336" lon="9.953814"><time>2021-07-03T08:48:03.000Z</time><ele>2548</ele></trkpt><trkpt lat="46.343374" lon="9.953811"><time>2021-07-03T08:48:12.000Z</time><ele>2549</ele></trkpt><trkpt lat="46.343388" lon="9.953792"><time>2021-07-03T08:48:18.000Z</time><ele>2550.2</ele></trkpt><trkpt lat="46.343414" lon="9.953788"><time>2021-07-03T08:48:27.000Z</time><ele>2551.4</ele></trkpt><trkpt lat="46.343424" lon="9.953785"><time>2021-07-03T08:48:33.000Z</time><ele>2552.4</ele></trkpt><trkpt lat="46.343448" lon="9.953784"><time>2021-07-03T08:48:40.000Z</time><ele>2553.4</ele></trkpt><trkpt lat="46.343488" lon="9.953765"><time>2021-07-03T08:48:49.000Z</time><ele>2554.4</ele></trkpt><trkpt lat="46.343498" lon="9.953748"><time>2021-07-03T08:48:55.000Z</time><ele>2554.4</ele></trkpt><trkpt lat="46.343506" lon="9.95374"><time>2021-07-03T08:49:08.000Z</time><ele>2554.2</ele></trkpt><trkpt lat="46.343504" lon="9.953734"><time>2021-07-03T08:49:24.000Z</time><ele>2554.6</ele></trkpt><trkpt lat="46.343503" lon="9.953734"><time>2021-07-03T08:49:29.000Z</time><ele>2554.4</ele></trkpt><trkpt lat="46.343496" lon="9.953734"><time>2021-07-03T08:49:32.000Z</time><ele>2554.2</ele></trkpt><trkpt lat="46.343492" lon="9.953731"><time>2021-07-03T08:49:38.000Z</time><ele>2554.4</ele></trkpt><trkpt lat="46.343492" lon="9.95373"><time>2021-07-03T08:49:44.000Z</time><ele>2555.2</ele></trkpt><trkpt lat="46.343492" lon="9.95373"><time>2021-07-03T08:49:45.000Z</time><ele>2555.2</ele></trkpt><trkpt lat="46.343492" lon="9.95373"><time>2021-07-03T08:49:46.000Z</time><ele>2555.2</ele></trkpt><trkpt lat="46.343493" lon="9.95373"><time>2021-07-03T08:49:53.000Z</time><ele>2555</ele></trkpt><trkpt lat="46.343493" lon="9.953743"><time>2021-07-03T08:50:08.000Z</time><ele>2554.4</ele></trkpt><trkpt lat="46.343497" lon="9.953746"><time>2021-07-03T08:50:13.000Z</time><ele>2554.4</ele></trkpt><trkpt lat="46.343504" lon="9.953756"><time>2021-07-03T08:50:19.000Z</time><ele>2554.8</ele></trkpt><trkpt lat="46.343505" lon="9.953768"><time>2021-07-03T08:50:21.000Z</time><ele>2554.8</ele></trkpt><trkpt lat="46.343508" lon="9.953782"><time>2021-07-03T08:50:23.000Z</time><ele>2554.6</ele></trkpt><trkpt lat="46.343512" lon="9.953796"><time>2021-07-03T08:50:25.000Z</time><ele>2554.6</ele></trkpt><trkpt lat="46.343536" lon="9.953884"><time>2021-07-03T08:50:40.000Z</time><ele>2555.4</ele></trkpt><trkpt lat="46.343542" lon="9.953926"><time>2021-07-03T08:50:48.000Z</time><ele>2556.6</ele></trkpt><trkpt lat="46.343546" lon="9.953947"><time>2021-07-03T08:50:53.000Z</time><ele>2557.6</ele></trkpt><trkpt lat="46.343546" lon="9.953951"><time>2021-07-03T08:50:54.000Z</time><ele>2557.8</ele></trkpt><trkpt lat="46.343548" lon="9.953957"><time>2021-07-03T08:50:56.000Z</time><ele>2558.4</ele></trkpt><trkpt lat="46.343549" lon="9.953959"><time>2021-07-03T08:50:57.000Z</time><ele>2558.6</ele></trkpt><trkpt lat="46.343551" lon="9.953964"><time>2021-07-03T08:51:00.000Z</time><ele>2558.6</ele></trkpt><trkpt lat="46.343551" lon="9.953965"><time>2021-07-03T08:51:01.000Z</time><ele>2559</ele></trkpt><trkpt lat="46.343551" lon="9.953966"><time>2021-07-03T08:51:05.000Z</time><ele>2559.6</ele></trkpt><trkpt lat="46.343552" lon="9.953966"><time>2021-07-03T08:51:07.000Z</time><ele>2559.6</ele></trkpt><trkpt lat="46.343552" lon="9.953967"><time>2021-07-03T08:51:10.000Z</time><ele>2560</ele></trkpt><trkpt lat="46.343554" lon="9.95397"><time>2021-07-03T08:51:21.000Z</time><ele>2561</ele></trkpt><trkpt lat="46.343555" lon="9.953974"><time>2021-07-03T08:51:30.000Z</time><ele>2562</ele></trkpt><trkpt lat="46.343556" lon="9.953975"><time>2021-07-03T08:51:33.000Z</time><ele>2562.6</ele></trkpt><trkpt lat="46.343557" lon="9.953977"><time>2021-07-03T08:51:38.000Z</time><ele>2563.2</ele></trkpt><trkpt lat="46.343558" lon="9.95398"><time>2021-07-03T08:51:44.000Z</time><ele>2564.4</ele></trkpt><trkpt lat="46.343561" lon="9.953985"><time>2021-07-03T08:51:54.000Z</time><ele>2565.2</ele></trkpt><trkpt lat="46.343564" lon="9.953991"><time>2021-07-03T08:52:04.000Z</time><ele>2565.4</ele></trkpt><trkpt lat="46.343565" lon="9.953995"><time>2021-07-03T08:52:10.000Z</time><ele>2565.4</ele></trkpt><trkpt lat="46.343649" lon="9.954176"><time>2021-07-03T08:52:17.000Z</time><ele>2565.8</ele></trkpt><trkpt lat="46.343705" lon="9.95433"><time>2021-07-03T08:52:20.000Z</time><ele>2566.2</ele></trkpt><trkpt lat="46.343722" lon="9.954383"><time>2021-07-03T08:52:21.000Z</time><ele>2566.4</ele></trkpt><trkpt lat="46.343769" lon="9.954481"><time>2021-07-03T08:52:23.000Z</time><ele>2566.8</ele></trkpt><trkpt lat="46.343771" lon="9.954507"><time>2021-07-03T08:52:26.000Z</time><ele>2567.4</ele></trkpt><trkpt lat="46.34377" lon="9.954515"><time>2021-07-03T08:52:27.000Z</time><ele>2567.4</ele></trkpt><trkpt lat="46.343747" lon="9.954603"><time>2021-07-03T08:52:34.000Z</time><ele>2568</ele></trkpt><trkpt lat="46.343773" lon="9.954695"><time>2021-07-03T08:52:42.000Z</time><ele>2568</ele></trkpt><trkpt lat="46.343781" lon="9.954784"><time>2021-07-03T08:52:48.000Z</time><ele>2567.8</ele></trkpt><trkpt lat="46.343782" lon="9.954801"><time>2021-07-03T08:52:49.000Z</time><ele>2568</ele></trkpt><trkpt lat="46.343777" lon="9.954848"><time>2021-07-03T08:52:54.000Z</time><ele>2568</ele></trkpt><trkpt lat="46.343782" lon="9.954864"><time>2021-07-03T08:52:56.000Z</time><ele>2568</ele></trkpt><trkpt lat="46.343786" lon="9.954872"><time>2021-07-03T08:52:57.000Z</time><ele>2568</ele></trkpt><trkpt lat="46.343807" lon="9.954893"><time>2021-07-03T08:53:01.000Z</time><ele>2568</ele></trkpt><trkpt lat="46.343813" lon="9.954901"><time>2021-07-03T08:53:02.000Z</time><ele>2568.2</ele></trkpt><trkpt lat="46.343824" lon="9.954921"><time>2021-07-03T08:53:04.000Z</time><ele>2568.4</ele></trkpt><trkpt lat="46.343838" lon="9.95493"><time>2021-07-03T08:53:06.000Z</time><ele>2568.6</ele></trkpt><trkpt lat="46.343877" lon="9.954998"><time>2021-07-03T08:53:13.000Z</time><ele>2568.6</ele></trkpt><trkpt lat="46.343909" lon="9.955081"><time>2021-07-03T08:53:22.000Z</time><ele>2568.8</ele></trkpt><trkpt lat="46.343915" lon="9.955087"><time>2021-07-03T08:53:23.000Z</time><ele>2568.8</ele></trkpt><trkpt lat="46.343943" lon="9.955137"><time>2021-07-03T08:53:30.000Z</time><ele>2568.6</ele></trkpt><trkpt lat="46.343947" lon="9.955145"><time>2021-07-03T08:53:31.000Z</time><ele>2568.6</ele></trkpt><trkpt lat="46.343952" lon="9.955159"><time>2021-07-03T08:53:32.000Z</time><ele>2568.4</ele></trkpt><trkpt lat="46.343958" lon="9.955168"><time>2021-07-03T08:53:33.000Z</time><ele>2568.4</ele></trkpt><trkpt lat="46.343973" lon="9.95518"><time>2021-07-03T08:53:35.000Z</time><ele>2568.2</ele></trkpt><trkpt lat="46.343988" lon="9.955205"><time>2021-07-03T08:53:37.000Z</time><ele>2568</ele></trkpt><trkpt lat="46.344008" lon="9.955246"><time>2021-07-03T08:53:42.000Z</time><ele>2567.6</ele></trkpt><trkpt lat="46.344012" lon="9.955256"><time>2021-07-03T08:53:44.000Z</time><ele>2567.4</ele></trkpt><trkpt lat="46.344016" lon="9.955272"><time>2021-07-03T08:53:46.000Z</time><ele>2567.4</ele></trkpt><trkpt lat="46.344024" lon="9.955287"><time>2021-07-03T08:53:48.000Z</time><ele>2567.4</ele></trkpt><trkpt lat="46.34403" lon="9.955302"><time>2021-07-03T08:53:50.000Z</time><ele>2567.2</ele></trkpt><trkpt lat="46.344037" lon="9.955327"><time>2021-07-03T08:53:56.000Z</time><ele>2567</ele></trkpt><trkpt lat="46.344039" lon="9.955402"><time>2021-07-03T08:54:06.000Z</time><ele>2566.4</ele></trkpt><trkpt lat="46.344031" lon="9.955417"><time>2021-07-03T08:54:09.000Z</time><ele>2566</ele></trkpt><trkpt lat="46.344023" lon="9.955442"><time>2021-07-03T08:54:14.000Z</time><ele>2565.4</ele></trkpt><trkpt lat="46.34402" lon="9.955449"><time>2021-07-03T08:54:15.000Z</time><ele>2565.4</ele></trkpt><trkpt lat="46.344013" lon="9.955462"><time>2021-07-03T08:54:17.000Z</time><ele>2565.2</ele></trkpt><trkpt lat="46.343981" lon="9.955481"><time>2021-07-03T08:54:23.000Z</time><ele>2564.2</ele></trkpt><trkpt lat="46.343974" lon="9.955481"><time>2021-07-03T08:54:24.000Z</time><ele>2564.2</ele></trkpt><trkpt lat="46.343949" lon="9.955504"><time>2021-07-03T08:54:29.000Z</time><ele>2563.2</ele></trkpt><trkpt lat="46.343946" lon="9.955534"><time>2021-07-03T08:54:32.000Z</time><ele>2562.8</ele></trkpt><trkpt lat="46.34393" lon="9.955558"><time>2021-07-03T08:54:35.000Z</time><ele>2562.4</ele></trkpt><trkpt lat="46.34393" lon="9.955583"><time>2021-07-03T08:54:38.000Z</time><ele>2562.2</ele></trkpt><trkpt lat="46.343928" lon="9.955637"><time>2021-07-03T08:54:43.000Z</time><ele>2561.6</ele></trkpt><trkpt lat="46.343916" lon="9.955661"><time>2021-07-03T08:54:46.000Z</time><ele>2561.4</ele></trkpt><trkpt lat="46.343918" lon="9.955684"><time>2021-07-03T08:54:48.000Z</time><ele>2561</ele></trkpt><trkpt lat="46.34393" lon="9.955701"><time>2021-07-03T08:54:52.000Z</time><ele>2560.8</ele></trkpt><trkpt lat="46.343965" lon="9.95573"><time>2021-07-03T08:54:57.000Z</time><ele>2560.2</ele></trkpt><trkpt lat="46.343971" lon="9.955726"><time>2021-07-03T08:54:58.000Z</time><ele>2560</ele></trkpt><trkpt lat="46.343976" lon="9.955728"><time>2021-07-03T08:54:59.000Z</time><ele>2559.8</ele></trkpt><trkpt lat="46.344" lon="9.955778"><time>2021-07-03T08:55:05.000Z</time><ele>2559.2</ele></trkpt><trkpt lat="46.344016" lon="9.955814"><time>2021-07-03T08:55:09.000Z</time><ele>2558.8</ele></trkpt><trkpt lat="46.344025" lon="9.955861"><time>2021-07-03T08:55:14.000Z</time><ele>2558.2</ele></trkpt><trkpt lat="46.344038" lon="9.955887"><time>2021-07-03T08:55:17.000Z</time><ele>2557.6</ele></trkpt><trkpt lat="46.344034" lon="9.955946"><time>2021-07-03T08:55:22.000Z</time><ele>2557.4</ele></trkpt><trkpt lat="46.344036" lon="9.95603"><time>2021-07-03T08:55:29.000Z</time><ele>2557.4</ele></trkpt><trkpt lat="46.344053" lon="9.956048"><time>2021-07-03T08:55:32.000Z</time><ele>2557.6</ele></trkpt><trkpt lat="46.344061" lon="9.956055"><time>2021-07-03T08:55:33.000Z</time><ele>2557.8</ele></trkpt><trkpt lat="46.344066" lon="9.956061"><time>2021-07-03T08:55:34.000Z</time><ele>2558</ele></trkpt><trkpt lat="46.34408" lon="9.956094"><time>2021-07-03T08:55:38.000Z</time><ele>2558.4</ele></trkpt><trkpt lat="46.344074" lon="9.956127"><time>2021-07-03T08:55:41.000Z</time><ele>2558.6</ele></trkpt><trkpt lat="46.344077" lon="9.956134"><time>2021-07-03T08:55:42.000Z</time><ele>2558.6</ele></trkpt><trkpt lat="46.34408" lon="9.956151"><time>2021-07-03T08:55:44.000Z</time><ele>2558.8</ele></trkpt><trkpt lat="46.344083" lon="9.956167"><time>2021-07-03T08:55:46.000Z</time><ele>2558.8</ele></trkpt><trkpt lat="46.344084" lon="9.956174"><time>2021-07-03T08:55:47.000Z</time><ele>2558.8</ele></trkpt><trkpt lat="46.344069" lon="9.956191"><time>2021-07-03T08:55:51.000Z</time><ele>2559</ele></trkpt><trkpt lat="46.344058" lon="9.95622"><time>2021-07-03T08:55:54.000Z</time><ele>2559</ele></trkpt><trkpt lat="46.344031" lon="9.956292"><time>2021-07-03T08:56:02.000Z</time><ele>2558.4</ele></trkpt><trkpt lat="46.344058" lon="9.956365"><time>2021-07-03T08:56:11.000Z</time><ele>2558.6</ele></trkpt><trkpt lat="46.344064" lon="9.956452"><time>2021-07-03T08:56:20.000Z</time><ele>2558</ele></trkpt><trkpt lat="46.344061" lon="9.956464"><time>2021-07-03T08:56:27.000Z</time><ele>2557.8</ele></trkpt><trkpt lat="46.344059" lon="9.956463"><time>2021-07-03T08:56:32.000Z</time><ele>2558</ele></trkpt><trkpt lat="46.344059" lon="9.956463"><time>2021-07-03T08:56:40.000Z</time><ele>2558</ele></trkpt><trkpt lat="46.344058" lon="9.956485"><time>2021-07-03T08:57:03.000Z</time><ele>2557.8</ele></trkpt><trkpt lat="46.344064" lon="9.95649"><time>2021-07-03T08:57:12.000Z</time><ele>2557.6</ele></trkpt><trkpt lat="46.344068" lon="9.956496"><time>2021-07-03T08:57:16.000Z</time><ele>2557.6</ele></trkpt><trkpt lat="46.344085" lon="9.956518"><time>2021-07-03T08:57:46.000Z</time><ele>2557.6</ele></trkpt><trkpt lat="46.344085" lon="9.956519"><time>2021-07-03T08:57:52.000Z</time><ele>2557.4</ele></trkpt><trkpt lat="46.344085" lon="9.956519"><time>2021-07-03T08:57:54.000Z</time><ele>2557.4</ele></trkpt><trkpt lat="46.344076" lon="9.956521"><time>2021-07-03T08:58:01.000Z</time><ele>2557.6</ele></trkpt><trkpt lat="46.34408" lon="9.956523"><time>2021-07-03T08:58:31.000Z</time><ele>2557.8</ele></trkpt><trkpt lat="46.344081" lon="9.956523"><time>2021-07-03T08:58:35.000Z</time><ele>2557.6</ele></trkpt><trkpt lat="46.344078" lon="9.956527"><time>2021-07-03T08:58:44.000Z</time><ele>2557.4</ele></trkpt><trkpt lat="46.344075" lon="9.956527"><time>2021-07-03T08:58:45.000Z</time><ele>2557.4</ele></trkpt><trkpt lat="46.344071" lon="9.956535"><time>2021-07-03T08:59:09.000Z</time><ele>2557.4</ele></trkpt><trkpt lat="46.344072" lon="9.956535"><time>2021-07-03T08:59:13.000Z</time><ele>2557.4</ele></trkpt><trkpt lat="46.344073" lon="9.956535"><time>2021-07-03T08:59:15.000Z</time><ele>2557.4</ele></trkpt><trkpt lat="46.344073" lon="9.956536"><time>2021-07-03T08:59:16.000Z</time><ele>2557.4</ele></trkpt><trkpt lat="46.344072" lon="9.956544"><time>2021-07-03T08:59:20.000Z</time><ele>2557.4</ele></trkpt><trkpt lat="46.344071" lon="9.956556"><time>2021-07-03T08:59:24.000Z</time><ele>2557.4</ele></trkpt><trkpt lat="46.344067" lon="9.956586"><time>2021-07-03T08:59:38.000Z</time><ele>2557.4</ele></trkpt><trkpt lat="46.344065" lon="9.956589"><time>2021-07-03T08:59:44.000Z</time><ele>2557.4</ele></trkpt><trkpt lat="46.344065" lon="9.956589"><time>2021-07-03T08:59:57.000Z</time><ele>2557.4</ele></trkpt><trkpt lat="46.344065" lon="9.956589"><time>2021-07-03T09:00:09.000Z</time><ele>2557.4</ele></trkpt><trkpt lat="46.344065" lon="9.95659"><time>2021-07-03T09:00:18.000Z</time><ele>2557.4</ele></trkpt><trkpt lat="46.344065" lon="9.956591"><time>2021-07-03T09:00:33.000Z</time><ele>2557.4</ele></trkpt><trkpt lat="46.344065" lon="9.956593"><time>2021-07-03T09:00:39.000Z</time><ele>2551.4</ele></trkpt><trkpt lat="46.344071" lon="9.956811"><time>2021-07-03T09:00:47.000Z</time><ele>2550.8</ele></trkpt><trkpt lat="46.344072" lon="9.956881"><time>2021-07-03T09:00:49.000Z</time><ele>2550.2</ele></trkpt><trkpt lat="46.344073" lon="9.956964"><time>2021-07-03T09:00:52.000Z</time><ele>2549.4</ele></trkpt><trkpt lat="46.344072" lon="9.956974"><time>2021-07-03T09:00:53.000Z</time><ele>2549.2</ele></trkpt><trkpt lat="46.344069" lon="9.95699"><time>2021-07-03T09:00:55.000Z</time><ele>2548.6</ele></trkpt><trkpt lat="46.344069" lon="9.957013"><time>2021-07-03T09:00:58.000Z</time><ele>2548</ele></trkpt><trkpt lat="46.344069" lon="9.957045"><time>2021-07-03T09:01:02.000Z</time><ele>2546.8</ele></trkpt><trkpt lat="46.34407" lon="9.957064"><time>2021-07-03T09:01:05.000Z</time><ele>2546.2</ele></trkpt><trkpt lat="46.344068" lon="9.957069"><time>2021-07-03T09:01:06.000Z</time><ele>2545.8</ele></trkpt><trkpt lat="46.344063" lon="9.957076"><time>2021-07-03T09:01:08.000Z</time><ele>2545.4</ele></trkpt><trkpt lat="46.344048" lon="9.957088"><time>2021-07-03T09:01:11.000Z</time><ele>2545</ele></trkpt><trkpt lat="46.344046" lon="9.957098"><time>2021-07-03T09:01:12.000Z</time><ele>2544.8</ele></trkpt><trkpt lat="46.344055" lon="9.957148"><time>2021-07-03T09:01:17.000Z</time><ele>2543.6</ele></trkpt><trkpt lat="46.344057" lon="9.957176"><time>2021-07-03T09:01:22.000Z</time><ele>2542.4</ele></trkpt><trkpt lat="46.344047" lon="9.957187"><time>2021-07-03T09:01:24.000Z</time><ele>2542</ele></trkpt><trkpt lat="46.344039" lon="9.957197"><time>2021-07-03T09:01:26.000Z</time><ele>2541.4</ele></trkpt><trkpt lat="46.344031" lon="9.957244"><time>2021-07-03T09:01:33.000Z</time><ele>2540.4</ele></trkpt><trkpt lat="46.344036" lon="9.957251"><time>2021-07-03T09:01:34.000Z</time><ele>2540.2</ele></trkpt><trkpt lat="46.344048" lon="9.957273"><time>2021-07-03T09:01:37.000Z</time><ele>2539.4</ele></trkpt><trkpt lat="46.344077" lon="9.95733"><time>2021-07-03T09:01:44.000Z</time><ele>2538.2</ele></trkpt><trkpt lat="46.344077" lon="9.957339"><time>2021-07-03T09:01:45.000Z</time><ele>2538</ele></trkpt><trkpt lat="46.344065" lon="9.957384"><time>2021-07-03T09:01:52.000Z</time><ele>2537.2</ele></trkpt><trkpt lat="46.344071" lon="9.957394"><time>2021-07-03T09:01:54.000Z</time><ele>2537</ele></trkpt><trkpt lat="46.34407" lon="9.957416"><time>2021-07-03T09:02:00.000Z</time><ele>2536.4</ele></trkpt><trkpt lat="46.344078" lon="9.95741"><time>2021-07-03T09:02:11.000Z</time><ele>2536.6</ele></trkpt><trkpt lat="46.344075" lon="9.957408"><time>2021-07-03T09:02:26.000Z</time><ele>2536.4</ele></trkpt><trkpt lat="46.344073" lon="9.957398"><time>2021-07-03T09:02:39.000Z</time><ele>2536.4</ele></trkpt><trkpt lat="46.344073" lon="9.957392"><time>2021-07-03T09:02:48.000Z</time><ele>2536.2</ele></trkpt><trkpt lat="46.344074" lon="9.957394"><time>2021-07-03T09:03:03.000Z</time><ele>2536</ele></trkpt><trkpt lat="46.344073" lon="9.957394"><time>2021-07-03T09:03:05.000Z</time><ele>2535.8</ele></trkpt><trkpt lat="46.344072" lon="9.957397"><time>2021-07-03T09:03:07.000Z</time><ele>2535.8</ele></trkpt><trkpt lat="46.344071" lon="9.957404"><time>2021-07-03T09:03:08.000Z</time><ele>2535.8</ele></trkpt><trkpt lat="46.34407" lon="9.957409"><time>2021-07-03T09:03:09.000Z</time><ele>2535.8</ele></trkpt><trkpt lat="46.344065" lon="9.957428"><time>2021-07-03T09:03:19.000Z</time><ele>2535.6</ele></trkpt><trkpt lat="46.344065" lon="9.957432"><time>2021-07-03T09:03:24.000Z</time><ele>2534.8</ele></trkpt><trkpt lat="46.344064" lon="9.957451"><time>2021-07-03T09:03:31.000Z</time><ele>2533.8</ele></trkpt><trkpt lat="46.344067" lon="9.95753"><time>2021-07-03T09:03:37.000Z</time><ele>2533</ele></trkpt><trkpt lat="46.344071" lon="9.957538"><time>2021-07-03T09:03:38.000Z</time><ele>2532.8</ele></trkpt><trkpt lat="46.344081" lon="9.95759"><time>2021-07-03T09:03:47.000Z</time><ele>2532.4</ele></trkpt><trkpt lat="46.344079" lon="9.957591"><time>2021-07-03T09:04:00.000Z</time><ele>2532.6</ele></trkpt><trkpt lat="46.344078" lon="9.957591"><time>2021-07-03T09:04:02.000Z</time><ele>2532.6</ele></trkpt><trkpt lat="46.344077" lon="9.957591"><time>2021-07-03T09:04:04.000Z</time><ele>2532.8</ele></trkpt><trkpt lat="46.344075" lon="9.957606"><time>2021-07-03T09:04:19.000Z</time><ele>2531.6</ele></trkpt><trkpt lat="46.344092" lon="9.957678"><time>2021-07-03T09:04:23.000Z</time><ele>2531.6</ele></trkpt><trkpt lat="46.344131" lon="9.957765"><time>2021-07-03T09:04:29.000Z</time><ele>2530.8</ele></trkpt><trkpt lat="46.344161" lon="9.957778"><time>2021-07-03T09:04:32.000Z</time><ele>2530.8</ele></trkpt><trkpt lat="46.344166" lon="9.95778"><time>2021-07-03T09:04:33.000Z</time><ele>2530.4</ele></trkpt><trkpt lat="46.344191" lon="9.957795"><time>2021-07-03T09:04:36.000Z</time><ele>2530.2</ele></trkpt><trkpt lat="46.344224" lon="9.957814"><time>2021-07-03T09:04:41.000Z</time><ele>2530.2</ele></trkpt><trkpt lat="46.344256" lon="9.957835"><time>2021-07-03T09:04:46.000Z</time><ele>2530.6</ele></trkpt><trkpt lat="46.344272" lon="9.957825"><time>2021-07-03T09:04:48.000Z</time><ele>2530.6</ele></trkpt><trkpt lat="46.344279" lon="9.957819"><time>2021-07-03T09:04:50.000Z</time><ele>2530.6</ele></trkpt><trkpt lat="46.344274" lon="9.957827"><time>2021-07-03T09:04:55.000Z</time><ele>2530.6</ele></trkpt><trkpt lat="46.344308" lon="9.957861"><time>2021-07-03T09:05:03.000Z</time><ele>2531</ele></trkpt><trkpt lat="46.344312" lon="9.957865"><time>2021-07-03T09:05:04.000Z</time><ele>2531.2</ele></trkpt><trkpt lat="46.344318" lon="9.957869"><time>2021-07-03T09:05:05.000Z</time><ele>2531.2</ele></trkpt><trkpt lat="46.344381" lon="9.957899"><time>2021-07-03T09:05:11.000Z</time><ele>2531</ele></trkpt><trkpt lat="46.344431" lon="9.957937"><time>2021-07-03T09:05:17.000Z</time><ele>2531.6</ele></trkpt><trkpt lat="46.344446" lon="9.957953"><time>2021-07-03T09:05:19.000Z</time><ele>2531.6</ele></trkpt><trkpt lat="46.34449" lon="9.957976"><time>2021-07-03T09:05:24.000Z</time><ele>2531.6</ele></trkpt><trkpt lat="46.344518" lon="9.95799"><time>2021-07-03T09:05:27.000Z</time><ele>2531.6</ele></trkpt><trkpt lat="46.344576" lon="9.958049"><time>2021-07-03T09:05:35.000Z</time><ele>2532</ele></trkpt><trkpt lat="46.344584" lon="9.958052"><time>2021-07-03T09:05:36.000Z</time><ele>2532</ele></trkpt><trkpt lat="46.344641" lon="9.95812"><time>2021-07-03T09:05:45.000Z</time><ele>2532</ele></trkpt><trkpt lat="46.344646" lon="9.958132"><time>2021-07-03T09:05:46.000Z</time><ele>2532.2</ele></trkpt><trkpt lat="46.344664" lon="9.958165"><time>2021-07-03T09:05:49.000Z</time><ele>2532.6</ele></trkpt><trkpt lat="46.344693" lon="9.958196"><time>2021-07-03T09:05:53.000Z</time><ele>2532.6</ele></trkpt><trkpt lat="46.344717" lon="9.958215"><time>2021-07-03T09:05:57.000Z</time><ele>2532.2</ele></trkpt><trkpt lat="46.344746" lon="9.958236"><time>2021-07-03T09:06:00.000Z</time><ele>2532</ele></trkpt><trkpt lat="46.344774" lon="9.958262"><time>2021-07-03T09:06:04.000Z</time><ele>2531.6</ele></trkpt><trkpt lat="46.344781" lon="9.958273"><time>2021-07-03T09:06:07.000Z</time><ele>2531.4</ele></trkpt><trkpt lat="46.344781" lon="9.958281"><time>2021-07-03T09:06:08.000Z</time><ele>2531.4</ele></trkpt><trkpt lat="46.344775" lon="9.95829"><time>2021-07-03T09:06:11.000Z</time><ele>2531.4</ele></trkpt><trkpt lat="46.344778" lon="9.958294"><time>2021-07-03T09:06:14.000Z</time><ele>2531.6</ele></trkpt><trkpt lat="46.344784" lon="9.958292"><time>2021-07-03T09:06:21.000Z</time><ele>2531.4</ele></trkpt><trkpt lat="46.344757" lon="9.958318"><time>2021-07-03T09:07:01.000Z</time><ele>2531.2</ele></trkpt><trkpt lat="46.344758" lon="9.958318"><time>2021-07-03T09:07:03.000Z</time><ele>2531.2</ele></trkpt><trkpt lat="46.34475" lon="9.958327"><time>2021-07-03T09:07:31.000Z</time><ele>2531.2</ele></trkpt><trkpt lat="46.344748" lon="9.958332"><time>2021-07-03T09:07:45.000Z</time><ele>2531.2</ele></trkpt><trkpt lat="46.344751" lon="9.958332"><time>2021-07-03T09:07:46.000Z</time><ele>2531.2</ele></trkpt><trkpt lat="46.344745" lon="9.958338"><time>2021-07-03T09:08:12.000Z</time><ele>2531.2</ele></trkpt><trkpt lat="46.344744" lon="9.958338"><time>2021-07-03T09:08:23.000Z</time><ele>2531.2</ele></trkpt><trkpt lat="46.344745" lon="9.958336"><time>2021-07-03T09:08:27.000Z</time><ele>2531.2</ele></trkpt><trkpt lat="46.344755" lon="9.958329"><time>2021-07-03T09:08:35.000Z</time><ele>2531.2</ele></trkpt><trkpt lat="46.344759" lon="9.958328"><time>2021-07-03T09:08:41.000Z</time><ele>2531.2</ele></trkpt><trkpt lat="46.34476" lon="9.958328"><time>2021-07-03T09:08:43.000Z</time><ele>2531.2</ele></trkpt><trkpt lat="46.34478" lon="9.958336"><time>2021-07-03T09:09:30.000Z</time><ele>2531.2</ele></trkpt><trkpt lat="46.34478" lon="9.958337"><time>2021-07-03T09:09:34.000Z</time><ele>2531.2</ele></trkpt><trkpt lat="46.344781" lon="9.958337"><time>2021-07-03T09:09:38.000Z</time><ele>2531.2</ele></trkpt><trkpt lat="46.344781" lon="9.958337"><time>2021-07-03T09:09:42.000Z</time><ele>2531.2</ele></trkpt><trkpt lat="46.344781" lon="9.958337"><time>2021-07-03T09:09:44.000Z</time><ele>2531.2</ele></trkpt><trkpt lat="46.34478" lon="9.958338"><time>2021-07-03T09:09:59.000Z</time><ele>2531.2</ele></trkpt><trkpt lat="46.34478" lon="9.958338"><time>2021-07-03T09:10:16.000Z</time><ele>2531.2</ele></trkpt><trkpt lat="46.34478" lon="9.958338"><time>2021-07-03T09:10:19.000Z</time><ele>2531.2</ele></trkpt><trkpt lat="46.34478" lon="9.958338"><time>2021-07-03T09:10:23.000Z</time><ele>2531.2</ele></trkpt><trkpt lat="46.34478" lon="9.958338"><time>2021-07-03T09:10:40.000Z</time><ele>2531.2</ele></trkpt><trkpt lat="46.34478" lon="9.958338"><time>2021-07-03T09:10:42.000Z</time><ele>2531.2</ele></trkpt><trkpt lat="46.34478" lon="9.958338"><time>2021-07-03T09:10:44.000Z</time><ele>2531.2</ele></trkpt><trkpt lat="46.34478" lon="9.958338"><time>2021-07-03T09:10:45.000Z</time><ele>2531.2</ele></trkpt><trkpt lat="46.34478" lon="9.958338"><time>2021-07-03T09:10:46.000Z</time><ele>2531.2</ele></trkpt><trkpt lat="46.34478" lon="9.958338"><time>2021-07-03T09:10:48.000Z</time><ele>2531.2</ele></trkpt><trkpt lat="46.344781" lon="9.958339"><time>2021-07-03T09:11:10.000Z</time><ele>2531.2</ele></trkpt><trkpt lat="46.344867" lon="9.958473"><time>2021-07-03T09:11:19.000Z</time><ele>2531.2</ele></trkpt><trkpt lat="46.344965" lon="9.958607"><time>2021-07-03T09:11:26.000Z</time><ele>2530.2</ele></trkpt><trkpt lat="46.344971" lon="9.958606"><time>2021-07-03T09:11:27.000Z</time><ele>2530</ele></trkpt><trkpt lat="46.345006" lon="9.958624"><time>2021-07-03T09:11:33.000Z</time><ele>2529.8</ele></trkpt><trkpt lat="46.345015" lon="9.958634"><time>2021-07-03T09:11:34.000Z</time><ele>2529.8</ele></trkpt><trkpt lat="46.345065" lon="9.958659"><time>2021-07-03T09:11:41.000Z</time><ele>2529.8</ele></trkpt><trkpt lat="46.345122" lon="9.958683"><time>2021-07-03T09:11:48.000Z</time><ele>2530.2</ele></trkpt><trkpt lat="46.345129" lon="9.958692"><time>2021-07-03T09:11:49.000Z</time><ele>2530.2</ele></trkpt><trkpt lat="46.345191" lon="9.958783"><time>2021-07-03T09:11:57.000Z</time><ele>2530.2</ele></trkpt><trkpt lat="46.345218" lon="9.95882"><time>2021-07-03T09:12:01.000Z</time><ele>2530.2</ele></trkpt><trkpt lat="46.34525" lon="9.958872"><time>2021-07-03T09:12:06.000Z</time><ele>2530.2</ele></trkpt><trkpt lat="46.345324" lon="9.958931"><time>2021-07-03T09:12:15.000Z</time><ele>2530.6</ele></trkpt><trkpt lat="46.34538" lon="9.959003"><time>2021-07-03T09:12:23.000Z</time><ele>2531.2</ele></trkpt><trkpt lat="46.34543" lon="9.959085"><time>2021-07-03T09:12:30.000Z</time><ele>2530.8</ele></trkpt><trkpt lat="46.345472" lon="9.959134"><time>2021-07-03T09:12:35.000Z</time><ele>2530.6</ele></trkpt><trkpt lat="46.345501" lon="9.959167"><time>2021-07-03T09:12:40.000Z</time><ele>2530.8</ele></trkpt><trkpt lat="46.345563" lon="9.959273"><time>2021-07-03T09:12:49.000Z</time><ele>2530.4</ele></trkpt><trkpt lat="46.345575" lon="9.959289"><time>2021-07-03T09:12:51.000Z</time><ele>2530.4</ele></trkpt><trkpt lat="46.345594" lon="9.959322"><time>2021-07-03T09:12:54.000Z</time><ele>2530</ele></trkpt><trkpt lat="46.345645" lon="9.959407"><time>2021-07-03T09:13:01.000Z</time><ele>2529.8</ele></trkpt><trkpt lat="46.345649" lon="9.959432"><time>2021-07-03T09:13:03.000Z</time><ele>2529.8</ele></trkpt><trkpt lat="46.345655" lon="9.959442"><time>2021-07-03T09:13:04.000Z</time><ele>2529.8</ele></trkpt><trkpt lat="46.345691" lon="9.95948"><time>2021-07-03T09:13:09.000Z</time><ele>2529.4</ele></trkpt><trkpt lat="46.345706" lon="9.959572"><time>2021-07-03T09:13:16.000Z</time><ele>2529.8</ele></trkpt><trkpt lat="46.345711" lon="9.959598"><time>2021-07-03T09:13:18.000Z</time><ele>2529.8</ele></trkpt><trkpt lat="46.345712" lon="9.959622"><time>2021-07-03T09:13:20.000Z</time><ele>2529.8</ele></trkpt><trkpt lat="46.345707" lon="9.95966"><time>2021-07-03T09:13:23.000Z</time><ele>2529.8</ele></trkpt><trkpt lat="46.345708" lon="9.959675"><time>2021-07-03T09:13:24.000Z</time><ele>2529.8</ele></trkpt><trkpt lat="46.34572" lon="9.95976"><time>2021-07-03T09:13:30.000Z</time><ele>2529.4</ele></trkpt><trkpt lat="46.345716" lon="9.959781"><time>2021-07-03T09:13:32.000Z</time><ele>2529.2</ele></trkpt><trkpt lat="46.345703" lon="9.959796"><time>2021-07-03T09:13:33.000Z</time><ele>2529.2</ele></trkpt><trkpt lat="46.3457" lon="9.959836"><time>2021-07-03T09:13:35.000Z</time><ele>2529.2</ele></trkpt><trkpt lat="46.3457" lon="9.959853"><time>2021-07-03T09:13:36.000Z</time><ele>2529</ele></trkpt><trkpt lat="46.345739" lon="9.959897"><time>2021-07-03T09:13:42.000Z</time><ele>2529</ele></trkpt><trkpt lat="46.345743" lon="9.9599"><time>2021-07-03T09:13:43.000Z</time><ele>2529.2</ele></trkpt><trkpt lat="46.345744" lon="9.95991"><time>2021-07-03T09:13:44.000Z</time><ele>2529.2</ele></trkpt><trkpt lat="46.345759" lon="9.95996"><time>2021-07-03T09:13:49.000Z</time><ele>2529.4</ele></trkpt><trkpt lat="46.345763" lon="9.959968"><time>2021-07-03T09:13:51.000Z</time><ele>2529.4</ele></trkpt><trkpt lat="46.345772" lon="9.959982"><time>2021-07-03T09:13:53.000Z</time><ele>2529.4</ele></trkpt><trkpt lat="46.345799" lon="9.959997"><time>2021-07-03T09:13:56.000Z</time><ele>2529.4</ele></trkpt><trkpt lat="46.345836" lon="9.960042"><time>2021-07-03T09:14:05.000Z</time><ele>2529.2</ele></trkpt><trkpt lat="46.345842" lon="9.960084"><time>2021-07-03T09:14:12.000Z</time><ele>2529.4</ele></trkpt><trkpt lat="46.345841" lon="9.960088"><time>2021-07-03T09:14:13.000Z</time><ele>2529.4</ele></trkpt><trkpt lat="46.345842" lon="9.960079"><time>2021-07-03T09:14:18.000Z</time><ele>2529</ele></trkpt><trkpt lat="46.345842" lon="9.960079"><time>2021-07-03T09:14:20.000Z</time><ele>2529</ele></trkpt><trkpt lat="46.345842" lon="9.960079"><time>2021-07-03T09:14:22.000Z</time><ele>2529</ele></trkpt><trkpt lat="46.345846" lon="9.960086"><time>2021-07-03T09:14:44.000Z</time><ele>2529</ele></trkpt><trkpt lat="46.345848" lon="9.960146"><time>2021-07-03T09:15:01.000Z</time><ele>2529</ele></trkpt><trkpt lat="46.345849" lon="9.96016"><time>2021-07-03T09:15:04.000Z</time><ele>2529</ele></trkpt><trkpt lat="46.345852" lon="9.960165"><time>2021-07-03T09:15:11.000Z</time><ele>2529</ele></trkpt><trkpt lat="46.345852" lon="9.960168"><time>2021-07-03T09:15:12.000Z</time><ele>2529</ele></trkpt><trkpt lat="46.345852" lon="9.96017"><time>2021-07-03T09:15:13.000Z</time><ele>2529</ele></trkpt><trkpt lat="46.345852" lon="9.960173"><time>2021-07-03T09:15:15.000Z</time><ele>2529</ele></trkpt><trkpt lat="46.345852" lon="9.960174"><time>2021-07-03T09:15:17.000Z</time><ele>2529</ele></trkpt><trkpt lat="46.345852" lon="9.960176"><time>2021-07-03T09:15:19.000Z</time><ele>2529</ele></trkpt><trkpt lat="46.345852" lon="9.960178"><time>2021-07-03T09:15:25.000Z</time><ele>2529</ele></trkpt><trkpt lat="46.345874" lon="9.960207"><time>2021-07-03T09:15:46.000Z</time><ele>2529</ele></trkpt><trkpt lat="46.345942" lon="9.960245"><time>2021-07-03T09:15:55.000Z</time><ele>2529</ele></trkpt><trkpt lat="46.345973" lon="9.96026"><time>2021-07-03T09:15:57.000Z</time><ele>2529</ele></trkpt><trkpt lat="46.346019" lon="9.960289"><time>2021-07-03T09:16:00.000Z</time><ele>2529</ele></trkpt><trkpt lat="46.346082" lon="9.960315"><time>2021-07-03T09:16:08.000Z</time><ele>2528.8</ele></trkpt><trkpt lat="46.346109" lon="9.960316"><time>2021-07-03T09:16:13.000Z</time><ele>2529.2</ele></trkpt><trkpt lat="46.346131" lon="9.960335"><time>2021-07-03T09:16:16.000Z</time><ele>2529.2</ele></trkpt><trkpt lat="46.346146" lon="9.960348"><time>2021-07-03T09:16:18.000Z</time><ele>2529.4</ele></trkpt><trkpt lat="46.34615" lon="9.960355"><time>2021-07-03T09:16:19.000Z</time><ele>2529.4</ele></trkpt><trkpt lat="46.346156" lon="9.960362"><time>2021-07-03T09:16:20.000Z</time><ele>2529.4</ele></trkpt><trkpt lat="46.346181" lon="9.96038"><time>2021-07-03T09:16:23.000Z</time><ele>2529.4</ele></trkpt><trkpt lat="46.34619" lon="9.96039"><time>2021-07-03T09:16:24.000Z</time><ele>2529.4</ele></trkpt><trkpt lat="46.346204" lon="9.960404"><time>2021-07-03T09:16:26.000Z</time><ele>2529.4</ele></trkpt><trkpt lat="46.346227" lon="9.960458"><time>2021-07-03T09:16:32.000Z</time><ele>2529.4</ele></trkpt><trkpt lat="46.346237" lon="9.960487"><time>2021-07-03T09:16:35.000Z</time><ele>2529.2</ele></trkpt><trkpt lat="46.346241" lon="9.96049"><time>2021-07-03T09:16:37.000Z</time><ele>2529</ele></trkpt><trkpt lat="46.34625" lon="9.960489"><time>2021-07-03T09:16:42.000Z</time><ele>2528.8</ele></trkpt><trkpt lat="46.346255" lon="9.960507"><time>2021-07-03T09:16:51.000Z</time><ele>2528.8</ele></trkpt><trkpt lat="46.346251" lon="9.960524"><time>2021-07-03T09:16:58.000Z</time><ele>2528.4</ele></trkpt><trkpt lat="46.346251" lon="9.960524"><time>2021-07-03T09:17:06.000Z</time><ele>2528.2</ele></trkpt><trkpt lat="46.346251" lon="9.96052"><time>2021-07-03T09:17:10.000Z</time><ele>2528.2</ele></trkpt><trkpt lat="46.346249" lon="9.960517"><time>2021-07-03T09:17:16.000Z</time><ele>2528.2</ele></trkpt><trkpt lat="46.346244" lon="9.960518"><time>2021-07-03T09:17:25.000Z</time><ele>2528.8</ele></trkpt><trkpt lat="46.346235" lon="9.96052"><time>2021-07-03T09:17:35.000Z</time><ele>2528.4</ele></trkpt><trkpt lat="46.346234" lon="9.96052"><time>2021-07-03T09:17:37.000Z</time><ele>2528.2</ele></trkpt><trkpt lat="46.346236" lon="9.960517"><time>2021-07-03T09:17:41.000Z</time><ele>2528.4</ele></trkpt><trkpt lat="46.346234" lon="9.960517"><time>2021-07-03T09:17:49.000Z</time><ele>2528.8</ele></trkpt><trkpt lat="46.346206" lon="9.960503"><time>2021-07-03T09:18:10.000Z</time><ele>2528.6</ele></trkpt><trkpt lat="46.3462" lon="9.960508"><time>2021-07-03T09:18:19.000Z</time><ele>2528.4</ele></trkpt><trkpt lat="46.3462" lon="9.960507"><time>2021-07-03T09:18:27.000Z</time><ele>2529</ele></trkpt><trkpt lat="46.346202" lon="9.960504"><time>2021-07-03T09:18:32.000Z</time><ele>2529</ele></trkpt><trkpt lat="46.346206" lon="9.960503"><time>2021-07-03T09:18:36.000Z</time><ele>2529</ele></trkpt><trkpt lat="46.346212" lon="9.960486"><time>2021-07-03T09:18:41.000Z</time><ele>2529.2</ele></trkpt><trkpt lat="46.346218" lon="9.960469"><time>2021-07-03T09:18:56.000Z</time><ele>2529.4</ele></trkpt><trkpt lat="46.346224" lon="9.960467"><time>2021-07-03T09:19:10.000Z</time><ele>2529.4</ele></trkpt><trkpt lat="46.346229" lon="9.960478"><time>2021-07-03T09:19:40.000Z</time><ele>2529</ele></trkpt><trkpt lat="46.346225" lon="9.960479"><time>2021-07-03T09:19:54.000Z</time><ele>2529</ele></trkpt><trkpt lat="46.346225" lon="9.960478"><time>2021-07-03T09:19:57.000Z</time><ele>2528.8</ele></trkpt><trkpt lat="46.346225" lon="9.960478"><time>2021-07-03T09:20:06.000Z</time><ele>2528.8</ele></trkpt><trkpt lat="46.346227" lon="9.960478"><time>2021-07-03T09:20:26.000Z</time><ele>2528.8</ele></trkpt><trkpt lat="46.346227" lon="9.960477"><time>2021-07-03T09:20:34.000Z</time><ele>2529.4</ele></trkpt><trkpt lat="46.346227" lon="9.960477"><time>2021-07-03T09:20:39.000Z</time><ele>2529</ele></trkpt><trkpt lat="46.346228" lon="9.960477"><time>2021-07-03T09:20:59.000Z</time><ele>2529.2</ele></trkpt><trkpt lat="46.346229" lon="9.960476"><time>2021-07-03T09:21:26.000Z</time><ele>2529.2</ele></trkpt><trkpt lat="46.346229" lon="9.960476"><time>2021-07-03T09:21:28.000Z</time><ele>2529.2</ele></trkpt><trkpt lat="46.346229" lon="9.960476"><time>2021-07-03T09:21:32.000Z</time><ele>2529.2</ele></trkpt><trkpt lat="46.346229" lon="9.960476"><time>2021-07-03T09:21:37.000Z</time><ele>2529.2</ele></trkpt><trkpt lat="46.346229" lon="9.960476"><time>2021-07-03T09:21:41.000Z</time><ele>2529.2</ele></trkpt><trkpt lat="46.346229" lon="9.960476"><time>2021-07-03T09:21:44.000Z</time><ele>2529.2</ele></trkpt><trkpt lat="46.346229" lon="9.960476"><time>2021-07-03T09:21:46.000Z</time><ele>2529.2</ele></trkpt><trkpt lat="46.34623" lon="9.960476"><time>2021-07-03T09:22:06.000Z</time><ele>2529.2</ele></trkpt><trkpt lat="46.34623" lon="9.960477"><time>2021-07-03T09:22:11.000Z</time><ele>2529.2</ele></trkpt><trkpt lat="46.34623" lon="9.960477"><time>2021-07-03T09:22:16.000Z</time><ele>2529.2</ele></trkpt><trkpt lat="46.34623" lon="9.960477"><time>2021-07-03T09:22:17.000Z</time><ele>2529.2</ele></trkpt><trkpt lat="46.34623" lon="9.960477"><time>2021-07-03T09:22:21.000Z</time><ele>2529.2</ele></trkpt><trkpt lat="46.34623" lon="9.960477"><time>2021-07-03T09:22:22.000Z</time><ele>2529.2</ele></trkpt><trkpt lat="46.34623" lon="9.960477"><time>2021-07-03T09:22:24.000Z</time><ele>2529.2</ele></trkpt><trkpt lat="46.34623" lon="9.960478"><time>2021-07-03T09:22:26.000Z</time><ele>2529.2</ele></trkpt><trkpt lat="46.34623" lon="9.960478"><time>2021-07-03T09:22:31.000Z</time><ele>2529.2</ele></trkpt><trkpt lat="46.34623" lon="9.960478"><time>2021-07-03T09:22:36.000Z</time><ele>2529.2</ele></trkpt><trkpt lat="46.34623" lon="9.960479"><time>2021-07-03T09:22:58.000Z</time><ele>2529.2</ele></trkpt><trkpt lat="46.34623" lon="9.960479"><time>2021-07-03T09:23:01.000Z</time><ele>2529.2</ele></trkpt><trkpt lat="46.34623" lon="9.960478"><time>2021-07-03T09:23:16.000Z</time><ele>2529.2</ele></trkpt><trkpt lat="46.34623" lon="9.960477"><time>2021-07-03T09:23:21.000Z</time><ele>2529.2</ele></trkpt><trkpt lat="46.34623" lon="9.960477"><time>2021-07-03T09:23:24.000Z</time><ele>2529.2</ele></trkpt><trkpt lat="46.346229" lon="9.960475"><time>2021-07-03T09:23:44.000Z</time><ele>2529.2</ele></trkpt><trkpt lat="46.346229" lon="9.960475"><time>2021-07-03T09:23:46.000Z</time><ele>2529.2</ele></trkpt><trkpt lat="46.346229" lon="9.960475"><time>2021-07-03T09:23:50.000Z</time><ele>2529.2</ele></trkpt><trkpt lat="46.346229" lon="9.960474"><time>2021-07-03T09:23:54.000Z</time><ele>2529.2</ele></trkpt><trkpt lat="46.346228" lon="9.960473"><time>2021-07-03T09:24:11.000Z</time><ele>2529.2</ele></trkpt><trkpt lat="46.346228" lon="9.960473"><time>2021-07-03T09:24:17.000Z</time><ele>2529.2</ele></trkpt><trkpt lat="46.346228" lon="9.960472"><time>2021-07-03T09:24:27.000Z</time><ele>2529.2</ele></trkpt><trkpt lat="46.346228" lon="9.960472"><time>2021-07-03T09:24:30.000Z</time><ele>2529.2</ele></trkpt><trkpt lat="46.346227" lon="9.960472"><time>2021-07-03T09:24:33.000Z</time><ele>2529.2</ele></trkpt><trkpt lat="46.346227" lon="9.960471"><time>2021-07-03T09:24:41.000Z</time><ele>2529.2</ele></trkpt><trkpt lat="46.346227" lon="9.96047"><time>2021-07-03T09:24:58.000Z</time><ele>2529.2</ele></trkpt><trkpt lat="46.346227" lon="9.960469"><time>2021-07-03T09:25:07.000Z</time><ele>2529.2</ele></trkpt><trkpt lat="46.346227" lon="9.960468"><time>2021-07-03T09:25:15.000Z</time><ele>2529.2</ele></trkpt><trkpt lat="46.346227" lon="9.960468"><time>2021-07-03T09:25:17.000Z</time><ele>2529.2</ele></trkpt><trkpt lat="46.346227" lon="9.960467"><time>2021-07-03T09:25:29.000Z</time><ele>2529.2</ele></trkpt><trkpt lat="46.346227" lon="9.960466"><time>2021-07-03T09:25:36.000Z</time><ele>2529.2</ele></trkpt><trkpt lat="46.346227" lon="9.960466"><time>2021-07-03T09:25:38.000Z</time><ele>2529.2</ele></trkpt><trkpt lat="46.346226" lon="9.960464"><time>2021-07-03T09:25:54.000Z</time><ele>2529.2</ele></trkpt><trkpt lat="46.346226" lon="9.960464"><time>2021-07-03T09:26:01.000Z</time><ele>2529.2</ele></trkpt><trkpt lat="46.346226" lon="9.960463"><time>2021-07-03T09:26:11.000Z</time><ele>2529.2</ele></trkpt><trkpt lat="46.346226" lon="9.960462"><time>2021-07-03T09:26:21.000Z</time><ele>2529.2</ele></trkpt><trkpt lat="46.346226" lon="9.960462"><time>2021-07-03T09:26:26.000Z</time><ele>2529.2</ele></trkpt><trkpt lat="46.346226" lon="9.96046"><time>2021-07-03T09:26:57.000Z</time><ele>2529.2</ele></trkpt><trkpt lat="46.346226" lon="9.96046"><time>2021-07-03T09:27:00.000Z</time><ele>2529.2</ele></trkpt><trkpt lat="46.346226" lon="9.96046"><time>2021-07-03T09:27:05.000Z</time><ele>2529.2</ele></trkpt><trkpt lat="46.346226" lon="9.96046"><time>2021-07-03T09:27:07.000Z</time><ele>2529.2</ele></trkpt><trkpt lat="46.346226" lon="9.96046"><time>2021-07-03T09:27:12.000Z</time><ele>2529.2</ele></trkpt><trkpt lat="46.346225" lon="9.960456"><time>2021-07-03T09:27:51.000Z</time><ele>2529.2</ele></trkpt><trkpt lat="46.346224" lon="9.960454"><time>2021-07-03T09:28:11.000Z</time><ele>2529.2</ele></trkpt><trkpt lat="46.346224" lon="9.960454"><time>2021-07-03T09:28:13.000Z</time><ele>2529.2</ele></trkpt><trkpt lat="46.346224" lon="9.960454"><time>2021-07-03T09:28:17.000Z</time><ele>2529.2</ele></trkpt><trkpt lat="46.346224" lon="9.960454"><time>2021-07-03T09:28:21.000Z</time><ele>2529.2</ele></trkpt><trkpt lat="46.346224" lon="9.960454"><time>2021-07-03T09:28:24.000Z</time><ele>2529.2</ele></trkpt><trkpt lat="46.346224" lon="9.960453"><time>2021-07-03T09:28:29.000Z</time><ele>2529.2</ele></trkpt><trkpt lat="46.346224" lon="9.960453"><time>2021-07-03T09:28:35.000Z</time><ele>2529.2</ele></trkpt><trkpt lat="46.346224" lon="9.960453"><time>2021-07-03T09:28:36.000Z</time><ele>2529.2</ele></trkpt><trkpt lat="46.346224" lon="9.960453"><time>2021-07-03T09:28:39.000Z</time><ele>2529.2</ele></trkpt><trkpt lat="46.346224" lon="9.960452"><time>2021-07-03T09:28:53.000Z</time><ele>2529.2</ele></trkpt><trkpt lat="46.346224" lon="9.960452"><time>2021-07-03T09:28:57.000Z</time><ele>2529.2</ele></trkpt><trkpt lat="46.346223" lon="9.960451"><time>2021-07-03T09:29:04.000Z</time><ele>2529.2</ele></trkpt><trkpt lat="46.346223" lon="9.960449"><time>2021-07-03T09:29:28.000Z</time><ele>2529.2</ele></trkpt><trkpt lat="46.346223" lon="9.960449"><time>2021-07-03T09:29:34.000Z</time><ele>2529.2</ele></trkpt><trkpt lat="46.346223" lon="9.960449"><time>2021-07-03T09:29:43.000Z</time><ele>2529.2</ele></trkpt><trkpt lat="46.346223" lon="9.960448"><time>2021-07-03T09:29:55.000Z</time><ele>2529.2</ele></trkpt><trkpt lat="46.346223" lon="9.960448"><time>2021-07-03T09:29:56.000Z</time><ele>2529.2</ele></trkpt><trkpt lat="46.346223" lon="9.960447"><time>2021-07-03T09:30:09.000Z</time><ele>2529.2</ele></trkpt><trkpt lat="46.346223" lon="9.960446"><time>2021-07-03T09:30:38.000Z</time><ele>2529.2</ele></trkpt><trkpt lat="46.346223" lon="9.960445"><time>2021-07-03T09:31:21.000Z</time><ele>2529.2</ele></trkpt><trkpt lat="46.346222" lon="9.960445"><time>2021-07-03T09:31:22.000Z</time><ele>2529.2</ele></trkpt><trkpt lat="46.346222" lon="9.960443"><time>2021-07-03T09:31:58.000Z</time><ele>2529.2</ele></trkpt><trkpt lat="46.346222" lon="9.960443"><time>2021-07-03T09:32:03.000Z</time><ele>2529.2</ele></trkpt><trkpt lat="46.346222" lon="9.960443"><time>2021-07-03T09:32:07.000Z</time><ele>2529.2</ele></trkpt><trkpt lat="46.346222" lon="9.960442"><time>2021-07-03T09:32:20.000Z</time><ele>2529.2</ele></trkpt><trkpt lat="46.346221" lon="9.960442"><time>2021-07-03T09:32:25.000Z</time><ele>2529.2</ele></trkpt><trkpt lat="46.346221" lon="9.960442"><time>2021-07-03T09:32:29.000Z</time><ele>2529.2</ele></trkpt><trkpt lat="46.346221" lon="9.960442"><time>2021-07-03T09:32:37.000Z</time><ele>2529.2</ele></trkpt><trkpt lat="46.346221" lon="9.960442"><time>2021-07-03T09:32:40.000Z</time><ele>2529.2</ele></trkpt><trkpt lat="46.346221" lon="9.960441"><time>2021-07-03T09:32:43.000Z</time><ele>2529.2</ele></trkpt><trkpt lat="46.346199" lon="9.960396"><time>2021-07-03T09:32:51.000Z</time><ele>2529.2</ele></trkpt><trkpt lat="46.34617" lon="9.960354"><time>2021-07-03T09:32:54.000Z</time><ele>2529.2</ele></trkpt><trkpt lat="46.346142" lon="9.960319"><time>2021-07-03T09:32:56.000Z</time><ele>2529.2</ele></trkpt><trkpt lat="46.346093" lon="9.960265"><time>2021-07-03T09:33:02.000Z</time><ele>2529.8</ele></trkpt><trkpt lat="46.346014" lon="9.960219"><time>2021-07-03T09:33:11.000Z</time><ele>2529.4</ele></trkpt><trkpt lat="46.345965" lon="9.960181"><time>2021-07-03T09:33:17.000Z</time><ele>2529.6</ele></trkpt><trkpt lat="46.345959" lon="9.960168"><time>2021-07-03T09:33:18.000Z</time><ele>2529.8</ele></trkpt><trkpt lat="46.345948" lon="9.960147"><time>2021-07-03T09:33:20.000Z</time><ele>2529.8</ele></trkpt><trkpt lat="46.345941" lon="9.960141"><time>2021-07-03T09:33:21.000Z</time><ele>2529.8</ele></trkpt><trkpt lat="46.345936" lon="9.960136"><time>2021-07-03T09:33:22.000Z</time><ele>2529.8</ele></trkpt><trkpt lat="46.345918" lon="9.960126"><time>2021-07-03T09:33:24.000Z</time><ele>2529.8</ele></trkpt><trkpt lat="46.345902" lon="9.960116"><time>2021-07-03T09:33:26.000Z</time><ele>2529.8</ele></trkpt><trkpt lat="46.345893" lon="9.960101"><time>2021-07-03T09:33:28.000Z</time><ele>2529.8</ele></trkpt><trkpt lat="46.34589" lon="9.960081"><time>2021-07-03T09:33:30.000Z</time><ele>2529.8</ele></trkpt><trkpt lat="46.345896" lon="9.960085"><time>2021-07-03T09:33:36.000Z</time><ele>2530</ele></trkpt><trkpt lat="46.34587" lon="9.960058"><time>2021-07-03T09:33:41.000Z</time><ele>2529.8</ele></trkpt><trkpt lat="46.345861" lon="9.960057"><time>2021-07-03T09:33:43.000Z</time><ele>2529.8</ele></trkpt><trkpt lat="46.34584" lon="9.960066"><time>2021-07-03T09:33:45.000Z</time><ele>2529.8</ele></trkpt><trkpt lat="46.345832" lon="9.960072"><time>2021-07-03T09:33:48.000Z</time><ele>2529.8</ele></trkpt><trkpt lat="46.345822" lon="9.960061"><time>2021-07-03T09:33:49.000Z</time><ele>2529.8</ele></trkpt><trkpt lat="46.345815" lon="9.960051"><time>2021-07-03T09:33:51.000Z</time><ele>2529.8</ele></trkpt><trkpt lat="46.345839" lon="9.960048"><time>2021-07-03T09:33:57.000Z</time><ele>2529.8</ele></trkpt><trkpt lat="46.345832" lon="9.960011"><time>2021-07-03T09:34:01.000Z</time><ele>2529.8</ele></trkpt><trkpt lat="46.345815" lon="9.95999"><time>2021-07-03T09:34:03.000Z</time><ele>2529.8</ele></trkpt><trkpt lat="46.34578" lon="9.95993"><time>2021-07-03T09:34:09.000Z</time><ele>2530</ele></trkpt><trkpt lat="46.345762" lon="9.959874"><time>2021-07-03T09:34:14.000Z</time><ele>2529.8</ele></trkpt><trkpt lat="46.345752" lon="9.959851"><time>2021-07-03T09:34:16.000Z</time><ele>2529.8</ele></trkpt><trkpt lat="46.345715" lon="9.959785"><time>2021-07-03T09:34:22.000Z</time><ele>2529.6</ele></trkpt><trkpt lat="46.345716" lon="9.959773"><time>2021-07-03T09:34:23.000Z</time><ele>2529.6</ele></trkpt><trkpt lat="46.345733" lon="9.959692"><time>2021-07-03T09:34:29.000Z</time><ele>2529.8</ele></trkpt><trkpt lat="46.345723" lon="9.959659"><time>2021-07-03T09:34:32.000Z</time><ele>2530</ele></trkpt><trkpt lat="46.345727" lon="9.959618"><time>2021-07-03T09:34:36.000Z</time><ele>2530</ele></trkpt><trkpt lat="46.345731" lon="9.959595"><time>2021-07-03T09:34:38.000Z</time><ele>2530.2</ele></trkpt><trkpt lat="46.345727" lon="9.959568"><time>2021-07-03T09:34:40.000Z</time><ele>2530.4</ele></trkpt><trkpt lat="46.345709" lon="9.959479"><time>2021-07-03T09:34:48.000Z</time><ele>2530</ele></trkpt><trkpt lat="46.345702" lon="9.959462"><time>2021-07-03T09:34:50.000Z</time><ele>2530</ele></trkpt><trkpt lat="46.345703" lon="9.95944"><time>2021-07-03T09:34:52.000Z</time><ele>2530.2</ele></trkpt><trkpt lat="46.345694" lon="9.959411"><time>2021-07-03T09:34:55.000Z</time><ele>2530.4</ele></trkpt><trkpt lat="46.345689" lon="9.959407"><time>2021-07-03T09:34:56.000Z</time><ele>2530.4</ele></trkpt><trkpt lat="46.345684" lon="9.959399"><time>2021-07-03T09:34:58.000Z</time><ele>2530.4</ele></trkpt><trkpt lat="46.345682" lon="9.959385"><time>2021-07-03T09:34:59.000Z</time><ele>2530.6</ele></trkpt><trkpt lat="46.345677" lon="9.959354"><time>2021-07-03T09:35:02.000Z</time><ele>2530.6</ele></trkpt><trkpt lat="46.345666" lon="9.959312"><time>2021-07-03T09:35:05.000Z</time><ele>2530.8</ele></trkpt><trkpt lat="46.34566" lon="9.959298"><time>2021-07-03T09:35:06.000Z</time><ele>2530.8</ele></trkpt><trkpt lat="46.345625" lon="9.959252"><time>2021-07-03T09:35:12.000Z</time><ele>2531</ele></trkpt><trkpt lat="46.345619" lon="9.959241"><time>2021-07-03T09:35:13.000Z</time><ele>2531</ele></trkpt><trkpt lat="46.345605" lon="9.959219"><time>2021-07-03T09:35:15.000Z</time><ele>2531</ele></trkpt><trkpt lat="46.345586" lon="9.9592"><time>2021-07-03T09:35:17.000Z</time><ele>2531.2</ele></trkpt><trkpt lat="46.345567" lon="9.959189"><time>2021-07-03T09:35:19.000Z</time><ele>2531.4</ele></trkpt><trkpt lat="46.34555" lon="9.959183"><time>2021-07-03T09:35:21.000Z</time><ele>2531.6</ele></trkpt><trkpt lat="46.345541" lon="9.959177"><time>2021-07-03T09:35:22.000Z</time><ele>2531.6</ele></trkpt><trkpt lat="46.34553" lon="9.959166"><time>2021-07-03T09:35:24.000Z</time><ele>2531.6</ele></trkpt><trkpt lat="46.345486" lon="9.959122"><time>2021-07-03T09:35:30.000Z</time><ele>2531.2</ele></trkpt><trkpt lat="46.345476" lon="9.959108"><time>2021-07-03T09:35:32.000Z</time><ele>2531.2</ele></trkpt><trkpt lat="46.345459" lon="9.959075"><time>2021-07-03T09:35:35.000Z</time><ele>2531.4</ele></trkpt><trkpt lat="46.345449" lon="9.959057"><time>2021-07-03T09:35:37.000Z</time><ele>2531.4</ele></trkpt><trkpt lat="46.345441" lon="9.959036"><time>2021-07-03T09:35:39.000Z</time><ele>2531</ele></trkpt><trkpt lat="46.3454" lon="9.95898"><time>2021-07-03T09:35:47.000Z</time><ele>2531.2</ele></trkpt><trkpt lat="46.345394" lon="9.958978"><time>2021-07-03T09:35:49.000Z</time><ele>2531.4</ele></trkpt><trkpt lat="46.34539" lon="9.958978"><time>2021-07-03T09:35:51.000Z</time><ele>2531.6</ele></trkpt><trkpt lat="46.345396" lon="9.95898"><time>2021-07-03T09:35:54.000Z</time><ele>2531.6</ele></trkpt><trkpt lat="46.345419" lon="9.958982"><time>2021-07-03T09:36:04.000Z</time><ele>2531.8</ele></trkpt><trkpt lat="46.345419" lon="9.958974"><time>2021-07-03T09:36:16.000Z</time><ele>2531.8</ele></trkpt><trkpt lat="46.345419" lon="9.958973"><time>2021-07-03T09:36:17.000Z</time><ele>2531.8</ele></trkpt><trkpt lat="46.345419" lon="9.958973"><time>2021-07-03T09:36:18.000Z</time><ele>2531.8</ele></trkpt><trkpt lat="46.345418" lon="9.958973"><time>2021-07-03T09:36:19.000Z</time><ele>2531.8</ele></trkpt><trkpt lat="46.345418" lon="9.958973"><time>2021-07-03T09:36:20.000Z</time><ele>2531.6</ele></trkpt><trkpt lat="46.345418" lon="9.958973"><time>2021-07-03T09:36:23.000Z</time><ele>2531.8</ele></trkpt><trkpt lat="46.345418" lon="9.958973"><time>2021-07-03T09:36:25.000Z</time><ele>2531.8</ele></trkpt><trkpt lat="46.345418" lon="9.958973"><time>2021-07-03T09:36:27.000Z</time><ele>2531.6</ele></trkpt><trkpt lat="46.345415" lon="9.958974"><time>2021-07-03T09:36:33.000Z</time><ele>2531.6</ele></trkpt><trkpt lat="46.34542" lon="9.958974"><time>2021-07-03T09:36:42.000Z</time><ele>2531.8</ele></trkpt><trkpt lat="46.345406" lon="9.958961"><time>2021-07-03T09:37:05.000Z</time><ele>2531.8</ele></trkpt><trkpt lat="46.345397" lon="9.958964"><time>2021-07-03T09:37:17.000Z</time><ele>2531.6</ele></trkpt><trkpt lat="46.345392" lon="9.958964"><time>2021-07-03T09:37:18.000Z</time><ele>2531.6</ele></trkpt><trkpt lat="46.345384" lon="9.958967"><time>2021-07-03T09:37:22.000Z</time><ele>2531.6</ele></trkpt><trkpt lat="46.345378" lon="9.95897"><time>2021-07-03T09:37:25.000Z</time><ele>2531.8</ele></trkpt><trkpt lat="46.345364" lon="9.958982"><time>2021-07-03T09:37:38.000Z</time><ele>2531.8</ele></trkpt><trkpt lat="46.345364" lon="9.958983"><time>2021-07-03T09:37:43.000Z</time><ele>2531.8</ele></trkpt><trkpt lat="46.345364" lon="9.958985"><time>2021-07-03T09:37:48.000Z</time><ele>2532</ele></trkpt><trkpt lat="46.345383" lon="9.958978"><time>2021-07-03T09:38:14.000Z</time><ele>2532</ele></trkpt><trkpt lat="46.345379" lon="9.958967"><time>2021-07-03T09:38:40.000Z</time><ele>2532</ele></trkpt><trkpt lat="46.345378" lon="9.958969"><time>2021-07-03T09:38:43.000Z</time><ele>2532</ele></trkpt><trkpt lat="46.345378" lon="9.958969"><time>2021-07-03T09:38:46.000Z</time><ele>2532</ele></trkpt><trkpt lat="46.345378" lon="9.95897"><time>2021-07-03T09:38:50.000Z</time><ele>2532</ele></trkpt><trkpt lat="46.345378" lon="9.95897"><time>2021-07-03T09:38:55.000Z</time><ele>2532</ele></trkpt><trkpt lat="46.345376" lon="9.958971"><time>2021-07-03T09:39:17.000Z</time><ele>2532</ele></trkpt><trkpt lat="46.345376" lon="9.958971"><time>2021-07-03T09:39:19.000Z</time><ele>2532</ele></trkpt><trkpt lat="46.345376" lon="9.958971"><time>2021-07-03T09:39:26.000Z</time><ele>2532</ele></trkpt><trkpt lat="46.345377" lon="9.958971"><time>2021-07-03T09:39:55.000Z</time><ele>2532</ele></trkpt><trkpt lat="46.345317" lon="9.958914"><time>2021-07-03T09:40:00.000Z</time><ele>2532</ele></trkpt><trkpt lat="46.345259" lon="9.958824"><time>2021-07-03T09:40:07.000Z</time><ele>2531.4</ele></trkpt><trkpt lat="46.34522" lon="9.958785"><time>2021-07-03T09:40:12.000Z</time><ele>2530.4</ele></trkpt><trkpt lat="46.34522" lon="9.958777"><time>2021-07-03T09:40:13.000Z</time><ele>2530.4</ele></trkpt><trkpt lat="46.34519" lon="9.95874"><time>2021-07-03T09:40:19.000Z</time><ele>2530.4</ele></trkpt><trkpt lat="46.345107" lon="9.958676"><time>2021-07-03T09:40:30.000Z</time><ele>2530.6</ele></trkpt><trkpt lat="46.345064" lon="9.958649"><time>2021-07-03T09:40:38.000Z</time><ele>2530</ele></trkpt><trkpt lat="46.345009" lon="9.95861"><time>2021-07-03T09:40:45.000Z</time><ele>2530</ele></trkpt><trkpt lat="46.344991" lon="9.958586"><time>2021-07-03T09:40:48.000Z</time><ele>2530.2</ele></trkpt><trkpt lat="46.344967" lon="9.958568"><time>2021-07-03T09:40:51.000Z</time><ele>2530.4</ele></trkpt><trkpt lat="46.344964" lon="9.958559"><time>2021-07-03T09:40:52.000Z</time><ele>2530.4</ele></trkpt><trkpt lat="46.344933" lon="9.958527"><time>2021-07-03T09:40:56.000Z</time><ele>2530.2</ele></trkpt><trkpt lat="46.344925" lon="9.958517"><time>2021-07-03T09:40:58.000Z</time><ele>2530.2</ele></trkpt><trkpt lat="46.344921" lon="9.958516"><time>2021-07-03T09:40:59.000Z</time><ele>2531.2</ele></trkpt><trkpt lat="46.344912" lon="9.958507"><time>2021-07-03T09:41:01.000Z</time><ele>2531.2</ele></trkpt><trkpt lat="46.344891" lon="9.958471"><time>2021-07-03T09:41:05.000Z</time><ele>2531.2</ele></trkpt><trkpt lat="46.344886" lon="9.958466"><time>2021-07-03T09:41:06.000Z</time><ele>2531.2</ele></trkpt><trkpt lat="46.344868" lon="9.958436"><time>2021-07-03T09:41:11.000Z</time><ele>2531.4</ele></trkpt><trkpt lat="46.344872" lon="9.958428"><time>2021-07-03T09:41:13.000Z</time><ele>2531.4</ele></trkpt><trkpt lat="46.344866" lon="9.958414"><time>2021-07-03T09:41:16.000Z</time><ele>2531.6</ele></trkpt><trkpt lat="46.344869" lon="9.958385"><time>2021-07-03T09:41:20.000Z</time><ele>2532.2</ele></trkpt><trkpt lat="46.344866" lon="9.958376"><time>2021-07-03T09:41:21.000Z</time><ele>2532.4</ele></trkpt><trkpt lat="46.344827" lon="9.958327"><time>2021-07-03T09:41:26.000Z</time><ele>2532.4</ele></trkpt><trkpt lat="46.344786" lon="9.958286"><time>2021-07-03T09:41:32.000Z</time><ele>2532.4</ele></trkpt><trkpt lat="46.344755" lon="9.95826"><time>2021-07-03T09:41:36.000Z</time><ele>2532.4</ele></trkpt><trkpt lat="46.344724" lon="9.958208"><time>2021-07-03T09:41:42.000Z</time><ele>2532.2</ele></trkpt><trkpt lat="46.344722" lon="9.958201"><time>2021-07-03T09:41:43.000Z</time><ele>2532.2</ele></trkpt><trkpt lat="46.344717" lon="9.958193"><time>2021-07-03T09:41:44.000Z</time><ele>2532.2</ele></trkpt><trkpt lat="46.34466" lon="9.958125"><time>2021-07-03T09:41:54.000Z</time><ele>2533.4</ele></trkpt><trkpt lat="46.34464" lon="9.95809"><time>2021-07-03T09:41:58.000Z</time><ele>2533.6</ele></trkpt><trkpt lat="46.344593" lon="9.958024"><time>2021-07-03T09:42:04.000Z</time><ele>2533.6</ele></trkpt><trkpt lat="46.344534" lon="9.957995"><time>2021-07-03T09:42:11.000Z</time><ele>2533.4</ele></trkpt><trkpt lat="46.344499" lon="9.957961"><time>2021-07-03T09:42:16.000Z</time><ele>2533.4</ele></trkpt><trkpt lat="46.344479" lon="9.95795"><time>2021-07-03T09:42:18.000Z</time><ele>2533.4</ele></trkpt><trkpt lat="46.344414" lon="9.957892"><time>2021-07-03T09:42:27.000Z</time><ele>2532.6</ele></trkpt><trkpt lat="46.34439" lon="9.95786"><time>2021-07-03T09:42:30.000Z</time><ele>2532.4</ele></trkpt><trkpt lat="46.34438" lon="9.957852"><time>2021-07-03T09:42:31.000Z</time><ele>2532.2</ele></trkpt><trkpt lat="46.344344" lon="9.957814"><time>2021-07-03T09:42:36.000Z</time><ele>2532</ele></trkpt><trkpt lat="46.344305" lon="9.957798"><time>2021-07-03T09:42:40.000Z</time><ele>2532.4</ele></trkpt><trkpt lat="46.344297" lon="9.957793"><time>2021-07-03T09:42:41.000Z</time><ele>2532.4</ele></trkpt><trkpt lat="46.344264" lon="9.957769"><time>2021-07-03T09:42:45.000Z</time><ele>2532.4</ele></trkpt><trkpt lat="46.344216" lon="9.957746"><time>2021-07-03T09:42:51.000Z</time><ele>2531.4</ele></trkpt><trkpt lat="46.34421" lon="9.957738"><time>2021-07-03T09:42:52.000Z</time><ele>2531.4</ele></trkpt><trkpt lat="46.344195" lon="9.957722"><time>2021-07-03T09:42:54.000Z</time><ele>2531.4</ele></trkpt><trkpt lat="46.344182" lon="9.957719"><time>2021-07-03T09:42:56.000Z</time><ele>2531.8</ele></trkpt><trkpt lat="46.344171" lon="9.957712"><time>2021-07-03T09:42:58.000Z</time><ele>2531.8</ele></trkpt><trkpt lat="46.344157" lon="9.957703"><time>2021-07-03T09:43:00.000Z</time><ele>2531.8</ele></trkpt><trkpt lat="46.344146" lon="9.957691"><time>2021-07-03T09:43:03.000Z</time><ele>2531.8</ele></trkpt><trkpt lat="46.344124" lon="9.957664"><time>2021-07-03T09:43:08.000Z</time><ele>2532</ele></trkpt><trkpt lat="46.344108" lon="9.957622"><time>2021-07-03T09:43:14.000Z</time><ele>2532.6</ele></trkpt><trkpt lat="46.34411" lon="9.957604"><time>2021-07-03T09:43:17.000Z</time><ele>2532.8</ele></trkpt><trkpt lat="46.344095" lon="9.957581"><time>2021-07-03T09:43:21.000Z</time><ele>2533.4</ele></trkpt><trkpt lat="46.344085" lon="9.957564"><time>2021-07-03T09:43:25.000Z</time><ele>2533.8</ele></trkpt><trkpt lat="46.344083" lon="9.957561"><time>2021-07-03T09:43:26.000Z</time><ele>2533.8</ele></trkpt><trkpt lat="46.344074" lon="9.957534"><time>2021-07-03T09:43:30.000Z</time><ele>2533.8</ele></trkpt><trkpt lat="46.344068" lon="9.957508"><time>2021-07-03T09:43:35.000Z</time><ele>2534.2</ele></trkpt><trkpt lat="46.344066" lon="9.957504"><time>2021-07-03T09:43:36.000Z</time><ele>2534.6</ele></trkpt><trkpt lat="46.344052" lon="9.957462"><time>2021-07-03T09:43:44.000Z</time><ele>2535.8</ele></trkpt><trkpt lat="46.344045" lon="9.95744"><time>2021-07-03T09:43:47.000Z</time><ele>2536</ele></trkpt><trkpt lat="46.344022" lon="9.957428"><time>2021-07-03T09:43:49.000Z</time><ele>2536</ele></trkpt><trkpt lat="46.344013" lon="9.957421"><time>2021-07-03T09:43:50.000Z</time><ele>2536</ele></trkpt><trkpt lat="46.344003" lon="9.957411"><time>2021-07-03T09:43:52.000Z</time><ele>2536</ele></trkpt><trkpt lat="46.344003" lon="9.957407"><time>2021-07-03T09:43:53.000Z</time><ele>2536</ele></trkpt><trkpt lat="46.344001" lon="9.957404"><time>2021-07-03T09:43:54.000Z</time><ele>2536</ele></trkpt><trkpt lat="46.343998" lon="9.957393"><time>2021-07-03T09:43:56.000Z</time><ele>2536.4</ele></trkpt><trkpt lat="46.343992" lon="9.957375"><time>2021-07-03T09:43:58.000Z</time><ele>2536.6</ele></trkpt><trkpt lat="46.34399" lon="9.95737"><time>2021-07-03T09:43:59.000Z</time><ele>2536.8</ele></trkpt><trkpt lat="46.343972" lon="9.957337"><time>2021-07-03T09:44:02.000Z</time><ele>2537</ele></trkpt><trkpt lat="46.343955" lon="9.957322"><time>2021-07-03T09:44:04.000Z</time><ele>2537</ele></trkpt><trkpt lat="46.34395" lon="9.957311"><time>2021-07-03T09:44:06.000Z</time><ele>2537.2</ele></trkpt><trkpt lat="46.343948" lon="9.957298"><time>2021-07-03T09:44:09.000Z</time><ele>2537.4</ele></trkpt><trkpt lat="46.343947" lon="9.957278"><time>2021-07-03T09:44:12.000Z</time><ele>2537.8</ele></trkpt><trkpt lat="46.343957" lon="9.957223"><time>2021-07-03T09:44:19.000Z</time><ele>2538.6</ele></trkpt><trkpt lat="46.343965" lon="9.957218"><time>2021-07-03T09:44:22.000Z</time><ele>2538.8</ele></trkpt><trkpt lat="46.343964" lon="9.957201"><time>2021-07-03T09:44:29.000Z</time><ele>2539.8</ele></trkpt><trkpt lat="46.343964" lon="9.957198"><time>2021-07-03T09:44:34.000Z</time><ele>2539.8</ele></trkpt><trkpt lat="46.343964" lon="9.957198"><time>2021-07-03T09:44:41.000Z</time><ele>2540.4</ele></trkpt><trkpt lat="46.343967" lon="9.957198"><time>2021-07-03T09:44:45.000Z</time><ele>2540.4</ele></trkpt><trkpt lat="46.343987" lon="9.9572"><time>2021-07-03T09:44:51.000Z</time><ele>2540.2</ele></trkpt><trkpt lat="46.344007" lon="9.957207"><time>2021-07-03T09:45:06.000Z</time><ele>2540.2</ele></trkpt><trkpt lat="46.344021" lon="9.957217"><time>2021-07-03T09:45:14.000Z</time><ele>2541</ele></trkpt><trkpt lat="46.344024" lon="9.957217"><time>2021-07-03T09:45:18.000Z</time><ele>2541.6</ele></trkpt><trkpt lat="46.344029" lon="9.957217"><time>2021-07-03T09:45:23.000Z</time><ele>2542</ele></trkpt><trkpt lat="46.34404" lon="9.957214"><time>2021-07-03T09:45:27.000Z</time><ele>2542.8</ele></trkpt><trkpt lat="46.344046" lon="9.957201"><time>2021-07-03T09:45:29.000Z</time><ele>2543</ele></trkpt><trkpt lat="46.344064" lon="9.957182"><time>2021-07-03T09:45:34.000Z</time><ele>2544</ele></trkpt><trkpt lat="46.344071" lon="9.957178"><time>2021-07-03T09:45:35.000Z</time><ele>2544.2</ele></trkpt><trkpt lat="46.344104" lon="9.957121"><time>2021-07-03T09:45:50.000Z</time><ele>2545.2</ele></trkpt><trkpt lat="46.344104" lon="9.957118"><time>2021-07-03T09:45:56.000Z</time><ele>2546.4</ele></trkpt><trkpt lat="46.344101" lon="9.957096"><time>2021-07-03T09:46:03.000Z</time><ele>2547.4</ele></trkpt><trkpt lat="46.344101" lon="9.957084"><time>2021-07-03T09:46:06.000Z</time><ele>2547.6</ele></trkpt><trkpt lat="46.344101" lon="9.957078"><time>2021-07-03T09:46:08.000Z</time><ele>2547.8</ele></trkpt><trkpt lat="46.344095" lon="9.957031"><time>2021-07-03T09:46:22.000Z</time><ele>2548.4</ele></trkpt><trkpt lat="46.344077" lon="9.957011"><time>2021-07-03T09:46:32.000Z</time><ele>2549.4</ele></trkpt><trkpt lat="46.344048" lon="9.956977"><time>2021-07-03T09:46:42.000Z</time><ele>2550.6</ele></trkpt><trkpt lat="46.344046" lon="9.95696"><time>2021-07-03T09:46:47.000Z</time><ele>2551.4</ele></trkpt><trkpt lat="46.344046" lon="9.956952"><time>2021-07-03T09:46:49.000Z</time><ele>2551.8</ele></trkpt><trkpt lat="46.344046" lon="9.956935"><time>2021-07-03T09:46:54.000Z</time><ele>2552.8</ele></trkpt><trkpt lat="46.344053" lon="9.956923"><time>2021-07-03T09:46:58.000Z</time><ele>2552.8</ele></trkpt><trkpt lat="46.344081" lon="9.956886"><time>2021-07-03T09:47:09.000Z</time><ele>2553</ele></trkpt><trkpt lat="46.344091" lon="9.956873"><time>2021-07-03T09:47:16.000Z</time><ele>2554</ele></trkpt><trkpt lat="46.3441" lon="9.956865"><time>2021-07-03T09:47:21.000Z</time><ele>2555</ele></trkpt><trkpt lat="46.344103" lon="9.956861"><time>2021-07-03T09:47:25.000Z</time><ele>2556</ele></trkpt><trkpt lat="46.344104" lon="9.95686"><time>2021-07-03T09:47:26.000Z</time><ele>2556.2</ele></trkpt><trkpt lat="46.344106" lon="9.956808"><time>2021-07-03T09:47:42.000Z</time><ele>2557.2</ele></trkpt><trkpt lat="46.344105" lon="9.956797"><time>2021-07-03T09:47:51.000Z</time><ele>2558.2</ele></trkpt><trkpt lat="46.344105" lon="9.956796"><time>2021-07-03T09:47:56.000Z</time><ele>2559.2</ele></trkpt><trkpt lat="46.344074" lon="9.956673"><time>2021-07-03T09:48:05.000Z</time><ele>2559.8</ele></trkpt><trkpt lat="46.344051" lon="9.956568"><time>2021-07-03T09:48:13.000Z</time><ele>2559.8</ele></trkpt><trkpt lat="46.344054" lon="9.956565"><time>2021-07-03T09:48:31.000Z</time><ele>2559.4</ele></trkpt><trkpt lat="46.344054" lon="9.956565"><time>2021-07-03T09:48:34.000Z</time><ele>2559.6</ele></trkpt><trkpt lat="46.34406" lon="9.956566"><time>2021-07-03T09:48:41.000Z</time><ele>2559.8</ele></trkpt><trkpt lat="46.344065" lon="9.956568"><time>2021-07-03T09:48:56.000Z</time><ele>2559.8</ele></trkpt><trkpt lat="46.344066" lon="9.956569"><time>2021-07-03T09:48:59.000Z</time><ele>2559.8</ele></trkpt><trkpt lat="46.344065" lon="9.95657"><time>2021-07-03T09:49:10.000Z</time><ele>2560</ele></trkpt><trkpt lat="46.344039" lon="9.956568"><time>2021-07-03T09:49:16.000Z</time><ele>2560</ele></trkpt><trkpt lat="46.343998" lon="9.956549"><time>2021-07-03T09:49:25.000Z</time><ele>2560.2</ele></trkpt><trkpt lat="46.343964" lon="9.956544"><time>2021-07-03T09:49:40.000Z</time><ele>2560.4</ele></trkpt><trkpt lat="46.343959" lon="9.95653"><time>2021-07-03T09:49:48.000Z</time><ele>2560.8</ele></trkpt><trkpt lat="46.343958" lon="9.956527"><time>2021-07-03T09:49:51.000Z</time><ele>2560.8</ele></trkpt><trkpt lat="46.343998" lon="9.956538"><time>2021-07-03T09:50:10.000Z</time><ele>2560.2</ele></trkpt><trkpt lat="46.344006" lon="9.956556"><time>2021-07-03T09:50:17.000Z</time><ele>2561.4</ele></trkpt><trkpt lat="46.344002" lon="9.956556"><time>2021-07-03T09:50:18.000Z</time><ele>2561.4</ele></trkpt><trkpt lat="46.343988" lon="9.956537"><time>2021-07-03T09:50:23.000Z</time><ele>2560.8</ele></trkpt><trkpt lat="46.343988" lon="9.956537"><time>2021-07-03T09:50:27.000Z</time><ele>2560.6</ele></trkpt><trkpt lat="46.343977" lon="9.956532"><time>2021-07-03T09:50:58.000Z</time><ele>2561</ele></trkpt><trkpt lat="46.343988" lon="9.956538"><time>2021-07-03T09:51:06.000Z</time><ele>2560.4</ele></trkpt><trkpt lat="46.343991" lon="9.956543"><time>2021-07-03T09:51:16.000Z</time><ele>2560.2</ele></trkpt><trkpt lat="46.343991" lon="9.956543"><time>2021-07-03T09:51:17.000Z</time><ele>2560</ele></trkpt><trkpt lat="46.343995" lon="9.95655"><time>2021-07-03T09:51:20.000Z</time><ele>2560</ele></trkpt><trkpt lat="46.343996" lon="9.956551"><time>2021-07-03T09:51:21.000Z</time><ele>2560</ele></trkpt><trkpt lat="46.343996" lon="9.956553"><time>2021-07-03T09:51:22.000Z</time><ele>2560</ele></trkpt><trkpt lat="46.343996" lon="9.956555"><time>2021-07-03T09:51:25.000Z</time><ele>2560</ele></trkpt><trkpt lat="46.344028" lon="9.956552"><time>2021-07-03T09:52:43.000Z</time><ele>2560.6</ele></trkpt><trkpt lat="46.344031" lon="9.956552"><time>2021-07-03T09:52:49.000Z</time><ele>2560.6</ele></trkpt><trkpt lat="46.344032" lon="9.956552"><time>2021-07-03T09:52:52.000Z</time><ele>2560.6</ele></trkpt><trkpt lat="46.344019" lon="9.956535"><time>2021-07-03T09:53:11.000Z</time><ele>2560.6</ele></trkpt><trkpt lat="46.344007" lon="9.956532"><time>2021-07-03T09:53:42.000Z</time><ele>2560.6</ele></trkpt><trkpt lat="46.344007" lon="9.956532"><time>2021-07-03T09:53:45.000Z</time><ele>2560.6</ele></trkpt><trkpt lat="46.344007" lon="9.956532"><time>2021-07-03T09:53:51.000Z</time><ele>2560.6</ele></trkpt><trkpt lat="46.344007" lon="9.956533"><time>2021-07-03T09:54:18.000Z</time><ele>2560.6</ele></trkpt><trkpt lat="46.344007" lon="9.956533"><time>2021-07-03T09:54:22.000Z</time><ele>2560.6</ele></trkpt><trkpt lat="46.344007" lon="9.956533"><time>2021-07-03T09:54:28.000Z</time><ele>2560.6</ele></trkpt><trkpt lat="46.344007" lon="9.956533"><time>2021-07-03T09:54:31.000Z</time><ele>2560.6</ele></trkpt><trkpt lat="46.344007" lon="9.956533"><time>2021-07-03T09:54:42.000Z</time><ele>2560.6</ele></trkpt><trkpt lat="46.344007" lon="9.956534"><time>2021-07-03T09:54:48.000Z</time><ele>2560.6</ele></trkpt><trkpt lat="46.344007" lon="9.956534"><time>2021-07-03T09:54:50.000Z</time><ele>2560.6</ele></trkpt><trkpt lat="46.344008" lon="9.956535"><time>2021-07-03T09:55:02.000Z</time><ele>2560.6</ele></trkpt><trkpt lat="46.344008" lon="9.956536"><time>2021-07-03T09:55:06.000Z</time><ele>2560.6</ele></trkpt><trkpt lat="46.344008" lon="9.956536"><time>2021-07-03T09:55:10.000Z</time><ele>2560.6</ele></trkpt><trkpt lat="46.344008" lon="9.956537"><time>2021-07-03T09:55:15.000Z</time><ele>2560.6</ele></trkpt><trkpt lat="46.344009" lon="9.956538"><time>2021-07-03T09:55:18.000Z</time><ele>2560.6</ele></trkpt><trkpt lat="46.344009" lon="9.956538"><time>2021-07-03T09:55:20.000Z</time><ele>2560.6</ele></trkpt><trkpt lat="46.344009" lon="9.95654"><time>2021-07-03T09:55:33.000Z</time><ele>2560.6</ele></trkpt><trkpt lat="46.34401" lon="9.956542"><time>2021-07-03T09:55:44.000Z</time><ele>2560.6</ele></trkpt><trkpt lat="46.34401" lon="9.956543"><time>2021-07-03T09:55:54.000Z</time><ele>2560.6</ele></trkpt><trkpt lat="46.344011" lon="9.956544"><time>2021-07-03T09:56:00.000Z</time><ele>2560.6</ele></trkpt><trkpt lat="46.344011" lon="9.956544"><time>2021-07-03T09:56:03.000Z</time><ele>2560.6</ele></trkpt><trkpt lat="46.344011" lon="9.956546"><time>2021-07-03T09:56:16.000Z</time><ele>2560.6</ele></trkpt><trkpt lat="46.344011" lon="9.956546"><time>2021-07-03T09:56:18.000Z</time><ele>2560.6</ele></trkpt><trkpt lat="46.344011" lon="9.956547"><time>2021-07-03T09:56:21.000Z</time><ele>2560.6</ele></trkpt><trkpt lat="46.344012" lon="9.956547"><time>2021-07-03T09:56:25.000Z</time><ele>2560.6</ele></trkpt><trkpt lat="46.344012" lon="9.956548"><time>2021-07-03T09:56:31.000Z</time><ele>2560.6</ele></trkpt><trkpt lat="46.344012" lon="9.956548"><time>2021-07-03T09:56:34.000Z</time><ele>2560.6</ele></trkpt><trkpt lat="46.344012" lon="9.956548"><time>2021-07-03T09:56:39.000Z</time><ele>2560.6</ele></trkpt><trkpt lat="46.344012" lon="9.956549"><time>2021-07-03T09:56:45.000Z</time><ele>2560.6</ele></trkpt><trkpt lat="46.344013" lon="9.956549"><time>2021-07-03T09:56:51.000Z</time><ele>2560.6</ele></trkpt><trkpt lat="46.344013" lon="9.956549"><time>2021-07-03T09:56:54.000Z</time><ele>2560.6</ele></trkpt><trkpt lat="46.344013" lon="9.956549"><time>2021-07-03T09:56:58.000Z</time><ele>2560.6</ele></trkpt><trkpt lat="46.344013" lon="9.95655"><time>2021-07-03T09:57:01.000Z</time><ele>2560.6</ele></trkpt><trkpt lat="46.344014" lon="9.956551"><time>2021-07-03T09:57:28.000Z</time><ele>2560.6</ele></trkpt><trkpt lat="46.344014" lon="9.956551"><time>2021-07-03T09:57:31.000Z</time><ele>2560.6</ele></trkpt><trkpt lat="46.344014" lon="9.956552"><time>2021-07-03T09:57:51.000Z</time><ele>2560.6</ele></trkpt><trkpt lat="46.344014" lon="9.956552"><time>2021-07-03T09:57:55.000Z</time><ele>2560.6</ele></trkpt><trkpt lat="46.344014" lon="9.956552"><time>2021-07-03T09:57:57.000Z</time><ele>2560.6</ele></trkpt><trkpt lat="46.344014" lon="9.956552"><time>2021-07-03T09:58:02.000Z</time><ele>2560.6</ele></trkpt><trkpt lat="46.344014" lon="9.956552"><time>2021-07-03T09:58:06.000Z</time><ele>2560.6</ele></trkpt><trkpt lat="46.344014" lon="9.956552"><time>2021-07-03T09:58:11.000Z</time><ele>2560.6</ele></trkpt><trkpt lat="46.344015" lon="9.956552"><time>2021-07-03T09:58:13.000Z</time><ele>2560.6</ele></trkpt><trkpt lat="46.344015" lon="9.956553"><time>2021-07-03T09:58:27.000Z</time><ele>2560.6</ele></trkpt><trkpt lat="46.344015" lon="9.956553"><time>2021-07-03T09:58:28.000Z</time><ele>2560.6</ele></trkpt><trkpt lat="46.344015" lon="9.956553"><time>2021-07-03T09:58:34.000Z</time><ele>2560.6</ele></trkpt><trkpt lat="46.344015" lon="9.956553"><time>2021-07-03T09:58:37.000Z</time><ele>2560.6</ele></trkpt><trkpt lat="46.344015" lon="9.956554"><time>2021-07-03T09:59:10.000Z</time><ele>2560.6</ele></trkpt><trkpt lat="46.344015" lon="9.956554"><time>2021-07-03T09:59:19.000Z</time><ele>2560.6</ele></trkpt><trkpt lat="46.344015" lon="9.956555"><time>2021-07-03T09:59:45.000Z</time><ele>2560.6</ele></trkpt><trkpt lat="46.344015" lon="9.956555"><time>2021-07-03T09:59:53.000Z</time><ele>2560.6</ele></trkpt><trkpt lat="46.344015" lon="9.956555"><time>2021-07-03T10:00:01.000Z</time><ele>2560.6</ele></trkpt><trkpt lat="46.344015" lon="9.956555"><time>2021-07-03T10:00:05.000Z</time><ele>2560.6</ele></trkpt><trkpt lat="46.344015" lon="9.956555"><time>2021-07-03T10:00:08.000Z</time><ele>2560.6</ele></trkpt><trkpt lat="46.344015" lon="9.956555"><time>2021-07-03T10:00:10.000Z</time><ele>2560.6</ele></trkpt><trkpt lat="46.344015" lon="9.956555"><time>2021-07-03T10:00:24.000Z</time><ele>2560.6</ele></trkpt><trkpt lat="46.344015" lon="9.956556"><time>2021-07-03T10:00:42.000Z</time><ele>2560.6</ele></trkpt><trkpt lat="46.344016" lon="9.956556"><time>2021-07-03T10:00:45.000Z</time><ele>2560.6</ele></trkpt><trkpt lat="46.344016" lon="9.956556"><time>2021-07-03T10:00:48.000Z</time><ele>2560.6</ele></trkpt><trkpt lat="46.344016" lon="9.956556"><time>2021-07-03T10:00:51.000Z</time><ele>2560.6</ele></trkpt><trkpt lat="46.344016" lon="9.956556"><time>2021-07-03T10:00:53.000Z</time><ele>2560.6</ele></trkpt><trkpt lat="46.344016" lon="9.956557"><time>2021-07-03T10:01:01.000Z</time><ele>2560.6</ele></trkpt><trkpt lat="46.344016" lon="9.956557"><time>2021-07-03T10:01:08.000Z</time><ele>2560.6</ele></trkpt><trkpt lat="46.344017" lon="9.956558"><time>2021-07-03T10:01:31.000Z</time><ele>2560.6</ele></trkpt><trkpt lat="46.344017" lon="9.956558"><time>2021-07-03T10:01:34.000Z</time><ele>2560.6</ele></trkpt><trkpt lat="46.344017" lon="9.956558"><time>2021-07-03T10:01:37.000Z</time><ele>2560.6</ele></trkpt><trkpt lat="46.344017" lon="9.956559"><time>2021-07-03T10:01:38.000Z</time><ele>2560.6</ele></trkpt><trkpt lat="46.344017" lon="9.956559"><time>2021-07-03T10:01:40.000Z</time><ele>2560.6</ele></trkpt><trkpt lat="46.344018" lon="9.956559"><time>2021-07-03T10:01:43.000Z</time><ele>2560.6</ele></trkpt><trkpt lat="46.344018" lon="9.95656"><time>2021-07-03T10:02:12.000Z</time><ele>2560.6</ele></trkpt><trkpt lat="46.344018" lon="9.95656"><time>2021-07-03T10:02:14.000Z</time><ele>2560.6</ele></trkpt><trkpt lat="46.344019" lon="9.95656"><time>2021-07-03T10:02:17.000Z</time><ele>2560.6</ele></trkpt><trkpt lat="46.344019" lon="9.95656"><time>2021-07-03T10:02:21.000Z</time><ele>2560.6</ele></trkpt><trkpt lat="46.344019" lon="9.95656"><time>2021-07-03T10:02:23.000Z</time><ele>2560.6</ele></trkpt><trkpt lat="46.343994" lon="9.956471"><time>2021-07-03T10:02:31.000Z</time><ele>2560.6</ele></trkpt><trkpt lat="46.343996" lon="9.956394"><time>2021-07-03T10:02:35.000Z</time><ele>2560.6</ele></trkpt><trkpt lat="46.344009" lon="9.956361"><time>2021-07-03T10:02:39.000Z</time><ele>2560.6</ele></trkpt><trkpt lat="46.344021" lon="9.956317"><time>2021-07-03T10:02:46.000Z</time><ele>2560.6</ele></trkpt><trkpt lat="46.34405" lon="9.956281"><time>2021-07-03T10:02:53.000Z</time><ele>2560.6</ele></trkpt><trkpt lat="46.344064" lon="9.9562"><time>2021-07-03T10:03:03.000Z</time><ele>2560.6</ele></trkpt><trkpt lat="46.344076" lon="9.956105"><time>2021-07-03T10:03:12.000Z</time><ele>2560.6</ele></trkpt><trkpt lat="46.344054" lon="9.956043"><time>2021-07-03T10:03:19.000Z</time><ele>2560.6</ele></trkpt><trkpt lat="46.344053" lon="9.956034"><time>2021-07-03T10:03:20.000Z</time><ele>2560.6</ele></trkpt><trkpt lat="46.344056" lon="9.956016"><time>2021-07-03T10:03:22.000Z</time><ele>2560.6</ele></trkpt><trkpt lat="46.344066" lon="9.95598"><time>2021-07-03T10:03:25.000Z</time><ele>2560.6</ele></trkpt><trkpt lat="46.344042" lon="9.955917"><time>2021-07-03T10:03:32.000Z</time><ele>2560.6</ele></trkpt><trkpt lat="46.34404" lon="9.955856"><time>2021-07-03T10:03:38.000Z</time><ele>2560.6</ele></trkpt><trkpt lat="46.344038" lon="9.955833"><time>2021-07-03T10:03:40.000Z</time><ele>2560.6</ele></trkpt><trkpt lat="46.344021" lon="9.955763"><time>2021-07-03T10:03:47.000Z</time><ele>2560.6</ele></trkpt><trkpt lat="46.344015" lon="9.955751"><time>2021-07-03T10:03:48.000Z</time><ele>2560.6</ele></trkpt><trkpt lat="46.34397" lon="9.955712"><time>2021-07-03T10:03:56.000Z</time><ele>2560.6</ele></trkpt><trkpt lat="46.34393" lon="9.955654"><time>2021-07-03T10:04:03.000Z</time><ele>2560.6</ele></trkpt><trkpt lat="46.343937" lon="9.955603"><time>2021-07-03T10:04:09.000Z</time><ele>2560.6</ele></trkpt><trkpt lat="46.343943" lon="9.955561"><time>2021-07-03T10:04:13.000Z</time><ele>2560.6</ele></trkpt><trkpt lat="46.343949" lon="9.955532"><time>2021-07-03T10:04:17.000Z</time><ele>2560.6</ele></trkpt><trkpt lat="46.343957" lon="9.955517"><time>2021-07-03T10:04:19.000Z</time><ele>2560.6</ele></trkpt><trkpt lat="46.343959" lon="9.955504"><time>2021-07-03T10:04:20.000Z</time><ele>2560.6</ele></trkpt><trkpt lat="46.343959" lon="9.955496"><time>2021-07-03T10:04:21.000Z</time><ele>2560.6</ele></trkpt><trkpt lat="46.34396" lon="9.955487"><time>2021-07-03T10:04:22.000Z</time><ele>2562.6</ele></trkpt><trkpt lat="46.343966" lon="9.955479"><time>2021-07-03T10:04:23.000Z</time><ele>2564</ele></trkpt><trkpt lat="46.343972" lon="9.955477"><time>2021-07-03T10:04:24.000Z</time><ele>2564.6</ele></trkpt><trkpt lat="46.343977" lon="9.955474"><time>2021-07-03T10:04:25.000Z</time><ele>2565</ele></trkpt><trkpt lat="46.343985" lon="9.955474"><time>2021-07-03T10:04:26.000Z</time><ele>2565.4</ele></trkpt><trkpt lat="46.344009" lon="9.955468"><time>2021-07-03T10:04:29.000Z</time><ele>2565.8</ele></trkpt><trkpt lat="46.344017" lon="9.95547"><time>2021-07-03T10:04:30.000Z</time><ele>2566</ele></trkpt><trkpt lat="46.344021" lon="9.95547"><time>2021-07-03T10:04:31.000Z</time><ele>2566</ele></trkpt><trkpt lat="46.344026" lon="9.955468"><time>2021-07-03T10:04:32.000Z</time><ele>2566.2</ele></trkpt><trkpt lat="46.34403" lon="9.955457"><time>2021-07-03T10:04:34.000Z</time><ele>2566.2</ele></trkpt><trkpt lat="46.344037" lon="9.955447"><time>2021-07-03T10:04:37.000Z</time><ele>2566.6</ele></trkpt><trkpt lat="46.344042" lon="9.955441"><time>2021-07-03T10:04:38.000Z</time><ele>2566.8</ele></trkpt><trkpt lat="46.34405" lon="9.955419"><time>2021-07-03T10:04:40.000Z</time><ele>2567.2</ele></trkpt><trkpt lat="46.344052" lon="9.95541"><time>2021-07-03T10:04:42.000Z</time><ele>2567.8</ele></trkpt><trkpt lat="46.344054" lon="9.955404"><time>2021-07-03T10:04:43.000Z</time><ele>2567.8</ele></trkpt><trkpt lat="46.344058" lon="9.9554"><time>2021-07-03T10:04:44.000Z</time><ele>2568</ele></trkpt><trkpt lat="46.344056" lon="9.955378"><time>2021-07-03T10:04:46.000Z</time><ele>2568.2</ele></trkpt><trkpt lat="46.344055" lon="9.955368"><time>2021-07-03T10:04:47.000Z</time><ele>2568.2</ele></trkpt><trkpt lat="46.344056" lon="9.955344"><time>2021-07-03T10:04:51.000Z</time><ele>2568.8</ele></trkpt><trkpt lat="46.344058" lon="9.955334"><time>2021-07-03T10:04:53.000Z</time><ele>2569</ele></trkpt><trkpt lat="46.344062" lon="9.955312"><time>2021-07-03T10:04:55.000Z</time><ele>2569.2</ele></trkpt><trkpt lat="46.344058" lon="9.955296"><time>2021-07-03T10:04:58.000Z</time><ele>2569.4</ele></trkpt><trkpt lat="46.344019" lon="9.955241"><time>2021-07-03T10:05:08.000Z</time><ele>2569.8</ele></trkpt><trkpt lat="46.344003" lon="9.955184"><time>2021-07-03T10:05:13.000Z</time><ele>2570.4</ele></trkpt><trkpt lat="46.343995" lon="9.955177"><time>2021-07-03T10:05:14.000Z</time><ele>2570.4</ele></trkpt><trkpt lat="46.343987" lon="9.955169"><time>2021-07-03T10:05:15.000Z</time><ele>2570.4</ele></trkpt><trkpt lat="46.343979" lon="9.95516"><time>2021-07-03T10:05:16.000Z</time><ele>2570.4</ele></trkpt><trkpt lat="46.343964" lon="9.955102"><time>2021-07-03T10:05:22.000Z</time><ele>2570.8</ele></trkpt><trkpt lat="46.343943" lon="9.955069"><time>2021-07-03T10:05:26.000Z</time><ele>2571.4</ele></trkpt><trkpt lat="46.343882" lon="9.954979"><time>2021-07-03T10:05:36.000Z</time><ele>2571.8</ele></trkpt><trkpt lat="46.343853" lon="9.954915"><time>2021-07-03T10:05:43.000Z</time><ele>2571.8</ele></trkpt><trkpt lat="46.34381" lon="9.954832"><time>2021-07-03T10:05:51.000Z</time><ele>2571.2</ele></trkpt><trkpt lat="46.34381" lon="9.954806"><time>2021-07-03T10:05:53.000Z</time><ele>2571.2</ele></trkpt><trkpt lat="46.343809" lon="9.954777"><time>2021-07-03T10:05:55.000Z</time><ele>2571</ele></trkpt><trkpt lat="46.343787" lon="9.954688"><time>2021-07-03T10:06:01.000Z</time><ele>2570.4</ele></trkpt><trkpt lat="46.343777" lon="9.954647"><time>2021-07-03T10:06:04.000Z</time><ele>2570.4</ele></trkpt><trkpt lat="46.343777" lon="9.954636"><time>2021-07-03T10:06:05.000Z</time><ele>2570.4</ele></trkpt><trkpt lat="46.343764" lon="9.954548"><time>2021-07-03T10:06:13.000Z</time><ele>2571</ele></trkpt><trkpt lat="46.343756" lon="9.954526"><time>2021-07-03T10:06:17.000Z</time><ele>2571.2</ele></trkpt><trkpt lat="46.343756" lon="9.954527"><time>2021-07-03T10:06:20.000Z</time><ele>2571.4</ele></trkpt><trkpt lat="46.343755" lon="9.954526"><time>2021-07-03T10:06:21.000Z</time><ele>2571.4</ele></trkpt><trkpt lat="46.343759" lon="9.954518"><time>2021-07-03T10:06:23.000Z</time><ele>2571.6</ele></trkpt><trkpt lat="46.343762" lon="9.954519"><time>2021-07-03T10:06:25.000Z</time><ele>2572</ele></trkpt><trkpt lat="46.343762" lon="9.954519"><time>2021-07-03T10:06:27.000Z</time><ele>2572.2</ele></trkpt><trkpt lat="46.343762" lon="9.954519"><time>2021-07-03T10:06:29.000Z</time><ele>2572</ele></trkpt><trkpt lat="46.343762" lon="9.954522"><time>2021-07-03T10:06:36.000Z</time><ele>2571.2</ele></trkpt><trkpt lat="46.343757" lon="9.954526"><time>2021-07-03T10:06:41.000Z</time><ele>2571</ele></trkpt><trkpt lat="46.343757" lon="9.954527"><time>2021-07-03T10:06:44.000Z</time><ele>2571</ele></trkpt><trkpt lat="46.343756" lon="9.954527"><time>2021-07-03T10:06:46.000Z</time><ele>2571</ele></trkpt><trkpt lat="46.343753" lon="9.954525"><time>2021-07-03T10:06:56.000Z</time><ele>2571.4</ele></trkpt><trkpt lat="46.34375" lon="9.954513"><time>2021-07-03T10:07:08.000Z</time><ele>2571.6</ele></trkpt><trkpt lat="46.34375" lon="9.954513"><time>2021-07-03T10:07:13.000Z</time><ele>2571.6</ele></trkpt><trkpt lat="46.343752" lon="9.954512"><time>2021-07-03T10:07:21.000Z</time><ele>2571.4</ele></trkpt><trkpt lat="46.343756" lon="9.954512"><time>2021-07-03T10:07:29.000Z</time><ele>2571</ele></trkpt><trkpt lat="46.343757" lon="9.954512"><time>2021-07-03T10:07:31.000Z</time><ele>2571</ele></trkpt><trkpt lat="46.343759" lon="9.954512"><time>2021-07-03T10:07:35.000Z</time><ele>2570.6</ele></trkpt><trkpt lat="46.343763" lon="9.954511"><time>2021-07-03T10:07:36.000Z</time><ele>2570.4</ele></trkpt><trkpt lat="46.343779" lon="9.954504"><time>2021-07-03T10:07:48.000Z</time><ele>2569.4</ele></trkpt><trkpt lat="46.343781" lon="9.954461"><time>2021-07-03T10:07:56.000Z</time><ele>2568.4</ele></trkpt><trkpt lat="46.343762" lon="9.954328"><time>2021-07-03T10:08:13.000Z</time><ele>2567.4</ele></trkpt><trkpt lat="46.343757" lon="9.954287"><time>2021-07-03T10:08:19.000Z</time><ele>2566.2</ele></trkpt><trkpt lat="46.343743" lon="9.954245"><time>2021-07-03T10:08:27.000Z</time><ele>2565</ele></trkpt><trkpt lat="46.343733" lon="9.954182"><time>2021-07-03T10:08:34.000Z</time><ele>2564</ele></trkpt><trkpt lat="46.343723" lon="9.954145"><time>2021-07-03T10:08:41.000Z</time><ele>2562.8</ele></trkpt><trkpt lat="46.343707" lon="9.954111"><time>2021-07-03T10:08:50.000Z</time><ele>2561.6</ele></trkpt><trkpt lat="46.343694" lon="9.954106"><time>2021-07-03T10:08:53.000Z</time><ele>2561.4</ele></trkpt><trkpt lat="46.343663" lon="9.954085"><time>2021-07-03T10:09:01.000Z</time><ele>2560.6</ele></trkpt><trkpt lat="46.343645" lon="9.954078"><time>2021-07-03T10:09:04.000Z</time><ele>2560.2</ele></trkpt><trkpt lat="46.343639" lon="9.954076"><time>2021-07-03T10:09:05.000Z</time><ele>2560.2</ele></trkpt><trkpt lat="46.343618" lon="9.954064"><time>2021-07-03T10:09:08.000Z</time><ele>2559.6</ele></trkpt><trkpt lat="46.343598" lon="9.954042"><time>2021-07-03T10:09:11.000Z</time><ele>2559.4</ele></trkpt><trkpt lat="46.343561" lon="9.953994"><time>2021-07-03T10:09:15.000Z</time><ele>2558.6</ele></trkpt><trkpt lat="46.343562" lon="9.953978"><time>2021-07-03T10:09:17.000Z</time><ele>2558.2</ele></trkpt><trkpt lat="46.343562" lon="9.953947"><time>2021-07-03T10:09:21.000Z</time><ele>2557.6</ele></trkpt><trkpt lat="46.343549" lon="9.953932"><time>2021-07-03T10:09:25.000Z</time><ele>2557.2</ele></trkpt><trkpt lat="46.343536" lon="9.953888"><time>2021-07-03T10:09:33.000Z</time><ele>2556.6</ele></trkpt><trkpt lat="46.343538" lon="9.953884"><time>2021-07-03T10:09:34.000Z</time><ele>2556.4</ele></trkpt><trkpt lat="46.343542" lon="9.953843"><time>2021-07-03T10:09:40.000Z</time><ele>2556.4</ele></trkpt><trkpt lat="46.343539" lon="9.953836"><time>2021-07-03T10:09:41.000Z</time><ele>2556.4</ele></trkpt><trkpt lat="46.343527" lon="9.953776"><time>2021-07-03T10:09:48.000Z</time><ele>2556.2</ele></trkpt><trkpt lat="46.343498" lon="9.953757"><time>2021-07-03T10:09:54.000Z</time><ele>2556.2</ele></trkpt><trkpt lat="46.343497" lon="9.953728"><time>2021-07-03T10:10:00.000Z</time><ele>2556</ele></trkpt><trkpt lat="46.343469" lon="9.953741"><time>2021-07-03T10:10:07.000Z</time><ele>2556</ele></trkpt><trkpt lat="46.343469" lon="9.953741"><time>2021-07-03T10:10:13.000Z</time><ele>2555.8</ele></trkpt><trkpt lat="46.343469" lon="9.953739"><time>2021-07-03T10:10:17.000Z</time><ele>2555.4</ele></trkpt><trkpt lat="46.343456" lon="9.953741"><time>2021-07-03T10:10:29.000Z</time><ele>2554.2</ele></trkpt><trkpt lat="46.343447" lon="9.953747"><time>2021-07-03T10:10:35.000Z</time><ele>2552.8</ele></trkpt><trkpt lat="46.343438" lon="9.953751"><time>2021-07-03T10:10:38.000Z</time><ele>2552.2</ele></trkpt><trkpt lat="46.343428" lon="9.953757"><time>2021-07-03T10:10:42.000Z</time><ele>2551.8</ele></trkpt><trkpt lat="46.343417" lon="9.953757"><time>2021-07-03T10:10:46.000Z</time><ele>2551</ele></trkpt><trkpt lat="46.343408" lon="9.953757"><time>2021-07-03T10:10:48.000Z</time><ele>2550.6</ele></trkpt><trkpt lat="46.343393" lon="9.953746"><time>2021-07-03T10:10:57.000Z</time><ele>2549.4</ele></trkpt><trkpt lat="46.343375" lon="9.953747"><time>2021-07-03T10:11:04.000Z</time><ele>2548.2</ele></trkpt><trkpt lat="46.343338" lon="9.953731"><time>2021-07-03T10:11:13.000Z</time><ele>2547.2</ele></trkpt><trkpt lat="46.343319" lon="9.953722"><time>2021-07-03T10:11:16.000Z</time><ele>2547</ele></trkpt><trkpt lat="46.3433" lon="9.953718"><time>2021-07-03T10:11:18.000Z</time><ele>2546.8</ele></trkpt><trkpt lat="46.343288" lon="9.953712"><time>2021-07-03T10:11:21.000Z</time><ele>2546</ele></trkpt><trkpt lat="46.343287" lon="9.953693"><time>2021-07-03T10:11:24.000Z</time><ele>2545.4</ele></trkpt><trkpt lat="46.343276" lon="9.953683"><time>2021-07-03T10:11:27.000Z</time><ele>2545</ele></trkpt><trkpt lat="46.343272" lon="9.95368"><time>2021-07-03T10:11:28.000Z</time><ele>2544.8</ele></trkpt><trkpt lat="46.343268" lon="9.953676"><time>2021-07-03T10:11:29.000Z</time><ele>2544.8</ele></trkpt><trkpt lat="46.343267" lon="9.953641"><time>2021-07-03T10:11:34.000Z</time><ele>2543.6</ele></trkpt><trkpt lat="46.343252" lon="9.953635"><time>2021-07-03T10:11:37.000Z</time><ele>2543</ele></trkpt><trkpt lat="46.343246" lon="9.953637"><time>2021-07-03T10:11:39.000Z</time><ele>2542.4</ele></trkpt><trkpt lat="46.343218" lon="9.953621"><time>2021-07-03T10:11:47.000Z</time><ele>2541.6</ele></trkpt><trkpt lat="46.343214" lon="9.953624"><time>2021-07-03T10:11:48.000Z</time><ele>2541.4</ele></trkpt><trkpt lat="46.343174" lon="9.95361"><time>2021-07-03T10:11:55.000Z</time><ele>2540.2</ele></trkpt><trkpt lat="46.343169" lon="9.953607"><time>2021-07-03T10:11:56.000Z</time><ele>2539.8</ele></trkpt><trkpt lat="46.343143" lon="9.953599"><time>2021-07-03T10:12:00.000Z</time><ele>2539.2</ele></trkpt><trkpt lat="46.343113" lon="9.953606"><time>2021-07-03T10:12:05.000Z</time><ele>2538.2</ele></trkpt><trkpt lat="46.343084" lon="9.953638"><time>2021-07-03T10:12:11.000Z</time><ele>2537.4</ele></trkpt><trkpt lat="46.343058" lon="9.953639"><time>2021-07-03T10:12:14.000Z</time><ele>2536.8</ele></trkpt><trkpt lat="46.343043" lon="9.953666"><time>2021-07-03T10:12:19.000Z</time><ele>2535.6</ele></trkpt><trkpt lat="46.343015" lon="9.953684"><time>2021-07-03T10:12:25.000Z</time><ele>2534.6</ele></trkpt><trkpt lat="46.342995" lon="9.953669"><time>2021-07-03T10:12:28.000Z</time><ele>2533.8</ele></trkpt><trkpt lat="46.34298" lon="9.953678"><time>2021-07-03T10:12:30.000Z</time><ele>2533.4</ele></trkpt><trkpt lat="46.342967" lon="9.95368"><time>2021-07-03T10:12:34.000Z</time><ele>2532.8</ele></trkpt><trkpt lat="46.342953" lon="9.953666"><time>2021-07-03T10:12:37.000Z</time><ele>2532.4</ele></trkpt><trkpt lat="46.342928" lon="9.953641"><time>2021-07-03T10:12:42.000Z</time><ele>2531.2</ele></trkpt><trkpt lat="46.34292" lon="9.953641"><time>2021-07-03T10:12:43.000Z</time><ele>2531</ele></trkpt><trkpt lat="46.3429" lon="9.953639"><time>2021-07-03T10:12:47.000Z</time><ele>2530.2</ele></trkpt><trkpt lat="46.342879" lon="9.953618"><time>2021-07-03T10:12:52.000Z</time><ele>2529.2</ele></trkpt><trkpt lat="46.342874" lon="9.953616"><time>2021-07-03T10:12:53.000Z</time><ele>2529</ele></trkpt><trkpt lat="46.342854" lon="9.953647"><time>2021-07-03T10:12:58.000Z</time><ele>2527.6</ele></trkpt><trkpt lat="46.34284" lon="9.953652"><time>2021-07-03T10:13:00.000Z</time><ele>2527.4</ele></trkpt><trkpt lat="46.342791" lon="9.953659"><time>2021-07-03T10:13:07.000Z</time><ele>2526.6</ele></trkpt><trkpt lat="46.342782" lon="9.95365"><time>2021-07-03T10:13:09.000Z</time><ele>2526</ele></trkpt><trkpt lat="46.342774" lon="9.953643"><time>2021-07-03T10:13:10.000Z</time><ele>2525.4</ele></trkpt><trkpt lat="46.342763" lon="9.953634"><time>2021-07-03T10:13:11.000Z</time><ele>2525.2</ele></trkpt><trkpt lat="46.342733" lon="9.953626"><time>2021-07-03T10:13:15.000Z</time><ele>2524.4</ele></trkpt><trkpt lat="46.342726" lon="9.953625"><time>2021-07-03T10:13:16.000Z</time><ele>2524.2</ele></trkpt><trkpt lat="46.342706" lon="9.953633"><time>2021-07-03T10:13:18.000Z</time><ele>2524</ele></trkpt><trkpt lat="46.342691" lon="9.953644"><time>2021-07-03T10:13:20.000Z</time><ele>2523.6</ele></trkpt><trkpt lat="46.342682" lon="9.953664"><time>2021-07-03T10:13:22.000Z</time><ele>2523.2</ele></trkpt><trkpt lat="46.342677" lon="9.953669"><time>2021-07-03T10:13:23.000Z</time><ele>2523</ele></trkpt><trkpt lat="46.342673" lon="9.953672"><time>2021-07-03T10:13:24.000Z</time><ele>2522.8</ele></trkpt><trkpt lat="46.342653" lon="9.953667"><time>2021-07-03T10:13:28.000Z</time><ele>2522</ele></trkpt><trkpt lat="46.34265" lon="9.953666"><time>2021-07-03T10:13:29.000Z</time><ele>2521.8</ele></trkpt><trkpt lat="46.342645" lon="9.953664"><time>2021-07-03T10:13:30.000Z</time><ele>2521.8</ele></trkpt><trkpt lat="46.34262" lon="9.953659"><time>2021-07-03T10:13:34.000Z</time><ele>2520.8</ele></trkpt><trkpt lat="46.342616" lon="9.953661"><time>2021-07-03T10:13:35.000Z</time><ele>2520.6</ele></trkpt><trkpt lat="46.342595" lon="9.95367"><time>2021-07-03T10:13:38.000Z</time><ele>2519.8</ele></trkpt><trkpt lat="46.34259" lon="9.953673"><time>2021-07-03T10:13:39.000Z</time><ele>2519.6</ele></trkpt><trkpt lat="46.342565" lon="9.953678"><time>2021-07-03T10:13:43.000Z</time><ele>2518.8</ele></trkpt><trkpt lat="46.342544" lon="9.953674"><time>2021-07-03T10:13:45.000Z</time><ele>2518.2</ele></trkpt><trkpt lat="46.342535" lon="9.953678"><time>2021-07-03T10:13:46.000Z</time><ele>2517.8</ele></trkpt><trkpt lat="46.342532" lon="9.953684"><time>2021-07-03T10:13:47.000Z</time><ele>2517.8</ele></trkpt><trkpt lat="46.342531" lon="9.953692"><time>2021-07-03T10:13:48.000Z</time><ele>2517.6</ele></trkpt><trkpt lat="46.342522" lon="9.953702"><time>2021-07-03T10:13:51.000Z</time><ele>2517.2</ele></trkpt><trkpt lat="46.342517" lon="9.953695"><time>2021-07-03T10:13:52.000Z</time><ele>2517</ele></trkpt><trkpt lat="46.342511" lon="9.953692"><time>2021-07-03T10:13:53.000Z</time><ele>2517</ele></trkpt><trkpt lat="46.342498" lon="9.953683"><time>2021-07-03T10:13:55.000Z</time><ele>2516.8</ele></trkpt><trkpt lat="46.342482" lon="9.953671"><time>2021-07-03T10:13:57.000Z</time><ele>2516.6</ele></trkpt><trkpt lat="46.342476" lon="9.953669"><time>2021-07-03T10:13:58.000Z</time><ele>2516.4</ele></trkpt><trkpt lat="46.342451" lon="9.95366"><time>2021-07-03T10:14:02.000Z</time><ele>2515.4</ele></trkpt><trkpt lat="46.342436" lon="9.953674"><time>2021-07-03T10:14:06.000Z</time><ele>2514.6</ele></trkpt><trkpt lat="46.342423" lon="9.953696"><time>2021-07-03T10:14:10.000Z</time><ele>2514.4</ele></trkpt><trkpt lat="46.342421" lon="9.953698"><time>2021-07-03T10:14:11.000Z</time><ele>2514.4</ele></trkpt><trkpt lat="46.342421" lon="9.953699"><time>2021-07-03T10:14:12.000Z</time><ele>2514.2</ele></trkpt><trkpt lat="46.342413" lon="9.953706"><time>2021-07-03T10:14:15.000Z</time><ele>2514.2</ele></trkpt><trkpt lat="46.342398" lon="9.953719"><time>2021-07-03T10:14:20.000Z</time><ele>2514</ele></trkpt><trkpt lat="46.342375" lon="9.95372"><time>2021-07-03T10:14:24.000Z</time><ele>2513</ele></trkpt><trkpt lat="46.342353" lon="9.953717"><time>2021-07-03T10:14:26.000Z</time><ele>2512.4</ele></trkpt><trkpt lat="46.342344" lon="9.953719"><time>2021-07-03T10:14:27.000Z</time><ele>2512.2</ele></trkpt><trkpt lat="46.342336" lon="9.953724"><time>2021-07-03T10:14:28.000Z</time><ele>2511.8</ele></trkpt><trkpt lat="46.342321" lon="9.953731"><time>2021-07-03T10:14:31.000Z</time><ele>2511</ele></trkpt><trkpt lat="46.342316" lon="9.953729"><time>2021-07-03T10:14:32.000Z</time><ele>2510.8</ele></trkpt><trkpt lat="46.342312" lon="9.953728"><time>2021-07-03T10:14:33.000Z</time><ele>2510.8</ele></trkpt><trkpt lat="46.342301" lon="9.95373"><time>2021-07-03T10:14:35.000Z</time><ele>2510.6</ele></trkpt><trkpt lat="46.342287" lon="9.953733"><time>2021-07-03T10:14:37.000Z</time><ele>2510.4</ele></trkpt><trkpt lat="46.342267" lon="9.953728"><time>2021-07-03T10:14:40.000Z</time><ele>2509.8</ele></trkpt><trkpt lat="46.342257" lon="9.953731"><time>2021-07-03T10:14:42.000Z</time><ele>2509.6</ele></trkpt><trkpt lat="46.342253" lon="9.953735"><time>2021-07-03T10:14:43.000Z</time><ele>2509.4</ele></trkpt><trkpt lat="46.342247" lon="9.953735"><time>2021-07-03T10:14:45.000Z</time><ele>2508.8</ele></trkpt><trkpt lat="46.342242" lon="9.953732"><time>2021-07-03T10:14:46.000Z</time><ele>2508.4</ele></trkpt><trkpt lat="46.342219" lon="9.953719"><time>2021-07-03T10:14:49.000Z</time><ele>2507.4</ele></trkpt><trkpt lat="46.342211" lon="9.953714"><time>2021-07-03T10:14:50.000Z</time><ele>2507.2</ele></trkpt><trkpt lat="46.34216" lon="9.953675"><time>2021-07-03T10:14:58.000Z</time><ele>2507</ele></trkpt><trkpt lat="46.342144" lon="9.953678"><time>2021-07-03T10:15:01.000Z</time><ele>2506.6</ele></trkpt><trkpt lat="46.342124" lon="9.953694"><time>2021-07-03T10:15:05.000Z</time><ele>2506.2</ele></trkpt><trkpt lat="46.342086" lon="9.953689"><time>2021-07-03T10:15:12.000Z</time><ele>2505</ele></trkpt><trkpt lat="46.342082" lon="9.953688"><time>2021-07-03T10:15:13.000Z</time><ele>2504.8</ele></trkpt><trkpt lat="46.342061" lon="9.953695"><time>2021-07-03T10:15:18.000Z</time><ele>2504</ele></trkpt><trkpt lat="46.342052" lon="9.953711"><time>2021-07-03T10:15:22.000Z</time><ele>2503.4</ele></trkpt><trkpt lat="46.342044" lon="9.953713"><time>2021-07-03T10:15:24.000Z</time><ele>2502.8</ele></trkpt><trkpt lat="46.342004" lon="9.953708"><time>2021-07-03T10:15:30.000Z</time><ele>2501.8</ele></trkpt><trkpt lat="46.341999" lon="9.953708"><time>2021-07-03T10:15:31.000Z</time><ele>2501.8</ele></trkpt><trkpt lat="46.341992" lon="9.95371"><time>2021-07-03T10:15:32.000Z</time><ele>2501.6</ele></trkpt><trkpt lat="46.341968" lon="9.953707"><time>2021-07-03T10:15:36.000Z</time><ele>2500.4</ele></trkpt><trkpt lat="46.341962" lon="9.953708"><time>2021-07-03T10:15:37.000Z</time><ele>2500.2</ele></trkpt><trkpt lat="46.341936" lon="9.9537"><time>2021-07-03T10:15:41.000Z</time><ele>2499.4</ele></trkpt><trkpt lat="46.34193" lon="9.953701"><time>2021-07-03T10:15:42.000Z</time><ele>2499.2</ele></trkpt><trkpt lat="46.341927" lon="9.953724"><time>2021-07-03T10:15:46.000Z</time><ele>2498.2</ele></trkpt><trkpt lat="46.341924" lon="9.953724"><time>2021-07-03T10:15:47.000Z</time><ele>2498.2</ele></trkpt><trkpt lat="46.341884" lon="9.953708"><time>2021-07-03T10:15:52.000Z</time><ele>2497.2</ele></trkpt><trkpt lat="46.341875" lon="9.9537"><time>2021-07-03T10:15:53.000Z</time><ele>2496.8</ele></trkpt><trkpt lat="46.341849" lon="9.953703"><time>2021-07-03T10:15:58.000Z</time><ele>2496.2</ele></trkpt><trkpt lat="46.341853" lon="9.953695"><time>2021-07-03T10:16:01.000Z</time><ele>2495.8</ele></trkpt><trkpt lat="46.341825" lon="9.953692"><time>2021-07-03T10:16:06.000Z</time><ele>2495</ele></trkpt><trkpt lat="46.341807" lon="9.953705"><time>2021-07-03T10:16:11.000Z</time><ele>2494</ele></trkpt><trkpt lat="46.341794" lon="9.953701"><time>2021-07-03T10:16:13.000Z</time><ele>2493.6</ele></trkpt><trkpt lat="46.341766" lon="9.953687"><time>2021-07-03T10:16:17.000Z</time><ele>2493</ele></trkpt><trkpt lat="46.341746" lon="9.953693"><time>2021-07-03T10:16:21.000Z</time><ele>2492</ele></trkpt><trkpt lat="46.341728" lon="9.953696"><time>2021-07-03T10:16:26.000Z</time><ele>2491</ele></trkpt><trkpt lat="46.341724" lon="9.953697"><time>2021-07-03T10:16:27.000Z</time><ele>2490.6</ele></trkpt><trkpt lat="46.341698" lon="9.953694"><time>2021-07-03T10:16:31.000Z</time><ele>2489.8</ele></trkpt><trkpt lat="46.341689" lon="9.953685"><time>2021-07-03T10:16:32.000Z</time><ele>2489.4</ele></trkpt><trkpt lat="46.341678" lon="9.953675"><time>2021-07-03T10:16:34.000Z</time><ele>2489</ele></trkpt><trkpt lat="46.34165" lon="9.953662"><time>2021-07-03T10:16:39.000Z</time><ele>2488.2</ele></trkpt><trkpt lat="46.341645" lon="9.953652"><time>2021-07-03T10:16:40.000Z</time><ele>2488</ele></trkpt><trkpt lat="46.341612" lon="9.953653"><time>2021-07-03T10:16:45.000Z</time><ele>2487</ele></trkpt><trkpt lat="46.341594" lon="9.953665"><time>2021-07-03T10:16:47.000Z</time><ele>2486.6</ele></trkpt><trkpt lat="46.341572" lon="9.953654"><time>2021-07-03T10:16:51.000Z</time><ele>2485.8</ele></trkpt><trkpt lat="46.341562" lon="9.953647"><time>2021-07-03T10:16:53.000Z</time><ele>2485.2</ele></trkpt><trkpt lat="46.341565" lon="9.95363"><time>2021-07-03T10:16:55.000Z</time><ele>2484.8</ele></trkpt><trkpt lat="46.341566" lon="9.953596"><time>2021-07-03T10:16:57.000Z</time><ele>2484.4</ele></trkpt><trkpt lat="46.341557" lon="9.953564"><time>2021-07-03T10:16:59.000Z</time><ele>2484</ele></trkpt><trkpt lat="46.34155" lon="9.95355"><time>2021-07-03T10:17:00.000Z</time><ele>2483.8</ele></trkpt><trkpt lat="46.341536" lon="9.953521"><time>2021-07-03T10:17:02.000Z</time><ele>2483.6</ele></trkpt><trkpt lat="46.341522" lon="9.953491"><time>2021-07-03T10:17:06.000Z</time><ele>2483.2</ele></trkpt><trkpt lat="46.34151" lon="9.953469"><time>2021-07-03T10:17:12.000Z</time><ele>2482.8</ele></trkpt><trkpt lat="46.341509" lon="9.953468"><time>2021-07-03T10:17:13.000Z</time><ele>2482.6</ele></trkpt><trkpt lat="46.341507" lon="9.953463"><time>2021-07-03T10:17:14.000Z</time><ele>2482.6</ele></trkpt><trkpt lat="46.341501" lon="9.953449"><time>2021-07-03T10:17:16.000Z</time><ele>2482.4</ele></trkpt><trkpt lat="46.341491" lon="9.953389"><time>2021-07-03T10:17:21.000Z</time><ele>2481.2</ele></trkpt><trkpt lat="46.341468" lon="9.953346"><time>2021-07-03T10:17:25.000Z</time><ele>2480.4</ele></trkpt><trkpt lat="46.34146" lon="9.953342"><time>2021-07-03T10:17:26.000Z</time><ele>2480.4</ele></trkpt><trkpt lat="46.341453" lon="9.953337"><time>2021-07-03T10:17:27.000Z</time><ele>2480.2</ele></trkpt><trkpt lat="46.341448" lon="9.953299"><time>2021-07-03T10:17:33.000Z</time><ele>2479.4</ele></trkpt><trkpt lat="46.341447" lon="9.953257"><time>2021-07-03T10:17:40.000Z</time><ele>2479.4</ele></trkpt><trkpt lat="46.341442" lon="9.953245"><time>2021-07-03T10:17:42.000Z</time><ele>2479.4</ele></trkpt><trkpt lat="46.34144" lon="9.953246"><time>2021-07-03T10:17:43.000Z</time><ele>2479.2</ele></trkpt><trkpt lat="46.341442" lon="9.953233"><time>2021-07-03T10:17:45.000Z</time><ele>2479.2</ele></trkpt><trkpt lat="46.341448" lon="9.953184"><time>2021-07-03T10:17:52.000Z</time><ele>2478.4</ele></trkpt><trkpt lat="46.341449" lon="9.953167"><time>2021-07-03T10:17:54.000Z</time><ele>2478.2</ele></trkpt><trkpt lat="46.341455" lon="9.953105"><time>2021-07-03T10:18:00.000Z</time><ele>2477.8</ele></trkpt><trkpt lat="46.341438" lon="9.953067"><time>2021-07-03T10:18:07.000Z</time><ele>2477.4</ele></trkpt><trkpt lat="46.341436" lon="9.953048"><time>2021-07-03T10:18:11.000Z</time><ele>2477</ele></trkpt><trkpt lat="46.341434" lon="9.953009"><time>2021-07-03T10:18:18.000Z</time><ele>2476.4</ele></trkpt><trkpt lat="46.341421" lon="9.952977"><time>2021-07-03T10:18:24.000Z</time><ele>2476</ele></trkpt><trkpt lat="46.341429" lon="9.952956"><time>2021-07-03T10:18:27.000Z</time><ele>2475.6</ele></trkpt><trkpt lat="46.341422" lon="9.952897"><time>2021-07-03T10:18:35.000Z</time><ele>2475.2</ele></trkpt><trkpt lat="46.341411" lon="9.95288"><time>2021-07-03T10:18:38.000Z</time><ele>2475</ele></trkpt><trkpt lat="46.341383" lon="9.952868"><time>2021-07-03T10:18:44.000Z</time><ele>2474.2</ele></trkpt><trkpt lat="46.341373" lon="9.952849"><time>2021-07-03T10:18:48.000Z</time><ele>2474</ele></trkpt><trkpt lat="46.341362" lon="9.95283"><time>2021-07-03T10:18:52.000Z</time><ele>2473.6</ele></trkpt><trkpt lat="46.341361" lon="9.95281"><time>2021-07-03T10:18:57.000Z</time><ele>2473.2</ele></trkpt><trkpt lat="46.341355" lon="9.952793"><time>2021-07-03T10:18:59.000Z</time><ele>2473</ele></trkpt><trkpt lat="46.341352" lon="9.95278"><time>2021-07-03T10:19:03.000Z</time><ele>2472.6</ele></trkpt><trkpt lat="46.341353" lon="9.952765"><time>2021-07-03T10:19:06.000Z</time><ele>2472.4</ele></trkpt><trkpt lat="46.341351" lon="9.952739"><time>2021-07-03T10:19:09.000Z</time><ele>2471.8</ele></trkpt><trkpt lat="46.341342" lon="9.952712"><time>2021-07-03T10:19:12.000Z</time><ele>2471.6</ele></trkpt><trkpt lat="46.341321" lon="9.952658"><time>2021-07-03T10:19:20.000Z</time><ele>2471.4</ele></trkpt><trkpt lat="46.341307" lon="9.952652"><time>2021-07-03T10:19:26.000Z</time><ele>2471.8</ele></trkpt><trkpt lat="46.341263" lon="9.952619"><time>2021-07-03T10:19:33.000Z</time><ele>2470.8</ele></trkpt><trkpt lat="46.341253" lon="9.952618"><time>2021-07-03T10:19:35.000Z</time><ele>2470.6</ele></trkpt><trkpt lat="46.341237" lon="9.952621"><time>2021-07-03T10:19:40.000Z</time><ele>2470.2</ele></trkpt><trkpt lat="46.341231" lon="9.95262"><time>2021-07-03T10:19:41.000Z</time><ele>2470.2</ele></trkpt><trkpt lat="46.341215" lon="9.952607"><time>2021-07-03T10:19:43.000Z</time><ele>2469.6</ele></trkpt><trkpt lat="46.341172" lon="9.952585"><time>2021-07-03T10:19:48.000Z</time><ele>2469.2</ele></trkpt><trkpt lat="46.341158" lon="9.952573"><time>2021-07-03T10:19:50.000Z</time><ele>2469.2</ele></trkpt><trkpt lat="46.341128" lon="9.952556"><time>2021-07-03T10:19:54.000Z</time><ele>2469.4</ele></trkpt><trkpt lat="46.34111" lon="9.952543"><time>2021-07-03T10:19:59.000Z</time><ele>2469.8</ele></trkpt><trkpt lat="46.34113" lon="9.95251"><time>2021-07-03T10:20:05.000Z</time><ele>2469.6</ele></trkpt><trkpt lat="46.341137" lon="9.952485"><time>2021-07-03T10:20:08.000Z</time><ele>2469.6</ele></trkpt><trkpt lat="46.34115" lon="9.952449"><time>2021-07-03T10:20:11.000Z</time><ele>2469.6</ele></trkpt><trkpt lat="46.341156" lon="9.952429"><time>2021-07-03T10:20:12.000Z</time><ele>2469.4</ele></trkpt><trkpt lat="46.341189" lon="9.952349"><time>2021-07-03T10:20:19.000Z</time><ele>2469.2</ele></trkpt><trkpt lat="46.341183" lon="9.952315"><time>2021-07-03T10:20:22.000Z</time><ele>2469.4</ele></trkpt><trkpt lat="46.341182" lon="9.952273"><time>2021-07-03T10:20:26.000Z</time><ele>2469.6</ele></trkpt><trkpt lat="46.341197" lon="9.952223"><time>2021-07-03T10:20:31.000Z</time><ele>2469.8</ele></trkpt><trkpt lat="46.341206" lon="9.952165"><time>2021-07-03T10:20:35.000Z</time><ele>2470.2</ele></trkpt><trkpt lat="46.341207" lon="9.952148"><time>2021-07-03T10:20:37.000Z</time><ele>2470.4</ele></trkpt><trkpt lat="46.341205" lon="9.952122"><time>2021-07-03T10:20:39.000Z</time><ele>2470.8</ele></trkpt><trkpt lat="46.341201" lon="9.952077"><time>2021-07-03T10:20:44.000Z</time><ele>2471.4</ele></trkpt><trkpt lat="46.341203" lon="9.951995"><time>2021-07-03T10:20:50.000Z</time><ele>2471.2</ele></trkpt><trkpt lat="46.341199" lon="9.951961"><time>2021-07-03T10:20:53.000Z</time><ele>2471.4</ele></trkpt><trkpt lat="46.341192" lon="9.95195"><time>2021-07-03T10:20:54.000Z</time><ele>2471.4</ele></trkpt><trkpt lat="46.341172" lon="9.951919"><time>2021-07-03T10:20:58.000Z</time><ele>2471.8</ele></trkpt><trkpt lat="46.341156" lon="9.951884"><time>2021-07-03T10:21:01.000Z</time><ele>2471.6</ele></trkpt><trkpt lat="46.34115" lon="9.951839"><time>2021-07-03T10:21:05.000Z</time><ele>2472</ele></trkpt><trkpt lat="46.341137" lon="9.951717"><time>2021-07-03T10:21:14.000Z</time><ele>2472.4</ele></trkpt><trkpt lat="46.341135" lon="9.951705"><time>2021-07-03T10:21:15.000Z</time><ele>2472.4</ele></trkpt><trkpt lat="46.341126" lon="9.951644"><time>2021-07-03T10:21:21.000Z</time><ele>2473</ele></trkpt><trkpt lat="46.341121" lon="9.951637"><time>2021-07-03T10:21:22.000Z</time><ele>2473</ele></trkpt><trkpt lat="46.341109" lon="9.95161"><time>2021-07-03T10:21:27.000Z</time><ele>2474</ele></trkpt><trkpt lat="46.341106" lon="9.9516"><time>2021-07-03T10:21:28.000Z</time><ele>2474.2</ele></trkpt><trkpt lat="46.341095" lon="9.951582"><time>2021-07-03T10:21:30.000Z</time><ele>2474.6</ele></trkpt><trkpt lat="46.341078" lon="9.951548"><time>2021-07-03T10:21:33.000Z</time><ele>2475.2</ele></trkpt><trkpt lat="46.341031" lon="9.95151"><time>2021-07-03T10:21:39.000Z</time><ele>2476</ele></trkpt><trkpt lat="46.34102" lon="9.951513"><time>2021-07-03T10:21:40.000Z</time><ele>2476.2</ele></trkpt><trkpt lat="46.340947" lon="9.951546"><time>2021-07-03T10:21:48.000Z</time><ele>2477</ele></trkpt><trkpt lat="46.340929" lon="9.951555"><time>2021-07-03T10:21:50.000Z</time><ele>2477.2</ele></trkpt><trkpt lat="46.340921" lon="9.951564"><time>2021-07-03T10:21:52.000Z</time><ele>2477.4</ele></trkpt><trkpt lat="46.340919" lon="9.951564"><time>2021-07-03T10:21:54.000Z</time><ele>2477.4</ele></trkpt><trkpt lat="46.340916" lon="9.951564"><time>2021-07-03T10:21:55.000Z</time><ele>2477.4</ele></trkpt><trkpt lat="46.340895" lon="9.951568"><time>2021-07-03T10:21:58.000Z</time><ele>2477.6</ele></trkpt><trkpt lat="46.340846" lon="9.951572"><time>2021-07-03T10:22:04.000Z</time><ele>2478.4</ele></trkpt><trkpt lat="46.34084" lon="9.951573"><time>2021-07-03T10:22:05.000Z</time><ele>2478.6</ele></trkpt><trkpt lat="46.340796" lon="9.951554"><time>2021-07-03T10:22:10.000Z</time><ele>2479.4</ele></trkpt><trkpt lat="46.340782" lon="9.951542"><time>2021-07-03T10:22:13.000Z</time><ele>2480.2</ele></trkpt><trkpt lat="46.340773" lon="9.951528"><time>2021-07-03T10:22:15.000Z</time><ele>2480.6</ele></trkpt><trkpt lat="46.340742" lon="9.951521"><time>2021-07-03T10:22:20.000Z</time><ele>2481.2</ele></trkpt><trkpt lat="46.340737" lon="9.951521"><time>2021-07-03T10:22:26.000Z</time><ele>2481.6</ele></trkpt><trkpt lat="46.340726" lon="9.951528"><time>2021-07-03T10:22:29.000Z</time><ele>2481.8</ele></trkpt><trkpt lat="46.340719" lon="9.951527"><time>2021-07-03T10:22:44.000Z</time><ele>2481.4</ele></trkpt><trkpt lat="46.340682" lon="9.951484"><time>2021-07-03T10:22:53.000Z</time><ele>2482.6</ele></trkpt><trkpt lat="46.340627" lon="9.951406"><time>2021-07-03T10:22:59.000Z</time><ele>2483.2</ele></trkpt><trkpt lat="46.340615" lon="9.951371"><time>2021-07-03T10:23:02.000Z</time><ele>2483.2</ele></trkpt><trkpt lat="46.340616" lon="9.951361"><time>2021-07-03T10:23:03.000Z</time><ele>2483.2</ele></trkpt><trkpt lat="46.340619" lon="9.951342"><time>2021-07-03T10:23:05.000Z</time><ele>2483.2</ele></trkpt><trkpt lat="46.340616" lon="9.951349"><time>2021-07-03T10:23:08.000Z</time><ele>2483.2</ele></trkpt><trkpt lat="46.340608" lon="9.951328"><time>2021-07-03T10:23:16.000Z</time><ele>2482.6</ele></trkpt><trkpt lat="46.340607" lon="9.951328"><time>2021-07-03T10:23:27.000Z</time><ele>2483.4</ele></trkpt><trkpt lat="46.340609" lon="9.95133"><time>2021-07-03T10:23:30.000Z</time><ele>2483.4</ele></trkpt><trkpt lat="46.340617" lon="9.95133"><time>2021-07-03T10:23:38.000Z</time><ele>2483.4</ele></trkpt><trkpt lat="46.340617" lon="9.951329"><time>2021-07-03T10:23:41.000Z</time><ele>2483.6</ele></trkpt><trkpt lat="46.340624" lon="9.951323"><time>2021-07-03T10:23:50.000Z</time><ele>2484</ele></trkpt><trkpt lat="46.340622" lon="9.951323"><time>2021-07-03T10:23:58.000Z</time><ele>2483.6</ele></trkpt><trkpt lat="46.34062" lon="9.951324"><time>2021-07-03T10:24:01.000Z</time><ele>2483.4</ele></trkpt><trkpt lat="46.34062" lon="9.951324"><time>2021-07-03T10:24:03.000Z</time><ele>2483.2</ele></trkpt><trkpt lat="46.34062" lon="9.951329"><time>2021-07-03T10:24:06.000Z</time><ele>2483.2</ele></trkpt><trkpt lat="46.340617" lon="9.951325"><time>2021-07-03T10:24:33.000Z</time><ele>2483</ele></trkpt><trkpt lat="46.340617" lon="9.951325"><time>2021-07-03T10:24:35.000Z</time><ele>2483</ele></trkpt><trkpt lat="46.340623" lon="9.951323"><time>2021-07-03T10:24:44.000Z</time><ele>2483.6</ele></trkpt><trkpt lat="46.340625" lon="9.951323"><time>2021-07-03T10:24:46.000Z</time><ele>2483.6</ele></trkpt><trkpt lat="46.340626" lon="9.951322"><time>2021-07-03T10:24:47.000Z</time><ele>2483.6</ele></trkpt><trkpt lat="46.340627" lon="9.951319"><time>2021-07-03T10:24:49.000Z</time><ele>2483.6</ele></trkpt><trkpt lat="46.340628" lon="9.951316"><time>2021-07-03T10:24:51.000Z</time><ele>2483.6</ele></trkpt><trkpt lat="46.340643" lon="9.951307"><time>2021-07-03T10:25:07.000Z</time><ele>2483.6</ele></trkpt><trkpt lat="46.340645" lon="9.951308"><time>2021-07-03T10:25:13.000Z</time><ele>2483.6</ele></trkpt><trkpt lat="46.340646" lon="9.951315"><time>2021-07-03T10:25:19.000Z</time><ele>2483.6</ele></trkpt><trkpt lat="46.34066" lon="9.951326"><time>2021-07-03T10:25:30.000Z</time><ele>2483.6</ele></trkpt><trkpt lat="46.34066" lon="9.951326"><time>2021-07-03T10:25:34.000Z</time><ele>2483.6</ele></trkpt><trkpt lat="46.34066" lon="9.951326"><time>2021-07-03T10:25:37.000Z</time><ele>2483.6</ele></trkpt><trkpt lat="46.340658" lon="9.951325"><time>2021-07-03T10:25:46.000Z</time><ele>2483.6</ele></trkpt><trkpt lat="46.340658" lon="9.951324"><time>2021-07-03T10:25:48.000Z</time><ele>2483.6</ele></trkpt><trkpt lat="46.340632" lon="9.951322"><time>2021-07-03T10:26:16.000Z</time><ele>2483.6</ele></trkpt><trkpt lat="46.34063" lon="9.951323"><time>2021-07-03T10:26:22.000Z</time><ele>2483.6</ele></trkpt><trkpt lat="46.340629" lon="9.951323"><time>2021-07-03T10:26:26.000Z</time><ele>2483.6</ele></trkpt><trkpt lat="46.340628" lon="9.951324"><time>2021-07-03T10:26:32.000Z</time><ele>2483.6</ele></trkpt><trkpt lat="46.340627" lon="9.951324"><time>2021-07-03T10:26:33.000Z</time><ele>2483.6</ele></trkpt><trkpt lat="46.340615" lon="9.951252"><time>2021-07-03T10:26:40.000Z</time><ele>2483.6</ele></trkpt><trkpt lat="46.340604" lon="9.951213"><time>2021-07-03T10:26:42.000Z</time><ele>2483.6</ele></trkpt><trkpt lat="46.340604" lon="9.951102"><time>2021-07-03T10:26:48.000Z</time><ele>2482.2</ele></trkpt><trkpt lat="46.340601" lon="9.951085"><time>2021-07-03T10:26:50.000Z</time><ele>2481</ele></trkpt><trkpt lat="46.340585" lon="9.951038"><time>2021-07-03T10:26:55.000Z</time><ele>2479.6</ele></trkpt><trkpt lat="46.340561" lon="9.951008"><time>2021-07-03T10:26:58.000Z</time><ele>2479</ele></trkpt><trkpt lat="46.34055" lon="9.951003"><time>2021-07-03T10:26:59.000Z</time><ele>2478.8</ele></trkpt><trkpt lat="46.340539" lon="9.951"><time>2021-07-03T10:27:00.000Z</time><ele>2478.4</ele></trkpt><trkpt lat="46.34053" lon="9.951001"><time>2021-07-03T10:27:01.000Z</time><ele>2478.2</ele></trkpt><trkpt lat="46.340489" lon="9.950987"><time>2021-07-03T10:27:06.000Z</time><ele>2477.6</ele></trkpt><trkpt lat="46.340473" lon="9.950983"><time>2021-07-03T10:27:08.000Z</time><ele>2477.4</ele></trkpt><trkpt lat="46.340449" lon="9.950975"><time>2021-07-03T10:27:10.000Z</time><ele>2477.2</ele></trkpt><trkpt lat="46.340412" lon="9.95096"><time>2021-07-03T10:27:14.000Z</time><ele>2477</ele></trkpt><trkpt lat="46.340407" lon="9.950965"><time>2021-07-03T10:27:15.000Z</time><ele>2477</ele></trkpt><trkpt lat="46.340317" lon="9.950995"><time>2021-07-03T10:27:23.000Z</time><ele>2476.4</ele></trkpt><trkpt lat="46.340308" lon="9.950996"><time>2021-07-03T10:27:24.000Z</time><ele>2476.2</ele></trkpt><trkpt lat="46.340291" lon="9.950999"><time>2021-07-03T10:27:28.000Z</time><ele>2475.8</ele></trkpt><trkpt lat="46.340289" lon="9.950984"><time>2021-07-03T10:27:30.000Z</time><ele>2475.6</ele></trkpt><trkpt lat="46.340289" lon="9.950967"><time>2021-07-03T10:27:32.000Z</time><ele>2474.8</ele></trkpt><trkpt lat="46.340299" lon="9.950945"><time>2021-07-03T10:27:37.000Z</time><ele>2474.2</ele></trkpt><trkpt lat="46.340288" lon="9.950933"><time>2021-07-03T10:27:42.000Z</time><ele>2473.8</ele></trkpt><trkpt lat="46.340288" lon="9.950933"><time>2021-07-03T10:27:45.000Z</time><ele>2473.8</ele></trkpt><trkpt lat="46.340288" lon="9.950936"><time>2021-07-03T10:27:49.000Z</time><ele>2473.6</ele></trkpt><trkpt lat="46.340294" lon="9.950864"><time>2021-07-03T10:28:05.000Z</time><ele>2473.4</ele></trkpt><trkpt lat="46.340285" lon="9.950761"><time>2021-07-03T10:28:14.000Z</time><ele>2473.8</ele></trkpt><trkpt lat="46.340289" lon="9.950734"><time>2021-07-03T10:28:17.000Z</time><ele>2473.8</ele></trkpt><trkpt lat="46.340299" lon="9.950711"><time>2021-07-03T10:28:19.000Z</time><ele>2473.6</ele></trkpt><trkpt lat="46.340311" lon="9.950693"><time>2021-07-03T10:28:21.000Z</time><ele>2473.4</ele></trkpt><trkpt lat="46.340317" lon="9.950684"><time>2021-07-03T10:28:22.000Z</time><ele>2473.4</ele></trkpt><trkpt lat="46.340331" lon="9.95067"><time>2021-07-03T10:28:24.000Z</time><ele>2473.4</ele></trkpt><trkpt lat="46.340349" lon="9.950657"><time>2021-07-03T10:28:26.000Z</time><ele>2473.4</ele></trkpt><trkpt lat="46.340367" lon="9.950645"><time>2021-07-03T10:28:28.000Z</time><ele>2473.4</ele></trkpt><trkpt lat="46.340399" lon="9.950624"><time>2021-07-03T10:28:32.000Z</time><ele>2473.4</ele></trkpt><trkpt lat="46.340454" lon="9.950584"><time>2021-07-03T10:28:40.000Z</time><ele>2473.4</ele></trkpt><trkpt lat="46.340481" lon="9.95055"><time>2021-07-03T10:28:44.000Z</time><ele>2473</ele></trkpt><trkpt lat="46.340482" lon="9.950545"><time>2021-07-03T10:28:45.000Z</time><ele>2472.6</ele></trkpt><trkpt lat="46.340482" lon="9.95053"><time>2021-07-03T10:28:47.000Z</time><ele>2472</ele></trkpt><trkpt lat="46.340477" lon="9.950496"><time>2021-07-03T10:28:50.000Z</time><ele>2471.4</ele></trkpt><trkpt lat="46.340467" lon="9.950484"><time>2021-07-03T10:28:53.000Z</time><ele>2471</ele></trkpt><trkpt lat="46.340435" lon="9.950475"><time>2021-07-03T10:28:57.000Z</time><ele>2470.4</ele></trkpt><trkpt lat="46.340411" lon="9.950419"><time>2021-07-03T10:29:01.000Z</time><ele>2470</ele></trkpt><trkpt lat="46.340372" lon="9.950346"><time>2021-07-03T10:29:08.000Z</time><ele>2469.4</ele></trkpt><trkpt lat="46.340303" lon="9.950257"><time>2021-07-03T10:29:18.000Z</time><ele>2469.4</ele></trkpt><trkpt lat="46.340296" lon="9.950245"><time>2021-07-03T10:29:19.000Z</time><ele>2469.4</ele></trkpt><trkpt lat="46.34028" lon="9.95023"><time>2021-07-03T10:29:21.000Z</time><ele>2469.4</ele></trkpt><trkpt lat="46.340268" lon="9.95022"><time>2021-07-03T10:29:23.000Z</time><ele>2469.6</ele></trkpt><trkpt lat="46.340263" lon="9.950218"><time>2021-07-03T10:29:24.000Z</time><ele>2469.6</ele></trkpt><trkpt lat="46.340257" lon="9.950216"><time>2021-07-03T10:29:25.000Z</time><ele>2470</ele></trkpt><trkpt lat="46.340248" lon="9.950215"><time>2021-07-03T10:29:26.000Z</time><ele>2470.2</ele></trkpt><trkpt lat="46.340187" lon="9.950209"><time>2021-07-03T10:29:33.000Z</time><ele>2470.2</ele></trkpt><trkpt lat="46.34018" lon="9.950196"><time>2021-07-03T10:29:35.000Z</time><ele>2470.2</ele></trkpt><trkpt lat="46.340157" lon="9.950147"><time>2021-07-03T10:29:39.000Z</time><ele>2469.8</ele></trkpt><trkpt lat="46.340136" lon="9.95013"><time>2021-07-03T10:29:42.000Z</time><ele>2470</ele></trkpt><trkpt lat="46.340121" lon="9.950113"><time>2021-07-03T10:29:44.000Z</time><ele>2470.4</ele></trkpt><trkpt lat="46.340092" lon="9.950091"><time>2021-07-03T10:29:47.000Z</time><ele>2470.6</ele></trkpt><trkpt lat="46.340083" lon="9.950083"><time>2021-07-03T10:29:48.000Z</time><ele>2470.6</ele></trkpt><trkpt lat="46.340054" lon="9.950069"><time>2021-07-03T10:29:51.000Z</time><ele>2470.8</ele></trkpt><trkpt lat="46.340009" lon="9.950072"><time>2021-07-03T10:29:56.000Z</time><ele>2471.2</ele></trkpt><trkpt lat="46.339993" lon="9.950071"><time>2021-07-03T10:29:58.000Z</time><ele>2471.4</ele></trkpt><trkpt lat="46.339958" lon="9.950057"><time>2021-07-03T10:30:03.000Z</time><ele>2471.6</ele></trkpt><trkpt lat="46.339933" lon="9.950057"><time>2021-07-03T10:30:06.000Z</time><ele>2471.6</ele></trkpt><trkpt lat="46.3399" lon="9.950042"><time>2021-07-03T10:30:12.000Z</time><ele>2470.4</ele></trkpt><trkpt lat="46.339874" lon="9.950014"><time>2021-07-03T10:30:16.000Z</time><ele>2470</ele></trkpt><trkpt lat="46.339867" lon="9.949991"><time>2021-07-03T10:30:18.000Z</time><ele>2469.8</ele></trkpt><trkpt lat="46.339852" lon="9.949943"><time>2021-07-03T10:30:23.000Z</time><ele>2469.4</ele></trkpt><trkpt lat="46.339798" lon="9.949872"><time>2021-07-03T10:30:31.000Z</time><ele>2470</ele></trkpt><trkpt lat="46.339788" lon="9.949865"><time>2021-07-03T10:30:32.000Z</time><ele>2470</ele></trkpt><trkpt lat="46.339762" lon="9.949835"><time>2021-07-03T10:30:36.000Z</time><ele>2470</ele></trkpt><trkpt lat="46.33975" lon="9.949793"><time>2021-07-03T10:30:40.000Z</time><ele>2469.8</ele></trkpt><trkpt lat="46.339741" lon="9.949746"><time>2021-07-03T10:30:45.000Z</time><ele>2470</ele></trkpt><trkpt lat="46.339742" lon="9.949739"><time>2021-07-03T10:30:46.000Z</time><ele>2470</ele></trkpt><trkpt lat="46.339729" lon="9.949651"><time>2021-07-03T10:30:55.000Z</time><ele>2470.6</ele></trkpt><trkpt lat="46.339694" lon="9.949597"><time>2021-07-03T10:31:02.000Z</time><ele>2471.2</ele></trkpt><trkpt lat="46.339677" lon="9.94959"><time>2021-07-03T10:31:04.000Z</time><ele>2471.4</ele></trkpt><trkpt lat="46.339671" lon="9.949582"><time>2021-07-03T10:31:05.000Z</time><ele>2471.6</ele></trkpt><trkpt lat="46.339637" lon="9.949575"><time>2021-07-03T10:31:11.000Z</time><ele>2472.4</ele></trkpt><trkpt lat="46.339632" lon="9.949581"><time>2021-07-03T10:31:12.000Z</time><ele>2472.6</ele></trkpt><trkpt lat="46.339624" lon="9.949583"><time>2021-07-03T10:31:13.000Z</time><ele>2472.8</ele></trkpt><trkpt lat="46.339612" lon="9.949579"><time>2021-07-03T10:31:16.000Z</time><ele>2473.2</ele></trkpt><trkpt lat="46.339621" lon="9.949552"><time>2021-07-03T10:31:20.000Z</time><ele>2473.2</ele></trkpt><trkpt lat="46.339626" lon="9.949544"><time>2021-07-03T10:31:21.000Z</time><ele>2473.2</ele></trkpt><trkpt lat="46.339636" lon="9.949505"><time>2021-07-03T10:31:25.000Z</time><ele>2473.6</ele></trkpt><trkpt lat="46.339638" lon="9.949498"><time>2021-07-03T10:31:26.000Z</time><ele>2473.6</ele></trkpt><trkpt lat="46.339639" lon="9.949491"><time>2021-07-03T10:31:27.000Z</time><ele>2474</ele></trkpt><trkpt lat="46.339632" lon="9.949464"><time>2021-07-03T10:31:30.000Z</time><ele>2474.8</ele></trkpt><trkpt lat="46.33962" lon="9.949453"><time>2021-07-03T10:31:33.000Z</time><ele>2475.4</ele></trkpt><trkpt lat="46.339565" lon="9.949424"><time>2021-07-03T10:31:40.000Z</time><ele>2476</ele></trkpt><trkpt lat="46.339548" lon="9.949432"><time>2021-07-03T10:31:44.000Z</time><ele>2476.6</ele></trkpt><trkpt lat="46.339542" lon="9.949423"><time>2021-07-03T10:31:47.000Z</time><ele>2477</ele></trkpt><trkpt lat="46.339516" lon="9.949416"><time>2021-07-03T10:31:51.000Z</time><ele>2477</ele></trkpt><trkpt lat="46.339439" lon="9.949403"><time>2021-07-03T10:32:00.000Z</time><ele>2477.4</ele></trkpt><trkpt lat="46.3394" lon="9.949391"><time>2021-07-03T10:32:06.000Z</time><ele>2477.6</ele></trkpt><trkpt lat="46.339355" lon="9.949349"><time>2021-07-03T10:32:14.000Z</time><ele>2477.4</ele></trkpt><trkpt lat="46.339338" lon="9.949366"><time>2021-07-03T10:32:21.000Z</time><ele>2477.2</ele></trkpt><trkpt lat="46.339321" lon="9.949355"><time>2021-07-03T10:32:27.000Z</time><ele>2476.4</ele></trkpt><trkpt lat="46.339311" lon="9.949354"><time>2021-07-03T10:32:29.000Z</time><ele>2475.8</ele></trkpt><trkpt lat="46.339294" lon="9.949351"><time>2021-07-03T10:32:34.000Z</time><ele>2475</ele></trkpt><trkpt lat="46.339293" lon="9.94935"><time>2021-07-03T10:32:36.000Z</time><ele>2474.8</ele></trkpt><trkpt lat="46.339274" lon="9.949351"><time>2021-07-03T10:32:41.000Z</time><ele>2474.2</ele></trkpt><trkpt lat="46.339269" lon="9.94935"><time>2021-07-03T10:32:42.000Z</time><ele>2473.8</ele></trkpt><trkpt lat="46.339246" lon="9.949338"><time>2021-07-03T10:32:46.000Z</time><ele>2472.8</ele></trkpt><trkpt lat="46.339234" lon="9.949336"><time>2021-07-03T10:32:48.000Z</time><ele>2472.4</ele></trkpt><trkpt lat="46.3392" lon="9.949316"><time>2021-07-03T10:32:57.000Z</time><ele>2472</ele></trkpt><trkpt lat="46.339196" lon="9.949317"><time>2021-07-03T10:32:58.000Z</time><ele>2472</ele></trkpt><trkpt lat="46.339179" lon="9.94932"><time>2021-07-03T10:33:03.000Z</time><ele>2471.8</ele></trkpt><trkpt lat="46.339163" lon="9.949322"><time>2021-07-03T10:33:05.000Z</time><ele>2471</ele></trkpt><trkpt lat="46.339129" lon="9.949308"><time>2021-07-03T10:33:11.000Z</time><ele>2471</ele></trkpt><trkpt lat="46.339121" lon="9.949304"><time>2021-07-03T10:33:12.000Z</time><ele>2471</ele></trkpt><trkpt lat="46.339091" lon="9.94931"><time>2021-07-03T10:33:17.000Z</time><ele>2471</ele></trkpt><trkpt lat="46.339085" lon="9.949315"><time>2021-07-03T10:33:19.000Z</time><ele>2471</ele></trkpt><trkpt lat="46.339041" lon="9.949284"><time>2021-07-03T10:33:26.000Z</time><ele>2471</ele></trkpt><trkpt lat="46.339023" lon="9.94927"><time>2021-07-03T10:33:30.000Z</time><ele>2471</ele></trkpt><trkpt lat="46.338998" lon="9.949242"><time>2021-07-03T10:33:35.000Z</time><ele>2471</ele></trkpt><trkpt lat="46.338944" lon="9.949224"><time>2021-07-03T10:33:41.000Z</time><ele>2471</ele></trkpt><trkpt lat="46.338894" lon="9.949218"><time>2021-07-03T10:33:48.000Z</time><ele>2471</ele></trkpt><trkpt lat="46.338861" lon="9.949208"><time>2021-07-03T10:33:55.000Z</time><ele>2471</ele></trkpt><trkpt lat="46.338842" lon="9.949219"><time>2021-07-03T10:34:03.000Z</time><ele>2471</ele></trkpt><trkpt lat="46.338843" lon="9.94922"><time>2021-07-03T10:34:16.000Z</time><ele>2471</ele></trkpt><trkpt lat="46.338843" lon="9.94922"><time>2021-07-03T10:34:30.000Z</time><ele>2471</ele></trkpt><trkpt lat="46.338843" lon="9.94922"><time>2021-07-03T10:34:31.000Z</time><ele>2471</ele></trkpt><trkpt lat="46.338842" lon="9.94922"><time>2021-07-03T10:34:36.000Z</time><ele>2471</ele></trkpt><trkpt lat="46.338813" lon="9.949202"><time>2021-07-03T10:34:43.000Z</time><ele>2471</ele></trkpt><trkpt lat="46.338804" lon="9.949192"><time>2021-07-03T10:34:44.000Z</time><ele>2471</ele></trkpt><trkpt lat="46.338796" lon="9.949184"><time>2021-07-03T10:34:45.000Z</time><ele>2471</ele></trkpt><trkpt lat="46.338747" lon="9.949146"><time>2021-07-03T10:34:53.000Z</time><ele>2471</ele></trkpt><trkpt lat="46.338725" lon="9.949136"><time>2021-07-03T10:34:56.000Z</time><ele>2471</ele></trkpt><trkpt lat="46.338694" lon="9.94912"><time>2021-07-03T10:35:01.000Z</time><ele>2471</ele></trkpt><trkpt lat="46.338653" lon="9.949119"><time>2021-07-03T10:35:08.000Z</time><ele>2471</ele></trkpt><trkpt lat="46.338647" lon="9.949118"><time>2021-07-03T10:35:09.000Z</time><ele>2471</ele></trkpt><trkpt lat="46.338636" lon="9.949125"><time>2021-07-03T10:35:11.000Z</time><ele>2471</ele></trkpt><trkpt lat="46.338627" lon="9.94912"><time>2021-07-03T10:35:13.000Z</time><ele>2471</ele></trkpt><trkpt lat="46.338616" lon="9.949095"><time>2021-07-03T10:35:17.000Z</time><ele>2471</ele></trkpt><trkpt lat="46.338593" lon="9.94907"><time>2021-07-03T10:35:20.000Z</time><ele>2471</ele></trkpt><trkpt lat="46.338565" lon="9.949059"><time>2021-07-03T10:35:24.000Z</time><ele>2471</ele></trkpt><trkpt lat="46.33855" lon="9.94906"><time>2021-07-03T10:35:27.000Z</time><ele>2471</ele></trkpt><trkpt lat="46.338527" lon="9.949042"><time>2021-07-03T10:35:32.000Z</time><ele>2471</ele></trkpt><trkpt lat="46.33849" lon="9.949034"><time>2021-07-03T10:35:39.000Z</time><ele>2471</ele></trkpt><trkpt lat="46.338484" lon="9.949035"><time>2021-07-03T10:35:43.000Z</time><ele>2471</ele></trkpt><trkpt lat="46.338459" lon="9.948995"><time>2021-07-03T10:35:50.000Z</time><ele>2471</ele></trkpt><trkpt lat="46.338431" lon="9.949001"><time>2021-07-03T10:35:58.000Z</time><ele>2471</ele></trkpt><trkpt lat="46.338419" lon="9.949045"><time>2021-07-03T10:36:06.000Z</time><ele>2471</ele></trkpt><trkpt lat="46.338407" lon="9.949049"><time>2021-07-03T10:36:08.000Z</time><ele>2465.4</ele></trkpt><trkpt lat="46.338392" lon="9.949041"><time>2021-07-03T10:36:12.000Z</time><ele>2465.2</ele></trkpt><trkpt lat="46.338393" lon="9.948995"><time>2021-07-03T10:36:16.000Z</time><ele>2464.6</ele></trkpt><trkpt lat="46.338391" lon="9.94899"><time>2021-07-03T10:36:17.000Z</time><ele>2464.4</ele></trkpt><trkpt lat="46.338388" lon="9.94899"><time>2021-07-03T10:36:18.000Z</time><ele>2464</ele></trkpt><trkpt lat="46.338378" lon="9.948998"><time>2021-07-03T10:36:21.000Z</time><ele>2463.2</ele></trkpt><trkpt lat="46.338375" lon="9.949017"><time>2021-07-03T10:36:24.000Z</time><ele>2462.4</ele></trkpt><trkpt lat="46.338379" lon="9.94902"><time>2021-07-03T10:36:25.000Z</time><ele>2462</ele></trkpt><trkpt lat="46.338366" lon="9.949021"><time>2021-07-03T10:36:32.000Z</time><ele>2461.6</ele></trkpt><trkpt lat="46.338365" lon="9.949028"><time>2021-07-03T10:36:36.000Z</time><ele>2461</ele></trkpt><trkpt lat="46.338344" lon="9.949013"><time>2021-07-03T10:36:39.000Z</time><ele>2459.8</ele></trkpt><trkpt lat="46.33834" lon="9.949011"><time>2021-07-03T10:36:40.000Z</time><ele>2459.8</ele></trkpt><trkpt lat="46.338318" lon="9.94896"><time>2021-07-03T10:36:47.000Z</time><ele>2458.6</ele></trkpt><trkpt lat="46.338307" lon="9.948957"><time>2021-07-03T10:36:49.000Z</time><ele>2458.2</ele></trkpt><trkpt lat="46.338292" lon="9.948957"><time>2021-07-03T10:36:53.000Z</time><ele>2457.6</ele></trkpt><trkpt lat="46.33827" lon="9.948943"><time>2021-07-03T10:36:57.000Z</time><ele>2456.8</ele></trkpt><trkpt lat="46.338233" lon="9.948912"><time>2021-07-03T10:37:01.000Z</time><ele>2456.6</ele></trkpt><trkpt lat="46.338215" lon="9.948888"><time>2021-07-03T10:37:04.000Z</time><ele>2456.6</ele></trkpt><trkpt lat="46.338162" lon="9.948871"><time>2021-07-03T10:37:10.000Z</time><ele>2457</ele></trkpt><trkpt lat="46.33814" lon="9.948791"><time>2021-07-03T10:37:15.000Z</time><ele>2456.8</ele></trkpt><trkpt lat="46.338123" lon="9.948782"><time>2021-07-03T10:37:20.000Z</time><ele>2456.8</ele></trkpt><trkpt lat="46.338115" lon="9.948783"><time>2021-07-03T10:37:21.000Z</time><ele>2456.6</ele></trkpt><trkpt lat="46.338066" lon="9.948756"><time>2021-07-03T10:37:27.000Z</time><ele>2456.4</ele></trkpt><trkpt lat="46.338" lon="9.94872"><time>2021-07-03T10:37:33.000Z</time><ele>2456.2</ele></trkpt><trkpt lat="46.337967" lon="9.948697"><time>2021-07-03T10:37:37.000Z</time><ele>2456.8</ele></trkpt><trkpt lat="46.337963" lon="9.948682"><time>2021-07-03T10:37:38.000Z</time><ele>2456.8</ele></trkpt><trkpt lat="46.337948" lon="9.948658"><time>2021-07-03T10:37:40.000Z</time><ele>2457</ele></trkpt><trkpt lat="46.337936" lon="9.948652"><time>2021-07-03T10:37:41.000Z</time><ele>2456.8</ele></trkpt><trkpt lat="46.337889" lon="9.948647"><time>2021-07-03T10:37:45.000Z</time><ele>2456.4</ele></trkpt><trkpt lat="46.337881" lon="9.948641"><time>2021-07-03T10:37:46.000Z</time><ele>2456.4</ele></trkpt><trkpt lat="46.337857" lon="9.94861"><time>2021-07-03T10:37:50.000Z</time><ele>2456.4</ele></trkpt><trkpt lat="46.337845" lon="9.948583"><time>2021-07-03T10:37:53.000Z</time><ele>2456.6</ele></trkpt><trkpt lat="46.337806" lon="9.948577"><time>2021-07-03T10:37:57.000Z</time><ele>2457.6</ele></trkpt><trkpt lat="46.337793" lon="9.94858"><time>2021-07-03T10:37:59.000Z</time><ele>2457.8</ele></trkpt><trkpt lat="46.337763" lon="9.948569"><time>2021-07-03T10:38:02.000Z</time><ele>2458.2</ele></trkpt><trkpt lat="46.337753" lon="9.948567"><time>2021-07-03T10:38:03.000Z</time><ele>2458.2</ele></trkpt><trkpt lat="46.337711" lon="9.948573"><time>2021-07-03T10:38:07.000Z</time><ele>2458.4</ele></trkpt><trkpt lat="46.337691" lon="9.948563"><time>2021-07-03T10:38:10.000Z</time><ele>2458.6</ele></trkpt><trkpt lat="46.337683" lon="9.948562"><time>2021-07-03T10:38:13.000Z</time><ele>2458.8</ele></trkpt><trkpt lat="46.337678" lon="9.948552"><time>2021-07-03T10:38:15.000Z</time><ele>2459</ele></trkpt><trkpt lat="46.337672" lon="9.948551"><time>2021-07-03T10:38:16.000Z</time><ele>2458.8</ele></trkpt><trkpt lat="46.337654" lon="9.94856"><time>2021-07-03T10:38:20.000Z</time><ele>2458</ele></trkpt><trkpt lat="46.337644" lon="9.948548"><time>2021-07-03T10:38:23.000Z</time><ele>2457.6</ele></trkpt><trkpt lat="46.337642" lon="9.948546"><time>2021-07-03T10:38:24.000Z</time><ele>2457.2</ele></trkpt><trkpt lat="46.337641" lon="9.948542"><time>2021-07-03T10:38:25.000Z</time><ele>2456.8</ele></trkpt><trkpt lat="46.337634" lon="9.94853"><time>2021-07-03T10:38:27.000Z</time><ele>2456.4</ele></trkpt><trkpt lat="46.337617" lon="9.948523"><time>2021-07-03T10:38:29.000Z</time><ele>2455.8</ele></trkpt><trkpt lat="46.337588" lon="9.948514"><time>2021-07-03T10:38:32.000Z</time><ele>2455.6</ele></trkpt><trkpt lat="46.337579" lon="9.948501"><time>2021-07-03T10:38:34.000Z</time><ele>2455.2</ele></trkpt><trkpt lat="46.337564" lon="9.948493"><time>2021-07-03T10:38:38.000Z</time><ele>2454.4</ele></trkpt><trkpt lat="46.337558" lon="9.948492"><time>2021-07-03T10:38:39.000Z</time><ele>2454.2</ele></trkpt><trkpt lat="46.337558" lon="9.948487"><time>2021-07-03T10:38:40.000Z</time><ele>2454</ele></trkpt><trkpt lat="46.337557" lon="9.948478"><time>2021-07-03T10:38:41.000Z</time><ele>2454</ele></trkpt><trkpt lat="46.337536" lon="9.948454"><time>2021-07-03T10:38:45.000Z</time><ele>2452.8</ele></trkpt><trkpt lat="46.337532" lon="9.948445"><time>2021-07-03T10:38:46.000Z</time><ele>2452.4</ele></trkpt><trkpt lat="46.337511" lon="9.948431"><time>2021-07-03T10:38:49.000Z</time><ele>2452</ele></trkpt><trkpt lat="46.337507" lon="9.948428"><time>2021-07-03T10:38:50.000Z</time><ele>2451.8</ele></trkpt><trkpt lat="46.337502" lon="9.948422"><time>2021-07-03T10:38:51.000Z</time><ele>2451.8</ele></trkpt><trkpt lat="46.337494" lon="9.948421"><time>2021-07-03T10:38:52.000Z</time><ele>2451.6</ele></trkpt><trkpt lat="46.337481" lon="9.948423"><time>2021-07-03T10:38:54.000Z</time><ele>2451.4</ele></trkpt><trkpt lat="46.337461" lon="9.948419"><time>2021-07-03T10:38:58.000Z</time><ele>2450.6</ele></trkpt><trkpt lat="46.337457" lon="9.948416"><time>2021-07-03T10:38:59.000Z</time><ele>2450.6</ele></trkpt><trkpt lat="46.337439" lon="9.948406"><time>2021-07-03T10:39:05.000Z</time><ele>2449.6</ele></trkpt><trkpt lat="46.337431" lon="9.948412"><time>2021-07-03T10:39:06.000Z</time><ele>2449.2</ele></trkpt><trkpt lat="46.337414" lon="9.948394"><time>2021-07-03T10:39:09.000Z</time><ele>2448.2</ele></trkpt><trkpt lat="46.337405" lon="9.948379"><time>2021-07-03T10:39:11.000Z</time><ele>2447.8</ele></trkpt><trkpt lat="46.337388" lon="9.948351"><time>2021-07-03T10:39:16.000Z</time><ele>2447.2</ele></trkpt><trkpt lat="46.337382" lon="9.948339"><time>2021-07-03T10:39:18.000Z</time><ele>2447</ele></trkpt><trkpt lat="46.337374" lon="9.948275"><time>2021-07-03T10:39:23.000Z</time><ele>2446</ele></trkpt><trkpt lat="46.337369" lon="9.948262"><time>2021-07-03T10:39:24.000Z</time><ele>2445.8</ele></trkpt><trkpt lat="46.33736" lon="9.948184"><time>2021-07-03T10:39:32.000Z</time><ele>2445.6</ele></trkpt><trkpt lat="46.337349" lon="9.948144"><time>2021-07-03T10:39:38.000Z</time><ele>2446</ele></trkpt><trkpt lat="46.33734" lon="9.948139"><time>2021-07-03T10:39:40.000Z</time><ele>2446</ele></trkpt><trkpt lat="46.337336" lon="9.948117"><time>2021-07-03T10:39:45.000Z</time><ele>2445.8</ele></trkpt><trkpt lat="46.337326" lon="9.948105"><time>2021-07-03T10:39:49.000Z</time><ele>2445</ele></trkpt><trkpt lat="46.337319" lon="9.948069"><time>2021-07-03T10:39:52.000Z</time><ele>2444.6</ele></trkpt><trkpt lat="46.337303" lon="9.947974"><time>2021-07-03T10:39:58.000Z</time><ele>2444.2</ele></trkpt><trkpt lat="46.337289" lon="9.947959"><time>2021-07-03T10:39:59.000Z</time><ele>2444.2</ele></trkpt><trkpt lat="46.33727" lon="9.947925"><time>2021-07-03T10:40:02.000Z</time><ele>2444.4</ele></trkpt><trkpt lat="46.337262" lon="9.947888"><time>2021-07-03T10:40:05.000Z</time><ele>2444.4</ele></trkpt><trkpt lat="46.337246" lon="9.947843"><time>2021-07-03T10:40:09.000Z</time><ele>2444.6</ele></trkpt><trkpt lat="46.337231" lon="9.947809"><time>2021-07-03T10:40:12.000Z</time><ele>2445</ele></trkpt><trkpt lat="46.337205" lon="9.947754"><time>2021-07-03T10:40:18.000Z</time><ele>2446</ele></trkpt><trkpt lat="46.337192" lon="9.947739"><time>2021-07-03T10:40:20.000Z</time><ele>2446</ele></trkpt><trkpt lat="46.337174" lon="9.947707"><time>2021-07-03T10:40:23.000Z</time><ele>2446</ele></trkpt><trkpt lat="46.337147" lon="9.947636"><time>2021-07-03T10:40:28.000Z</time><ele>2445.8</ele></trkpt><trkpt lat="46.337107" lon="9.947578"><time>2021-07-03T10:40:35.000Z</time><ele>2446.4</ele></trkpt><trkpt lat="46.337055" lon="9.947511"><time>2021-07-03T10:40:41.000Z</time><ele>2446.8</ele></trkpt><trkpt lat="46.337046" lon="9.947504"><time>2021-07-03T10:40:42.000Z</time><ele>2447</ele></trkpt><trkpt lat="46.337007" lon="9.947444"><time>2021-07-03T10:40:48.000Z</time><ele>2448</ele></trkpt><trkpt lat="46.337005" lon="9.947426"><time>2021-07-03T10:40:49.000Z</time><ele>2448</ele></trkpt><trkpt lat="46.337003" lon="9.947418"><time>2021-07-03T10:40:50.000Z</time><ele>2448.2</ele></trkpt><trkpt lat="46.33698" lon="9.947397"><time>2021-07-03T10:40:53.000Z</time><ele>2449</ele></trkpt><trkpt lat="46.336963" lon="9.947392"><time>2021-07-03T10:40:55.000Z</time><ele>2449.2</ele></trkpt><trkpt lat="46.336955" lon="9.947393"><time>2021-07-03T10:40:56.000Z</time><ele>2449.4</ele></trkpt><trkpt lat="46.33694" lon="9.947381"><time>2021-07-03T10:40:59.000Z</time><ele>2449.6</ele></trkpt><trkpt lat="46.336927" lon="9.947366"><time>2021-07-03T10:41:02.000Z</time><ele>2449.6</ele></trkpt><trkpt lat="46.336919" lon="9.947357"><time>2021-07-03T10:41:04.000Z</time><ele>2450</ele></trkpt><trkpt lat="46.336911" lon="9.947347"><time>2021-07-03T10:41:06.000Z</time><ele>2450.4</ele></trkpt><trkpt lat="46.336911" lon="9.94734"><time>2021-07-03T10:41:07.000Z</time><ele>2450.6</ele></trkpt><trkpt lat="46.336908" lon="9.947314"><time>2021-07-03T10:41:09.000Z</time><ele>2451</ele></trkpt><trkpt lat="46.336903" lon="9.947283"><time>2021-07-03T10:41:11.000Z</time><ele>2451.2</ele></trkpt><trkpt lat="46.336874" lon="9.947262"><time>2021-07-03T10:41:15.000Z</time><ele>2451.6</ele></trkpt><trkpt lat="46.336836" lon="9.947195"><time>2021-07-03T10:41:23.000Z</time><ele>2452.2</ele></trkpt><trkpt lat="46.33677" lon="9.947143"><time>2021-07-03T10:41:32.000Z</time><ele>2451.4</ele></trkpt><trkpt lat="46.336757" lon="9.947114"><time>2021-07-03T10:41:37.000Z</time><ele>2451.6</ele></trkpt><trkpt lat="46.336756" lon="9.947109"><time>2021-07-03T10:41:38.000Z</time><ele>2451.6</ele></trkpt><trkpt lat="46.336753" lon="9.94708"><time>2021-07-03T10:41:42.000Z</time><ele>2452.2</ele></trkpt><trkpt lat="46.336751" lon="9.947075"><time>2021-07-03T10:41:43.000Z</time><ele>2452.2</ele></trkpt><trkpt lat="46.336753" lon="9.947056"><time>2021-07-03T10:41:45.000Z</time><ele>2452.4</ele></trkpt><trkpt lat="46.336764" lon="9.94702"><time>2021-07-03T10:41:47.000Z</time><ele>2452.6</ele></trkpt><trkpt lat="46.336705" lon="9.946981"><time>2021-07-03T10:41:53.000Z</time><ele>2453.4</ele></trkpt><trkpt lat="46.336666" lon="9.94697"><time>2021-07-03T10:41:58.000Z</time><ele>2453.8</ele></trkpt><trkpt lat="46.336663" lon="9.946967"><time>2021-07-03T10:41:59.000Z</time><ele>2453.8</ele></trkpt><trkpt lat="46.336655" lon="9.946979"><time>2021-07-03T10:42:06.000Z</time><ele>2454</ele></trkpt><trkpt lat="46.336625" lon="9.946918"><time>2021-07-03T10:42:13.000Z</time><ele>2453.6</ele></trkpt><trkpt lat="46.336601" lon="9.946875"><time>2021-07-03T10:42:18.000Z</time><ele>2454.8</ele></trkpt><trkpt lat="46.336569" lon="9.946852"><time>2021-07-03T10:42:22.000Z</time><ele>2454</ele></trkpt><trkpt lat="46.336518" lon="9.9468"><time>2021-07-03T10:42:29.000Z</time><ele>2454.6</ele></trkpt><trkpt lat="46.336441" lon="9.946786"><time>2021-07-03T10:42:36.000Z</time><ele>2455.8</ele></trkpt><trkpt lat="46.336434" lon="9.94679"><time>2021-07-03T10:42:37.000Z</time><ele>2456</ele></trkpt><trkpt lat="46.336428" lon="9.946787"><time>2021-07-03T10:42:38.000Z</time><ele>2456</ele></trkpt><trkpt lat="46.336333" lon="9.946754"><time>2021-07-03T10:42:48.000Z</time><ele>2456.6</ele></trkpt><trkpt lat="46.33632" lon="9.946748"><time>2021-07-03T10:42:49.000Z</time><ele>2456.6</ele></trkpt><trkpt lat="46.336304" lon="9.946737"><time>2021-07-03T10:42:51.000Z</time><ele>2456.8</ele></trkpt><trkpt lat="46.336308" lon="9.946718"><time>2021-07-03T10:42:56.000Z</time><ele>2456.6</ele></trkpt><trkpt lat="46.336291" lon="9.946715"><time>2021-07-03T10:43:01.000Z</time><ele>2457</ele></trkpt><trkpt lat="46.336286" lon="9.94672"><time>2021-07-03T10:43:03.000Z</time><ele>2457</ele></trkpt><trkpt lat="46.336272" lon="9.946716"><time>2021-07-03T10:43:08.000Z</time><ele>2457</ele></trkpt><trkpt lat="46.336248" lon="9.946704"><time>2021-07-03T10:43:11.000Z</time><ele>2457</ele></trkpt><trkpt lat="46.336187" lon="9.946666"><time>2021-07-03T10:43:20.000Z</time><ele>2457</ele></trkpt><trkpt lat="46.336175" lon="9.946625"><time>2021-07-03T10:43:25.000Z</time><ele>2458</ele></trkpt><trkpt lat="46.336168" lon="9.946614"><time>2021-07-03T10:43:27.000Z</time><ele>2458.8</ele></trkpt><trkpt lat="46.336162" lon="9.94661"><time>2021-07-03T10:43:28.000Z</time><ele>2459</ele></trkpt><trkpt lat="46.336132" lon="9.946572"><time>2021-07-03T10:43:33.000Z</time><ele>2460</ele></trkpt><trkpt lat="46.336107" lon="9.946554"><time>2021-07-03T10:43:36.000Z</time><ele>2460.4</ele></trkpt><trkpt lat="46.336061" lon="9.946479"><time>2021-07-03T10:43:43.000Z</time><ele>2460.8</ele></trkpt><trkpt lat="46.335958" lon="9.946437"><time>2021-07-03T10:43:53.000Z</time><ele>2459.8</ele></trkpt><trkpt lat="46.335942" lon="9.946427"><time>2021-07-03T10:43:55.000Z</time><ele>2459.8</ele></trkpt><trkpt lat="46.335928" lon="9.946412"><time>2021-07-03T10:43:57.000Z</time><ele>2459.8</ele></trkpt><trkpt lat="46.335906" lon="9.946388"><time>2021-07-03T10:44:00.000Z</time><ele>2460.4</ele></trkpt><trkpt lat="46.335898" lon="9.946378"><time>2021-07-03T10:44:01.000Z</time><ele>2460.8</ele></trkpt><trkpt lat="46.33587" lon="9.946349"><time>2021-07-03T10:44:04.000Z</time><ele>2461</ele></trkpt><trkpt lat="46.335849" lon="9.946306"><time>2021-07-03T10:44:08.000Z</time><ele>2461.2</ele></trkpt><trkpt lat="46.335813" lon="9.946246"><time>2021-07-03T10:44:13.000Z</time><ele>2462</ele></trkpt><trkpt lat="46.335792" lon="9.946227"><time>2021-07-03T10:44:15.000Z</time><ele>2462.2</ele></trkpt><trkpt lat="46.335761" lon="9.946192"><time>2021-07-03T10:44:19.000Z</time><ele>2462.4</ele></trkpt><trkpt lat="46.335708" lon="9.946113"><time>2021-07-03T10:44:27.000Z</time><ele>2462.4</ele></trkpt><trkpt lat="46.335703" lon="9.946105"><time>2021-07-03T10:44:28.000Z</time><ele>2462.4</ele></trkpt><trkpt lat="46.335693" lon="9.946086"><time>2021-07-03T10:44:30.000Z</time><ele>2462.6</ele></trkpt><trkpt lat="46.335658" lon="9.946058"><time>2021-07-03T10:44:34.000Z</time><ele>2462.8</ele></trkpt><trkpt lat="46.33559" lon="9.946001"><time>2021-07-03T10:44:44.000Z</time><ele>2462.4</ele></trkpt><trkpt lat="46.335568" lon="9.945982"><time>2021-07-03T10:44:49.000Z</time><ele>2462</ele></trkpt><trkpt lat="46.335551" lon="9.945974"><time>2021-07-03T10:44:52.000Z</time><ele>2461.8</ele></trkpt><trkpt lat="46.335549" lon="9.945974"><time>2021-07-03T10:44:53.000Z</time><ele>2461.6</ele></trkpt><trkpt lat="46.335529" lon="9.945957"><time>2021-07-03T10:44:58.000Z</time><ele>2461.2</ele></trkpt><trkpt lat="46.335525" lon="9.945954"><time>2021-07-03T10:44:59.000Z</time><ele>2461.2</ele></trkpt><trkpt lat="46.335466" lon="9.945924"><time>2021-07-03T10:45:08.000Z</time><ele>2460.2</ele></trkpt><trkpt lat="46.335445" lon="9.945894"><time>2021-07-03T10:45:14.000Z</time><ele>2460.2</ele></trkpt><trkpt lat="46.335435" lon="9.945882"><time>2021-07-03T10:45:16.000Z</time><ele>2459.8</ele></trkpt><trkpt lat="46.335398" lon="9.945859"><time>2021-07-03T10:45:24.000Z</time><ele>2459.2</ele></trkpt><trkpt lat="46.335329" lon="9.94584"><time>2021-07-03T10:45:32.000Z</time><ele>2459.2</ele></trkpt><trkpt lat="46.335324" lon="9.945846"><time>2021-07-03T10:45:33.000Z</time><ele>2459.2</ele></trkpt><trkpt lat="46.335274" lon="9.945858"><time>2021-07-03T10:45:39.000Z</time><ele>2458.4</ele></trkpt><trkpt lat="46.335247" lon="9.945854"><time>2021-07-03T10:45:43.000Z</time><ele>2458</ele></trkpt><trkpt lat="46.335213" lon="9.945853"><time>2021-07-03T10:45:47.000Z</time><ele>2457.6</ele></trkpt><trkpt lat="46.335147" lon="9.94583"><time>2021-07-03T10:45:54.000Z</time><ele>2458</ele></trkpt><trkpt lat="46.335116" lon="9.945836"><time>2021-07-03T10:46:01.000Z</time><ele>2457.8</ele></trkpt><trkpt lat="46.335106" lon="9.945852"><time>2021-07-03T10:46:07.000Z</time><ele>2457.6</ele></trkpt><trkpt lat="46.335106" lon="9.945852"><time>2021-07-03T10:46:08.000Z</time><ele>2457.4</ele></trkpt><trkpt lat="46.335108" lon="9.945848"><time>2021-07-03T10:46:15.000Z</time><ele>2457.4</ele></trkpt><trkpt lat="46.335108" lon="9.945848"><time>2021-07-03T10:46:16.000Z</time><ele>2457.4</ele></trkpt><trkpt lat="46.335108" lon="9.945848"><time>2021-07-03T10:46:18.000Z</time><ele>2457.4</ele></trkpt><trkpt lat="46.335108" lon="9.945848"><time>2021-07-03T10:46:20.000Z</time><ele>2457.4</ele></trkpt><trkpt lat="46.335108" lon="9.945848"><time>2021-07-03T10:46:22.000Z</time><ele>2457.2</ele></trkpt><trkpt lat="46.335107" lon="9.945848"><time>2021-07-03T10:46:24.000Z</time><ele>2457</ele></trkpt><trkpt lat="46.335102" lon="9.945848"><time>2021-07-03T10:46:34.000Z</time><ele>2457</ele></trkpt><trkpt lat="46.335087" lon="9.945842"><time>2021-07-03T10:46:51.000Z</time><ele>2456.4</ele></trkpt><trkpt lat="46.335086" lon="9.945842"><time>2021-07-03T10:46:52.000Z</time><ele>2456.4</ele></trkpt><trkpt lat="46.335086" lon="9.945842"><time>2021-07-03T10:46:55.000Z</time><ele>2456</ele></trkpt><trkpt lat="46.335067" lon="9.945883"><time>2021-07-03T10:47:00.000Z</time><ele>2454.8</ele></trkpt><trkpt lat="46.335054" lon="9.945911"><time>2021-07-03T10:47:02.000Z</time><ele>2454.4</ele></trkpt><trkpt lat="46.335011" lon="9.94598"><time>2021-07-03T10:47:07.000Z</time><ele>2453.8</ele></trkpt><trkpt lat="46.334985" lon="9.946021"><time>2021-07-03T10:47:12.000Z</time><ele>2452.8</ele></trkpt><trkpt lat="46.334983" lon="9.946024"><time>2021-07-03T10:47:13.000Z</time><ele>2452.6</ele></trkpt><trkpt lat="46.334976" lon="9.946029"><time>2021-07-03T10:47:15.000Z</time><ele>2452.6</ele></trkpt><trkpt lat="46.334963" lon="9.946022"><time>2021-07-03T10:47:18.000Z</time><ele>2452.2</ele></trkpt><trkpt lat="46.334938" lon="9.946017"><time>2021-07-03T10:47:21.000Z</time><ele>2451.6</ele></trkpt><trkpt lat="46.334927" lon="9.94602"><time>2021-07-03T10:47:23.000Z</time><ele>2451</ele></trkpt><trkpt lat="46.334913" lon="9.94605"><time>2021-07-03T10:47:27.000Z</time><ele>2450.4</ele></trkpt><trkpt lat="46.334884" lon="9.946065"><time>2021-07-03T10:47:33.000Z</time><ele>2449.8</ele></trkpt><trkpt lat="46.334877" lon="9.946076"><time>2021-07-03T10:47:35.000Z</time><ele>2449.2</ele></trkpt><trkpt lat="46.334857" lon="9.946095"><time>2021-07-03T10:47:41.000Z</time><ele>2448.2</ele></trkpt><trkpt lat="46.334826" lon="9.946049"><time>2021-07-03T10:47:48.000Z</time><ele>2447.2</ele></trkpt><trkpt lat="46.33481" lon="9.946037"><time>2021-07-03T10:47:50.000Z</time><ele>2446.8</ele></trkpt><trkpt lat="46.334791" lon="9.946003"><time>2021-07-03T10:47:55.000Z</time><ele>2446</ele></trkpt><trkpt lat="46.33478" lon="9.946"><time>2021-07-03T10:47:56.000Z</time><ele>2445.8</ele></trkpt><trkpt lat="46.334759" lon="9.946004"><time>2021-07-03T10:48:01.000Z</time><ele>2444.8</ele></trkpt><trkpt lat="46.334753" lon="9.945993"><time>2021-07-03T10:48:03.000Z</time><ele>2444.6</ele></trkpt><trkpt lat="46.33475" lon="9.945971"><time>2021-07-03T10:48:08.000Z</time><ele>2443.4</ele></trkpt><trkpt lat="46.334729" lon="9.945977"><time>2021-07-03T10:48:11.000Z</time><ele>2443</ele></trkpt><trkpt lat="46.334722" lon="9.945979"><time>2021-07-03T10:48:13.000Z</time><ele>2442.4</ele></trkpt><trkpt lat="46.334695" lon="9.945947"><time>2021-07-03T10:48:18.000Z</time><ele>2442</ele></trkpt><trkpt lat="46.334676" lon="9.945941"><time>2021-07-03T10:48:20.000Z</time><ele>2441.4</ele></trkpt><trkpt lat="46.334632" lon="9.945949"><time>2021-07-03T10:48:25.000Z</time><ele>2440.2</ele></trkpt><trkpt lat="46.33462" lon="9.945958"><time>2021-07-03T10:48:27.000Z</time><ele>2439.6</ele></trkpt><trkpt lat="46.334597" lon="9.945972"><time>2021-07-03T10:48:32.000Z</time><ele>2439.4</ele></trkpt><trkpt lat="46.334572" lon="9.945982"><time>2021-07-03T10:48:36.000Z</time><ele>2439.2</ele></trkpt><trkpt lat="46.334568" lon="9.945982"><time>2021-07-03T10:48:37.000Z</time><ele>2439</ele></trkpt><trkpt lat="46.334563" lon="9.94598"><time>2021-07-03T10:48:39.000Z</time><ele>2438.8</ele></trkpt><trkpt lat="46.334555" lon="9.945967"><time>2021-07-03T10:48:41.000Z</time><ele>2438.4</ele></trkpt><trkpt lat="46.334544" lon="9.945962"><time>2021-07-03T10:48:45.000Z</time><ele>2437.8</ele></trkpt><trkpt lat="46.334522" lon="9.94597"><time>2021-07-03T10:48:53.000Z</time><ele>2436.8</ele></trkpt><trkpt lat="46.334515" lon="9.945973"><time>2021-07-03T10:48:54.000Z</time><ele>2436.8</ele></trkpt><trkpt lat="46.334488" lon="9.945981"><time>2021-07-03T10:48:59.000Z</time><ele>2436.2</ele></trkpt><trkpt lat="46.334486" lon="9.945965"><time>2021-07-03T10:49:02.000Z</time><ele>2435.6</ele></trkpt><trkpt lat="46.334483" lon="9.945921"><time>2021-07-03T10:49:06.000Z</time><ele>2434.4</ele></trkpt><trkpt lat="46.334477" lon="9.94591"><time>2021-07-03T10:49:07.000Z</time><ele>2434</ele></trkpt><trkpt lat="46.334456" lon="9.945888"><time>2021-07-03T10:49:09.000Z</time><ele>2433.2</ele></trkpt><trkpt lat="46.334418" lon="9.94588"><time>2021-07-03T10:49:13.000Z</time><ele>2432.4</ele></trkpt><trkpt lat="46.33436" lon="9.945875"><time>2021-07-03T10:49:21.000Z</time><ele>2432.8</ele></trkpt><trkpt lat="46.334364" lon="9.945892"><time>2021-07-03T10:49:24.000Z</time><ele>2432.6</ele></trkpt><trkpt lat="46.334354" lon="9.945916"><time>2021-07-03T10:49:27.000Z</time><ele>2432</ele></trkpt><trkpt lat="46.334346" lon="9.945921"><time>2021-07-03T10:49:28.000Z</time><ele>2431.6</ele></trkpt><trkpt lat="46.33432" lon="9.945919"><time>2021-07-03T10:49:30.000Z</time><ele>2431.2</ele></trkpt><trkpt lat="46.334302" lon="9.945912"><time>2021-07-03T10:49:32.000Z</time><ele>2431</ele></trkpt><trkpt lat="46.334288" lon="9.945903"><time>2021-07-03T10:49:34.000Z</time><ele>2431</ele></trkpt><trkpt lat="46.334239" lon="9.945832"><time>2021-07-03T10:49:42.000Z</time><ele>2432</ele></trkpt><trkpt lat="46.334187" lon="9.945705"><time>2021-07-03T10:49:52.000Z</time><ele>2431</ele></trkpt><trkpt lat="46.334181" lon="9.945695"><time>2021-07-03T10:49:53.000Z</time><ele>2430.8</ele></trkpt><trkpt lat="46.334156" lon="9.945665"><time>2021-07-03T10:49:57.000Z</time><ele>2430.2</ele></trkpt><trkpt lat="46.334152" lon="9.945658"><time>2021-07-03T10:49:58.000Z</time><ele>2430</ele></trkpt><trkpt lat="46.334148" lon="9.945653"><time>2021-07-03T10:49:59.000Z</time><ele>2430</ele></trkpt><trkpt lat="46.334141" lon="9.945647"><time>2021-07-03T10:50:01.000Z</time><ele>2429.6</ele></trkpt><trkpt lat="46.334135" lon="9.945642"><time>2021-07-03T10:50:03.000Z</time><ele>2429.2</ele></trkpt><trkpt lat="46.334126" lon="9.945645"><time>2021-07-03T10:50:05.000Z</time><ele>2428.8</ele></trkpt><trkpt lat="46.334119" lon="9.945641"><time>2021-07-03T10:50:07.000Z</time><ele>2428.2</ele></trkpt><trkpt lat="46.334102" lon="9.945623"><time>2021-07-03T10:50:10.000Z</time><ele>2427.6</ele></trkpt><trkpt lat="46.334083" lon="9.945602"><time>2021-07-03T10:50:13.000Z</time><ele>2426.8</ele></trkpt><trkpt lat="46.334077" lon="9.94559"><time>2021-07-03T10:50:14.000Z</time><ele>2426.4</ele></trkpt><trkpt lat="46.33402" lon="9.945492"><time>2021-07-03T10:50:22.000Z</time><ele>2425.2</ele></trkpt><trkpt lat="46.333966" lon="9.945412"><time>2021-07-03T10:50:28.000Z</time><ele>2424.2</ele></trkpt><trkpt lat="46.33395" lon="9.945395"><time>2021-07-03T10:50:30.000Z</time><ele>2424</ele></trkpt><trkpt lat="46.333929" lon="9.945375"><time>2021-07-03T10:50:33.000Z</time><ele>2423.8</ele></trkpt><trkpt lat="46.333922" lon="9.94537"><time>2021-07-03T10:50:34.000Z</time><ele>2423.6</ele></trkpt><trkpt lat="46.333904" lon="9.945346"><time>2021-07-03T10:50:37.000Z</time><ele>2423.6</ele></trkpt><trkpt lat="46.333875" lon="9.945322"><time>2021-07-03T10:50:40.000Z</time><ele>2422.8</ele></trkpt><trkpt lat="46.333844" lon="9.945273"><time>2021-07-03T10:50:45.000Z</time><ele>2422.2</ele></trkpt><trkpt lat="46.33384" lon="9.945251"><time>2021-07-03T10:50:47.000Z</time><ele>2422.4</ele></trkpt><trkpt lat="46.333838" lon="9.94523"><time>2021-07-03T10:50:49.000Z</time><ele>2422.4</ele></trkpt><trkpt lat="46.333831" lon="9.945214"><time>2021-07-03T10:50:51.000Z</time><ele>2422.6</ele></trkpt><trkpt lat="46.333824" lon="9.945203"><time>2021-07-03T10:50:53.000Z</time><ele>2422.6</ele></trkpt><trkpt lat="46.333819" lon="9.945188"><time>2021-07-03T10:50:55.000Z</time><ele>2422.4</ele></trkpt><trkpt lat="46.333806" lon="9.945173"><time>2021-07-03T10:50:58.000Z</time><ele>2422.2</ele></trkpt><trkpt lat="46.333796" lon="9.945151"><time>2021-07-03T10:51:00.000Z</time><ele>2421.8</ele></trkpt><trkpt lat="46.333762" lon="9.945079"><time>2021-07-03T10:51:06.000Z</time><ele>2420.8</ele></trkpt><trkpt lat="46.333743" lon="9.945048"><time>2021-07-03T10:51:09.000Z</time><ele>2420.4</ele></trkpt><trkpt lat="46.333712" lon="9.945031"><time>2021-07-03T10:51:13.000Z</time><ele>2419.8</ele></trkpt><trkpt lat="46.333699" lon="9.945024"><time>2021-07-03T10:51:14.000Z</time><ele>2419.6</ele></trkpt><trkpt lat="46.33367" lon="9.944963"><time>2021-07-03T10:51:19.000Z</time><ele>2419</ele></trkpt><trkpt lat="46.333667" lon="9.94495"><time>2021-07-03T10:51:20.000Z</time><ele>2419</ele></trkpt><trkpt lat="46.333648" lon="9.944924"><time>2021-07-03T10:51:23.000Z</time><ele>2418.6</ele></trkpt><trkpt lat="46.33364" lon="9.944912"><time>2021-07-03T10:51:24.000Z</time><ele>2418.4</ele></trkpt><trkpt lat="46.333604" lon="9.944786"><time>2021-07-03T10:51:33.000Z</time><ele>2418.6</ele></trkpt><trkpt lat="46.333566" lon="9.944662"><time>2021-07-03T10:51:41.000Z</time><ele>2418</ele></trkpt><trkpt lat="46.333505" lon="9.944609"><time>2021-07-03T10:51:47.000Z</time><ele>2417.8</ele></trkpt><trkpt lat="46.333481" lon="9.944577"><time>2021-07-03T10:51:50.000Z</time><ele>2417.6</ele></trkpt><trkpt lat="46.333476" lon="9.944568"><time>2021-07-03T10:51:51.000Z</time><ele>2417.6</ele></trkpt><trkpt lat="46.333455" lon="9.944464"><time>2021-07-03T10:51:58.000Z</time><ele>2418.2</ele></trkpt><trkpt lat="46.333438" lon="9.944442"><time>2021-07-03T10:52:00.000Z</time><ele>2418.4</ele></trkpt><trkpt lat="46.33341" lon="9.944418"><time>2021-07-03T10:52:03.000Z</time><ele>2418.6</ele></trkpt><trkpt lat="46.333389" lon="9.944401"><time>2021-07-03T10:52:05.000Z</time><ele>2418.8</ele></trkpt><trkpt lat="46.333364" lon="9.944398"><time>2021-07-03T10:52:07.000Z</time><ele>2418.6</ele></trkpt><trkpt lat="46.333314" lon="9.944381"><time>2021-07-03T10:52:12.000Z</time><ele>2418.4</ele></trkpt><trkpt lat="46.333309" lon="9.944383"><time>2021-07-03T10:52:13.000Z</time><ele>2418.4</ele></trkpt><trkpt lat="46.333255" lon="9.944451"><time>2021-07-03T10:52:22.000Z</time><ele>2418.2</ele></trkpt><trkpt lat="46.333219" lon="9.944545"><time>2021-07-03T10:52:28.000Z</time><ele>2417.6</ele></trkpt><trkpt lat="46.333214" lon="9.944563"><time>2021-07-03T10:52:29.000Z</time><ele>2417.6</ele></trkpt><trkpt lat="46.33314" lon="9.944696"><time>2021-07-03T10:52:39.000Z</time><ele>2417.6</ele></trkpt><trkpt lat="46.333134" lon="9.944708"><time>2021-07-03T10:52:40.000Z</time><ele>2417.6</ele></trkpt><trkpt lat="46.333047" lon="9.944798"><time>2021-07-03T10:52:49.000Z</time><ele>2418.2</ele></trkpt><trkpt lat="46.332959" lon="9.944862"><time>2021-07-03T10:52:58.000Z</time><ele>2418.8</ele></trkpt><trkpt lat="46.332926" lon="9.944882"><time>2021-07-03T10:53:01.000Z</time><ele>2418.8</ele></trkpt><trkpt lat="46.332856" lon="9.944903"><time>2021-07-03T10:53:07.000Z</time><ele>2418.8</ele></trkpt><trkpt lat="46.332794" lon="9.944937"><time>2021-07-03T10:53:13.000Z</time><ele>2418.4</ele></trkpt><trkpt lat="46.332753" lon="9.944971"><time>2021-07-03T10:53:17.000Z</time><ele>2418.4</ele></trkpt><trkpt lat="46.332648" lon="9.945116"><time>2021-07-03T10:53:30.000Z</time><ele>2418.4</ele></trkpt><trkpt lat="46.332575" lon="9.945165"><time>2021-07-03T10:53:38.000Z</time><ele>2419.2</ele></trkpt><trkpt lat="46.332566" lon="9.94517"><time>2021-07-03T10:53:39.000Z</time><ele>2419.2</ele></trkpt><trkpt lat="46.332487" lon="9.945174"><time>2021-07-03T10:53:46.000Z</time><ele>2419.4</ele></trkpt><trkpt lat="46.332432" lon="9.945192"><time>2021-07-03T10:53:51.000Z</time><ele>2419.6</ele></trkpt><trkpt lat="46.332423" lon="9.945196"><time>2021-07-03T10:53:52.000Z</time><ele>2419.6</ele></trkpt><trkpt lat="46.332385" lon="9.945213"><time>2021-07-03T10:53:56.000Z</time><ele>2419.8</ele></trkpt><trkpt lat="46.332332" lon="9.945224"><time>2021-07-03T10:54:01.000Z</time><ele>2420.6</ele></trkpt><trkpt lat="46.332295" lon="9.94524"><time>2021-07-03T10:54:04.000Z</time><ele>2420.8</ele></trkpt><trkpt lat="46.332179" lon="9.945303"><time>2021-07-03T10:54:15.000Z</time><ele>2421</ele></trkpt><trkpt lat="46.332084" lon="9.945345"><time>2021-07-03T10:54:24.000Z</time><ele>2421.8</ele></trkpt><trkpt lat="46.332039" lon="9.945359"><time>2021-07-03T10:54:28.000Z</time><ele>2422</ele></trkpt><trkpt lat="46.331929" lon="9.945333"><time>2021-07-03T10:54:38.000Z</time><ele>2422</ele></trkpt><trkpt lat="46.331907" lon="9.945322"><time>2021-07-03T10:54:40.000Z</time><ele>2422</ele></trkpt><trkpt lat="46.331864" lon="9.945276"><time>2021-07-03T10:54:45.000Z</time><ele>2421.4</ele></trkpt><trkpt lat="46.331856" lon="9.94527"><time>2021-07-03T10:54:46.000Z</time><ele>2421.2</ele></trkpt><trkpt lat="46.331827" lon="9.945265"><time>2021-07-03T10:54:49.000Z</time><ele>2420.8</ele></trkpt><trkpt lat="46.33181" lon="9.94525"><time>2021-07-03T10:54:51.000Z</time><ele>2420.4</ele></trkpt><trkpt lat="46.331786" lon="9.945219"><time>2021-07-03T10:54:54.000Z</time><ele>2419.8</ele></trkpt><trkpt lat="46.331767" lon="9.945161"><time>2021-07-03T10:54:58.000Z</time><ele>2419.4</ele></trkpt><trkpt lat="46.331711" lon="9.945052"><time>2021-07-03T10:55:07.000Z</time><ele>2419</ele></trkpt><trkpt lat="46.331697" lon="9.945005"><time>2021-07-03T10:55:11.000Z</time><ele>2419</ele></trkpt><trkpt lat="46.331691" lon="9.944984"><time>2021-07-03T10:55:13.000Z</time><ele>2418.8</ele></trkpt><trkpt lat="46.331686" lon="9.944976"><time>2021-07-03T10:55:14.000Z</time><ele>2418.8</ele></trkpt><trkpt lat="46.331677" lon="9.944959"><time>2021-07-03T10:55:16.000Z</time><ele>2418.6</ele></trkpt><trkpt lat="46.331631" lon="9.944863"><time>2021-07-03T10:55:25.000Z</time><ele>2417.6</ele></trkpt><trkpt lat="46.331589" lon="9.944748"><time>2021-07-03T10:55:33.000Z</time><ele>2416.4</ele></trkpt><trkpt lat="46.331583" lon="9.944736"><time>2021-07-03T10:55:34.000Z</time><ele>2416.4</ele></trkpt><trkpt lat="46.331557" lon="9.944657"><time>2021-07-03T10:55:41.000Z</time><ele>2416.2</ele></trkpt><trkpt lat="46.331547" lon="9.944641"><time>2021-07-03T10:55:43.000Z</time><ele>2416.2</ele></trkpt><trkpt lat="46.331538" lon="9.944579"><time>2021-07-03T10:55:49.000Z</time><ele>2417.2</ele></trkpt><trkpt lat="46.331524" lon="9.944565"><time>2021-07-03T10:55:52.000Z</time><ele>2417.6</ele></trkpt><trkpt lat="46.331506" lon="9.944566"><time>2021-07-03T10:55:54.000Z</time><ele>2417.6</ele></trkpt><trkpt lat="46.331483" lon="9.944566"><time>2021-07-03T10:55:56.000Z</time><ele>2417.6</ele></trkpt><trkpt lat="46.331452" lon="9.944576"><time>2021-07-03T10:55:59.000Z</time><ele>2417.8</ele></trkpt><trkpt lat="46.331443" lon="9.94461"><time>2021-07-03T10:56:02.000Z</time><ele>2417.6</ele></trkpt><trkpt lat="46.331442" lon="9.944642"><time>2021-07-03T10:56:05.000Z</time><ele>2417.4</ele></trkpt><trkpt lat="46.33144" lon="9.94467"><time>2021-07-03T10:56:08.000Z</time><ele>2417.4</ele></trkpt><trkpt lat="46.331444" lon="9.944689"><time>2021-07-03T10:56:10.000Z</time><ele>2417.4</ele></trkpt><trkpt lat="46.331448" lon="9.944717"><time>2021-07-03T10:56:13.000Z</time><ele>2417.2</ele></trkpt><trkpt lat="46.331452" lon="9.944767"><time>2021-07-03T10:56:16.000Z</time><ele>2416.6</ele></trkpt><trkpt lat="46.331455" lon="9.944805"><time>2021-07-03T10:56:18.000Z</time><ele>2416.4</ele></trkpt><trkpt lat="46.33146" lon="9.944832"><time>2021-07-03T10:56:20.000Z</time><ele>2416.2</ele></trkpt><trkpt lat="46.331461" lon="9.944897"><time>2021-07-03T10:56:24.000Z</time><ele>2415.8</ele></trkpt><trkpt lat="46.331452" lon="9.944986"><time>2021-07-03T10:56:32.000Z</time><ele>2416.4</ele></trkpt><trkpt lat="46.331442" lon="9.945062"><time>2021-07-03T10:56:38.000Z</time><ele>2417.4</ele></trkpt><trkpt lat="46.331403" lon="9.945265"><time>2021-07-03T10:56:49.000Z</time><ele>2417</ele></trkpt><trkpt lat="46.331382" lon="9.945428"><time>2021-07-03T10:56:58.000Z</time><ele>2416.4</ele></trkpt><trkpt lat="46.33138" lon="9.945465"><time>2021-07-03T10:57:00.000Z</time><ele>2416.2</ele></trkpt><trkpt lat="46.331384" lon="9.945669"><time>2021-07-03T10:57:11.000Z</time><ele>2415.6</ele></trkpt><trkpt lat="46.331385" lon="9.945785"><time>2021-07-03T10:57:19.000Z</time><ele>2416.2</ele></trkpt><trkpt lat="46.331367" lon="9.94587"><time>2021-07-03T10:57:25.000Z</time><ele>2417.4</ele></trkpt><trkpt lat="46.331356" lon="9.945916"><time>2021-07-03T10:57:28.000Z</time><ele>2417.6</ele></trkpt><trkpt lat="46.331304" lon="9.94605"><time>2021-07-03T10:57:37.000Z</time><ele>2417.2</ele></trkpt><trkpt lat="46.331257" lon="9.946134"><time>2021-07-03T10:57:43.000Z</time><ele>2416</ele></trkpt><trkpt lat="46.331209" lon="9.946172"><time>2021-07-03T10:57:48.000Z</time><ele>2415.2</ele></trkpt><trkpt lat="46.331185" lon="9.946188"><time>2021-07-03T10:57:50.000Z</time><ele>2415.2</ele></trkpt><trkpt lat="46.331158" lon="9.946208"><time>2021-07-03T10:57:52.000Z</time><ele>2414.8</ele></trkpt><trkpt lat="46.331083" lon="9.946296"><time>2021-07-03T10:58:00.000Z</time><ele>2414</ele></trkpt><trkpt lat="46.331036" lon="9.946323"><time>2021-07-03T10:58:05.000Z</time><ele>2413.8</ele></trkpt><trkpt lat="46.331027" lon="9.946332"><time>2021-07-03T10:58:06.000Z</time><ele>2413.6</ele></trkpt><trkpt lat="46.331016" lon="9.946342"><time>2021-07-03T10:58:07.000Z</time><ele>2413.4</ele></trkpt><trkpt lat="46.331011" lon="9.946356"><time>2021-07-03T10:58:08.000Z</time><ele>2413</ele></trkpt><trkpt lat="46.331003" lon="9.946387"><time>2021-07-03T10:58:10.000Z</time><ele>2412.4</ele></trkpt><trkpt lat="46.330992" lon="9.94643"><time>2021-07-03T10:58:13.000Z</time><ele>2411.2</ele></trkpt><trkpt lat="46.330987" lon="9.946441"><time>2021-07-03T10:58:14.000Z</time><ele>2411</ele></trkpt><trkpt lat="46.330975" lon="9.946466"><time>2021-07-03T10:58:16.000Z</time><ele>2410</ele></trkpt><trkpt lat="46.330961" lon="9.946493"><time>2021-07-03T10:58:19.000Z</time><ele>2409</ele></trkpt><trkpt lat="46.330955" lon="9.946501"><time>2021-07-03T10:58:20.000Z</time><ele>2409</ele></trkpt><trkpt lat="46.33094" lon="9.946529"><time>2021-07-03T10:58:23.000Z</time><ele>2408.4</ele></trkpt><trkpt lat="46.33092" lon="9.946576"><time>2021-07-03T10:58:27.000Z</time><ele>2407.6</ele></trkpt><trkpt lat="46.330892" lon="9.946595"><time>2021-07-03T10:58:30.000Z</time><ele>2406.6</ele></trkpt><trkpt lat="46.330883" lon="9.946605"><time>2021-07-03T10:58:31.000Z</time><ele>2406.6</ele></trkpt><trkpt lat="46.330871" lon="9.946624"><time>2021-07-03T10:58:33.000Z</time><ele>2406.2</ele></trkpt><trkpt lat="46.330866" lon="9.946648"><time>2021-07-03T10:58:35.000Z</time><ele>2405.8</ele></trkpt><trkpt lat="46.330864" lon="9.946674"><time>2021-07-03T10:58:37.000Z</time><ele>2405.6</ele></trkpt><trkpt lat="46.330866" lon="9.946681"><time>2021-07-03T10:58:38.000Z</time><ele>2405.2</ele></trkpt><trkpt lat="46.330866" lon="9.946688"><time>2021-07-03T10:58:39.000Z</time><ele>2404.8</ele></trkpt><trkpt lat="46.330869" lon="9.946704"><time>2021-07-03T10:58:41.000Z</time><ele>2404.2</ele></trkpt><trkpt lat="46.330857" lon="9.946741"><time>2021-07-03T10:58:45.000Z</time><ele>2403.4</ele></trkpt><trkpt lat="46.330857" lon="9.946751"><time>2021-07-03T10:58:46.000Z</time><ele>2403.4</ele></trkpt><trkpt lat="46.330856" lon="9.94676"><time>2021-07-03T10:58:47.000Z</time><ele>2403</ele></trkpt><trkpt lat="46.33084" lon="9.946772"><time>2021-07-03T10:58:49.000Z</time><ele>2402.8</ele></trkpt><trkpt lat="46.33081" lon="9.946812"><time>2021-07-03T10:58:53.000Z</time><ele>2402</ele></trkpt><trkpt lat="46.330807" lon="9.946822"><time>2021-07-03T10:58:54.000Z</time><ele>2401.8</ele></trkpt><trkpt lat="46.330801" lon="9.946844"><time>2021-07-03T10:58:56.000Z</time><ele>2401.4</ele></trkpt><trkpt lat="46.33079" lon="9.946875"><time>2021-07-03T10:58:59.000Z</time><ele>2401</ele></trkpt><trkpt lat="46.330783" lon="9.946888"><time>2021-07-03T10:59:00.000Z</time><ele>2400.8</ele></trkpt><trkpt lat="46.330776" lon="9.946904"><time>2021-07-03T10:59:01.000Z</time><ele>2400.6</ele></trkpt><trkpt lat="46.330737" lon="9.946967"><time>2021-07-03T10:59:06.000Z</time><ele>2399.8</ele></trkpt><trkpt lat="46.330726" lon="9.946977"><time>2021-07-03T10:59:08.000Z</time><ele>2399.4</ele></trkpt><trkpt lat="46.330699" lon="9.947017"><time>2021-07-03T10:59:12.000Z</time><ele>2399</ele></trkpt><trkpt lat="46.330694" lon="9.947044"><time>2021-07-03T10:59:14.000Z</time><ele>2398.8</ele></trkpt><trkpt lat="46.330674" lon="9.947094"><time>2021-07-03T10:59:17.000Z</time><ele>2398.4</ele></trkpt><trkpt lat="46.330646" lon="9.947154"><time>2021-07-03T10:59:22.000Z</time><ele>2397.2</ele></trkpt><trkpt lat="46.33061" lon="9.947201"><time>2021-07-03T10:59:27.000Z</time><ele>2396.2</ele></trkpt><trkpt lat="46.330606" lon="9.947215"><time>2021-07-03T10:59:28.000Z</time><ele>2396</ele></trkpt><trkpt lat="46.330599" lon="9.947229"><time>2021-07-03T10:59:29.000Z</time><ele>2395.8</ele></trkpt><trkpt lat="46.330579" lon="9.947254"><time>2021-07-03T10:59:31.000Z</time><ele>2395.2</ele></trkpt><trkpt lat="46.330571" lon="9.947266"><time>2021-07-03T10:59:32.000Z</time><ele>2394.8</ele></trkpt><trkpt lat="46.330538" lon="9.947326"><time>2021-07-03T10:59:38.000Z</time><ele>2394</ele></trkpt><trkpt lat="46.330536" lon="9.947345"><time>2021-07-03T10:59:40.000Z</time><ele>2393.6</ele></trkpt><trkpt lat="46.330529" lon="9.947404"><time>2021-07-03T10:59:44.000Z</time><ele>2392.4</ele></trkpt><trkpt lat="46.33053" lon="9.947446"><time>2021-07-03T10:59:46.000Z</time><ele>2392.2</ele></trkpt><trkpt lat="46.330537" lon="9.947568"><time>2021-07-03T10:59:54.000Z</time><ele>2391.4</ele></trkpt><trkpt lat="46.330534" lon="9.947588"><time>2021-07-03T10:59:55.000Z</time><ele>2391.4</ele></trkpt><trkpt lat="46.330508" lon="9.947656"><time>2021-07-03T11:00:00.000Z</time><ele>2391</ele></trkpt><trkpt lat="46.330502" lon="9.947673"><time>2021-07-03T11:00:01.000Z</time><ele>2391</ele></trkpt><trkpt lat="46.330495" lon="9.947691"><time>2021-07-03T11:00:02.000Z</time><ele>2390.8</ele></trkpt><trkpt lat="46.330479" lon="9.947758"><time>2021-07-03T11:00:06.000Z</time><ele>2390.4</ele></trkpt><trkpt lat="46.330463" lon="9.947855"><time>2021-07-03T11:00:12.000Z</time><ele>2390.2</ele></trkpt><trkpt lat="46.330443" lon="9.947908"><time>2021-07-03T11:00:16.000Z</time><ele>2389.4</ele></trkpt><trkpt lat="46.330436" lon="9.947936"><time>2021-07-03T11:00:18.000Z</time><ele>2389</ele></trkpt><trkpt lat="46.330423" lon="9.947951"><time>2021-07-03T11:00:20.000Z</time><ele>2388.6</ele></trkpt><trkpt lat="46.330412" lon="9.94796"><time>2021-07-03T11:00:21.000Z</time><ele>2388.4</ele></trkpt><trkpt lat="46.330403" lon="9.947973"><time>2021-07-03T11:00:22.000Z</time><ele>2388.2</ele></trkpt><trkpt lat="46.330394" lon="9.947998"><time>2021-07-03T11:00:24.000Z</time><ele>2387.8</ele></trkpt><trkpt lat="46.330365" lon="9.948051"><time>2021-07-03T11:00:29.000Z</time><ele>2387.6</ele></trkpt><trkpt lat="46.330346" lon="9.948091"><time>2021-07-03T11:00:33.000Z</time><ele>2387.4</ele></trkpt><trkpt lat="46.33033" lon="9.948116"><time>2021-07-03T11:00:36.000Z</time><ele>2387.2</ele></trkpt><trkpt lat="46.330312" lon="9.948152"><time>2021-07-03T11:00:40.000Z</time><ele>2386.6</ele></trkpt><trkpt lat="46.330302" lon="9.94816"><time>2021-07-03T11:00:41.000Z</time><ele>2386.6</ele></trkpt><trkpt lat="46.330265" lon="9.948206"><time>2021-07-03T11:00:46.000Z</time><ele>2386.4</ele></trkpt><trkpt lat="46.330222" lon="9.948251"><time>2021-07-03T11:00:51.000Z</time><ele>2386.4</ele></trkpt><trkpt lat="46.330203" lon="9.948262"><time>2021-07-03T11:00:53.000Z</time><ele>2386.2</ele></trkpt><trkpt lat="46.330191" lon="9.948282"><time>2021-07-03T11:00:55.000Z</time><ele>2386.2</ele></trkpt><trkpt lat="46.330164" lon="9.948308"><time>2021-07-03T11:00:58.000Z</time><ele>2386.2</ele></trkpt><trkpt lat="46.330151" lon="9.948325"><time>2021-07-03T11:01:00.000Z</time><ele>2386.2</ele></trkpt><trkpt lat="46.330143" lon="9.948337"><time>2021-07-03T11:01:01.000Z</time><ele>2386</ele></trkpt><trkpt lat="46.330082" lon="9.948462"><time>2021-07-03T11:01:10.000Z</time><ele>2385.6</ele></trkpt><trkpt lat="46.330034" lon="9.948609"><time>2021-07-03T11:01:18.000Z</time><ele>2385.4</ele></trkpt><trkpt lat="46.330024" lon="9.948616"><time>2021-07-03T11:01:19.000Z</time><ele>2385.2</ele></trkpt><trkpt lat="46.330013" lon="9.948623"><time>2021-07-03T11:01:20.000Z</time><ele>2385.2</ele></trkpt><trkpt lat="46.32992" lon="9.948702"><time>2021-07-03T11:01:28.000Z</time><ele>2384</ele></trkpt><trkpt lat="46.329893" lon="9.948722"><time>2021-07-03T11:01:30.000Z</time><ele>2383.8</ele></trkpt><trkpt lat="46.329871" lon="9.948735"><time>2021-07-03T11:01:32.000Z</time><ele>2383.4</ele></trkpt><trkpt lat="46.329843" lon="9.948747"><time>2021-07-03T11:01:34.000Z</time><ele>2383.2</ele></trkpt><trkpt lat="46.32982" lon="9.94876"><time>2021-07-03T11:01:36.000Z</time><ele>2383</ele></trkpt><trkpt lat="46.329779" lon="9.948776"><time>2021-07-03T11:01:40.000Z</time><ele>2382.8</ele></trkpt><trkpt lat="46.329677" lon="9.948799"><time>2021-07-03T11:01:48.000Z</time><ele>2382.4</ele></trkpt><trkpt lat="46.329654" lon="9.948819"><time>2021-07-03T11:01:51.000Z</time><ele>2382</ele></trkpt><trkpt lat="46.329645" lon="9.948816"><time>2021-07-03T11:01:52.000Z</time><ele>2381.8</ele></trkpt><trkpt lat="46.329637" lon="9.948816"><time>2021-07-03T11:01:53.000Z</time><ele>2381.8</ele></trkpt><trkpt lat="46.329627" lon="9.94882"><time>2021-07-03T11:01:54.000Z</time><ele>2381.8</ele></trkpt><trkpt lat="46.329599" lon="9.948852"><time>2021-07-03T11:01:58.000Z</time><ele>2380.6</ele></trkpt><trkpt lat="46.329592" lon="9.948863"><time>2021-07-03T11:01:59.000Z</time><ele>2380.2</ele></trkpt><trkpt lat="46.329581" lon="9.948885"><time>2021-07-03T11:02:01.000Z</time><ele>2379.2</ele></trkpt><trkpt lat="46.329575" lon="9.948889"><time>2021-07-03T11:02:02.000Z</time><ele>2379</ele></trkpt><trkpt lat="46.329559" lon="9.948912"><time>2021-07-03T11:02:05.000Z</time><ele>2378.4</ele></trkpt><trkpt lat="46.329537" lon="9.948955"><time>2021-07-03T11:02:09.000Z</time><ele>2378.2</ele></trkpt><trkpt lat="46.329533" lon="9.948989"><time>2021-07-03T11:02:12.000Z</time><ele>2377.4</ele></trkpt><trkpt lat="46.329525" lon="9.949001"><time>2021-07-03T11:02:14.000Z</time><ele>2377</ele></trkpt><trkpt lat="46.329496" lon="9.949032"><time>2021-07-03T11:02:18.000Z</time><ele>2376.8</ele></trkpt><trkpt lat="46.32949" lon="9.949053"><time>2021-07-03T11:02:20.000Z</time><ele>2376.8</ele></trkpt><trkpt lat="46.329471" lon="9.94909"><time>2021-07-03T11:02:25.000Z</time><ele>2376</ele></trkpt><trkpt lat="46.32946" lon="9.949108"><time>2021-07-03T11:02:27.000Z</time><ele>2376.2</ele></trkpt><trkpt lat="46.329405" lon="9.949225"><time>2021-07-03T11:02:37.000Z</time><ele>2375.4</ele></trkpt><trkpt lat="46.329387" lon="9.949264"><time>2021-07-03T11:02:40.000Z</time><ele>2375.2</ele></trkpt><trkpt lat="46.329371" lon="9.949324"><time>2021-07-03T11:02:43.000Z</time><ele>2375.2</ele></trkpt><trkpt lat="46.329362" lon="9.949375"><time>2021-07-03T11:02:46.000Z</time><ele>2375</ele></trkpt><trkpt lat="46.32936" lon="9.949395"><time>2021-07-03T11:02:47.000Z</time><ele>2375</ele></trkpt><trkpt lat="46.329352" lon="9.949534"><time>2021-07-03T11:02:56.000Z</time><ele>2375.8</ele></trkpt><trkpt lat="46.32935" lon="9.949566"><time>2021-07-03T11:02:58.000Z</time><ele>2375.8</ele></trkpt><trkpt lat="46.329336" lon="9.949622"><time>2021-07-03T11:03:02.000Z</time><ele>2376</ele></trkpt><trkpt lat="46.329335" lon="9.949651"><time>2021-07-03T11:03:04.000Z</time><ele>2376</ele></trkpt><trkpt lat="46.329337" lon="9.949685"><time>2021-07-03T11:03:07.000Z</time><ele>2376.4</ele></trkpt><trkpt lat="46.329332" lon="9.949749"><time>2021-07-03T11:03:12.000Z</time><ele>2377</ele></trkpt><trkpt lat="46.329324" lon="9.949766"><time>2021-07-03T11:03:14.000Z</time><ele>2377.2</ele></trkpt><trkpt lat="46.329318" lon="9.949858"><time>2021-07-03T11:03:20.000Z</time><ele>2378</ele></trkpt><trkpt lat="46.329323" lon="9.949877"><time>2021-07-03T11:03:21.000Z</time><ele>2378</ele></trkpt><trkpt lat="46.329332" lon="9.949904"><time>2021-07-03T11:03:24.000Z</time><ele>2378.2</ele></trkpt><trkpt lat="46.32933" lon="9.949907"><time>2021-07-03T11:03:26.000Z</time><ele>2378.4</ele></trkpt><trkpt lat="46.329327" lon="9.949914"><time>2021-07-03T11:03:27.000Z</time><ele>2378.6</ele></trkpt><trkpt lat="46.329329" lon="9.949932"><time>2021-07-03T11:03:29.000Z</time><ele>2378.8</ele></trkpt><trkpt lat="46.329332" lon="9.949936"><time>2021-07-03T11:03:31.000Z</time><ele>2379</ele></trkpt><trkpt lat="46.329328" lon="9.949934"><time>2021-07-03T11:03:33.000Z</time><ele>2379</ele></trkpt><trkpt lat="46.329291" lon="9.949904"><time>2021-07-03T11:03:38.000Z</time><ele>2379</ele></trkpt><trkpt lat="46.329249" lon="9.949991"><time>2021-07-03T11:03:44.000Z</time><ele>2378.4</ele></trkpt><trkpt lat="46.32924" lon="9.950043"><time>2021-07-03T11:03:47.000Z</time><ele>2378.2</ele></trkpt><trkpt lat="46.32924" lon="9.95006"><time>2021-07-03T11:03:48.000Z</time><ele>2378.2</ele></trkpt><trkpt lat="46.329251" lon="9.950089"><time>2021-07-03T11:03:51.000Z</time><ele>2378.4</ele></trkpt><trkpt lat="46.329255" lon="9.950092"><time>2021-07-03T11:03:52.000Z</time><ele>2378.4</ele></trkpt><trkpt lat="46.329275" lon="9.950103"><time>2021-07-03T11:03:55.000Z</time><ele>2378.4</ele></trkpt><trkpt lat="46.329305" lon="9.950137"><time>2021-07-03T11:03:59.000Z</time><ele>2378.6</ele></trkpt><trkpt lat="46.329363" lon="9.950169"><time>2021-07-03T11:04:04.000Z</time><ele>2378.4</ele></trkpt><trkpt lat="46.329388" lon="9.950171"><time>2021-07-03T11:04:06.000Z</time><ele>2378.4</ele></trkpt><trkpt lat="46.329411" lon="9.950167"><time>2021-07-03T11:04:08.000Z</time><ele>2378.4</ele></trkpt><trkpt lat="46.329432" lon="9.950114"><time>2021-07-03T11:04:12.000Z</time><ele>2378.8</ele></trkpt><trkpt lat="46.329442" lon="9.950086"><time>2021-07-03T11:04:14.000Z</time><ele>2379.2</ele></trkpt><trkpt lat="46.329446" lon="9.95005"><time>2021-07-03T11:04:16.000Z</time><ele>2379.6</ele></trkpt><trkpt lat="46.329443" lon="9.950016"><time>2021-07-03T11:04:19.000Z</time><ele>2380</ele></trkpt><trkpt lat="46.329446" lon="9.950003"><time>2021-07-03T11:04:20.000Z</time><ele>2380.2</ele></trkpt><trkpt lat="46.329447" lon="9.949991"><time>2021-07-03T11:04:21.000Z</time><ele>2380.4</ele></trkpt><trkpt lat="46.329442" lon="9.949942"><time>2021-07-03T11:04:25.000Z</time><ele>2380.6</ele></trkpt><trkpt lat="46.32943" lon="9.949895"><time>2021-07-03T11:04:28.000Z</time><ele>2380.4</ele></trkpt><trkpt lat="46.329393" lon="9.949871"><time>2021-07-03T11:04:31.000Z</time><ele>2379.2</ele></trkpt><trkpt lat="46.32938" lon="9.949868"><time>2021-07-03T11:04:32.000Z</time><ele>2379.2</ele></trkpt><trkpt lat="46.329357" lon="9.949865"><time>2021-07-03T11:04:34.000Z</time><ele>2379</ele></trkpt><trkpt lat="46.329291" lon="9.949855"><time>2021-07-03T11:04:39.000Z</time><ele>2376.8</ele></trkpt><trkpt lat="46.329273" lon="9.949896"><time>2021-07-03T11:04:41.000Z</time><ele>2376.8</ele></trkpt><trkpt lat="46.329285" lon="9.949939"><time>2021-07-03T11:09:42.000Z</time><ele>2377.2</ele></trkpt><trkpt lat="46.329308" lon="9.949795"><time>2021-07-03T11:09:44.000Z</time><ele>2377</ele></trkpt><trkpt lat="46.329307" lon="9.949782"><time>2021-07-03T11:09:45.000Z</time><ele>2376.8</ele></trkpt><trkpt lat="46.329305" lon="9.949781"><time>2021-07-03T11:09:48.000Z</time><ele>2376.4</ele></trkpt><trkpt lat="46.329315" lon="9.949735"><time>2021-07-03T11:09:52.000Z</time><ele>2376.4</ele></trkpt><trkpt lat="46.329327" lon="9.949743"><time>2021-07-03T11:10:00.000Z</time><ele>2377.2</ele></trkpt><trkpt lat="46.329342" lon="9.949738"><time>2021-07-03T11:10:04.000Z</time><ele>2377</ele></trkpt><trkpt lat="46.329337" lon="9.949738"><time>2021-07-03T11:10:08.000Z</time><ele>2376.8</ele></trkpt><trkpt lat="46.329338" lon="9.949742"><time>2021-07-03T11:10:12.000Z</time><ele>2376.2</ele></trkpt><trkpt lat="46.329338" lon="9.949742"><time>2021-07-03T11:10:20.000Z</time><ele>2376.6</ele></trkpt><trkpt lat="46.329351" lon="9.949738"><time>2021-07-03T11:10:31.000Z</time><ele>2376.4</ele></trkpt><trkpt lat="46.329364" lon="9.949703"><time>2021-07-03T11:10:35.000Z</time><ele>2376.2</ele></trkpt><trkpt lat="46.329376" lon="9.949684"><time>2021-07-03T11:10:44.000Z</time><ele>2376</ele></trkpt><trkpt lat="46.329378" lon="9.949679"><time>2021-07-03T11:10:56.000Z</time><ele>2376.8</ele></trkpt><trkpt lat="46.329378" lon="9.949679"><time>2021-07-03T11:10:57.000Z</time><ele>2376.8</ele></trkpt><trkpt lat="46.32935" lon="9.949694"><time>2021-07-03T11:11:22.000Z</time><ele>2376.8</ele></trkpt><trkpt lat="46.329334" lon="9.94977"><time>2021-07-03T11:11:26.000Z</time><ele>2376.8</ele></trkpt><trkpt lat="46.329326" lon="9.949791"><time>2021-07-03T11:11:27.000Z</time><ele>2376.8</ele></trkpt><trkpt lat="46.329304" lon="9.949865"><time>2021-07-03T11:11:32.000Z</time><ele>2377.2</ele></trkpt><trkpt lat="46.329299" lon="9.949868"><time>2021-07-03T11:11:33.000Z</time><ele>2377.4</ele></trkpt><trkpt lat="46.329294" lon="9.949873"><time>2021-07-03T11:11:34.000Z</time><ele>2377.6</ele></trkpt><trkpt lat="46.329289" lon="9.949866"><time>2021-07-03T11:11:35.000Z</time><ele>2377.6</ele></trkpt><trkpt lat="46.329203" lon="9.949884"><time>2021-07-03T12:13:15.000Z</time><ele>2381.8</ele></trkpt><trkpt lat="46.329213" lon="9.94987"><time>2021-07-03T12:13:17.000Z</time><ele>2382</ele></trkpt><trkpt lat="46.329223" lon="9.949858"><time>2021-07-03T12:13:19.000Z</time><ele>2382</ele></trkpt><trkpt lat="46.329225" lon="9.949876"><time>2021-07-03T12:13:21.000Z</time><ele>2382</ele></trkpt><trkpt lat="46.329221" lon="9.949874"><time>2021-07-03T12:13:22.000Z</time><ele>2382</ele></trkpt><trkpt lat="46.329224" lon="9.949872"><time>2021-07-03T12:13:24.000Z</time><ele>2381.8</ele></trkpt><trkpt lat="46.329225" lon="9.949868"><time>2021-07-03T12:13:28.000Z</time><ele>2381.8</ele></trkpt><trkpt lat="46.329245" lon="9.949979"><time>2021-07-03T12:13:35.000Z</time><ele>2382</ele></trkpt><trkpt lat="46.329242" lon="9.949968"><time>2021-07-03T12:13:37.000Z</time><ele>2382</ele></trkpt><trkpt lat="46.32925" lon="9.949924"><time>2021-07-03T12:13:39.000Z</time><ele>2382</ele></trkpt><trkpt lat="46.329269" lon="9.949885"><time>2021-07-03T12:13:41.000Z</time><ele>2382</ele></trkpt><trkpt lat="46.329273" lon="9.94988"><time>2021-07-03T12:13:43.000Z</time><ele>2382</ele></trkpt><trkpt lat="46.329276" lon="9.949885"><time>2021-07-03T12:13:44.000Z</time><ele>2382</ele></trkpt><trkpt lat="46.329307" lon="9.949887"><time>2021-07-03T12:13:53.000Z</time><ele>2382.4</ele></trkpt><trkpt lat="46.329307" lon="9.949887"><time>2021-07-03T12:13:55.000Z</time><ele>2382.6</ele></trkpt><trkpt lat="46.329299" lon="9.949871"><time>2021-07-03T12:14:01.000Z</time><ele>2382.4</ele></trkpt><trkpt lat="46.329304" lon="9.949871"><time>2021-07-03T12:14:47.000Z</time><ele>2383.2</ele></trkpt><trkpt lat="46.329284" lon="9.949813"><time>2021-07-03T12:14:55.000Z</time><ele>2382.4</ele></trkpt><trkpt lat="46.329243" lon="9.949742"><time>2021-07-03T12:15:03.000Z</time><ele>2382.2</ele></trkpt><trkpt lat="46.329232" lon="9.94975"><time>2021-07-03T12:15:06.000Z</time><ele>2381.6</ele></trkpt><trkpt lat="46.329225" lon="9.949755"><time>2021-07-03T12:15:10.000Z</time><ele>2381.2</ele></trkpt><trkpt lat="46.329225" lon="9.949755"><time>2021-07-03T12:15:12.000Z</time><ele>2381</ele></trkpt><trkpt lat="46.329225" lon="9.949755"><time>2021-07-03T12:15:16.000Z</time><ele>2380.8</ele></trkpt><trkpt lat="46.329225" lon="9.949755"><time>2021-07-03T12:15:17.000Z</time><ele>2380.8</ele></trkpt><trkpt lat="46.329225" lon="9.949755"><time>2021-07-03T12:15:27.000Z</time><ele>2380.8</ele></trkpt><trkpt lat="46.329215" lon="9.949754"><time>2021-07-03T12:15:39.000Z</time><ele>2380.4</ele></trkpt><trkpt lat="46.329202" lon="9.949748"><time>2021-07-03T12:15:44.000Z</time><ele>2380.4</ele></trkpt><trkpt lat="46.329147" lon="9.949712"><time>2021-07-03T12:15:48.000Z</time><ele>2380</ele></trkpt><trkpt lat="46.32911" lon="9.949692"><time>2021-07-03T12:15:50.000Z</time><ele>2379.8</ele></trkpt><trkpt lat="46.329024" lon="9.949625"><time>2021-07-03T12:15:57.000Z</time><ele>2379.4</ele></trkpt><trkpt lat="46.329014" lon="9.949624"><time>2021-07-03T12:15:58.000Z</time><ele>2379.4</ele></trkpt><trkpt lat="46.329005" lon="9.949625"><time>2021-07-03T12:16:00.000Z</time><ele>2379.4</ele></trkpt><trkpt lat="46.329" lon="9.94962"><time>2021-07-03T12:16:01.000Z</time><ele>2379</ele></trkpt><trkpt lat="46.328987" lon="9.949604"><time>2021-07-03T12:16:04.000Z</time><ele>2378.2</ele></trkpt><trkpt lat="46.328984" lon="9.9496"><time>2021-07-03T12:16:06.000Z</time><ele>2377.6</ele></trkpt><trkpt lat="46.328961" lon="9.949579"><time>2021-07-03T12:16:12.000Z</time><ele>2377.4</ele></trkpt><trkpt lat="46.328947" lon="9.949566"><time>2021-07-03T12:16:14.000Z</time><ele>2377</ele></trkpt><trkpt lat="46.328905" lon="9.949561"><time>2021-07-03T12:16:19.000Z</time><ele>2376</ele></trkpt><trkpt lat="46.328888" lon="9.949559"><time>2021-07-03T12:16:21.000Z</time><ele>2375.4</ele></trkpt><trkpt lat="46.32888" lon="9.949555"><time>2021-07-03T12:16:22.000Z</time><ele>2375</ele></trkpt><trkpt lat="46.328877" lon="9.949547"><time>2021-07-03T12:16:23.000Z</time><ele>2374.8</ele></trkpt><trkpt lat="46.32886" lon="9.949539"><time>2021-07-03T12:16:25.000Z</time><ele>2374.6</ele></trkpt><trkpt lat="46.328841" lon="9.949528"><time>2021-07-03T12:16:28.000Z</time><ele>2373.8</ele></trkpt><trkpt lat="46.328834" lon="9.949523"><time>2021-07-03T12:16:29.000Z</time><ele>2373.6</ele></trkpt><trkpt lat="46.328819" lon="9.949508"><time>2021-07-03T12:16:31.000Z</time><ele>2373.2</ele></trkpt><trkpt lat="46.328803" lon="9.949505"><time>2021-07-03T12:16:33.000Z</time><ele>2372.6</ele></trkpt><trkpt lat="46.328796" lon="9.949501"><time>2021-07-03T12:16:34.000Z</time><ele>2372.2</ele></trkpt><trkpt lat="46.328765" lon="9.949482"><time>2021-07-03T12:16:38.000Z</time><ele>2371.4</ele></trkpt><trkpt lat="46.328757" lon="9.949459"><time>2021-07-03T12:16:40.000Z</time><ele>2370.8</ele></trkpt><trkpt lat="46.328743" lon="9.949429"><time>2021-07-03T12:16:43.000Z</time><ele>2370</ele></trkpt><trkpt lat="46.328709" lon="9.94936"><time>2021-07-03T12:16:50.000Z</time><ele>2369</ele></trkpt><trkpt lat="46.328703" lon="9.949333"><time>2021-07-03T12:16:52.000Z</time><ele>2368.4</ele></trkpt><trkpt lat="46.328692" lon="9.949309"><time>2021-07-03T12:16:56.000Z</time><ele>2367.8</ele></trkpt><trkpt lat="46.328686" lon="9.949289"><time>2021-07-03T12:16:58.000Z</time><ele>2367.4</ele></trkpt><trkpt lat="46.32868" lon="9.94928"><time>2021-07-03T12:16:59.000Z</time><ele>2367.2</ele></trkpt><trkpt lat="46.328653" lon="9.949249"><time>2021-07-03T12:17:05.000Z</time><ele>2366.8</ele></trkpt><trkpt lat="46.32865" lon="9.949244"><time>2021-07-03T12:17:06.000Z</time><ele>2366.8</ele></trkpt><trkpt lat="46.328643" lon="9.949218"><time>2021-07-03T12:17:09.000Z</time><ele>2365.6</ele></trkpt><trkpt lat="46.328643" lon="9.94921"><time>2021-07-03T12:17:10.000Z</time><ele>2365.4</ele></trkpt><trkpt lat="46.328641" lon="9.949197"><time>2021-07-03T12:17:12.000Z</time><ele>2365</ele></trkpt><trkpt lat="46.328636" lon="9.949184"><time>2021-07-03T12:17:14.000Z</time><ele>2364.6</ele></trkpt><trkpt lat="46.328615" lon="9.949137"><time>2021-07-03T12:17:20.000Z</time><ele>2363.4</ele></trkpt><trkpt lat="46.328604" lon="9.949123"><time>2021-07-03T12:17:22.000Z</time><ele>2363.2</ele></trkpt><trkpt lat="46.328597" lon="9.949119"><time>2021-07-03T12:17:24.000Z</time><ele>2362.6</ele></trkpt><trkpt lat="46.328592" lon="9.949115"><time>2021-07-03T12:17:25.000Z</time><ele>2362.4</ele></trkpt><trkpt lat="46.328589" lon="9.94911"><time>2021-07-03T12:17:26.000Z</time><ele>2362.4</ele></trkpt><trkpt lat="46.328584" lon="9.949102"><time>2021-07-03T12:17:27.000Z</time><ele>2362.2</ele></trkpt><trkpt lat="46.328565" lon="9.949083"><time>2021-07-03T12:17:30.000Z</time><ele>2361.8</ele></trkpt><trkpt lat="46.328538" lon="9.949068"><time>2021-07-03T12:17:33.000Z</time><ele>2361.2</ele></trkpt><trkpt lat="46.328522" lon="9.949042"><time>2021-07-03T12:17:36.000Z</time><ele>2360.6</ele></trkpt><trkpt lat="46.328511" lon="9.949027"><time>2021-07-03T12:17:38.000Z</time><ele>2360.4</ele></trkpt><trkpt lat="46.328506" lon="9.949026"><time>2021-07-03T12:17:39.000Z</time><ele>2360.4</ele></trkpt><trkpt lat="46.328502" lon="9.949022"><time>2021-07-03T12:17:40.000Z</time><ele>2360.2</ele></trkpt><trkpt lat="46.328463" lon="9.948996"><time>2021-07-03T12:17:47.000Z</time><ele>2359.2</ele></trkpt><trkpt lat="46.328442" lon="9.948976"><time>2021-07-03T12:17:50.000Z</time><ele>2358.4</ele></trkpt><trkpt lat="46.328435" lon="9.948967"><time>2021-07-03T12:17:51.000Z</time><ele>2358.2</ele></trkpt><trkpt lat="46.328422" lon="9.948962"><time>2021-07-03T12:17:53.000Z</time><ele>2357.8</ele></trkpt><trkpt lat="46.328417" lon="9.948958"><time>2021-07-03T12:17:54.000Z</time><ele>2357.6</ele></trkpt><trkpt lat="46.328401" lon="9.948941"><time>2021-07-03T12:17:57.000Z</time><ele>2357.2</ele></trkpt><trkpt lat="46.328383" lon="9.948936"><time>2021-07-03T12:18:00.000Z</time><ele>2356.8</ele></trkpt><trkpt lat="46.328365" lon="9.94894"><time>2021-07-03T12:18:02.000Z</time><ele>2356.6</ele></trkpt><trkpt lat="46.328361" lon="9.948959"><time>2021-07-03T12:18:04.000Z</time><ele>2356</ele></trkpt><trkpt lat="46.328361" lon="9.948987"><time>2021-07-03T12:18:07.000Z</time><ele>2355.6</ele></trkpt><trkpt lat="46.328365" lon="9.948997"><time>2021-07-03T12:18:09.000Z</time><ele>2355.2</ele></trkpt><trkpt lat="46.328366" lon="9.949003"><time>2021-07-03T12:18:10.000Z</time><ele>2355</ele></trkpt><trkpt lat="46.328366" lon="9.949007"><time>2021-07-03T12:18:11.000Z</time><ele>2354.8</ele></trkpt><trkpt lat="46.328366" lon="9.949017"><time>2021-07-03T12:18:12.000Z</time><ele>2354.8</ele></trkpt><trkpt lat="46.328371" lon="9.949056"><time>2021-07-03T12:18:17.000Z</time><ele>2354</ele></trkpt><trkpt lat="46.328376" lon="9.949071"><time>2021-07-03T12:18:19.000Z</time><ele>2354</ele></trkpt><trkpt lat="46.328377" lon="9.949095"><time>2021-07-03T12:18:22.000Z</time><ele>2353.4</ele></trkpt><trkpt lat="46.328383" lon="9.949102"><time>2021-07-03T12:18:24.000Z</time><ele>2353</ele></trkpt><trkpt lat="46.328383" lon="9.94911"><time>2021-07-03T12:18:25.000Z</time><ele>2352.8</ele></trkpt><trkpt lat="46.328395" lon="9.949157"><time>2021-07-03T12:18:30.000Z</time><ele>2351.6</ele></trkpt><trkpt lat="46.328398" lon="9.949184"><time>2021-07-03T12:18:33.000Z</time><ele>2351</ele></trkpt><trkpt lat="46.328398" lon="9.949194"><time>2021-07-03T12:18:34.000Z</time><ele>2350.8</ele></trkpt><trkpt lat="46.3284" lon="9.949215"><time>2021-07-03T12:18:36.000Z</time><ele>2350.4</ele></trkpt><trkpt lat="46.328406" lon="9.94925"><time>2021-07-03T12:18:40.000Z</time><ele>2349.2</ele></trkpt><trkpt lat="46.328401" lon="9.949271"><time>2021-07-03T12:18:42.000Z</time><ele>2348.8</ele></trkpt><trkpt lat="46.328399" lon="9.949281"><time>2021-07-03T12:18:43.000Z</time><ele>2348.6</ele></trkpt><trkpt lat="46.328409" lon="9.949317"><time>2021-07-03T12:18:47.000Z</time><ele>2348.2</ele></trkpt><trkpt lat="46.328413" lon="9.94935"><time>2021-07-03T12:18:51.000Z</time><ele>2347.4</ele></trkpt><trkpt lat="46.32842" lon="9.949378"><time>2021-07-03T12:18:54.000Z</time><ele>2347</ele></trkpt><trkpt lat="46.328422" lon="9.949438"><time>2021-07-03T12:19:00.000Z</time><ele>2345.6</ele></trkpt><trkpt lat="46.328425" lon="9.949456"><time>2021-07-03T12:19:02.000Z</time><ele>2345.4</ele></trkpt><trkpt lat="46.328428" lon="9.949486"><time>2021-07-03T12:19:06.000Z</time><ele>2344.6</ele></trkpt><trkpt lat="46.328437" lon="9.94951"><time>2021-07-03T12:19:09.000Z</time><ele>2344</ele></trkpt><trkpt lat="46.328434" lon="9.949543"><time>2021-07-03T12:19:12.000Z</time><ele>2343.4</ele></trkpt><trkpt lat="46.328438" lon="9.949574"><time>2021-07-03T12:19:15.000Z</time><ele>2342.6</ele></trkpt><trkpt lat="46.328441" lon="9.949583"><time>2021-07-03T12:19:16.000Z</time><ele>2342.4</ele></trkpt><trkpt lat="46.328443" lon="9.949589"><time>2021-07-03T12:19:17.000Z</time><ele>2342.2</ele></trkpt><trkpt lat="46.328447" lon="9.949641"><time>2021-07-03T12:19:24.000Z</time><ele>2341.4</ele></trkpt><trkpt lat="46.328451" lon="9.949646"><time>2021-07-03T12:19:25.000Z</time><ele>2341</ele></trkpt><trkpt lat="46.328454" lon="9.94969"><time>2021-07-03T12:19:31.000Z</time><ele>2340.2</ele></trkpt><trkpt lat="46.328454" lon="9.949698"><time>2021-07-03T12:19:32.000Z</time><ele>2340</ele></trkpt><trkpt lat="46.32845" lon="9.949735"><time>2021-07-03T12:19:37.000Z</time><ele>2339</ele></trkpt><trkpt lat="46.328456" lon="9.949769"><time>2021-07-03T12:19:40.000Z</time><ele>2338.6</ele></trkpt><trkpt lat="46.328467" lon="9.949802"><time>2021-07-03T12:19:43.000Z</time><ele>2337.8</ele></trkpt><trkpt lat="46.328476" lon="9.949857"><time>2021-07-03T12:19:48.000Z</time><ele>2336.6</ele></trkpt><trkpt lat="46.32848" lon="9.94988"><time>2021-07-03T12:19:50.000Z</time><ele>2336.2</ele></trkpt><trkpt lat="46.328486" lon="9.949916"><time>2021-07-03T12:19:53.000Z</time><ele>2335.6</ele></trkpt><trkpt lat="46.328491" lon="9.949947"><time>2021-07-03T12:19:56.000Z</time><ele>2335</ele></trkpt><trkpt lat="46.3285" lon="9.949977"><time>2021-07-03T12:20:00.000Z</time><ele>2334.4</ele></trkpt><trkpt lat="46.328504" lon="9.949987"><time>2021-07-03T12:20:01.000Z</time><ele>2334.2</ele></trkpt><trkpt lat="46.328514" lon="9.950008"><time>2021-07-03T12:20:04.000Z</time><ele>2334</ele></trkpt><trkpt lat="46.328525" lon="9.950064"><time>2021-07-03T12:20:09.000Z</time><ele>2333.2</ele></trkpt><trkpt lat="46.328523" lon="9.950079"><time>2021-07-03T12:20:10.000Z</time><ele>2332.6</ele></trkpt><trkpt lat="46.32852" lon="9.950116"><time>2021-07-03T12:20:13.000Z</time><ele>2331.8</ele></trkpt><trkpt lat="46.328518" lon="9.950162"><time>2021-07-03T12:20:18.000Z</time><ele>2331</ele></trkpt><trkpt lat="46.328515" lon="9.950197"><time>2021-07-03T12:20:21.000Z</time><ele>2330.8</ele></trkpt><trkpt lat="46.328517" lon="9.950259"><time>2021-07-03T12:20:26.000Z</time><ele>2330.2</ele></trkpt><trkpt lat="46.328518" lon="9.950273"><time>2021-07-03T12:20:27.000Z</time><ele>2330.2</ele></trkpt><trkpt lat="46.32852" lon="9.950289"><time>2021-07-03T12:20:29.000Z</time><ele>2329.6</ele></trkpt><trkpt lat="46.328533" lon="9.950324"><time>2021-07-03T12:20:33.000Z</time><ele>2328.8</ele></trkpt><trkpt lat="46.328537" lon="9.950332"><time>2021-07-03T12:20:34.000Z</time><ele>2328.6</ele></trkpt><trkpt lat="46.328555" lon="9.950374"><time>2021-07-03T12:20:40.000Z</time><ele>2327.4</ele></trkpt><trkpt lat="46.328556" lon="9.950383"><time>2021-07-03T12:20:41.000Z</time><ele>2327.2</ele></trkpt><trkpt lat="46.328565" lon="9.95044"><time>2021-07-03T12:20:46.000Z</time><ele>2326.4</ele></trkpt><trkpt lat="46.328574" lon="9.950462"><time>2021-07-03T12:20:49.000Z</time><ele>2325.6</ele></trkpt><trkpt lat="46.328586" lon="9.95049"><time>2021-07-03T12:20:52.000Z</time><ele>2325.4</ele></trkpt><trkpt lat="46.32859" lon="9.950498"><time>2021-07-03T12:20:53.000Z</time><ele>2325.2</ele></trkpt><trkpt lat="46.328593" lon="9.950522"><time>2021-07-03T12:20:55.000Z</time><ele>2324.4</ele></trkpt><trkpt lat="46.328592" lon="9.950537"><time>2021-07-03T12:20:56.000Z</time><ele>2324.2</ele></trkpt><trkpt lat="46.328593" lon="9.950548"><time>2021-07-03T12:20:57.000Z</time><ele>2324</ele></trkpt><trkpt lat="46.328593" lon="9.95056"><time>2021-07-03T12:20:58.000Z</time><ele>2323.8</ele></trkpt><trkpt lat="46.328584" lon="9.950567"><time>2021-07-03T12:21:02.000Z</time><ele>2323.2</ele></trkpt><trkpt lat="46.328567" lon="9.950554"><time>2021-07-03T12:21:05.000Z</time><ele>2322.8</ele></trkpt><trkpt lat="46.328554" lon="9.950548"><time>2021-07-03T12:21:08.000Z</time><ele>2322.4</ele></trkpt><trkpt lat="46.328544" lon="9.950548"><time>2021-07-03T12:21:10.000Z</time><ele>2322.4</ele></trkpt><trkpt lat="46.328536" lon="9.95054"><time>2021-07-03T12:21:11.000Z</time><ele>2322</ele></trkpt><trkpt lat="46.328527" lon="9.950534"><time>2021-07-03T12:21:17.000Z</time><ele>2321.4</ele></trkpt><trkpt lat="46.328531" lon="9.950536"><time>2021-07-03T12:21:21.000Z</time><ele>2321.2</ele></trkpt><trkpt lat="46.328528" lon="9.950536"><time>2021-07-03T12:21:32.000Z</time><ele>2321</ele></trkpt><trkpt lat="46.328527" lon="9.950534"><time>2021-07-03T12:21:37.000Z</time><ele>2320.6</ele></trkpt><trkpt lat="46.328497" lon="9.950521"><time>2021-07-03T12:21:50.000Z</time><ele>2320.4</ele></trkpt><trkpt lat="46.328495" lon="9.950516"><time>2021-07-03T12:21:54.000Z</time><ele>2319.8</ele></trkpt><trkpt lat="46.328491" lon="9.950514"><time>2021-07-03T12:21:59.000Z</time><ele>2319.2</ele></trkpt><trkpt lat="46.328486" lon="9.950506"><time>2021-07-03T12:22:03.000Z</time><ele>2318.8</ele></trkpt><trkpt lat="46.328396" lon="9.950463"><time>2021-07-03T12:22:10.000Z</time><ele>2318</ele></trkpt><trkpt lat="46.328356" lon="9.950442"><time>2021-07-03T12:22:13.000Z</time><ele>2317.6</ele></trkpt><trkpt lat="46.328311" lon="9.95041"><time>2021-07-03T12:22:19.000Z</time><ele>2316.8</ele></trkpt><trkpt lat="46.328304" lon="9.950407"><time>2021-07-03T12:22:21.000Z</time><ele>2316.6</ele></trkpt><trkpt lat="46.328294" lon="9.950398"><time>2021-07-03T12:22:25.000Z</time><ele>2316.2</ele></trkpt><trkpt lat="46.328253" lon="9.950372"><time>2021-07-03T12:22:33.000Z</time><ele>2315.6</ele></trkpt><trkpt lat="46.328248" lon="9.950366"><time>2021-07-03T12:22:34.000Z</time><ele>2315.4</ele></trkpt><trkpt lat="46.328241" lon="9.95034"><time>2021-07-03T12:22:37.000Z</time><ele>2315</ele></trkpt><trkpt lat="46.328238" lon="9.950318"><time>2021-07-03T12:22:40.000Z</time><ele>2314.4</ele></trkpt><trkpt lat="46.328235" lon="9.950308"><time>2021-07-03T12:22:41.000Z</time><ele>2314.2</ele></trkpt><trkpt lat="46.328223" lon="9.95027"><time>2021-07-03T12:22:46.000Z</time><ele>2313.4</ele></trkpt><trkpt lat="46.328223" lon="9.950269"><time>2021-07-03T12:22:47.000Z</time><ele>2313.4</ele></trkpt><trkpt lat="46.328222" lon="9.950261"><time>2021-07-03T12:22:48.000Z</time><ele>2313.4</ele></trkpt><trkpt lat="46.328214" lon="9.950219"><time>2021-07-03T12:22:53.000Z</time><ele>2312.8</ele></trkpt><trkpt lat="46.328194" lon="9.950188"><time>2021-07-03T12:22:58.000Z</time><ele>2312.2</ele></trkpt><trkpt lat="46.328191" lon="9.950184"><time>2021-07-03T12:22:59.000Z</time><ele>2312.2</ele></trkpt><trkpt lat="46.328152" lon="9.950142"><time>2021-07-03T12:23:05.000Z</time><ele>2311.6</ele></trkpt><trkpt lat="46.328134" lon="9.950131"><time>2021-07-03T12:23:08.000Z</time><ele>2311</ele></trkpt><trkpt lat="46.328122" lon="9.950101"><time>2021-07-03T12:23:11.000Z</time><ele>2310.4</ele></trkpt><trkpt lat="46.328116" lon="9.950097"><time>2021-07-03T12:23:12.000Z</time><ele>2310.4</ele></trkpt><trkpt lat="46.328104" lon="9.950088"><time>2021-07-03T12:23:14.000Z</time><ele>2310</ele></trkpt><trkpt lat="46.328103" lon="9.950081"><time>2021-07-03T12:23:15.000Z</time><ele>2309.8</ele></trkpt><trkpt lat="46.328102" lon="9.950073"><time>2021-07-03T12:23:16.000Z</time><ele>2309.6</ele></trkpt><trkpt lat="46.328084" lon="9.950049"><time>2021-07-03T12:23:19.000Z</time><ele>2309.2</ele></trkpt><trkpt lat="46.32807" lon="9.950033"><time>2021-07-03T12:23:21.000Z</time><ele>2308.8</ele></trkpt><trkpt lat="46.328059" lon="9.950022"><time>2021-07-03T12:23:24.000Z</time><ele>2308.4</ele></trkpt><trkpt lat="46.328059" lon="9.950015"><time>2021-07-03T12:23:25.000Z</time><ele>2308.2</ele></trkpt><trkpt lat="46.328056" lon="9.950008"><time>2021-07-03T12:23:26.000Z</time><ele>2308.2</ele></trkpt><trkpt lat="46.328052" lon="9.95"><time>2021-07-03T12:23:27.000Z</time><ele>2308.2</ele></trkpt><trkpt lat="46.328044" lon="9.949982"><time>2021-07-03T12:23:29.000Z</time><ele>2307.6</ele></trkpt><trkpt lat="46.328039" lon="9.94997"><time>2021-07-03T12:23:30.000Z</time><ele>2307.4</ele></trkpt><trkpt lat="46.328019" lon="9.949934"><time>2021-07-03T12:23:34.000Z</time><ele>2306.8</ele></trkpt><trkpt lat="46.32801" lon="9.949919"><time>2021-07-03T12:23:36.000Z</time><ele>2306.4</ele></trkpt><trkpt lat="46.328006" lon="9.949911"><time>2021-07-03T12:23:37.000Z</time><ele>2306.2</ele></trkpt><trkpt lat="46.327992" lon="9.94988"><time>2021-07-03T12:23:41.000Z</time><ele>2305.8</ele></trkpt><trkpt lat="46.327986" lon="9.949868"><time>2021-07-03T12:23:42.000Z</time><ele>2305.6</ele></trkpt><trkpt lat="46.327977" lon="9.949851"><time>2021-07-03T12:23:44.000Z</time><ele>2305.4</ele></trkpt><trkpt lat="46.327971" lon="9.94984"><time>2021-07-03T12:23:45.000Z</time><ele>2305.4</ele></trkpt><trkpt lat="46.327968" lon="9.949835"><time>2021-07-03T12:23:46.000Z</time><ele>2305.2</ele></trkpt><trkpt lat="46.327953" lon="9.949796"><time>2021-07-03T12:23:50.000Z</time><ele>2304.6</ele></trkpt><trkpt lat="46.327949" lon="9.949774"><time>2021-07-03T12:23:52.000Z</time><ele>2304.2</ele></trkpt><trkpt lat="46.327927" lon="9.949738"><time>2021-07-03T12:23:57.000Z</time><ele>2303.6</ele></trkpt><trkpt lat="46.327909" lon="9.949725"><time>2021-07-03T12:24:00.000Z</time><ele>2303.2</ele></trkpt><trkpt lat="46.327896" lon="9.949709"><time>2021-07-03T12:24:03.000Z</time><ele>2302.4</ele></trkpt><trkpt lat="46.327882" lon="9.949692"><time>2021-07-03T12:24:06.000Z</time><ele>2302</ele></trkpt><trkpt lat="46.327876" lon="9.949687"><time>2021-07-03T12:24:07.000Z</time><ele>2301.8</ele></trkpt><trkpt lat="46.327869" lon="9.949681"><time>2021-07-03T12:24:08.000Z</time><ele>2301.6</ele></trkpt><trkpt lat="46.32786" lon="9.949659"><time>2021-07-03T12:24:11.000Z</time><ele>2301</ele></trkpt><trkpt lat="46.327849" lon="9.949638"><time>2021-07-03T12:24:14.000Z</time><ele>2300.2</ele></trkpt><trkpt lat="46.327844" lon="9.949629"><time>2021-07-03T12:24:15.000Z</time><ele>2300</ele></trkpt><trkpt lat="46.327823" lon="9.949607"><time>2021-07-03T12:24:18.000Z</time><ele>2299.6</ele></trkpt><trkpt lat="46.327799" lon="9.949559"><time>2021-07-03T12:24:22.000Z</time><ele>2298.8</ele></trkpt><trkpt lat="46.327786" lon="9.949552"><time>2021-07-03T12:24:24.000Z</time><ele>2298.2</ele></trkpt><trkpt lat="46.327778" lon="9.949542"><time>2021-07-03T12:24:25.000Z</time><ele>2298</ele></trkpt><trkpt lat="46.327767" lon="9.949533"><time>2021-07-03T12:24:27.000Z</time><ele>2297.8</ele></trkpt><trkpt lat="46.32776" lon="9.949531"><time>2021-07-03T12:24:28.000Z</time><ele>2297.6</ele></trkpt><trkpt lat="46.327751" lon="9.949519"><time>2021-07-03T12:24:30.000Z</time><ele>2297</ele></trkpt><trkpt lat="46.327728" lon="9.949481"><time>2021-07-03T12:24:34.000Z</time><ele>2296.4</ele></trkpt><trkpt lat="46.32769" lon="9.949455"><time>2021-07-03T12:24:39.000Z</time><ele>2295.2</ele></trkpt><trkpt lat="46.327664" lon="9.949421"><time>2021-07-03T12:24:43.000Z</time><ele>2294.6</ele></trkpt><trkpt lat="46.327658" lon="9.949394"><time>2021-07-03T12:24:45.000Z</time><ele>2294</ele></trkpt><trkpt lat="46.327636" lon="9.94934"><time>2021-07-03T12:24:50.000Z</time><ele>2292.8</ele></trkpt><trkpt lat="46.327626" lon="9.949324"><time>2021-07-03T12:24:53.000Z</time><ele>2292.2</ele></trkpt><trkpt lat="46.327618" lon="9.949304"><time>2021-07-03T12:24:55.000Z</time><ele>2292</ele></trkpt><trkpt lat="46.327611" lon="9.949288"><time>2021-07-03T12:24:57.000Z</time><ele>2291.6</ele></trkpt><trkpt lat="46.327602" lon="9.949262"><time>2021-07-03T12:25:01.000Z</time><ele>2291</ele></trkpt><trkpt lat="46.327594" lon="9.949257"><time>2021-07-03T12:25:03.000Z</time><ele>2290.4</ele></trkpt><trkpt lat="46.32759" lon="9.949254"><time>2021-07-03T12:25:04.000Z</time><ele>2290.2</ele></trkpt><trkpt lat="46.327585" lon="9.949246"><time>2021-07-03T12:25:05.000Z</time><ele>2290</ele></trkpt><trkpt lat="46.327573" lon="9.949244"><time>2021-07-03T12:25:07.000Z</time><ele>2289.6</ele></trkpt><trkpt lat="46.327567" lon="9.94924"><time>2021-07-03T12:25:08.000Z</time><ele>2289.2</ele></trkpt><trkpt lat="46.327545" lon="9.949233"><time>2021-07-03T12:25:12.000Z</time><ele>2288.2</ele></trkpt><trkpt lat="46.327541" lon="9.949227"><time>2021-07-03T12:25:13.000Z</time><ele>2287.8</ele></trkpt><trkpt lat="46.327536" lon="9.949207"><time>2021-07-03T12:25:17.000Z</time><ele>2287.4</ele></trkpt><trkpt lat="46.327533" lon="9.949205"><time>2021-07-03T12:25:18.000Z</time><ele>2287.2</ele></trkpt><trkpt lat="46.327533" lon="9.949204"><time>2021-07-03T12:25:19.000Z</time><ele>2287</ele></trkpt><trkpt lat="46.327536" lon="9.949196"><time>2021-07-03T12:25:21.000Z</time><ele>2286.8</ele></trkpt><trkpt lat="46.327523" lon="9.949171"><time>2021-07-03T12:25:23.000Z</time><ele>2286.8</ele></trkpt><trkpt lat="46.327505" lon="9.949155"><time>2021-07-03T12:25:25.000Z</time><ele>2286.6</ele></trkpt><trkpt lat="46.327465" lon="9.949128"><time>2021-07-03T12:25:30.000Z</time><ele>2286.4</ele></trkpt><trkpt lat="46.327434" lon="9.94911"><time>2021-07-03T12:25:34.000Z</time><ele>2285.8</ele></trkpt><trkpt lat="46.327401" lon="9.949076"><time>2021-07-03T12:25:39.000Z</time><ele>2285.2</ele></trkpt><trkpt lat="46.327397" lon="9.949068"><time>2021-07-03T12:25:40.000Z</time><ele>2284.8</ele></trkpt><trkpt lat="46.327363" lon="9.949043"><time>2021-07-03T12:25:46.000Z</time><ele>2284</ele></trkpt><trkpt lat="46.32736" lon="9.949035"><time>2021-07-03T12:25:47.000Z</time><ele>2283.6</ele></trkpt><trkpt lat="46.327343" lon="9.949"><time>2021-07-03T12:25:52.000Z</time><ele>2282.6</ele></trkpt><trkpt lat="46.327337" lon="9.948978"><time>2021-07-03T12:25:55.000Z</time><ele>2282</ele></trkpt><trkpt lat="46.327298" lon="9.948922"><time>2021-07-03T12:26:01.000Z</time><ele>2281.4</ele></trkpt><trkpt lat="46.327285" lon="9.948907"><time>2021-07-03T12:26:03.000Z</time><ele>2281.2</ele></trkpt><trkpt lat="46.327238" lon="9.948884"><time>2021-07-03T12:26:09.000Z</time><ele>2280.6</ele></trkpt><trkpt lat="46.32722" lon="9.94887"><time>2021-07-03T12:26:11.000Z</time><ele>2280.4</ele></trkpt><trkpt lat="46.32716" lon="9.948822"><time>2021-07-03T12:26:19.000Z</time><ele>2280.8</ele></trkpt><trkpt lat="46.32714" lon="9.948812"><time>2021-07-03T12:26:21.000Z</time><ele>2280.8</ele></trkpt><trkpt lat="46.327079" lon="9.948739"><time>2021-07-03T12:26:28.000Z</time><ele>2280.8</ele></trkpt><trkpt lat="46.327075" lon="9.948736"><time>2021-07-03T12:26:29.000Z</time><ele>2280.8</ele></trkpt><trkpt lat="46.327025" lon="9.948703"><time>2021-07-03T12:26:34.000Z</time><ele>2280.6</ele></trkpt><trkpt lat="46.326973" lon="9.948655"><time>2021-07-03T12:26:39.000Z</time><ele>2280.6</ele></trkpt><trkpt lat="46.32694" lon="9.948634"><time>2021-07-03T12:26:42.000Z</time><ele>2280.6</ele></trkpt><trkpt lat="46.326913" lon="9.948625"><time>2021-07-03T12:26:44.000Z</time><ele>2280.8</ele></trkpt><trkpt lat="46.326906" lon="9.948616"><time>2021-07-03T12:26:45.000Z</time><ele>2280.8</ele></trkpt><trkpt lat="46.326893" lon="9.948602"><time>2021-07-03T12:26:47.000Z</time><ele>2280.8</ele></trkpt><trkpt lat="46.326876" lon="9.948584"><time>2021-07-03T12:26:49.000Z</time><ele>2280.8</ele></trkpt><trkpt lat="46.326859" lon="9.948561"><time>2021-07-03T12:26:51.000Z</time><ele>2280.8</ele></trkpt><trkpt lat="46.326854" lon="9.948518"><time>2021-07-03T12:26:53.000Z</time><ele>2280.8</ele></trkpt><trkpt lat="46.326833" lon="9.948506"><time>2021-07-03T12:26:55.000Z</time><ele>2280.8</ele></trkpt><trkpt lat="46.326812" lon="9.948507"><time>2021-07-03T12:26:57.000Z</time><ele>2281</ele></trkpt><trkpt lat="46.326781" lon="9.948468"><time>2021-07-03T12:27:02.000Z</time><ele>2281.4</ele></trkpt><trkpt lat="46.326773" lon="9.94846"><time>2021-07-03T12:27:03.000Z</time><ele>2281.4</ele></trkpt><trkpt lat="46.326769" lon="9.948456"><time>2021-07-03T12:27:04.000Z</time><ele>2281.4</ele></trkpt><trkpt lat="46.326746" lon="9.948439"><time>2021-07-03T12:27:07.000Z</time><ele>2281.6</ele></trkpt><trkpt lat="46.326715" lon="9.948407"><time>2021-07-03T12:27:11.000Z</time><ele>2281.4</ele></trkpt><trkpt lat="46.326706" lon="9.9484"><time>2021-07-03T12:27:12.000Z</time><ele>2281.4</ele></trkpt><trkpt lat="46.326679" lon="9.948397"><time>2021-07-03T12:27:15.000Z</time><ele>2281.2</ele></trkpt><trkpt lat="46.326632" lon="9.948356"><time>2021-07-03T12:27:21.000Z</time><ele>2280.6</ele></trkpt><trkpt lat="46.32662" lon="9.948336"><time>2021-07-03T12:27:23.000Z</time><ele>2280.4</ele></trkpt><trkpt lat="46.326603" lon="9.948289"><time>2021-07-03T12:27:27.000Z</time><ele>2279.4</ele></trkpt><trkpt lat="46.326597" lon="9.948284"><time>2021-07-03T12:27:28.000Z</time><ele>2279.4</ele></trkpt><trkpt lat="46.326591" lon="9.948275"><time>2021-07-03T12:27:29.000Z</time><ele>2279.2</ele></trkpt><trkpt lat="46.326547" lon="9.948235"><time>2021-07-03T12:27:35.000Z</time><ele>2278.4</ele></trkpt><trkpt lat="46.326533" lon="9.948239"><time>2021-07-03T12:27:37.000Z</time><ele>2278.2</ele></trkpt><trkpt lat="46.326495" lon="9.948227"><time>2021-07-03T12:27:42.000Z</time><ele>2277.2</ele></trkpt><trkpt lat="46.326484" lon="9.948221"><time>2021-07-03T12:27:44.000Z</time><ele>2276.6</ele></trkpt><trkpt lat="46.326479" lon="9.94821"><time>2021-07-03T12:27:45.000Z</time><ele>2276.6</ele></trkpt><trkpt lat="46.32647" lon="9.948196"><time>2021-07-03T12:27:46.000Z</time><ele>2276.4</ele></trkpt><trkpt lat="46.326443" lon="9.948155"><time>2021-07-03T12:27:49.000Z</time><ele>2276.2</ele></trkpt><trkpt lat="46.326432" lon="9.948138"><time>2021-07-03T12:27:51.000Z</time><ele>2275.8</ele></trkpt><trkpt lat="46.326368" lon="9.948072"><time>2021-07-03T12:28:00.000Z</time><ele>2275.4</ele></trkpt><trkpt lat="46.326364" lon="9.948076"><time>2021-07-03T12:28:01.000Z</time><ele>2275.2</ele></trkpt><trkpt lat="46.326358" lon="9.948075"><time>2021-07-03T12:28:02.000Z</time><ele>2275</ele></trkpt><trkpt lat="46.326327" lon="9.948083"><time>2021-07-03T12:28:06.000Z</time><ele>2274.6</ele></trkpt><trkpt lat="46.326317" lon="9.94808"><time>2021-07-03T12:28:07.000Z</time><ele>2274.4</ele></trkpt><trkpt lat="46.326309" lon="9.948075"><time>2021-07-03T12:28:08.000Z</time><ele>2274.2</ele></trkpt><trkpt lat="46.326304" lon="9.94807"><time>2021-07-03T12:28:09.000Z</time><ele>2274</ele></trkpt><trkpt lat="46.326294" lon="9.948063"><time>2021-07-03T12:28:11.000Z</time><ele>2273.8</ele></trkpt><trkpt lat="46.326273" lon="9.948056"><time>2021-07-03T12:28:13.000Z</time><ele>2273.6</ele></trkpt><trkpt lat="46.326238" lon="9.948047"><time>2021-07-03T12:28:16.000Z</time><ele>2273.4</ele></trkpt><trkpt lat="46.326229" lon="9.94804"><time>2021-07-03T12:28:17.000Z</time><ele>2273.2</ele></trkpt><trkpt lat="46.326213" lon="9.948032"><time>2021-07-03T12:28:19.000Z</time><ele>2273</ele></trkpt><trkpt lat="46.326183" lon="9.948029"><time>2021-07-03T12:28:22.000Z</time><ele>2273</ele></trkpt><trkpt lat="46.326132" lon="9.948038"><time>2021-07-03T12:28:26.000Z</time><ele>2272.2</ele></trkpt><trkpt lat="46.326087" lon="9.948028"><time>2021-07-03T12:28:30.000Z</time><ele>2272</ele></trkpt><trkpt lat="46.326046" lon="9.948028"><time>2021-07-03T12:28:35.000Z</time><ele>2271.4</ele></trkpt><trkpt lat="46.326035" lon="9.948032"><time>2021-07-03T12:28:37.000Z</time><ele>2271.2</ele></trkpt><trkpt lat="46.326007" lon="9.948036"><time>2021-07-03T12:28:40.000Z</time><ele>2271</ele></trkpt><trkpt lat="46.326" lon="9.948037"><time>2021-07-03T12:28:41.000Z</time><ele>2271</ele></trkpt><trkpt lat="46.325954" lon="9.947991"><time>2021-07-03T12:28:48.000Z</time><ele>2270.8</ele></trkpt><trkpt lat="46.325932" lon="9.947963"><time>2021-07-03T12:28:51.000Z</time><ele>2270.6</ele></trkpt><trkpt lat="46.325909" lon="9.947893"><time>2021-07-03T12:28:56.000Z</time><ele>2270.2</ele></trkpt><trkpt lat="46.325893" lon="9.947866"><time>2021-07-03T12:28:59.000Z</time><ele>2269.8</ele></trkpt><trkpt lat="46.325866" lon="9.947812"><time>2021-07-03T12:29:05.000Z</time><ele>2269.4</ele></trkpt><trkpt lat="46.325804" lon="9.947784"><time>2021-07-03T12:29:13.000Z</time><ele>2268.8</ele></trkpt><trkpt lat="46.325725" lon="9.947784"><time>2021-07-03T12:29:21.000Z</time><ele>2268</ele></trkpt><trkpt lat="46.325708" lon="9.947777"><time>2021-07-03T12:29:23.000Z</time><ele>2267.8</ele></trkpt><trkpt lat="46.3257" lon="9.94777"><time>2021-07-03T12:29:24.000Z</time><ele>2267.8</ele></trkpt><trkpt lat="46.325672" lon="9.947754"><time>2021-07-03T12:29:27.000Z</time><ele>2267.8</ele></trkpt><trkpt lat="46.325651" lon="9.947745"><time>2021-07-03T12:29:29.000Z</time><ele>2267.8</ele></trkpt><trkpt lat="46.32562" lon="9.947729"><time>2021-07-03T12:29:32.000Z</time><ele>2267.6</ele></trkpt><trkpt lat="46.325603" lon="9.947717"><time>2021-07-03T12:29:34.000Z</time><ele>2267.6</ele></trkpt><trkpt lat="46.325572" lon="9.94769"><time>2021-07-03T12:29:38.000Z</time><ele>2267.2</ele></trkpt><trkpt lat="46.325555" lon="9.947659"><time>2021-07-03T12:29:41.000Z</time><ele>2267</ele></trkpt><trkpt lat="46.325551" lon="9.947633"><time>2021-07-03T12:29:43.000Z</time><ele>2266.6</ele></trkpt><trkpt lat="46.325544" lon="9.947611"><time>2021-07-03T12:29:45.000Z</time><ele>2266.4</ele></trkpt><trkpt lat="46.325538" lon="9.9476"><time>2021-07-03T12:29:46.000Z</time><ele>2266.2</ele></trkpt><trkpt lat="46.325521" lon="9.947575"><time>2021-07-03T12:29:48.000Z</time><ele>2266</ele></trkpt><trkpt lat="46.3255" lon="9.947548"><time>2021-07-03T12:29:51.000Z</time><ele>2265.6</ele></trkpt><trkpt lat="46.325496" lon="9.947541"><time>2021-07-03T12:29:52.000Z</time><ele>2265.4</ele></trkpt><trkpt lat="46.325487" lon="9.94752"><time>2021-07-03T12:29:54.000Z</time><ele>2265</ele></trkpt><trkpt lat="46.325469" lon="9.947499"><time>2021-07-03T12:29:56.000Z</time><ele>2264.6</ele></trkpt><trkpt lat="46.325435" lon="9.947471"><time>2021-07-03T12:29:59.000Z</time><ele>2264.2</ele></trkpt><trkpt lat="46.325413" lon="9.947481"><time>2021-07-03T12:30:01.000Z</time><ele>2264.2</ele></trkpt><trkpt lat="46.32536" lon="9.947504"><time>2021-07-03T12:30:05.000Z</time><ele>2263.8</ele></trkpt><trkpt lat="46.325306" lon="9.947492"><time>2021-07-03T12:30:10.000Z</time><ele>2263.6</ele></trkpt><trkpt lat="46.325281" lon="9.947475"><time>2021-07-03T12:30:12.000Z</time><ele>2263.4</ele></trkpt><trkpt lat="46.325271" lon="9.947462"><time>2021-07-03T12:30:13.000Z</time><ele>2263.4</ele></trkpt><trkpt lat="46.325243" lon="9.947442"><time>2021-07-03T12:30:16.000Z</time><ele>2263.2</ele></trkpt><trkpt lat="46.325197" lon="9.947414"><time>2021-07-03T12:30:20.000Z</time><ele>2263</ele></trkpt><trkpt lat="46.325136" lon="9.947351"><time>2021-07-03T12:30:27.000Z</time><ele>2262.8</ele></trkpt><trkpt lat="46.325122" lon="9.947335"><time>2021-07-03T12:30:29.000Z</time><ele>2262.6</ele></trkpt><trkpt lat="46.325102" lon="9.947326"><time>2021-07-03T12:30:32.000Z</time><ele>2262.2</ele></trkpt><trkpt lat="46.325093" lon="9.94732"><time>2021-07-03T12:30:33.000Z</time><ele>2262.2</ele></trkpt><trkpt lat="46.324982" lon="9.947258"><time>2021-07-03T12:30:43.000Z</time><ele>2262</ele></trkpt><trkpt lat="46.32497" lon="9.947247"><time>2021-07-03T12:30:45.000Z</time><ele>2262.2</ele></trkpt><trkpt lat="46.32494" lon="9.947204"><time>2021-07-03T12:30:49.000Z</time><ele>2262</ele></trkpt><trkpt lat="46.324935" lon="9.947197"><time>2021-07-03T12:30:50.000Z</time><ele>2261.8</ele></trkpt><trkpt lat="46.324923" lon="9.947188"><time>2021-07-03T12:30:52.000Z</time><ele>2261.4</ele></trkpt><trkpt lat="46.324888" lon="9.947182"><time>2021-07-03T12:30:56.000Z</time><ele>2261.2</ele></trkpt><trkpt lat="46.324858" lon="9.947147"><time>2021-07-03T12:31:02.000Z</time><ele>2260.6</ele></trkpt><trkpt lat="46.324845" lon="9.947141"><time>2021-07-03T12:31:04.000Z</time><ele>2260.4</ele></trkpt><trkpt lat="46.324828" lon="9.947122"><time>2021-07-03T12:31:06.000Z</time><ele>2259.8</ele></trkpt><trkpt lat="46.324816" lon="9.947109"><time>2021-07-03T12:31:08.000Z</time><ele>2259.4</ele></trkpt><trkpt lat="46.324805" lon="9.9471"><time>2021-07-03T12:31:10.000Z</time><ele>2259.2</ele></trkpt><trkpt lat="46.324799" lon="9.947094"><time>2021-07-03T12:31:11.000Z</time><ele>2259.2</ele></trkpt><trkpt lat="46.324791" lon="9.94707"><time>2021-07-03T12:31:14.000Z</time><ele>2258.8</ele></trkpt><trkpt lat="46.324788" lon="9.947066"><time>2021-07-03T12:31:15.000Z</time><ele>2258.6</ele></trkpt><trkpt lat="46.324778" lon="9.947062"><time>2021-07-03T12:31:18.000Z</time><ele>2258</ele></trkpt><trkpt lat="46.324771" lon="9.947066"><time>2021-07-03T12:31:19.000Z</time><ele>2258</ele></trkpt><trkpt lat="46.324766" lon="9.947075"><time>2021-07-03T12:31:20.000Z</time><ele>2257.8</ele></trkpt><trkpt lat="46.324741" lon="9.947071"><time>2021-07-03T12:31:25.000Z</time><ele>2257</ele></trkpt><trkpt lat="46.324728" lon="9.947065"><time>2021-07-03T12:31:27.000Z</time><ele>2256.6</ele></trkpt><trkpt lat="46.324715" lon="9.947047"><time>2021-07-03T12:31:31.000Z</time><ele>2256</ele></trkpt><trkpt lat="46.324684" lon="9.947016"><time>2021-07-03T12:31:35.000Z</time><ele>2255.2</ele></trkpt><trkpt lat="46.324657" lon="9.946991"><time>2021-07-03T12:31:39.000Z</time><ele>2254.8</ele></trkpt><trkpt lat="46.324645" lon="9.946977"><time>2021-07-03T12:31:41.000Z</time><ele>2254.4</ele></trkpt><trkpt lat="46.324614" lon="9.946953"><time>2021-07-03T12:31:45.000Z</time><ele>2253.4</ele></trkpt><trkpt lat="46.32461" lon="9.946948"><time>2021-07-03T12:31:46.000Z</time><ele>2253.2</ele></trkpt><trkpt lat="46.3246" lon="9.946935"><time>2021-07-03T12:31:48.000Z</time><ele>2252.8</ele></trkpt><trkpt lat="46.324583" lon="9.946904"><time>2021-07-03T12:31:52.000Z</time><ele>2252.4</ele></trkpt><trkpt lat="46.324577" lon="9.946894"><time>2021-07-03T12:31:53.000Z</time><ele>2252.2</ele></trkpt><trkpt lat="46.324548" lon="9.946867"><time>2021-07-03T12:31:58.000Z</time><ele>2251.4</ele></trkpt><trkpt lat="46.324544" lon="9.94686"><time>2021-07-03T12:32:00.000Z</time><ele>2250.8</ele></trkpt><trkpt lat="46.324515" lon="9.946843"><time>2021-07-03T12:32:05.000Z</time><ele>2250.4</ele></trkpt><trkpt lat="46.324509" lon="9.946835"><time>2021-07-03T12:32:06.000Z</time><ele>2250.2</ele></trkpt><trkpt lat="46.324503" lon="9.946804"><time>2021-07-03T12:32:10.000Z</time><ele>2249.2</ele></trkpt><trkpt lat="46.324497" lon="9.946768"><time>2021-07-03T12:32:13.000Z</time><ele>2248.6</ele></trkpt><trkpt lat="46.32448" lon="9.946746"><time>2021-07-03T12:32:15.000Z</time><ele>2248.2</ele></trkpt><trkpt lat="46.324454" lon="9.946718"><time>2021-07-03T12:32:19.000Z</time><ele>2247.4</ele></trkpt><trkpt lat="46.324447" lon="9.946715"><time>2021-07-03T12:32:20.000Z</time><ele>2247.4</ele></trkpt><trkpt lat="46.324443" lon="9.946709"><time>2021-07-03T12:32:21.000Z</time><ele>2247.2</ele></trkpt><trkpt lat="46.324425" lon="9.946675"><time>2021-07-03T12:32:26.000Z</time><ele>2246.2</ele></trkpt><trkpt lat="46.324417" lon="9.946657"><time>2021-07-03T12:32:28.000Z</time><ele>2246.2</ele></trkpt><trkpt lat="46.324393" lon="9.946636"><time>2021-07-03T12:32:31.000Z</time><ele>2245.6</ele></trkpt><trkpt lat="46.324379" lon="9.946625"><time>2021-07-03T12:32:33.000Z</time><ele>2245.2</ele></trkpt><trkpt lat="46.32437" lon="9.946616"><time>2021-07-03T12:32:34.000Z</time><ele>2245</ele></trkpt><trkpt lat="46.324338" lon="9.946586"><time>2021-07-03T12:32:38.000Z</time><ele>2244.4</ele></trkpt><trkpt lat="46.324316" lon="9.94656"><time>2021-07-03T12:32:41.000Z</time><ele>2244</ele></trkpt><trkpt lat="46.324287" lon="9.946524"><time>2021-07-03T12:32:45.000Z</time><ele>2243.8</ele></trkpt><trkpt lat="46.32427" lon="9.946495"><time>2021-07-03T12:32:48.000Z</time><ele>2244</ele></trkpt><trkpt lat="46.324247" lon="9.946471"><time>2021-07-03T12:32:51.000Z</time><ele>2244.4</ele></trkpt><trkpt lat="46.324221" lon="9.946457"><time>2021-07-03T12:32:54.000Z</time><ele>2244.8</ele></trkpt><trkpt lat="46.324205" lon="9.946447"><time>2021-07-03T12:32:56.000Z</time><ele>2245.2</ele></trkpt><trkpt lat="46.324178" lon="9.946434"><time>2021-07-03T12:32:59.000Z</time><ele>2245.2</ele></trkpt><trkpt lat="46.32414" lon="9.946412"><time>2021-07-03T12:33:03.000Z</time><ele>2245.6</ele></trkpt><trkpt lat="46.324129" lon="9.946411"><time>2021-07-03T12:33:05.000Z</time><ele>2245.8</ele></trkpt><trkpt lat="46.324118" lon="9.946395"><time>2021-07-03T12:33:08.000Z</time><ele>2246</ele></trkpt><trkpt lat="46.324104" lon="9.946387"><time>2021-07-03T12:33:11.000Z</time><ele>2245.8</ele></trkpt><trkpt lat="46.324089" lon="9.946377"><time>2021-07-03T12:33:15.000Z</time><ele>2245</ele></trkpt><trkpt lat="46.324078" lon="9.946345"><time>2021-07-03T12:33:19.000Z</time><ele>2244</ele></trkpt><trkpt lat="46.324063" lon="9.946323"><time>2021-07-03T12:33:22.000Z</time><ele>2243.4</ele></trkpt><trkpt lat="46.32406" lon="9.946316"><time>2021-07-03T12:33:23.000Z</time><ele>2243</ele></trkpt><trkpt lat="46.324058" lon="9.946308"><time>2021-07-03T12:33:24.000Z</time><ele>2242.6</ele></trkpt><trkpt lat="46.324051" lon="9.946285"><time>2021-07-03T12:33:27.000Z</time><ele>2242</ele></trkpt><trkpt lat="46.324045" lon="9.94627"><time>2021-07-03T12:33:29.000Z</time><ele>2241.6</ele></trkpt><trkpt lat="46.324037" lon="9.946258"><time>2021-07-03T12:33:31.000Z</time><ele>2241.2</ele></trkpt><trkpt lat="46.324027" lon="9.946252"><time>2021-07-03T12:33:33.000Z</time><ele>2240.8</ele></trkpt><trkpt lat="46.32402" lon="9.946248"><time>2021-07-03T12:33:34.000Z</time><ele>2240.8</ele></trkpt><trkpt lat="46.324008" lon="9.946234"><time>2021-07-03T12:33:36.000Z</time><ele>2240.2</ele></trkpt><trkpt lat="46.324" lon="9.946219"><time>2021-07-03T12:33:38.000Z</time><ele>2239.8</ele></trkpt><trkpt lat="46.323993" lon="9.946201"><time>2021-07-03T12:33:40.000Z</time><ele>2239.6</ele></trkpt><trkpt lat="46.323982" lon="9.946166"><time>2021-07-03T12:33:43.000Z</time><ele>2238.6</ele></trkpt><trkpt lat="46.323964" lon="9.946117"><time>2021-07-03T12:33:47.000Z</time><ele>2238.2</ele></trkpt><trkpt lat="46.323946" lon="9.946074"><time>2021-07-03T12:33:50.000Z</time><ele>2237.4</ele></trkpt><trkpt lat="46.323935" lon="9.946031"><time>2021-07-03T12:33:53.000Z</time><ele>2237</ele></trkpt><trkpt lat="46.323908" lon="9.945946"><time>2021-07-03T12:33:59.000Z</time><ele>2236.4</ele></trkpt><trkpt lat="46.323905" lon="9.945934"><time>2021-07-03T12:34:00.000Z</time><ele>2236.4</ele></trkpt><trkpt lat="46.3239" lon="9.945922"><time>2021-07-03T12:34:01.000Z</time><ele>2236.4</ele></trkpt><trkpt lat="46.323857" lon="9.945848"><time>2021-07-03T12:34:09.000Z</time><ele>2237.2</ele></trkpt><trkpt lat="46.323849" lon="9.945846"><time>2021-07-03T12:34:10.000Z</time><ele>2237.2</ele></trkpt><trkpt lat="46.323768" lon="9.94581"><time>2021-07-03T12:34:17.000Z</time><ele>2236.6</ele></trkpt><trkpt lat="46.323735" lon="9.94579"><time>2021-07-03T12:34:21.000Z</time><ele>2236.2</ele></trkpt><trkpt lat="46.32373" lon="9.94579"><time>2021-07-03T12:34:22.000Z</time><ele>2236.2</ele></trkpt><trkpt lat="46.323719" lon="9.945782"><time>2021-07-03T12:34:23.000Z</time><ele>2236</ele></trkpt><trkpt lat="46.323696" lon="9.945763"><time>2021-07-03T12:34:25.000Z</time><ele>2236</ele></trkpt><trkpt lat="46.323689" lon="9.945761"><time>2021-07-03T12:34:26.000Z</time><ele>2236</ele></trkpt><trkpt lat="46.323656" lon="9.945749"><time>2021-07-03T12:34:30.000Z</time><ele>2236.2</ele></trkpt><trkpt lat="46.323626" lon="9.945738"><time>2021-07-03T12:34:33.000Z</time><ele>2235.8</ele></trkpt><trkpt lat="46.323575" lon="9.945715"><time>2021-07-03T12:34:37.000Z</time><ele>2235.4</ele></trkpt><trkpt lat="46.32347" lon="9.945672"><time>2021-07-03T12:34:45.000Z</time><ele>2235.2</ele></trkpt><trkpt lat="46.323408" lon="9.945631"><time>2021-07-03T12:34:52.000Z</time><ele>2234.8</ele></trkpt><trkpt lat="46.323385" lon="9.945602"><time>2021-07-03T12:34:55.000Z</time><ele>2234.4</ele></trkpt><trkpt lat="46.323353" lon="9.945566"><time>2021-07-03T12:34:59.000Z</time><ele>2233.8</ele></trkpt><trkpt lat="46.323319" lon="9.945529"><time>2021-07-03T12:35:03.000Z</time><ele>2233.2</ele></trkpt><trkpt lat="46.323266" lon="9.945466"><time>2021-07-03T12:35:10.000Z</time><ele>2232.4</ele></trkpt><trkpt lat="46.323239" lon="9.945435"><time>2021-07-03T12:35:13.000Z</time><ele>2232.2</ele></trkpt><trkpt lat="46.323188" lon="9.945383"><time>2021-07-03T12:35:17.000Z</time><ele>2231.8</ele></trkpt><trkpt lat="46.323146" lon="9.945319"><time>2021-07-03T12:35:22.000Z</time><ele>2231</ele></trkpt><trkpt lat="46.323137" lon="9.945313"><time>2021-07-03T12:35:23.000Z</time><ele>2231</ele></trkpt><trkpt lat="46.32309" lon="9.945257"><time>2021-07-03T12:35:28.000Z</time><ele>2230.2</ele></trkpt><trkpt lat="46.323081" lon="9.945245"><time>2021-07-03T12:35:29.000Z</time><ele>2230</ele></trkpt><trkpt lat="46.323029" lon="9.945177"><time>2021-07-03T12:35:35.000Z</time><ele>2229.4</ele></trkpt><trkpt lat="46.323014" lon="9.945149"><time>2021-07-03T12:35:37.000Z</time><ele>2229.2</ele></trkpt><trkpt lat="46.32299" lon="9.945125"><time>2021-07-03T12:35:39.000Z</time><ele>2229</ele></trkpt><trkpt lat="46.322937" lon="9.945074"><time>2021-07-03T12:35:45.000Z</time><ele>2228.2</ele></trkpt><trkpt lat="46.322916" lon="9.945056"><time>2021-07-03T12:35:47.000Z</time><ele>2227.8</ele></trkpt><trkpt lat="46.322856" lon="9.944976"><time>2021-07-03T12:35:54.000Z</time><ele>2227</ele></trkpt><trkpt lat="46.322852" lon="9.944972"><time>2021-07-03T12:35:55.000Z</time><ele>2226.8</ele></trkpt><trkpt lat="46.32284" lon="9.944955"><time>2021-07-03T12:35:57.000Z</time><ele>2226.6</ele></trkpt><trkpt lat="46.322812" lon="9.944909"><time>2021-07-03T12:36:01.000Z</time><ele>2226.2</ele></trkpt><trkpt lat="46.322759" lon="9.944866"><time>2021-07-03T12:36:08.000Z</time><ele>2225.4</ele></trkpt><trkpt lat="46.322733" lon="9.944858"><time>2021-07-03T12:36:11.000Z</time><ele>2225</ele></trkpt><trkpt lat="46.322702" lon="9.944808"><time>2021-07-03T12:36:15.000Z</time><ele>2224.8</ele></trkpt><trkpt lat="46.322656" lon="9.944771"><time>2021-07-03T12:36:19.000Z</time><ele>2224.4</ele></trkpt><trkpt lat="46.322621" lon="9.944739"><time>2021-07-03T12:36:23.000Z</time><ele>2224</ele></trkpt><trkpt lat="46.32261" lon="9.944736"><time>2021-07-03T12:36:24.000Z</time><ele>2224</ele></trkpt><trkpt lat="46.322596" lon="9.944732"><time>2021-07-03T12:36:26.000Z</time><ele>2223.6</ele></trkpt><trkpt lat="46.322574" lon="9.944715"><time>2021-07-03T12:36:28.000Z</time><ele>2223.2</ele></trkpt><trkpt lat="46.322532" lon="9.94468"><time>2021-07-03T12:36:33.000Z</time><ele>2222.8</ele></trkpt><trkpt lat="46.322499" lon="9.944663"><time>2021-07-03T12:36:36.000Z</time><ele>2222.6</ele></trkpt><trkpt lat="46.322473" lon="9.944644"><time>2021-07-03T12:36:38.000Z</time><ele>2222.4</ele></trkpt><trkpt lat="46.322452" lon="9.944637"><time>2021-07-03T12:36:40.000Z</time><ele>2222.4</ele></trkpt><trkpt lat="46.322433" lon="9.944618"><time>2021-07-03T12:36:42.000Z</time><ele>2222.2</ele></trkpt><trkpt lat="46.322375" lon="9.944528"><time>2021-07-03T12:36:50.000Z</time><ele>2221</ele></trkpt><trkpt lat="46.322355" lon="9.944509"><time>2021-07-03T12:36:52.000Z</time><ele>2220.8</ele></trkpt><trkpt lat="46.322324" lon="9.944465"><time>2021-07-03T12:36:56.000Z</time><ele>2220.4</ele></trkpt><trkpt lat="46.3223" lon="9.944439"><time>2021-07-03T12:36:59.000Z</time><ele>2220</ele></trkpt><trkpt lat="46.322284" lon="9.944418"><time>2021-07-03T12:37:01.000Z</time><ele>2220</ele></trkpt><trkpt lat="46.322268" lon="9.9444"><time>2021-07-03T12:37:04.000Z</time><ele>2219.6</ele></trkpt><trkpt lat="46.322248" lon="9.944373"><time>2021-07-03T12:37:06.000Z</time><ele>2219.4</ele></trkpt><trkpt lat="46.322225" lon="9.944349"><time>2021-07-03T12:37:09.000Z</time><ele>2219</ele></trkpt><trkpt lat="46.322208" lon="9.944327"><time>2021-07-03T12:37:12.000Z</time><ele>2218.8</ele></trkpt><trkpt lat="46.322166" lon="9.944285"><time>2021-07-03T12:37:17.000Z</time><ele>2217.8</ele></trkpt><trkpt lat="46.322144" lon="9.944269"><time>2021-07-03T12:37:19.000Z</time><ele>2217.6</ele></trkpt><trkpt lat="46.322121" lon="9.944243"><time>2021-07-03T12:37:22.000Z</time><ele>2217.2</ele></trkpt><trkpt lat="46.32209" lon="9.944213"><time>2021-07-03T12:37:26.000Z</time><ele>2216.8</ele></trkpt><trkpt lat="46.322083" lon="9.944206"><time>2021-07-03T12:37:27.000Z</time><ele>2216.8</ele></trkpt><trkpt lat="46.322078" lon="9.9442"><time>2021-07-03T12:37:28.000Z</time><ele>2216.6</ele></trkpt><trkpt lat="46.322069" lon="9.944193"><time>2021-07-03T12:37:29.000Z</time><ele>2216.4</ele></trkpt><trkpt lat="46.32202" lon="9.94415"><time>2021-07-03T12:37:36.000Z</time><ele>2216</ele></trkpt><trkpt lat="46.322008" lon="9.944134"><time>2021-07-03T12:37:38.000Z</time><ele>2215.6</ele></trkpt><trkpt lat="46.321954" lon="9.944038"><time>2021-07-03T12:37:47.000Z</time><ele>2214.6</ele></trkpt><trkpt lat="46.321895" lon="9.943924"><time>2021-07-03T12:37:56.000Z</time><ele>2213.6</ele></trkpt><trkpt lat="46.321889" lon="9.943911"><time>2021-07-03T12:37:57.000Z</time><ele>2213.4</ele></trkpt><trkpt lat="46.32186" lon="9.943851"><time>2021-07-03T12:38:02.000Z</time><ele>2212.8</ele></trkpt><trkpt lat="46.321848" lon="9.94383"><time>2021-07-03T12:38:04.000Z</time><ele>2212.6</ele></trkpt><trkpt lat="46.321835" lon="9.943802"><time>2021-07-03T12:38:06.000Z</time><ele>2212.4</ele></trkpt><trkpt lat="46.321816" lon="9.943797"><time>2021-07-03T12:38:11.000Z</time><ele>2211.8</ele></trkpt><trkpt lat="46.321815" lon="9.943804"><time>2021-07-03T12:38:12.000Z</time><ele>2211.6</ele></trkpt><trkpt lat="46.321814" lon="9.943805"><time>2021-07-03T12:38:13.000Z</time><ele>2211.4</ele></trkpt><trkpt lat="46.321823" lon="9.943787"><time>2021-07-03T12:38:16.000Z</time><ele>2211.4</ele></trkpt><trkpt lat="46.321831" lon="9.943797"><time>2021-07-03T12:38:22.000Z</time><ele>2211</ele></trkpt><trkpt lat="46.321794" lon="9.943733"><time>2021-07-03T12:38:39.000Z</time><ele>2211</ele></trkpt><trkpt lat="46.321745" lon="9.943644"><time>2021-07-03T12:38:46.000Z</time><ele>2210.4</ele></trkpt><trkpt lat="46.32173" lon="9.943629"><time>2021-07-03T12:38:48.000Z</time><ele>2210.2</ele></trkpt><trkpt lat="46.321685" lon="9.943551"><time>2021-07-03T12:38:54.000Z</time><ele>2209.4</ele></trkpt><trkpt lat="46.321674" lon="9.943548"><time>2021-07-03T12:38:55.000Z</time><ele>2209.4</ele></trkpt><trkpt lat="46.321667" lon="9.94354"><time>2021-07-03T12:38:56.000Z</time><ele>2209.2</ele></trkpt><trkpt lat="46.32163" lon="9.943457"><time>2021-07-03T12:39:03.000Z</time><ele>2208.6</ele></trkpt><trkpt lat="46.321601" lon="9.943395"><time>2021-07-03T12:39:08.000Z</time><ele>2208.2</ele></trkpt><trkpt lat="46.321592" lon="9.943363"><time>2021-07-03T12:39:10.000Z</time><ele>2208</ele></trkpt><trkpt lat="46.321577" lon="9.943336"><time>2021-07-03T12:39:13.000Z</time><ele>2207.8</ele></trkpt><trkpt lat="46.321562" lon="9.943294"><time>2021-07-03T12:39:16.000Z</time><ele>2207.6</ele></trkpt><trkpt lat="46.321539" lon="9.943265"><time>2021-07-03T12:39:19.000Z</time><ele>2207.2</ele></trkpt><trkpt lat="46.321531" lon="9.943257"><time>2021-07-03T12:39:20.000Z</time><ele>2207.2</ele></trkpt><trkpt lat="46.321504" lon="9.943231"><time>2021-07-03T12:39:23.000Z</time><ele>2207</ele></trkpt><trkpt lat="46.321489" lon="9.943217"><time>2021-07-03T12:39:25.000Z</time><ele>2206.8</ele></trkpt><trkpt lat="46.32146" lon="9.94318"><time>2021-07-03T12:39:29.000Z</time><ele>2206</ele></trkpt><trkpt lat="46.321451" lon="9.943172"><time>2021-07-03T12:39:30.000Z</time><ele>2205.8</ele></trkpt><trkpt lat="46.321446" lon="9.94312"><time>2021-07-03T12:39:34.000Z</time><ele>2205.2</ele></trkpt><trkpt lat="46.321441" lon="9.943111"><time>2021-07-03T12:39:35.000Z</time><ele>2205</ele></trkpt><trkpt lat="46.321435" lon="9.943108"><time>2021-07-03T12:39:36.000Z</time><ele>2204.8</ele></trkpt><trkpt lat="46.321429" lon="9.943098"><time>2021-07-03T12:39:37.000Z</time><ele>2204.8</ele></trkpt><trkpt lat="46.321418" lon="9.94308"><time>2021-07-03T12:39:39.000Z</time><ele>2204.6</ele></trkpt><trkpt lat="46.321368" lon="9.943048"><time>2021-07-03T12:39:44.000Z</time><ele>2204</ele></trkpt><trkpt lat="46.321315" lon="9.943037"><time>2021-07-03T12:39:49.000Z</time><ele>2204</ele></trkpt><trkpt lat="46.321303" lon="9.943036"><time>2021-07-03T12:39:51.000Z</time><ele>2204</ele></trkpt><trkpt lat="46.32124" lon="9.942979"><time>2021-07-03T12:39:59.000Z</time><ele>2203.2</ele></trkpt><trkpt lat="46.321216" lon="9.942954"><time>2021-07-03T12:40:03.000Z</time><ele>2203</ele></trkpt><trkpt lat="46.321208" lon="9.942939"><time>2021-07-03T12:40:04.000Z</time><ele>2203</ele></trkpt><trkpt lat="46.321196" lon="9.942916"><time>2021-07-03T12:40:06.000Z</time><ele>2202.6</ele></trkpt><trkpt lat="46.321172" lon="9.942892"><time>2021-07-03T12:40:09.000Z</time><ele>2202.4</ele></trkpt><trkpt lat="46.321132" lon="9.942829"><time>2021-07-03T12:40:14.000Z</time><ele>2202</ele></trkpt><trkpt lat="46.321119" lon="9.942804"><time>2021-07-03T12:40:16.000Z</time><ele>2201.8</ele></trkpt><trkpt lat="46.321076" lon="9.942724"><time>2021-07-03T12:40:23.000Z</time><ele>2201.2</ele></trkpt><trkpt lat="46.321063" lon="9.942708"><time>2021-07-03T12:40:25.000Z</time><ele>2200.8</ele></trkpt><trkpt lat="46.321059" lon="9.942699"><time>2021-07-03T12:40:26.000Z</time><ele>2200.6</ele></trkpt><trkpt lat="46.321051" lon="9.942685"><time>2021-07-03T12:40:28.000Z</time><ele>2200.4</ele></trkpt><trkpt lat="46.321043" lon="9.942686"><time>2021-07-03T12:40:29.000Z</time><ele>2200.4</ele></trkpt><trkpt lat="46.321013" lon="9.94266"><time>2021-07-03T12:40:32.000Z</time><ele>2200.2</ele></trkpt><trkpt lat="46.320985" lon="9.942626"><time>2021-07-03T12:40:35.000Z</time><ele>2200</ele></trkpt><trkpt lat="46.320956" lon="9.94259"><time>2021-07-03T12:40:39.000Z</time><ele>2199.8</ele></trkpt><trkpt lat="46.320938" lon="9.942582"><time>2021-07-03T12:40:41.000Z</time><ele>2199.6</ele></trkpt><trkpt lat="46.320928" lon="9.942576"><time>2021-07-03T12:40:43.000Z</time><ele>2199.4</ele></trkpt><trkpt lat="46.32089" lon="9.942569"><time>2021-07-03T12:40:46.000Z</time><ele>2199</ele></trkpt><trkpt lat="46.320862" lon="9.942544"><time>2021-07-03T12:40:49.000Z</time><ele>2198.6</ele></trkpt><trkpt lat="46.320842" lon="9.942535"><time>2021-07-03T12:40:51.000Z</time><ele>2198.2</ele></trkpt><trkpt lat="46.320803" lon="9.942509"><time>2021-07-03T12:40:55.000Z</time><ele>2197.8</ele></trkpt><trkpt lat="46.320796" lon="9.9425"><time>2021-07-03T12:40:57.000Z</time><ele>2197.8</ele></trkpt><trkpt lat="46.320797" lon="9.9425"><time>2021-07-03T12:40:58.000Z</time><ele>2197.8</ele></trkpt><trkpt lat="46.320794" lon="9.942494"><time>2021-07-03T12:40:59.000Z</time><ele>2197.6</ele></trkpt><trkpt lat="46.320777" lon="9.942473"><time>2021-07-03T12:41:01.000Z</time><ele>2197.4</ele></trkpt><trkpt lat="46.320747" lon="9.94247"><time>2021-07-03T12:41:03.000Z</time><ele>2197</ele></trkpt><trkpt lat="46.320708" lon="9.942455"><time>2021-07-03T12:41:06.000Z</time><ele>2196.6</ele></trkpt><trkpt lat="46.320685" lon="9.942403"><time>2021-07-03T12:41:10.000Z</time><ele>2195.8</ele></trkpt><trkpt lat="46.320672" lon="9.942385"><time>2021-07-03T12:41:12.000Z</time><ele>2195.4</ele></trkpt><trkpt lat="46.320668" lon="9.942368"><time>2021-07-03T12:41:13.000Z</time><ele>2195.2</ele></trkpt><trkpt lat="46.32065" lon="9.942315"><time>2021-07-03T12:41:17.000Z</time><ele>2195</ele></trkpt><trkpt lat="46.320643" lon="9.942289"><time>2021-07-03T12:41:20.000Z</time><ele>2195.2</ele></trkpt><trkpt lat="46.320636" lon="9.942258"><time>2021-07-03T12:41:23.000Z</time><ele>2195.2</ele></trkpt><trkpt lat="46.320625" lon="9.94223"><time>2021-07-03T12:41:27.000Z</time><ele>2195</ele></trkpt><trkpt lat="46.320604" lon="9.942209"><time>2021-07-03T12:41:31.000Z</time><ele>2194.6</ele></trkpt><trkpt lat="46.320594" lon="9.942198"><time>2021-07-03T12:41:33.000Z</time><ele>2194.6</ele></trkpt><trkpt lat="46.320574" lon="9.942195"><time>2021-07-03T12:41:35.000Z</time><ele>2194.6</ele></trkpt><trkpt lat="46.320564" lon="9.942201"><time>2021-07-03T12:41:38.000Z</time><ele>2194.4</ele></trkpt><trkpt lat="46.320558" lon="9.942198"><time>2021-07-03T12:41:39.000Z</time><ele>2194.2</ele></trkpt><trkpt lat="46.320552" lon="9.942194"><time>2021-07-03T12:41:41.000Z</time><ele>2194.2</ele></trkpt><trkpt lat="46.320552" lon="9.942188"><time>2021-07-03T12:41:42.000Z</time><ele>2194.2</ele></trkpt><trkpt lat="46.320541" lon="9.942197"><time>2021-07-03T12:41:44.000Z</time><ele>2194</ele></trkpt><trkpt lat="46.320521" lon="9.942212"><time>2021-07-03T12:41:46.000Z</time><ele>2193.8</ele></trkpt><trkpt lat="46.320501" lon="9.942239"><time>2021-07-03T12:41:50.000Z</time><ele>2193.4</ele></trkpt><trkpt lat="46.320473" lon="9.942272"><time>2021-07-03T12:41:57.000Z</time><ele>2193.4</ele></trkpt><trkpt lat="46.320452" lon="9.94229"><time>2021-07-03T12:42:00.000Z</time><ele>2193.2</ele></trkpt><trkpt lat="46.320421" lon="9.942344"><time>2021-07-03T12:42:05.000Z</time><ele>2192.8</ele></trkpt><trkpt lat="46.320365" lon="9.942424"><time>2021-07-03T12:42:11.000Z</time><ele>2192.2</ele></trkpt><trkpt lat="46.320362" lon="9.942429"><time>2021-07-03T12:42:12.000Z</time><ele>2192.2</ele></trkpt><trkpt lat="46.320312" lon="9.942502"><time>2021-07-03T12:42:20.000Z</time><ele>2192.6</ele></trkpt><trkpt lat="46.320301" lon="9.942553"><time>2021-07-03T12:42:23.000Z</time><ele>2192.8</ele></trkpt><trkpt lat="46.320292" lon="9.942553"><time>2021-07-03T12:42:25.000Z</time><ele>2192.8</ele></trkpt><trkpt lat="46.320292" lon="9.942556"><time>2021-07-03T12:42:26.000Z</time><ele>2192.6</ele></trkpt><trkpt lat="46.320264" lon="9.942582"><time>2021-07-03T12:42:30.000Z</time><ele>2192.6</ele></trkpt><trkpt lat="46.320255" lon="9.942592"><time>2021-07-03T12:42:31.000Z</time><ele>2192.6</ele></trkpt><trkpt lat="46.320238" lon="9.942604"><time>2021-07-03T12:42:33.000Z</time><ele>2192.6</ele></trkpt><trkpt lat="46.320214" lon="9.942603"><time>2021-07-03T12:42:37.000Z</time><ele>2192.4</ele></trkpt><trkpt lat="46.320194" lon="9.942646"><time>2021-07-03T12:42:41.000Z</time><ele>2192</ele></trkpt><trkpt lat="46.320189" lon="9.94263"><time>2021-07-03T12:42:43.000Z</time><ele>2191.8</ele></trkpt><trkpt lat="46.320188" lon="9.942617"><time>2021-07-03T12:42:44.000Z</time><ele>2191.6</ele></trkpt><trkpt lat="46.320162" lon="9.942606"><time>2021-07-03T12:42:47.000Z</time><ele>2191.2</ele></trkpt><trkpt lat="46.320146" lon="9.942602"><time>2021-07-03T12:42:50.000Z</time><ele>2190.8</ele></trkpt><trkpt lat="46.320141" lon="9.942596"><time>2021-07-03T12:42:51.000Z</time><ele>2190.8</ele></trkpt><trkpt lat="46.320117" lon="9.942583"><time>2021-07-03T12:42:55.000Z</time><ele>2190.2</ele></trkpt><trkpt lat="46.320096" lon="9.942585"><time>2021-07-03T12:42:57.000Z</time><ele>2190</ele></trkpt><trkpt lat="46.320076" lon="9.942543"><time>2021-07-03T12:43:03.000Z</time><ele>2189.2</ele></trkpt><trkpt lat="46.32006" lon="9.942494"><time>2021-07-03T12:43:06.000Z</time><ele>2189.2</ele></trkpt><trkpt lat="46.320041" lon="9.942461"><time>2021-07-03T12:43:09.000Z</time><ele>2188.8</ele></trkpt><trkpt lat="46.320018" lon="9.942451"><time>2021-07-03T12:43:11.000Z</time><ele>2188.8</ele></trkpt><trkpt lat="46.320003" lon="9.942452"><time>2021-07-03T12:43:12.000Z</time><ele>2188.6</ele></trkpt><trkpt lat="46.319976" lon="9.942428"><time>2021-07-03T12:43:15.000Z</time><ele>2188</ele></trkpt><trkpt lat="46.319968" lon="9.942414"><time>2021-07-03T12:43:16.000Z</time><ele>2187.8</ele></trkpt><trkpt lat="46.319938" lon="9.942381"><time>2021-07-03T12:43:21.000Z</time><ele>2187</ele></trkpt><trkpt lat="46.319923" lon="9.942339"><time>2021-07-03T12:43:24.000Z</time><ele>2186.4</ele></trkpt><trkpt lat="46.31992" lon="9.942323"><time>2021-07-03T12:43:25.000Z</time><ele>2186.2</ele></trkpt><trkpt lat="46.319915" lon="9.942292"><time>2021-07-03T12:43:27.000Z</time><ele>2186</ele></trkpt><trkpt lat="46.319906" lon="9.94226"><time>2021-07-03T12:43:29.000Z</time><ele>2185.8</ele></trkpt><trkpt lat="46.319906" lon="9.94224"><time>2021-07-03T12:43:30.000Z</time><ele>2185.6</ele></trkpt><trkpt lat="46.319893" lon="9.942189"><time>2021-07-03T12:43:33.000Z</time><ele>2185.2</ele></trkpt><trkpt lat="46.31988" lon="9.942158"><time>2021-07-03T12:43:35.000Z</time><ele>2184.8</ele></trkpt><trkpt lat="46.319862" lon="9.94214"><time>2021-07-03T12:43:38.000Z</time><ele>2184.2</ele></trkpt><trkpt lat="46.31985" lon="9.94214"><time>2021-07-03T12:43:41.000Z</time><ele>2184</ele></trkpt><trkpt lat="46.319845" lon="9.94212"><time>2021-07-03T12:43:44.000Z</time><ele>2184</ele></trkpt><trkpt lat="46.319837" lon="9.942108"><time>2021-07-03T12:43:46.000Z</time><ele>2184</ele></trkpt><trkpt lat="46.319813" lon="9.942065"><time>2021-07-03T12:43:51.000Z</time><ele>2183.8</ele></trkpt><trkpt lat="46.319807" lon="9.942057"><time>2021-07-03T12:43:52.000Z</time><ele>2183.8</ele></trkpt><trkpt lat="46.319804" lon="9.94205"><time>2021-07-03T12:43:53.000Z</time><ele>2183.6</ele></trkpt><trkpt lat="46.319764" lon="9.942047"><time>2021-07-03T12:43:57.000Z</time><ele>2183</ele></trkpt><trkpt lat="46.319741" lon="9.94205"><time>2021-07-03T12:44:00.000Z</time><ele>2182.6</ele></trkpt><trkpt lat="46.319699" lon="9.942062"><time>2021-07-03T12:44:05.000Z</time><ele>2181.8</ele></trkpt><trkpt lat="46.319688" lon="9.942071"><time>2021-07-03T12:44:07.000Z</time><ele>2181.6</ele></trkpt><trkpt lat="46.319675" lon="9.942063"><time>2021-07-03T12:44:08.000Z</time><ele>2181.4</ele></trkpt><trkpt lat="46.319646" lon="9.942055"><time>2021-07-03T12:44:12.000Z</time><ele>2181</ele></trkpt><trkpt lat="46.319619" lon="9.94205"><time>2021-07-03T12:44:16.000Z</time><ele>2180.4</ele></trkpt><trkpt lat="46.319604" lon="9.942044"><time>2021-07-03T12:44:18.000Z</time><ele>2179.8</ele></trkpt><trkpt lat="46.319589" lon="9.942041"><time>2021-07-03T12:44:20.000Z</time><ele>2179.6</ele></trkpt><trkpt lat="46.319568" lon="9.942066"><time>2021-07-03T12:44:23.000Z</time><ele>2179.4</ele></trkpt><trkpt lat="46.31956" lon="9.942068"><time>2021-07-03T12:44:24.000Z</time><ele>2179.4</ele></trkpt><trkpt lat="46.319549" lon="9.942054"><time>2021-07-03T12:44:25.000Z</time><ele>2179.2</ele></trkpt><trkpt lat="46.319516" lon="9.942038"><time>2021-07-03T12:44:30.000Z</time><ele>2178.4</ele></trkpt><trkpt lat="46.319514" lon="9.942012"><time>2021-07-03T12:44:32.000Z</time><ele>2178.2</ele></trkpt><trkpt lat="46.319507" lon="9.941994"><time>2021-07-03T12:44:35.000Z</time><ele>2177.8</ele></trkpt><trkpt lat="46.319503" lon="9.941988"><time>2021-07-03T12:44:36.000Z</time><ele>2177.4</ele></trkpt><trkpt lat="46.319494" lon="9.941992"><time>2021-07-03T12:44:37.000Z</time><ele>2177.2</ele></trkpt><trkpt lat="46.319482" lon="9.941979"><time>2021-07-03T12:44:39.000Z</time><ele>2176.6</ele></trkpt><trkpt lat="46.319465" lon="9.941959"><time>2021-07-03T12:44:42.000Z</time><ele>2176</ele></trkpt><trkpt lat="46.319446" lon="9.941937"><time>2021-07-03T12:44:45.000Z</time><ele>2175.6</ele></trkpt><trkpt lat="46.31944" lon="9.941931"><time>2021-07-03T12:44:46.000Z</time><ele>2175.6</ele></trkpt><trkpt lat="46.31941" lon="9.941916"><time>2021-07-03T12:44:51.000Z</time><ele>2174.8</ele></trkpt><trkpt lat="46.31938" lon="9.941885"><time>2021-07-03T12:44:57.000Z</time><ele>2174</ele></trkpt><trkpt lat="46.319377" lon="9.941876"><time>2021-07-03T12:44:58.000Z</time><ele>2173.8</ele></trkpt><trkpt lat="46.319356" lon="9.941874"><time>2021-07-03T12:45:03.000Z</time><ele>2173</ele></trkpt><trkpt lat="46.319338" lon="9.941845"><time>2021-07-03T12:45:07.000Z</time><ele>2172.8</ele></trkpt><trkpt lat="46.319318" lon="9.941834"><time>2021-07-03T12:45:10.000Z</time><ele>2172.2</ele></trkpt><trkpt lat="46.319296" lon="9.941806"><time>2021-07-03T12:45:16.000Z</time><ele>2171.4</ele></trkpt><trkpt lat="46.319293" lon="9.941793"><time>2021-07-03T12:45:17.000Z</time><ele>2171.4</ele></trkpt><trkpt lat="46.319259" lon="9.941691"><time>2021-07-03T12:45:23.000Z</time><ele>2170.8</ele></trkpt><trkpt lat="46.319253" lon="9.941668"><time>2021-07-03T12:45:25.000Z</time><ele>2170.4</ele></trkpt><trkpt lat="46.319245" lon="9.941597"><time>2021-07-03T12:45:29.000Z</time><ele>2170.2</ele></trkpt><trkpt lat="46.319237" lon="9.941551"><time>2021-07-03T12:45:32.000Z</time><ele>2170.4</ele></trkpt><trkpt lat="46.319227" lon="9.941497"><time>2021-07-03T12:45:36.000Z</time><ele>2170.4</ele></trkpt><trkpt lat="46.319186" lon="9.941416"><time>2021-07-03T12:45:43.000Z</time><ele>2170.2</ele></trkpt><trkpt lat="46.319177" lon="9.94137"><time>2021-07-03T12:45:45.000Z</time><ele>2170.2</ele></trkpt><trkpt lat="46.319177" lon="9.941351"><time>2021-07-03T12:45:46.000Z</time><ele>2170.2</ele></trkpt><trkpt lat="46.319181" lon="9.941304"><time>2021-07-03T12:45:49.000Z</time><ele>2169.8</ele></trkpt><trkpt lat="46.319176" lon="9.94129"><time>2021-07-03T12:45:50.000Z</time><ele>2169.8</ele></trkpt><trkpt lat="46.319177" lon="9.941275"><time>2021-07-03T12:45:51.000Z</time><ele>2169.8</ele></trkpt><trkpt lat="46.319174" lon="9.941266"><time>2021-07-03T12:45:54.000Z</time><ele>2169.8</ele></trkpt><trkpt lat="46.319164" lon="9.941262"><time>2021-07-03T12:45:56.000Z</time><ele>2170.4</ele></trkpt><trkpt lat="46.319143" lon="9.941239"><time>2021-07-03T12:46:00.000Z</time><ele>2170.8</ele></trkpt><trkpt lat="46.31913" lon="9.941245"><time>2021-07-03T12:46:02.000Z</time><ele>2170.6</ele></trkpt><trkpt lat="46.319051" lon="9.941255"><time>2021-07-03T12:46:08.000Z</time><ele>2170.4</ele></trkpt><trkpt lat="46.318944" lon="9.941281"><time>2021-07-03T12:46:17.000Z</time><ele>2170</ele></trkpt><trkpt lat="46.318921" lon="9.941302"><time>2021-07-03T12:46:20.000Z</time><ele>2169.8</ele></trkpt><trkpt lat="46.318908" lon="9.941312"><time>2021-07-03T12:46:22.000Z</time><ele>2169.8</ele></trkpt><trkpt lat="46.3189" lon="9.941311"><time>2021-07-03T12:46:24.000Z</time><ele>2169.6</ele></trkpt><trkpt lat="46.318909" lon="9.941316"><time>2021-07-03T12:46:27.000Z</time><ele>2169.4</ele></trkpt><trkpt lat="46.318925" lon="9.941321"><time>2021-07-03T12:46:29.000Z</time><ele>2169.4</ele></trkpt><trkpt lat="46.318876" lon="9.941318"><time>2021-07-03T12:46:38.000Z</time><ele>2169.4</ele></trkpt><trkpt lat="46.318853" lon="9.941309"><time>2021-07-03T12:46:42.000Z</time><ele>2169</ele></trkpt><trkpt lat="46.318833" lon="9.941301"><time>2021-07-03T12:46:45.000Z</time><ele>2168.8</ele></trkpt><trkpt lat="46.318795" lon="9.941244"><time>2021-07-03T12:46:51.000Z</time><ele>2168.2</ele></trkpt><trkpt lat="46.318783" lon="9.941231"><time>2021-07-03T12:46:52.000Z</time><ele>2168.2</ele></trkpt><trkpt lat="46.318743" lon="9.941212"><time>2021-07-03T12:46:56.000Z</time><ele>2167.8</ele></trkpt><trkpt lat="46.318718" lon="9.941215"><time>2021-07-03T12:46:59.000Z</time><ele>2167.6</ele></trkpt><trkpt lat="46.318678" lon="9.941215"><time>2021-07-03T12:47:02.000Z</time><ele>2167.2</ele></trkpt><trkpt lat="46.318642" lon="9.941167"><time>2021-07-03T12:47:06.000Z</time><ele>2166.8</ele></trkpt><trkpt lat="46.318589" lon="9.941131"><time>2021-07-03T12:47:11.000Z</time><ele>2166.2</ele></trkpt><trkpt lat="46.318577" lon="9.941119"><time>2021-07-03T12:47:12.000Z</time><ele>2166.2</ele></trkpt><trkpt lat="46.318553" lon="9.941063"><time>2021-07-03T12:47:16.000Z</time><ele>2166</ele></trkpt><trkpt lat="46.318522" lon="9.941051"><time>2021-07-03T12:47:18.000Z</time><ele>2166</ele></trkpt><trkpt lat="46.318498" lon="9.94105"><time>2021-07-03T12:47:20.000Z</time><ele>2165.8</ele></trkpt><trkpt lat="46.318449" lon="9.941051"><time>2021-07-03T12:47:25.000Z</time><ele>2165.4</ele></trkpt><trkpt lat="46.318429" lon="9.94104"><time>2021-07-03T12:47:27.000Z</time><ele>2165.4</ele></trkpt><trkpt lat="46.318404" lon="9.941036"><time>2021-07-03T12:47:31.000Z</time><ele>2165.4</ele></trkpt><trkpt lat="46.318382" lon="9.941019"><time>2021-07-03T12:47:35.000Z</time><ele>2165.8</ele></trkpt><trkpt lat="46.318368" lon="9.941018"><time>2021-07-03T12:47:36.000Z</time><ele>2165.8</ele></trkpt><trkpt lat="46.318344" lon="9.941026"><time>2021-07-03T12:47:39.000Z</time><ele>2166.4</ele></trkpt><trkpt lat="46.318336" lon="9.941045"><time>2021-07-03T12:47:41.000Z</time><ele>2166.6</ele></trkpt><trkpt lat="46.318322" lon="9.941066"><time>2021-07-03T12:47:44.000Z</time><ele>2167.2</ele></trkpt><trkpt lat="46.318323" lon="9.941062"><time>2021-07-03T12:47:45.000Z</time><ele>2167.4</ele></trkpt><trkpt lat="46.318314" lon="9.941061"><time>2021-07-03T12:47:47.000Z</time><ele>2167.8</ele></trkpt><trkpt lat="46.318317" lon="9.941063"><time>2021-07-03T12:47:48.000Z</time><ele>2168</ele></trkpt><trkpt lat="46.318314" lon="9.94106"><time>2021-07-03T12:47:50.000Z</time><ele>2168.4</ele></trkpt><trkpt lat="46.318307" lon="9.941054"><time>2021-07-03T12:47:51.000Z</time><ele>2168.4</ele></trkpt><trkpt lat="46.318298" lon="9.941051"><time>2021-07-03T12:47:52.000Z</time><ele>2168.6</ele></trkpt><trkpt lat="46.318292" lon="9.94105"><time>2021-07-03T12:47:53.000Z</time><ele>2168.6</ele></trkpt><trkpt lat="46.318277" lon="9.941039"><time>2021-07-03T12:47:55.000Z</time><ele>2168.8</ele></trkpt><trkpt lat="46.318269" lon="9.941033"><time>2021-07-03T12:47:58.000Z</time><ele>2169.6</ele></trkpt><trkpt lat="46.318258" lon="9.941015"><time>2021-07-03T12:48:02.000Z</time><ele>2170.4</ele></trkpt><trkpt lat="46.318257" lon="9.941003"><time>2021-07-03T12:48:03.000Z</time><ele>2170.6</ele></trkpt><trkpt lat="46.318248" lon="9.940988"><time>2021-07-03T12:48:06.000Z</time><ele>2171</ele></trkpt><trkpt lat="46.318251" lon="9.940981"><time>2021-07-03T12:48:08.000Z</time><ele>2171.4</ele></trkpt><trkpt lat="46.318245" lon="9.940969"><time>2021-07-03T12:48:09.000Z</time><ele>2171.6</ele></trkpt><trkpt lat="46.318227" lon="9.940968"><time>2021-07-03T12:48:12.000Z</time><ele>2172</ele></trkpt><trkpt lat="46.318211" lon="9.940969"><time>2021-07-03T12:48:15.000Z</time><ele>2172.4</ele></trkpt><trkpt lat="46.318203" lon="9.940968"><time>2021-07-03T12:48:17.000Z</time><ele>2172.6</ele></trkpt><trkpt lat="46.31816" lon="9.941009"><time>2021-07-03T12:48:22.000Z</time><ele>2173</ele></trkpt><trkpt lat="46.318141" lon="9.941031"><time>2021-07-03T12:48:25.000Z</time><ele>2173.2</ele></trkpt><trkpt lat="46.31812" lon="9.941053"><time>2021-07-03T12:48:28.000Z</time><ele>2173.6</ele></trkpt><trkpt lat="46.318111" lon="9.941056"><time>2021-07-03T12:48:29.000Z</time><ele>2173.8</ele></trkpt><trkpt lat="46.318096" lon="9.941055"><time>2021-07-03T12:48:31.000Z</time><ele>2174</ele></trkpt><trkpt lat="46.318071" lon="9.941078"><time>2021-07-03T12:48:35.000Z</time><ele>2174.2</ele></trkpt><trkpt lat="46.318062" lon="9.941099"><time>2021-07-03T12:48:37.000Z</time><ele>2174.4</ele></trkpt><trkpt lat="46.318054" lon="9.94111"><time>2021-07-03T12:48:39.000Z</time><ele>2174.8</ele></trkpt><trkpt lat="46.31803" lon="9.941109"><time>2021-07-03T12:48:42.000Z</time><ele>2175.2</ele></trkpt><trkpt lat="46.318001" lon="9.941123"><time>2021-07-03T12:48:47.000Z</time><ele>2176</ele></trkpt><trkpt lat="46.317984" lon="9.941134"><time>2021-07-03T12:48:49.000Z</time><ele>2176.2</ele></trkpt><trkpt lat="46.317977" lon="9.941132"><time>2021-07-03T12:48:52.000Z</time><ele>2176.8</ele></trkpt><trkpt lat="46.317973" lon="9.941139"><time>2021-07-03T12:48:53.000Z</time><ele>2177</ele></trkpt><trkpt lat="46.317968" lon="9.941173"><time>2021-07-03T12:48:56.000Z</time><ele>2177.4</ele></trkpt><trkpt lat="46.317937" lon="9.941185"><time>2021-07-03T12:48:59.000Z</time><ele>2178</ele></trkpt><trkpt lat="46.317914" lon="9.941192"><time>2021-07-03T12:49:01.000Z</time><ele>2178.4</ele></trkpt><trkpt lat="46.317902" lon="9.941196"><time>2021-07-03T12:49:02.000Z</time><ele>2178.4</ele></trkpt><trkpt lat="46.317871" lon="9.941202"><time>2021-07-03T12:49:06.000Z</time><ele>2178.8</ele></trkpt><trkpt lat="46.317855" lon="9.941187"><time>2021-07-03T12:49:08.000Z</time><ele>2178.8</ele></trkpt><trkpt lat="46.317835" lon="9.94116"><time>2021-07-03T12:49:11.000Z</time><ele>2178.8</ele></trkpt><trkpt lat="46.317822" lon="9.941149"><time>2021-07-03T12:49:13.000Z</time><ele>2178.8</ele></trkpt><trkpt lat="46.317819" lon="9.941143"><time>2021-07-03T12:49:15.000Z</time><ele>2178.8</ele></trkpt><trkpt lat="46.317822" lon="9.941152"><time>2021-07-03T12:49:16.000Z</time><ele>2178.8</ele></trkpt><trkpt lat="46.317856" lon="9.941202"><time>2021-07-03T12:49:21.000Z</time><ele>2179</ele></trkpt><trkpt lat="46.317885" lon="9.941188"><time>2021-07-03T12:49:27.000Z</time><ele>2179.4</ele></trkpt><trkpt lat="46.317888" lon="9.941185"><time>2021-07-03T12:49:28.000Z</time><ele>2179.6</ele></trkpt><trkpt lat="46.317893" lon="9.941185"><time>2021-07-03T12:49:34.000Z</time><ele>2179.6</ele></trkpt><trkpt lat="46.317893" lon="9.941185"><time>2021-07-03T12:49:37.000Z</time><ele>2179.4</ele></trkpt><trkpt lat="46.317893" lon="9.941188"><time>2021-07-03T12:49:40.000Z</time><ele>2179.4</ele></trkpt><trkpt lat="46.317893" lon="9.94119"><time>2021-07-03T12:49:43.000Z</time><ele>2179.4</ele></trkpt><trkpt lat="46.31789" lon="9.941204"><time>2021-07-03T12:49:48.000Z</time><ele>2179.6</ele></trkpt><trkpt lat="46.317888" lon="9.941211"><time>2021-07-03T12:49:53.000Z</time><ele>2179.4</ele></trkpt><trkpt lat="46.317888" lon="9.941218"><time>2021-07-03T12:49:56.000Z</time><ele>2179.4</ele></trkpt><trkpt lat="46.317838" lon="9.941178"><time>2021-07-03T12:50:06.000Z</time><ele>2179.2</ele></trkpt><trkpt lat="46.317747" lon="9.94106"><time>2021-07-03T12:50:15.000Z</time><ele>2179</ele></trkpt><trkpt lat="46.317743" lon="9.941027"><time>2021-07-03T12:50:17.000Z</time><ele>2179.2</ele></trkpt><trkpt lat="46.317739" lon="9.940989"><time>2021-07-03T12:50:19.000Z</time><ele>2179.2</ele></trkpt><trkpt lat="46.317733" lon="9.940978"><time>2021-07-03T12:50:20.000Z</time><ele>2179.2</ele></trkpt><trkpt lat="46.317727" lon="9.940951"><time>2021-07-03T12:50:23.000Z</time><ele>2178.6</ele></trkpt><trkpt lat="46.317717" lon="9.94091"><time>2021-07-03T12:50:26.000Z</time><ele>2178</ele></trkpt><trkpt lat="46.317714" lon="9.940901"><time>2021-07-03T12:50:27.000Z</time><ele>2177.8</ele></trkpt><trkpt lat="46.317688" lon="9.940844"><time>2021-07-03T12:50:32.000Z</time><ele>2177.4</ele></trkpt><trkpt lat="46.317673" lon="9.940819"><time>2021-07-03T12:50:34.000Z</time><ele>2177</ele></trkpt><trkpt lat="46.317665" lon="9.940804"><time>2021-07-03T12:50:35.000Z</time><ele>2176.8</ele></trkpt><trkpt lat="46.317635" lon="9.940762"><time>2021-07-03T12:50:38.000Z</time><ele>2175.8</ele></trkpt><trkpt lat="46.31758" lon="9.940724"><time>2021-07-03T12:50:42.000Z</time><ele>2175</ele></trkpt><trkpt lat="46.317562" lon="9.940717"><time>2021-07-03T12:50:44.000Z</time><ele>2174.8</ele></trkpt><trkpt lat="46.317554" lon="9.940717"><time>2021-07-03T12:50:45.000Z</time><ele>2174.8</ele></trkpt><trkpt lat="46.317532" lon="9.940729"><time>2021-07-03T12:50:47.000Z</time><ele>2174.8</ele></trkpt><trkpt lat="46.317518" lon="9.940735"><time>2021-07-03T12:50:48.000Z</time><ele>2174.8</ele></trkpt><trkpt lat="46.31745" lon="9.940805"><time>2021-07-03T12:50:56.000Z</time><ele>2174.4</ele></trkpt><trkpt lat="46.317437" lon="9.940813"><time>2021-07-03T12:50:57.000Z</time><ele>2174.2</ele></trkpt><trkpt lat="46.317414" lon="9.940829"><time>2021-07-03T12:50:59.000Z</time><ele>2174.2</ele></trkpt><trkpt lat="46.317404" lon="9.940834"><time>2021-07-03T12:51:00.000Z</time><ele>2174</ele></trkpt><trkpt lat="46.317386" lon="9.94085"><time>2021-07-03T12:51:02.000Z</time><ele>2173.6</ele></trkpt><trkpt lat="46.317378" lon="9.940855"><time>2021-07-03T12:51:03.000Z</time><ele>2173.4</ele></trkpt><trkpt lat="46.317309" lon="9.940872"><time>2021-07-03T12:51:10.000Z</time><ele>2172.6</ele></trkpt><trkpt lat="46.317301" lon="9.940878"><time>2021-07-03T12:51:11.000Z</time><ele>2172.6</ele></trkpt><trkpt lat="46.317259" lon="9.940905"><time>2021-07-03T12:51:16.000Z</time><ele>2172.2</ele></trkpt><trkpt lat="46.31725" lon="9.940909"><time>2021-07-03T12:51:18.000Z</time><ele>2171.8</ele></trkpt><trkpt lat="46.317247" lon="9.940913"><time>2021-07-03T12:51:19.000Z</time><ele>2171.6</ele></trkpt><trkpt lat="46.317236" lon="9.940916"><time>2021-07-03T12:51:20.000Z</time><ele>2171.4</ele></trkpt><trkpt lat="46.317202" lon="9.940902"><time>2021-07-03T12:51:24.000Z</time><ele>2170.4</ele></trkpt><trkpt lat="46.317191" lon="9.940893"><time>2021-07-03T12:51:25.000Z</time><ele>2170.4</ele></trkpt><trkpt lat="46.317175" lon="9.940898"><time>2021-07-03T12:51:27.000Z</time><ele>2170.2</ele></trkpt><trkpt lat="46.317134" lon="9.94089"><time>2021-07-03T12:51:32.000Z</time><ele>2169.6</ele></trkpt><trkpt lat="46.31712" lon="9.940884"><time>2021-07-03T12:51:34.000Z</time><ele>2169</ele></trkpt><trkpt lat="46.31709" lon="9.940891"><time>2021-07-03T12:51:39.000Z</time><ele>2168.2</ele></trkpt><trkpt lat="46.317073" lon="9.940893"><time>2021-07-03T12:51:41.000Z</time><ele>2168</ele></trkpt><trkpt lat="46.317046" lon="9.940903"><time>2021-07-03T12:51:44.000Z</time><ele>2167.2</ele></trkpt><trkpt lat="46.317019" lon="9.940904"><time>2021-07-03T12:51:46.000Z</time><ele>2166.8</ele></trkpt><trkpt lat="46.316996" lon="9.940885"><time>2021-07-03T12:51:49.000Z</time><ele>2166.2</ele></trkpt><trkpt lat="46.316976" lon="9.940884"><time>2021-07-03T12:51:51.000Z</time><ele>2166</ele></trkpt><trkpt lat="46.316972" lon="9.940887"><time>2021-07-03T12:51:52.000Z</time><ele>2165.8</ele></trkpt><trkpt lat="46.316934" lon="9.940897"><time>2021-07-03T12:51:57.000Z</time><ele>2165.2</ele></trkpt><trkpt lat="46.316917" lon="9.940913"><time>2021-07-03T12:51:59.000Z</time><ele>2164.8</ele></trkpt><trkpt lat="46.316897" lon="9.940929"><time>2021-07-03T12:52:02.000Z</time><ele>2164.2</ele></trkpt><trkpt lat="46.316889" lon="9.940927"><time>2021-07-03T12:52:03.000Z</time><ele>2164</ele></trkpt><trkpt lat="46.31688" lon="9.940925"><time>2021-07-03T12:52:04.000Z</time><ele>2163.8</ele></trkpt><trkpt lat="46.316873" lon="9.940928"><time>2021-07-03T12:52:05.000Z</time><ele>2163.8</ele></trkpt><trkpt lat="46.316867" lon="9.940934"><time>2021-07-03T12:52:06.000Z</time><ele>2163.6</ele></trkpt><trkpt lat="46.316843" lon="9.940962"><time>2021-07-03T12:52:10.000Z</time><ele>2163</ele></trkpt><trkpt lat="46.316827" lon="9.941"><time>2021-07-03T12:52:13.000Z</time><ele>2162.6</ele></trkpt><trkpt lat="46.316848" lon="9.941059"><time>2021-07-03T12:52:15.000Z</time><ele>2162</ele></trkpt><trkpt lat="46.316869" lon="9.941059"><time>2021-07-03T12:52:18.000Z</time><ele>2161.4</ele></trkpt><trkpt lat="46.316877" lon="9.94106"><time>2021-07-03T12:52:20.000Z</time><ele>2161</ele></trkpt><trkpt lat="46.316922" lon="9.94106"><time>2021-07-03T12:52:26.000Z</time><ele>2160.4</ele></trkpt><trkpt lat="46.31695" lon="9.941033"><time>2021-07-03T12:52:30.000Z</time><ele>2160.2</ele></trkpt><trkpt lat="46.316969" lon="9.941038"><time>2021-07-03T12:52:32.000Z</time><ele>2159.4</ele></trkpt><trkpt lat="46.316975" lon="9.941029"><time>2021-07-03T12:52:33.000Z</time><ele>2159.2</ele></trkpt><trkpt lat="46.317009" lon="9.941025"><time>2021-07-03T12:52:38.000Z</time><ele>2158.2</ele></trkpt><trkpt lat="46.317017" lon="9.941026"><time>2021-07-03T12:52:39.000Z</time><ele>2158</ele></trkpt><trkpt lat="46.317058" lon="9.941029"><time>2021-07-03T12:52:44.000Z</time><ele>2157</ele></trkpt><trkpt lat="46.317081" lon="9.941017"><time>2021-07-03T12:52:47.000Z</time><ele>2156.2</ele></trkpt><trkpt lat="46.317093" lon="9.94102"><time>2021-07-03T12:52:48.000Z</time><ele>2156</ele></trkpt><trkpt lat="46.317098" lon="9.941017"><time>2021-07-03T12:52:49.000Z</time><ele>2155.8</ele></trkpt><trkpt lat="46.317123" lon="9.941021"><time>2021-07-03T12:52:52.000Z</time><ele>2155.4</ele></trkpt><trkpt lat="46.317147" lon="9.941057"><time>2021-07-03T12:52:56.000Z</time><ele>2154.8</ele></trkpt><trkpt lat="46.317151" lon="9.941082"><time>2021-07-03T12:53:00.000Z</time><ele>2153.8</ele></trkpt><trkpt lat="46.317143" lon="9.941075"><time>2021-07-03T12:53:01.000Z</time><ele>2153.8</ele></trkpt><trkpt lat="46.317137" lon="9.941069"><time>2021-07-03T12:53:02.000Z</time><ele>2153.6</ele></trkpt><trkpt lat="46.317133" lon="9.941074"><time>2021-07-03T12:53:03.000Z</time><ele>2153.6</ele></trkpt><trkpt lat="46.317127" lon="9.941078"><time>2021-07-03T12:53:04.000Z</time><ele>2153.4</ele></trkpt><trkpt lat="46.317104" lon="9.941089"><time>2021-07-03T12:53:07.000Z</time><ele>2152.8</ele></trkpt><trkpt lat="46.317094" lon="9.941118"><time>2021-07-03T12:53:10.000Z</time><ele>2152.2</ele></trkpt><trkpt lat="46.317082" lon="9.941141"><time>2021-07-03T12:53:15.000Z</time><ele>2151.8</ele></trkpt><trkpt lat="46.317069" lon="9.941149"><time>2021-07-03T12:53:17.000Z</time><ele>2151.4</ele></trkpt><trkpt lat="46.317058" lon="9.941153"><time>2021-07-03T12:53:19.000Z</time><ele>2151.2</ele></trkpt><trkpt lat="46.317053" lon="9.941159"><time>2021-07-03T12:53:20.000Z</time><ele>2151</ele></trkpt><trkpt lat="46.317047" lon="9.941158"><time>2021-07-03T12:53:21.000Z</time><ele>2150.8</ele></trkpt><trkpt lat="46.317031" lon="9.94116"><time>2021-07-03T12:53:22.000Z</time><ele>2150.6</ele></trkpt><trkpt lat="46.317021" lon="9.941159"><time>2021-07-03T12:53:23.000Z</time><ele>2150.6</ele></trkpt><trkpt lat="46.317025" lon="9.94118"><time>2021-07-03T12:53:28.000Z</time><ele>2150</ele></trkpt><trkpt lat="46.317021" lon="9.941182"><time>2021-07-03T12:53:30.000Z</time><ele>2150</ele></trkpt><trkpt lat="46.316992" lon="9.941178"><time>2021-07-03T12:53:37.000Z</time><ele>2150</ele></trkpt><trkpt lat="46.316984" lon="9.94118"><time>2021-07-03T12:53:38.000Z</time><ele>2150</ele></trkpt><trkpt lat="46.316951" lon="9.941202"><time>2021-07-03T12:53:42.000Z</time><ele>2149.4</ele></trkpt><trkpt lat="46.316941" lon="9.941198"><time>2021-07-03T12:53:44.000Z</time><ele>2148.8</ele></trkpt><trkpt lat="46.31693" lon="9.941201"><time>2021-07-03T12:53:46.000Z</time><ele>2148.4</ele></trkpt><trkpt lat="46.316909" lon="9.941202"><time>2021-07-03T12:53:49.000Z</time><ele>2147.6</ele></trkpt><trkpt lat="46.3169" lon="9.941202"><time>2021-07-03T12:53:50.000Z</time><ele>2147.4</ele></trkpt><trkpt lat="46.316893" lon="9.941205"><time>2021-07-03T12:53:51.000Z</time><ele>2147.4</ele></trkpt><trkpt lat="46.316868" lon="9.941225"><time>2021-07-03T12:53:55.000Z</time><ele>2146.6</ele></trkpt><trkpt lat="46.316855" lon="9.941227"><time>2021-07-03T12:53:56.000Z</time><ele>2146.2</ele></trkpt><trkpt lat="46.316827" lon="9.941241"><time>2021-07-03T12:54:01.000Z</time><ele>2145.6</ele></trkpt><trkpt lat="46.316811" lon="9.941236"><time>2021-07-03T12:54:03.000Z</time><ele>2145.2</ele></trkpt><trkpt lat="46.316782" lon="9.941242"><time>2021-07-03T12:54:07.000Z</time><ele>2144.6</ele></trkpt><trkpt lat="46.316767" lon="9.941249"><time>2021-07-03T12:54:09.000Z</time><ele>2144.2</ele></trkpt><trkpt lat="46.316725" lon="9.941257"><time>2021-07-03T12:54:15.000Z</time><ele>2143</ele></trkpt><trkpt lat="46.316721" lon="9.941264"><time>2021-07-03T12:54:16.000Z</time><ele>2142.8</ele></trkpt><trkpt lat="46.316708" lon="9.941266"><time>2021-07-03T12:54:19.000Z</time><ele>2142</ele></trkpt><trkpt lat="46.316677" lon="9.941261"><time>2021-07-03T12:54:22.000Z</time><ele>2141.6</ele></trkpt><trkpt lat="46.316669" lon="9.941261"><time>2021-07-03T12:54:23.000Z</time><ele>2141.4</ele></trkpt><trkpt lat="46.316645" lon="9.941262"><time>2021-07-03T12:54:26.000Z</time><ele>2140.6</ele></trkpt><trkpt lat="46.316605" lon="9.941271"><time>2021-07-03T12:54:30.000Z</time><ele>2139.4</ele></trkpt><trkpt lat="46.316577" lon="9.941275"><time>2021-07-03T12:54:33.000Z</time><ele>2139</ele></trkpt><trkpt lat="46.316563" lon="9.941285"><time>2021-07-03T12:54:35.000Z</time><ele>2138.2</ele></trkpt><trkpt lat="46.316518" lon="9.941284"><time>2021-07-03T12:54:39.000Z</time><ele>2137</ele></trkpt><trkpt lat="46.316504" lon="9.941284"><time>2021-07-03T12:54:40.000Z</time><ele>2136.8</ele></trkpt><trkpt lat="46.316477" lon="9.941277"><time>2021-07-03T12:54:42.000Z</time><ele>2136.4</ele></trkpt><trkpt lat="46.316444" lon="9.941273"><time>2021-07-03T12:54:45.000Z</time><ele>2136.4</ele></trkpt><trkpt lat="46.316433" lon="9.94127"><time>2021-07-03T12:54:46.000Z</time><ele>2136.4</ele></trkpt><trkpt lat="46.316346" lon="9.941248"><time>2021-07-03T12:54:53.000Z</time><ele>2136.4</ele></trkpt><trkpt lat="46.316333" lon="9.941245"><time>2021-07-03T12:54:54.000Z</time><ele>2136.4</ele></trkpt><trkpt lat="46.316302" lon="9.941249"><time>2021-07-03T12:54:57.000Z</time><ele>2136.2</ele></trkpt><trkpt lat="46.316277" lon="9.941268"><time>2021-07-03T12:54:59.000Z</time><ele>2136.2</ele></trkpt><trkpt lat="46.316251" lon="9.941283"><time>2021-07-03T12:55:01.000Z</time><ele>2136.2</ele></trkpt><trkpt lat="46.316221" lon="9.941325"><time>2021-07-03T12:55:05.000Z</time><ele>2136.2</ele></trkpt><trkpt lat="46.31621" lon="9.941337"><time>2021-07-03T12:55:06.000Z</time><ele>2136.2</ele></trkpt><trkpt lat="46.316159" lon="9.941344"><time>2021-07-03T12:55:10.000Z</time><ele>2136.2</ele></trkpt><trkpt lat="46.316114" lon="9.941383"><time>2021-07-03T12:55:13.000Z</time><ele>2136.2</ele></trkpt><trkpt lat="46.316068" lon="9.941418"><time>2021-07-03T12:55:18.000Z</time><ele>2136.4</ele></trkpt><trkpt lat="46.316015" lon="9.941445"><time>2021-07-03T12:55:24.000Z</time><ele>2136.8</ele></trkpt><trkpt lat="46.316002" lon="9.941443"><time>2021-07-03T12:55:25.000Z</time><ele>2136.8</ele></trkpt><trkpt lat="46.315991" lon="9.941442"><time>2021-07-03T12:55:26.000Z</time><ele>2136.8</ele></trkpt><trkpt lat="46.315981" lon="9.941439"><time>2021-07-03T12:55:27.000Z</time><ele>2137</ele></trkpt><trkpt lat="46.315946" lon="9.941438"><time>2021-07-03T12:55:30.000Z</time><ele>2137</ele></trkpt><trkpt lat="46.315934" lon="9.941452"><time>2021-07-03T12:55:31.000Z</time><ele>2137</ele></trkpt><trkpt lat="46.315904" lon="9.94145"><time>2021-07-03T12:55:34.000Z</time><ele>2137.2</ele></trkpt><trkpt lat="46.315896" lon="9.941447"><time>2021-07-03T12:55:35.000Z</time><ele>2137.2</ele></trkpt><trkpt lat="46.315888" lon="9.941446"><time>2021-07-03T12:55:36.000Z</time><ele>2137.2</ele></trkpt><trkpt lat="46.315842" lon="9.94143"><time>2021-07-03T12:55:40.000Z</time><ele>2137.4</ele></trkpt><trkpt lat="46.315824" lon="9.941444"><time>2021-07-03T12:55:42.000Z</time><ele>2137</ele></trkpt><trkpt lat="46.315803" lon="9.941452"><time>2021-07-03T12:55:44.000Z</time><ele>2137</ele></trkpt><trkpt lat="46.31579" lon="9.941437"><time>2021-07-03T12:55:45.000Z</time><ele>2136.8</ele></trkpt><trkpt lat="46.315783" lon="9.941422"><time>2021-07-03T12:55:46.000Z</time><ele>2136.8</ele></trkpt><trkpt lat="46.315762" lon="9.941408"><time>2021-07-03T12:55:48.000Z</time><ele>2136.8</ele></trkpt><trkpt lat="46.315734" lon="9.94142"><time>2021-07-03T12:55:51.000Z</time><ele>2136.6</ele></trkpt><trkpt lat="46.315719" lon="9.941429"><time>2021-07-03T12:55:52.000Z</time><ele>2136.6</ele></trkpt><trkpt lat="46.315696" lon="9.941445"><time>2021-07-03T12:55:54.000Z</time><ele>2136.4</ele></trkpt><trkpt lat="46.315644" lon="9.941509"><time>2021-07-03T12:55:59.000Z</time><ele>2136.2</ele></trkpt><trkpt lat="46.315588" lon="9.941576"><time>2021-07-03T12:56:06.000Z</time><ele>2136.2</ele></trkpt><trkpt lat="46.315576" lon="9.941584"><time>2021-07-03T12:56:07.000Z</time><ele>2136</ele></trkpt><trkpt lat="46.315565" lon="9.941585"><time>2021-07-03T12:56:08.000Z</time><ele>2136</ele></trkpt><trkpt lat="46.315509" lon="9.941607"><time>2021-07-03T12:56:13.000Z</time><ele>2136</ele></trkpt><trkpt lat="46.3155" lon="9.9416"><time>2021-07-03T12:56:14.000Z</time><ele>2136</ele></trkpt><trkpt lat="46.315438" lon="9.941622"><time>2021-07-03T12:56:21.000Z</time><ele>2136.4</ele></trkpt><trkpt lat="46.315415" lon="9.941652"><time>2021-07-03T12:56:24.000Z</time><ele>2136.4</ele></trkpt><trkpt lat="46.315396" lon="9.94169"><time>2021-07-03T12:56:27.000Z</time><ele>2136.2</ele></trkpt><trkpt lat="46.315341" lon="9.941784"><time>2021-07-03T12:56:36.000Z</time><ele>2136.2</ele></trkpt><trkpt lat="46.315329" lon="9.94181"><time>2021-07-03T12:56:38.000Z</time><ele>2136.4</ele></trkpt><trkpt lat="46.31528" lon="9.941881"><time>2021-07-03T12:56:46.000Z</time><ele>2136.6</ele></trkpt><trkpt lat="46.315262" lon="9.942015"><time>2021-07-03T12:56:53.000Z</time><ele>2136.2</ele></trkpt><trkpt lat="46.315272" lon="9.942048"><time>2021-07-03T12:57:00.000Z</time><ele>2136</ele></trkpt><trkpt lat="46.315297" lon="9.942025"><time>2021-07-03T12:57:11.000Z</time><ele>2136</ele></trkpt><trkpt lat="46.315257" lon="9.942056"><time>2021-07-03T12:57:20.000Z</time><ele>2136.2</ele></trkpt><trkpt lat="46.315234" lon="9.942152"><time>2021-07-03T12:57:24.000Z</time><ele>2136.2</ele></trkpt><trkpt lat="46.315211" lon="9.942227"><time>2021-07-03T12:57:28.000Z</time><ele>2136.2</ele></trkpt><trkpt lat="46.315193" lon="9.942301"><time>2021-07-03T12:57:33.000Z</time><ele>2136.4</ele></trkpt><trkpt lat="46.315202" lon="9.942344"><time>2021-07-03T12:57:36.000Z</time><ele>2136.4</ele></trkpt><trkpt lat="46.315211" lon="9.942352"><time>2021-07-03T12:57:38.000Z</time><ele>2136.2</ele></trkpt><trkpt lat="46.315171" lon="9.942421"><time>2021-07-03T12:57:45.000Z</time><ele>2136.2</ele></trkpt><trkpt lat="46.315182" lon="9.942451"><time>2021-07-03T12:57:48.000Z</time><ele>2136.4</ele></trkpt><trkpt lat="46.315164" lon="9.94248"><time>2021-07-03T12:57:50.000Z</time><ele>2136.2</ele></trkpt><trkpt lat="46.315153" lon="9.942509"><time>2021-07-03T12:57:52.000Z</time><ele>2136.4</ele></trkpt><trkpt lat="46.315141" lon="9.942542"><time>2021-07-03T12:57:55.000Z</time><ele>2136.2</ele></trkpt><trkpt lat="46.315098" lon="9.942622"><time>2021-07-03T12:58:01.000Z</time><ele>2136.4</ele></trkpt><trkpt lat="46.315093" lon="9.942637"><time>2021-07-03T12:58:02.000Z</time><ele>2136.4</ele></trkpt><trkpt lat="46.315071" lon="9.942708"><time>2021-07-03T12:58:07.000Z</time><ele>2136.4</ele></trkpt><trkpt lat="46.315038" lon="9.942786"><time>2021-07-03T12:58:13.000Z</time><ele>2136.4</ele></trkpt><trkpt lat="46.315022" lon="9.942826"><time>2021-07-03T12:58:16.000Z</time><ele>2136.4</ele></trkpt><trkpt lat="46.314993" lon="9.942897"><time>2021-07-03T12:58:21.000Z</time><ele>2136.6</ele></trkpt><trkpt lat="46.314975" lon="9.94295"><time>2021-07-03T12:58:25.000Z</time><ele>2136.8</ele></trkpt><trkpt lat="46.314949" lon="9.943017"><time>2021-07-03T12:58:32.000Z</time><ele>2136.6</ele></trkpt><trkpt lat="46.314951" lon="9.943014"><time>2021-07-03T12:58:34.000Z</time><ele>2136.4</ele></trkpt><trkpt lat="46.31495" lon="9.943013"><time>2021-07-03T12:58:36.000Z</time><ele>2136.4</ele></trkpt><trkpt lat="46.314944" lon="9.943007"><time>2021-07-03T12:58:43.000Z</time><ele>2136.2</ele></trkpt><trkpt lat="46.314943" lon="9.943009"><time>2021-07-03T12:58:53.000Z</time><ele>2136.2</ele></trkpt><trkpt lat="46.314943" lon="9.943009"><time>2021-07-03T12:58:58.000Z</time><ele>2136.2</ele></trkpt><trkpt lat="46.314928" lon="9.943053"><time>2021-07-03T12:59:04.000Z</time><ele>2136.2</ele></trkpt><trkpt lat="46.314899" lon="9.943143"><time>2021-07-03T12:59:09.000Z</time><ele>2136.2</ele></trkpt><trkpt lat="46.314886" lon="9.943191"><time>2021-07-03T12:59:12.000Z</time><ele>2136.2</ele></trkpt><trkpt lat="46.314841" lon="9.943341"><time>2021-07-03T12:59:24.000Z</time><ele>2136.2</ele></trkpt><trkpt lat="46.314813" lon="9.943418"><time>2021-07-03T12:59:30.000Z</time><ele>2136.2</ele></trkpt><trkpt lat="46.314801" lon="9.943483"><time>2021-07-03T12:59:35.000Z</time><ele>2136.2</ele></trkpt><trkpt lat="46.31475" lon="9.943621"><time>2021-07-03T12:59:45.000Z</time><ele>2136.2</ele></trkpt><trkpt lat="46.314705" lon="9.943735"><time>2021-07-03T12:59:55.000Z</time><ele>2136.8</ele></trkpt><trkpt lat="46.314673" lon="9.943826"><time>2021-07-03T13:00:01.000Z</time><ele>2136.8</ele></trkpt><trkpt lat="46.314643" lon="9.943921"><time>2021-07-03T13:00:07.000Z</time><ele>2136.8</ele></trkpt><trkpt lat="46.314604" lon="9.944071"><time>2021-07-03T13:00:16.000Z</time><ele>2136.6</ele></trkpt><trkpt lat="46.314602" lon="9.944083"><time>2021-07-03T13:00:17.000Z</time><ele>2136.6</ele></trkpt><trkpt lat="46.314561" lon="9.944194"><time>2021-07-03T13:00:25.000Z</time><ele>2136.8</ele></trkpt><trkpt lat="46.314513" lon="9.944308"><time>2021-07-03T13:00:33.000Z</time><ele>2136.8</ele></trkpt><trkpt lat="46.314464" lon="9.944396"><time>2021-07-03T13:00:40.000Z</time><ele>2136.6</ele></trkpt><trkpt lat="46.314458" lon="9.944445"><time>2021-07-03T13:00:43.000Z</time><ele>2136.6</ele></trkpt><trkpt lat="46.314398" lon="9.944568"><time>2021-07-03T13:00:52.000Z</time><ele>2136.6</ele></trkpt><trkpt lat="46.314358" lon="9.944716"><time>2021-07-03T13:01:03.000Z</time><ele>2136.4</ele></trkpt><trkpt lat="46.314328" lon="9.944818"><time>2021-07-03T13:01:10.000Z</time><ele>2136.6</ele></trkpt><trkpt lat="46.314314" lon="9.944858"><time>2021-07-03T13:01:13.000Z</time><ele>2137</ele></trkpt><trkpt lat="46.314246" lon="9.944994"><time>2021-07-03T13:01:24.000Z</time><ele>2136.8</ele></trkpt><trkpt lat="46.314224" lon="9.945078"><time>2021-07-03T13:01:29.000Z</time><ele>2136.8</ele></trkpt><trkpt lat="46.314211" lon="9.945109"><time>2021-07-03T13:01:31.000Z</time><ele>2136.6</ele></trkpt><trkpt lat="46.314206" lon="9.94512"><time>2021-07-03T13:01:32.000Z</time><ele>2136.6</ele></trkpt><trkpt lat="46.314169" lon="9.945259"><time>2021-07-03T13:01:41.000Z</time><ele>2136.6</ele></trkpt><trkpt lat="46.31413" lon="9.945355"><time>2021-07-03T13:01:48.000Z</time><ele>2137.2</ele></trkpt><trkpt lat="46.314109" lon="9.945411"><time>2021-07-03T13:01:52.000Z</time><ele>2137.4</ele></trkpt><trkpt lat="46.314079" lon="9.945497"><time>2021-07-03T13:01:58.000Z</time><ele>2137.2</ele></trkpt><trkpt lat="46.314067" lon="9.945546"><time>2021-07-03T13:02:01.000Z</time><ele>2137.2</ele></trkpt><trkpt lat="46.314057" lon="9.945591"><time>2021-07-03T13:02:04.000Z</time><ele>2137.4</ele></trkpt><trkpt lat="46.31404" lon="9.945623"><time>2021-07-03T13:02:07.000Z</time><ele>2137.4</ele></trkpt><trkpt lat="46.313994" lon="9.945697"><time>2021-07-03T13:02:13.000Z</time><ele>2137.4</ele></trkpt><trkpt lat="46.313941" lon="9.945821"><time>2021-07-03T13:02:22.000Z</time><ele>2136.8</ele></trkpt><trkpt lat="46.313903" lon="9.945943"><time>2021-07-03T13:02:30.000Z</time><ele>2136.8</ele></trkpt><trkpt lat="46.31387" lon="9.946024"><time>2021-07-03T13:02:36.000Z</time><ele>2136.8</ele></trkpt><trkpt lat="46.313886" lon="9.946128"><time>2021-07-03T13:02:41.000Z</time><ele>2137</ele></trkpt><trkpt lat="46.313836" lon="9.946232"><time>2021-07-03T13:02:49.000Z</time><ele>2137</ele></trkpt><trkpt lat="46.313806" lon="9.946331"><time>2021-07-03T13:02:56.000Z</time><ele>2137</ele></trkpt><trkpt lat="46.313788" lon="9.946377"><time>2021-07-03T13:02:59.000Z</time><ele>2137</ele></trkpt><trkpt lat="46.313761" lon="9.946427"><time>2021-07-03T13:03:03.000Z</time><ele>2137</ele></trkpt><trkpt lat="46.31374" lon="9.946491"><time>2021-07-03T13:03:07.000Z</time><ele>2137</ele></trkpt><trkpt lat="46.313711" lon="9.946568"><time>2021-07-03T13:03:13.000Z</time><ele>2137</ele></trkpt><trkpt lat="46.313704" lon="9.946582"><time>2021-07-03T13:03:14.000Z</time><ele>2137.2</ele></trkpt><trkpt lat="46.313698" lon="9.946613"><time>2021-07-03T13:03:16.000Z</time><ele>2137.2</ele></trkpt><trkpt lat="46.313651" lon="9.94674"><time>2021-07-03T13:03:25.000Z</time><ele>2137</ele></trkpt><trkpt lat="46.313646" lon="9.946755"><time>2021-07-03T13:03:26.000Z</time><ele>2137</ele></trkpt><trkpt lat="46.313618" lon="9.946838"><time>2021-07-03T13:03:32.000Z</time><ele>2137.4</ele></trkpt><trkpt lat="46.313587" lon="9.946972"><time>2021-07-03T13:03:40.000Z</time><ele>2137.2</ele></trkpt><trkpt lat="46.313535" lon="9.94713"><time>2021-07-03T13:03:49.000Z</time><ele>2137.2</ele></trkpt><trkpt lat="46.313487" lon="9.947287"><time>2021-07-03T13:03:59.000Z</time><ele>2137</ele></trkpt><trkpt lat="46.313468" lon="9.947347"><time>2021-07-03T13:04:03.000Z</time><ele>2137</ele></trkpt><trkpt lat="46.31345" lon="9.947387"><time>2021-07-03T13:04:06.000Z</time><ele>2137.2</ele></trkpt><trkpt lat="46.313447" lon="9.947421"><time>2021-07-03T13:04:08.000Z</time><ele>2137.2</ele></trkpt><trkpt lat="46.313412" lon="9.947547"><time>2021-07-03T13:04:16.000Z</time><ele>2137</ele></trkpt><trkpt lat="46.313405" lon="9.947563"><time>2021-07-03T13:04:17.000Z</time><ele>2137</ele></trkpt><trkpt lat="46.313368" lon="9.947666"><time>2021-07-03T13:04:25.000Z</time><ele>2137.4</ele></trkpt><trkpt lat="46.313339" lon="9.947695"><time>2021-07-03T13:04:30.000Z</time><ele>2137.2</ele></trkpt><trkpt lat="46.313336" lon="9.947697"><time>2021-07-03T13:04:31.000Z</time><ele>2137.2</ele></trkpt><trkpt lat="46.313337" lon="9.947677"><time>2021-07-03T13:04:34.000Z</time><ele>2137.2</ele></trkpt><trkpt lat="46.313349" lon="9.947652"><time>2021-07-03T13:04:36.000Z</time><ele>2137</ele></trkpt><trkpt lat="46.313356" lon="9.947638"><time>2021-07-03T13:04:37.000Z</time><ele>2136.8</ele></trkpt><trkpt lat="46.313415" lon="9.947525"><time>2021-07-03T13:04:45.000Z</time><ele>2136</ele></trkpt><trkpt lat="46.313427" lon="9.947499"><time>2021-07-03T13:04:47.000Z</time><ele>2135.2</ele></trkpt><trkpt lat="46.313431" lon="9.947485"><time>2021-07-03T13:04:48.000Z</time><ele>2135</ele></trkpt><trkpt lat="46.313438" lon="9.947474"><time>2021-07-03T13:04:49.000Z</time><ele>2134.6</ele></trkpt><trkpt lat="46.313454" lon="9.947441"><time>2021-07-03T13:04:52.000Z</time><ele>2133.8</ele></trkpt><trkpt lat="46.313457" lon="9.947376"><time>2021-07-03T13:04:55.000Z</time><ele>2133</ele></trkpt><trkpt lat="46.313459" lon="9.94736"><time>2021-07-03T13:04:56.000Z</time><ele>2132.8</ele></trkpt><trkpt lat="46.313463" lon="9.947302"><time>2021-07-03T13:04:59.000Z</time><ele>2131.8</ele></trkpt><trkpt lat="46.31347" lon="9.947246"><time>2021-07-03T13:05:02.000Z</time><ele>2131</ele></trkpt><trkpt lat="46.313475" lon="9.94723"><time>2021-07-03T13:05:03.000Z</time><ele>2130.6</ele></trkpt><trkpt lat="46.313482" lon="9.947147"><time>2021-07-03T13:05:07.000Z</time><ele>2129.4</ele></trkpt><trkpt lat="46.313485" lon="9.947118"><time>2021-07-03T13:05:09.000Z</time><ele>2129</ele></trkpt><trkpt lat="46.313491" lon="9.947107"><time>2021-07-03T13:05:10.000Z</time><ele>2128.8</ele></trkpt><trkpt lat="46.313493" lon="9.947077"><time>2021-07-03T13:05:12.000Z</time><ele>2128.2</ele></trkpt><trkpt lat="46.313492" lon="9.947026"><time>2021-07-03T13:05:15.000Z</time><ele>2128</ele></trkpt><trkpt lat="46.313495" lon="9.947016"><time>2021-07-03T13:05:16.000Z</time><ele>2127.8</ele></trkpt><trkpt lat="46.313494" lon="9.947001"><time>2021-07-03T13:05:17.000Z</time><ele>2127.4</ele></trkpt><trkpt lat="46.313497" lon="9.946969"><time>2021-07-03T13:05:19.000Z</time><ele>2127</ele></trkpt><trkpt lat="46.3135" lon="9.946938"><time>2021-07-03T13:05:21.000Z</time><ele>2126.6</ele></trkpt><trkpt lat="46.313502" lon="9.946918"><time>2021-07-03T13:05:22.000Z</time><ele>2126.4</ele></trkpt><trkpt lat="46.313504" lon="9.946881"><time>2021-07-03T13:05:24.000Z</time><ele>2126.2</ele></trkpt><trkpt lat="46.313503" lon="9.946862"><time>2021-07-03T13:05:25.000Z</time><ele>2126</ele></trkpt><trkpt lat="46.31352" lon="9.946828"><time>2021-07-03T13:05:28.000Z</time><ele>2125.4</ele></trkpt><trkpt lat="46.313524" lon="9.946808"><time>2021-07-03T13:05:30.000Z</time><ele>2125</ele></trkpt><trkpt lat="46.31353" lon="9.946776"><time>2021-07-03T13:05:32.000Z</time><ele>2124.6</ele></trkpt><trkpt lat="46.313542" lon="9.946723"><time>2021-07-03T13:05:35.000Z</time><ele>2124</ele></trkpt><trkpt lat="46.313541" lon="9.946711"><time>2021-07-03T13:05:36.000Z</time><ele>2123.6</ele></trkpt><trkpt lat="46.313546" lon="9.946682"><time>2021-07-03T13:05:38.000Z</time><ele>2123.2</ele></trkpt><trkpt lat="46.313558" lon="9.946641"><time>2021-07-03T13:05:41.000Z</time><ele>2122.4</ele></trkpt><trkpt lat="46.313569" lon="9.946591"><time>2021-07-03T13:05:44.000Z</time><ele>2121.4</ele></trkpt><trkpt lat="46.313571" lon="9.946572"><time>2021-07-03T13:05:45.000Z</time><ele>2121.2</ele></trkpt><trkpt lat="46.313587" lon="9.946512"><time>2021-07-03T13:05:49.000Z</time><ele>2120.4</ele></trkpt><trkpt lat="46.313599" lon="9.946488"><time>2021-07-03T13:05:51.000Z</time><ele>2120</ele></trkpt><trkpt lat="46.313622" lon="9.94641"><time>2021-07-03T13:05:57.000Z</time><ele>2119.2</ele></trkpt><trkpt lat="46.313629" lon="9.946396"><time>2021-07-03T13:05:58.000Z</time><ele>2118.8</ele></trkpt><trkpt lat="46.313668" lon="9.946334"><time>2021-07-03T13:06:03.000Z</time><ele>2117.8</ele></trkpt><trkpt lat="46.313678" lon="9.946302"><time>2021-07-03T13:06:05.000Z</time><ele>2117.4</ele></trkpt><trkpt lat="46.313682" lon="9.946294"><time>2021-07-03T13:06:06.000Z</time><ele>2117.2</ele></trkpt><trkpt lat="46.313696" lon="9.946256"><time>2021-07-03T13:06:09.000Z</time><ele>2116.8</ele></trkpt><trkpt lat="46.313698" lon="9.946222"><time>2021-07-03T13:06:11.000Z</time><ele>2116.2</ele></trkpt><trkpt lat="46.313691" lon="9.946175"><time>2021-07-03T13:06:14.000Z</time><ele>2115.6</ele></trkpt><trkpt lat="46.313694" lon="9.946149"><time>2021-07-03T13:06:15.000Z</time><ele>2115.4</ele></trkpt><trkpt lat="46.313693" lon="9.946137"><time>2021-07-03T13:06:18.000Z</time><ele>2115.2</ele></trkpt><trkpt lat="46.313673" lon="9.946083"><time>2021-07-03T13:06:22.000Z</time><ele>2114.8</ele></trkpt><trkpt lat="46.313673" lon="9.946075"><time>2021-07-03T13:06:23.000Z</time><ele>2114.8</ele></trkpt><trkpt lat="46.313672" lon="9.946069"><time>2021-07-03T13:06:24.000Z</time><ele>2114.8</ele></trkpt><trkpt lat="46.313657" lon="9.946042"><time>2021-07-03T13:06:28.000Z</time><ele>2114.8</ele></trkpt><trkpt lat="46.313666" lon="9.946037"><time>2021-07-03T13:06:31.000Z</time><ele>2114.8</ele></trkpt><trkpt lat="46.313665" lon="9.94603"><time>2021-07-03T13:06:32.000Z</time><ele>2114.8</ele></trkpt><trkpt lat="46.313654" lon="9.946"><time>2021-07-03T13:06:36.000Z</time><ele>2114.6</ele></trkpt><trkpt lat="46.313647" lon="9.945999"><time>2021-07-03T13:06:37.000Z</time><ele>2114.6</ele></trkpt><trkpt lat="46.313633" lon="9.945935"><time>2021-07-03T13:06:43.000Z</time><ele>2114.8</ele></trkpt><trkpt lat="46.31362" lon="9.945913"><time>2021-07-03T13:06:45.000Z</time><ele>2114.6</ele></trkpt><trkpt lat="46.313596" lon="9.945911"><time>2021-07-03T13:06:47.000Z</time><ele>2114.6</ele></trkpt><trkpt lat="46.313545" lon="9.945918"><time>2021-07-03T13:06:51.000Z</time><ele>2114.4</ele></trkpt><trkpt lat="46.313523" lon="9.945922"><time>2021-07-03T13:06:52.000Z</time><ele>2114.4</ele></trkpt><trkpt lat="46.313505" lon="9.945934"><time>2021-07-03T13:06:53.000Z</time><ele>2114.4</ele></trkpt><trkpt lat="46.313479" lon="9.946021"><time>2021-07-03T13:06:58.000Z</time><ele>2114.2</ele></trkpt><trkpt lat="46.313495" lon="9.94609"><time>2021-07-03T13:07:02.000Z</time><ele>2113.6</ele></trkpt><trkpt lat="46.313503" lon="9.946105"><time>2021-07-03T13:07:03.000Z</time><ele>2113.6</ele></trkpt><trkpt lat="46.31351" lon="9.94612"><time>2021-07-03T13:07:04.000Z</time><ele>2113.4</ele></trkpt><trkpt lat="46.313517" lon="9.946141"><time>2021-07-03T13:07:06.000Z</time><ele>2113</ele></trkpt><trkpt lat="46.313523" lon="9.946147"><time>2021-07-03T13:07:07.000Z</time><ele>2112.8</ele></trkpt><trkpt lat="46.313543" lon="9.946182"><time>2021-07-03T13:07:10.000Z</time><ele>2112.2</ele></trkpt><trkpt lat="46.313546" lon="9.946195"><time>2021-07-03T13:07:11.000Z</time><ele>2111.8</ele></trkpt><trkpt lat="46.313548" lon="9.946218"><time>2021-07-03T13:07:13.000Z</time><ele>2111.4</ele></trkpt><trkpt lat="46.313549" lon="9.94623"><time>2021-07-03T13:07:14.000Z</time><ele>2111.2</ele></trkpt><trkpt lat="46.313558" lon="9.94631"><time>2021-07-03T13:07:19.000Z</time><ele>2110.4</ele></trkpt><trkpt lat="46.31356" lon="9.946334"><time>2021-07-03T13:07:21.000Z</time><ele>2110.2</ele></trkpt><trkpt lat="46.313562" lon="9.946347"><time>2021-07-03T13:07:22.000Z</time><ele>2109.8</ele></trkpt><trkpt lat="46.313556" lon="9.946405"><time>2021-07-03T13:07:26.000Z</time><ele>2109</ele></trkpt><trkpt lat="46.313556" lon="9.946459"><time>2021-07-03T13:07:30.000Z</time><ele>2108.2</ele></trkpt><trkpt lat="46.313557" lon="9.946489"><time>2021-07-03T13:07:32.000Z</time><ele>2107.8</ele></trkpt><trkpt lat="46.31351" lon="9.946585"><time>2021-07-03T13:07:39.000Z</time><ele>2106.8</ele></trkpt><trkpt lat="46.313507" lon="9.946597"><time>2021-07-03T13:07:40.000Z</time><ele>2106.4</ele></trkpt><trkpt lat="46.313484" lon="9.946597"><time>2021-07-03T13:07:43.000Z</time><ele>2106</ele></trkpt><trkpt lat="46.313464" lon="9.946564"><time>2021-07-03T13:07:47.000Z</time><ele>2105.6</ele></trkpt><trkpt lat="46.313468" lon="9.946535"><time>2021-07-03T13:07:49.000Z</time><ele>2105.2</ele></trkpt><trkpt lat="46.313466" lon="9.946502"><time>2021-07-03T13:07:51.000Z</time><ele>2104.8</ele></trkpt><trkpt lat="46.31346" lon="9.946466"><time>2021-07-03T13:07:53.000Z</time><ele>2104.4</ele></trkpt><trkpt lat="46.313452" lon="9.946436"><time>2021-07-03T13:07:56.000Z</time><ele>2103.8</ele></trkpt><trkpt lat="46.313444" lon="9.946413"><time>2021-07-03T13:07:58.000Z</time><ele>2103.4</ele></trkpt><trkpt lat="46.313437" lon="9.946387"><time>2021-07-03T13:08:00.000Z</time><ele>2103</ele></trkpt><trkpt lat="46.313434" lon="9.946372"><time>2021-07-03T13:08:01.000Z</time><ele>2102.8</ele></trkpt><trkpt lat="46.31343" lon="9.946357"><time>2021-07-03T13:08:02.000Z</time><ele>2102.8</ele></trkpt><trkpt lat="46.313419" lon="9.94632"><time>2021-07-03T13:08:05.000Z</time><ele>2102.2</ele></trkpt><trkpt lat="46.313405" lon="9.946246"><time>2021-07-03T13:08:10.000Z</time><ele>2101.2</ele></trkpt><trkpt lat="46.313369" lon="9.946185"><time>2021-07-03T13:08:15.000Z</time><ele>2100.2</ele></trkpt><trkpt lat="46.313358" lon="9.946186"><time>2021-07-03T13:08:16.000Z</time><ele>2100.2</ele></trkpt><trkpt lat="46.313336" lon="9.946203"><time>2021-07-03T13:08:18.000Z</time><ele>2100</ele></trkpt><trkpt lat="46.313314" lon="9.946267"><time>2021-07-03T13:08:22.000Z</time><ele>2099.6</ele></trkpt><trkpt lat="46.313307" lon="9.946395"><time>2021-07-03T13:08:30.000Z</time><ele>2099</ele></trkpt><trkpt lat="46.313304" lon="9.946414"><time>2021-07-03T13:08:31.000Z</time><ele>2098.8</ele></trkpt><trkpt lat="46.313292" lon="9.946483"><time>2021-07-03T13:08:35.000Z</time><ele>2098.4</ele></trkpt><trkpt lat="46.313291" lon="9.946499"><time>2021-07-03T13:08:36.000Z</time><ele>2098.4</ele></trkpt><trkpt lat="46.313293" lon="9.946534"><time>2021-07-03T13:08:38.000Z</time><ele>2098</ele></trkpt><trkpt lat="46.313293" lon="9.94655"><time>2021-07-03T13:08:39.000Z</time><ele>2097.8</ele></trkpt><trkpt lat="46.31328" lon="9.94661"><time>2021-07-03T13:08:44.000Z</time><ele>2097.2</ele></trkpt><trkpt lat="46.313261" lon="9.946664"><time>2021-07-03T13:08:48.000Z</time><ele>2096.8</ele></trkpt><trkpt lat="46.313255" lon="9.946669"><time>2021-07-03T13:08:49.000Z</time><ele>2096.6</ele></trkpt><trkpt lat="46.313225" lon="9.946696"><time>2021-07-03T13:08:53.000Z</time><ele>2096.2</ele></trkpt><trkpt lat="46.313174" lon="9.946731"><time>2021-07-03T13:08:59.000Z</time><ele>2095.8</ele></trkpt><trkpt lat="46.31315" lon="9.946734"><time>2021-07-03T13:09:01.000Z</time><ele>2095.6</ele></trkpt><trkpt lat="46.313134" lon="9.946736"><time>2021-07-03T13:09:03.000Z</time><ele>2095.4</ele></trkpt><trkpt lat="46.313124" lon="9.94674"><time>2021-07-03T13:09:04.000Z</time><ele>2095.2</ele></trkpt><trkpt lat="46.313097" lon="9.946747"><time>2021-07-03T13:09:07.000Z</time><ele>2095</ele></trkpt><trkpt lat="46.313081" lon="9.946754"><time>2021-07-03T13:09:09.000Z</time><ele>2094.8</ele></trkpt><trkpt lat="46.313059" lon="9.946751"><time>2021-07-03T13:09:11.000Z</time><ele>2094.8</ele></trkpt><trkpt lat="46.313038" lon="9.946747"><time>2021-07-03T13:09:13.000Z</time><ele>2094.6</ele></trkpt><trkpt lat="46.313015" lon="9.946743"><time>2021-07-03T13:09:15.000Z</time><ele>2094.4</ele></trkpt><trkpt lat="46.312962" lon="9.946726"><time>2021-07-03T13:09:21.000Z</time><ele>2094.2</ele></trkpt><trkpt lat="46.312952" lon="9.946724"><time>2021-07-03T13:09:22.000Z</time><ele>2094.2</ele></trkpt><trkpt lat="46.312943" lon="9.946719"><time>2021-07-03T13:09:23.000Z</time><ele>2094.2</ele></trkpt><trkpt lat="46.312856" lon="9.946664"><time>2021-07-03T13:09:31.000Z</time><ele>2094.2</ele></trkpt><trkpt lat="46.312815" lon="9.946625"><time>2021-07-03T13:09:39.000Z</time><ele>2093.8</ele></trkpt><trkpt lat="46.31281" lon="9.946626"><time>2021-07-03T13:09:41.000Z</time><ele>2093.6</ele></trkpt><trkpt lat="46.312769" lon="9.946609"><time>2021-07-03T13:09:45.000Z</time><ele>2093.2</ele></trkpt><trkpt lat="46.312756" lon="9.946602"><time>2021-07-03T13:09:46.000Z</time><ele>2093.2</ele></trkpt><trkpt lat="46.312659" lon="9.946536"><time>2021-07-03T13:09:54.000Z</time><ele>2093</ele></trkpt><trkpt lat="46.31256" lon="9.946475"><time>2021-07-03T13:10:03.000Z</time><ele>2092.6</ele></trkpt><trkpt lat="46.312541" lon="9.946455"><time>2021-07-03T13:10:05.000Z</time><ele>2092.4</ele></trkpt><trkpt lat="46.312498" lon="9.94642"><time>2021-07-03T13:10:09.000Z</time><ele>2092.2</ele></trkpt><trkpt lat="46.312463" lon="9.946416"><time>2021-07-03T13:10:12.000Z</time><ele>2092</ele></trkpt><trkpt lat="46.312397" lon="9.946402"><time>2021-07-03T13:10:18.000Z</time><ele>2091.8</ele></trkpt><trkpt lat="46.312389" lon="9.946406"><time>2021-07-03T13:10:19.000Z</time><ele>2091.8</ele></trkpt><trkpt lat="46.31235" lon="9.946404"><time>2021-07-03T13:10:23.000Z</time><ele>2091.2</ele></trkpt><trkpt lat="46.312333" lon="9.946408"><time>2021-07-03T13:10:25.000Z</time><ele>2090.8</ele></trkpt><trkpt lat="46.312294" lon="9.946423"><time>2021-07-03T13:10:29.000Z</time><ele>2090.2</ele></trkpt><trkpt lat="46.312265" lon="9.94642"><time>2021-07-03T13:10:33.000Z</time><ele>2089.8</ele></trkpt><trkpt lat="46.312259" lon="9.946416"><time>2021-07-03T13:10:34.000Z</time><ele>2089.6</ele></trkpt><trkpt lat="46.312248" lon="9.9464"><time>2021-07-03T13:10:37.000Z</time><ele>2089.4</ele></trkpt><trkpt lat="46.312227" lon="9.946404"><time>2021-07-03T13:10:40.000Z</time><ele>2089.4</ele></trkpt><trkpt lat="46.312221" lon="9.946411"><time>2021-07-03T13:10:41.000Z</time><ele>2089.2</ele></trkpt><trkpt lat="46.31219" lon="9.946401"><time>2021-07-03T13:10:45.000Z</time><ele>2089</ele></trkpt><trkpt lat="46.312166" lon="9.946384"><time>2021-07-03T13:10:47.000Z</time><ele>2088.8</ele></trkpt><trkpt lat="46.312131" lon="9.946382"><time>2021-07-03T13:10:50.000Z</time><ele>2088.6</ele></trkpt><trkpt lat="46.312113" lon="9.946385"><time>2021-07-03T13:10:52.000Z</time><ele>2088.4</ele></trkpt><trkpt lat="46.312065" lon="9.946374"><time>2021-07-03T13:10:56.000Z</time><ele>2088.2</ele></trkpt><trkpt lat="46.312023" lon="9.946382"><time>2021-07-03T13:11:01.000Z</time><ele>2087.4</ele></trkpt><trkpt lat="46.312017" lon="9.946388"><time>2021-07-03T13:11:03.000Z</time><ele>2087.2</ele></trkpt><trkpt lat="46.312015" lon="9.946392"><time>2021-07-03T13:11:04.000Z</time><ele>2087.2</ele></trkpt><trkpt lat="46.312016" lon="9.946391"><time>2021-07-03T13:11:05.000Z</time><ele>2087.2</ele></trkpt><trkpt lat="46.312016" lon="9.946379"><time>2021-07-03T13:11:07.000Z</time><ele>2087.2</ele></trkpt><trkpt lat="46.311979" lon="9.946323"><time>2021-07-03T13:11:12.000Z</time><ele>2087.2</ele></trkpt><trkpt lat="46.311971" lon="9.946309"><time>2021-07-03T13:11:13.000Z</time><ele>2087</ele></trkpt><trkpt lat="46.311871" lon="9.946266"><time>2021-07-03T13:11:21.000Z</time><ele>2086.2</ele></trkpt><trkpt lat="46.311804" lon="9.946233"><time>2021-07-03T13:11:27.000Z</time><ele>2085.4</ele></trkpt><trkpt lat="46.311785" lon="9.946217"><time>2021-07-03T13:11:29.000Z</time><ele>2085</ele></trkpt><trkpt lat="46.311726" lon="9.946149"><time>2021-07-03T13:11:37.000Z</time><ele>2084</ele></trkpt><trkpt lat="46.311688" lon="9.946131"><time>2021-07-03T13:11:41.000Z</time><ele>2083.2</ele></trkpt><trkpt lat="46.311663" lon="9.946122"><time>2021-07-03T13:11:43.000Z</time><ele>2083.2</ele></trkpt><trkpt lat="46.311651" lon="9.946117"><time>2021-07-03T13:11:44.000Z</time><ele>2083</ele></trkpt><trkpt lat="46.311633" lon="9.946117"><time>2021-07-03T13:11:46.000Z</time><ele>2082.8</ele></trkpt><trkpt lat="46.311589" lon="9.946059"><time>2021-07-03T13:11:51.000Z</time><ele>2082.4</ele></trkpt><trkpt lat="46.311547" lon="9.94602"><time>2021-07-03T13:11:55.000Z</time><ele>2081.8</ele></trkpt><trkpt lat="46.31154" lon="9.946013"><time>2021-07-03T13:11:56.000Z</time><ele>2081.6</ele></trkpt><trkpt lat="46.311485" lon="9.94597"><time>2021-07-03T13:12:01.000Z</time><ele>2081</ele></trkpt><trkpt lat="46.311466" lon="9.945947"><time>2021-07-03T13:12:03.000Z</time><ele>2080.8</ele></trkpt><trkpt lat="46.311417" lon="9.945913"><time>2021-07-03T13:12:08.000Z</time><ele>2080.2</ele></trkpt><trkpt lat="46.311392" lon="9.945892"><time>2021-07-03T13:12:12.000Z</time><ele>2079.8</ele></trkpt><trkpt lat="46.311387" lon="9.945901"><time>2021-07-03T13:12:14.000Z</time><ele>2079.4</ele></trkpt><trkpt lat="46.311381" lon="9.945905"><time>2021-07-03T13:12:16.000Z</time><ele>2079.4</ele></trkpt><trkpt lat="46.311359" lon="9.945906"><time>2021-07-03T13:12:23.000Z</time><ele>2079.2</ele></trkpt><trkpt lat="46.311359" lon="9.945906"><time>2021-07-03T13:12:27.000Z</time><ele>2079.2</ele></trkpt><trkpt lat="46.311319" lon="9.945874"><time>2021-07-03T13:12:31.000Z</time><ele>2079</ele></trkpt><trkpt lat="46.311296" lon="9.945857"><time>2021-07-03T13:12:33.000Z</time><ele>2078.8</ele></trkpt><trkpt lat="46.311256" lon="9.945837"><time>2021-07-03T13:12:38.000Z</time><ele>2078.2</ele></trkpt><trkpt lat="46.311243" lon="9.945835"><time>2021-07-03T13:12:40.000Z</time><ele>2078</ele></trkpt><trkpt lat="46.311234" lon="9.945836"><time>2021-07-03T13:12:42.000Z</time><ele>2077.6</ele></trkpt><trkpt lat="46.311236" lon="9.945838"><time>2021-07-03T13:12:43.000Z</time><ele>2077.4</ele></trkpt><trkpt lat="46.311236" lon="9.945838"><time>2021-07-03T13:12:44.000Z</time><ele>2077.4</ele></trkpt><trkpt lat="46.311228" lon="9.945833"><time>2021-07-03T13:12:51.000Z</time><ele>2077.4</ele></trkpt><trkpt lat="46.311221" lon="9.94583"><time>2021-07-03T13:12:52.000Z</time><ele>2077.4</ele></trkpt><trkpt lat="46.31117" lon="9.945806"><time>2021-07-03T13:12:57.000Z</time><ele>2076.8</ele></trkpt><trkpt lat="46.311152" lon="9.945796"><time>2021-07-03T13:12:59.000Z</time><ele>2076.6</ele></trkpt><trkpt lat="46.311141" lon="9.945798"><time>2021-07-03T13:13:00.000Z</time><ele>2076.6</ele></trkpt><trkpt lat="46.311109" lon="9.945793"><time>2021-07-03T13:13:03.000Z</time><ele>2076.2</ele></trkpt><trkpt lat="46.311073" lon="9.945777"><time>2021-07-03T13:13:07.000Z</time><ele>2076</ele></trkpt><trkpt lat="46.311052" lon="9.94577"><time>2021-07-03T13:13:09.000Z</time><ele>2075.4</ele></trkpt><trkpt lat="46.311044" lon="9.945767"><time>2021-07-03T13:13:10.000Z</time><ele>2075.4</ele></trkpt><trkpt lat="46.311036" lon="9.945763"><time>2021-07-03T13:13:11.000Z</time><ele>2075.4</ele></trkpt><trkpt lat="46.311" lon="9.945727"><time>2021-07-03T13:13:16.000Z</time><ele>2074.8</ele></trkpt><trkpt lat="46.310991" lon="9.945719"><time>2021-07-03T13:13:17.000Z</time><ele>2074.6</ele></trkpt><trkpt lat="46.310966" lon="9.94569"><time>2021-07-03T13:13:20.000Z</time><ele>2074.4</ele></trkpt><trkpt lat="46.310926" lon="9.945651"><time>2021-07-03T13:13:24.000Z</time><ele>2074</ele></trkpt><trkpt lat="46.310916" lon="9.94564"><time>2021-07-03T13:13:25.000Z</time><ele>2073.8</ele></trkpt><trkpt lat="46.3109" lon="9.945616"><time>2021-07-03T13:13:27.000Z</time><ele>2073.6</ele></trkpt><trkpt lat="46.310887" lon="9.945592"><time>2021-07-03T13:13:29.000Z</time><ele>2073.4</ele></trkpt><trkpt lat="46.310855" lon="9.945553"><time>2021-07-03T13:13:32.000Z</time><ele>2073.2</ele></trkpt><trkpt lat="46.310827" lon="9.945501"><time>2021-07-03T13:13:36.000Z</time><ele>2072.4</ele></trkpt><trkpt lat="46.310822" lon="9.945492"><time>2021-07-03T13:13:37.000Z</time><ele>2072.2</ele></trkpt><trkpt lat="46.310778" lon="9.945416"><time>2021-07-03T13:13:43.000Z</time><ele>2071.6</ele></trkpt><trkpt lat="46.310768" lon="9.945412"><time>2021-07-03T13:13:44.000Z</time><ele>2071.4</ele></trkpt><trkpt lat="46.310746" lon="9.945397"><time>2021-07-03T13:13:46.000Z</time><ele>2071.2</ele></trkpt><trkpt lat="46.310738" lon="9.945386"><time>2021-07-03T13:13:47.000Z</time><ele>2071.2</ele></trkpt><trkpt lat="46.310725" lon="9.945366"><time>2021-07-03T13:13:49.000Z</time><ele>2071</ele></trkpt><trkpt lat="46.310674" lon="9.945303"><time>2021-07-03T13:13:55.000Z</time><ele>2070.2</ele></trkpt><trkpt lat="46.310625" lon="9.945233"><time>2021-07-03T13:14:02.000Z</time><ele>2069.2</ele></trkpt><trkpt lat="46.310623" lon="9.945218"><time>2021-07-03T13:14:03.000Z</time><ele>2069.2</ele></trkpt><trkpt lat="46.310611" lon="9.945189"><time>2021-07-03T13:14:06.000Z</time><ele>2068.8</ele></trkpt><trkpt lat="46.310607" lon="9.945169"><time>2021-07-03T13:14:08.000Z</time><ele>2068.4</ele></trkpt><trkpt lat="46.310609" lon="9.945152"><time>2021-07-03T13:14:09.000Z</time><ele>2068.2</ele></trkpt><trkpt lat="46.310616" lon="9.94514"><time>2021-07-03T13:14:10.000Z</time><ele>2068.2</ele></trkpt><trkpt lat="46.310624" lon="9.945131"><time>2021-07-03T13:14:11.000Z</time><ele>2068</ele></trkpt><trkpt lat="46.310653" lon="9.945129"><time>2021-07-03T13:14:14.000Z</time><ele>2067.6</ele></trkpt><trkpt lat="46.31066" lon="9.945135"><time>2021-07-03T13:14:15.000Z</time><ele>2067.4</ele></trkpt><trkpt lat="46.310696" lon="9.945174"><time>2021-07-03T13:14:19.000Z</time><ele>2067</ele></trkpt><trkpt lat="46.310702" lon="9.945187"><time>2021-07-03T13:14:20.000Z</time><ele>2066.8</ele></trkpt><trkpt lat="46.31071" lon="9.945198"><time>2021-07-03T13:14:21.000Z</time><ele>2066.6</ele></trkpt><trkpt lat="46.310726" lon="9.945223"><time>2021-07-03T13:14:23.000Z</time><ele>2066.4</ele></trkpt><trkpt lat="46.310737" lon="9.945235"><time>2021-07-03T13:14:24.000Z</time><ele>2066.2</ele></trkpt><trkpt lat="46.310765" lon="9.945257"><time>2021-07-03T13:14:27.000Z</time><ele>2066</ele></trkpt><trkpt lat="46.310806" lon="9.945306"><time>2021-07-03T13:14:31.000Z</time><ele>2065.4</ele></trkpt><trkpt lat="46.310857" lon="9.945348"><time>2021-07-03T13:14:36.000Z</time><ele>2065</ele></trkpt><trkpt lat="46.31088" lon="9.945365"><time>2021-07-03T13:14:38.000Z</time><ele>2064.6</ele></trkpt><trkpt lat="46.310894" lon="9.945376"><time>2021-07-03T13:14:39.000Z</time><ele>2064.4</ele></trkpt><trkpt lat="46.310902" lon="9.945381"><time>2021-07-03T13:14:40.000Z</time><ele>2064.2</ele></trkpt><trkpt lat="46.310912" lon="9.945388"><time>2021-07-03T13:14:41.000Z</time><ele>2064.2</ele></trkpt><trkpt lat="46.310959" lon="9.94542"><time>2021-07-03T13:14:46.000Z</time><ele>2064</ele></trkpt><trkpt lat="46.310967" lon="9.945421"><time>2021-07-03T13:14:47.000Z</time><ele>2064</ele></trkpt><trkpt lat="46.310987" lon="9.945423"><time>2021-07-03T13:14:49.000Z</time><ele>2063.6</ele></trkpt><trkpt lat="46.311037" lon="9.945381"><time>2021-07-03T13:14:54.000Z</time><ele>2063</ele></trkpt><trkpt lat="46.31104" lon="9.945363"><time>2021-07-03T13:14:55.000Z</time><ele>2062.8</ele></trkpt><trkpt lat="46.31104" lon="9.945351"><time>2021-07-03T13:14:56.000Z</time><ele>2062.6</ele></trkpt><trkpt lat="46.311035" lon="9.945318"><time>2021-07-03T13:14:58.000Z</time><ele>2062.4</ele></trkpt><trkpt lat="46.310983" lon="9.945252"><time>2021-07-03T13:15:04.000Z</time><ele>2061.8</ele></trkpt><trkpt lat="46.310918" lon="9.945188"><time>2021-07-03T13:15:11.000Z</time><ele>2061</ele></trkpt><trkpt lat="46.310904" lon="9.945162"><time>2021-07-03T13:15:13.000Z</time><ele>2060.6</ele></trkpt><trkpt lat="46.310847" lon="9.945091"><time>2021-07-03T13:15:19.000Z</time><ele>2060.2</ele></trkpt><trkpt lat="46.310821" lon="9.945033"><time>2021-07-03T13:15:23.000Z</time><ele>2059.6</ele></trkpt><trkpt lat="46.310782" lon="9.944952"><time>2021-07-03T13:15:28.000Z</time><ele>2058.6</ele></trkpt><trkpt lat="46.310773" lon="9.944934"><time>2021-07-03T13:15:29.000Z</time><ele>2058.6</ele></trkpt><trkpt lat="46.310744" lon="9.944834"><time>2021-07-03T13:15:36.000Z</time><ele>2057.6</ele></trkpt><trkpt lat="46.310713" lon="9.944741"><time>2021-07-03T13:15:42.000Z</time><ele>2057</ele></trkpt><trkpt lat="46.310687" lon="9.944683"><time>2021-07-03T13:15:46.000Z</time><ele>2056.4</ele></trkpt><trkpt lat="46.310634" lon="9.944617"><time>2021-07-03T13:15:52.000Z</time><ele>2055.4</ele></trkpt><trkpt lat="46.310623" lon="9.944605"><time>2021-07-03T13:15:53.000Z</time><ele>2055.2</ele></trkpt><trkpt lat="46.310551" lon="9.944512"><time>2021-07-03T13:16:01.000Z</time><ele>2054.6</ele></trkpt><trkpt lat="46.310525" lon="9.944477"><time>2021-07-03T13:16:04.000Z</time><ele>2054</ele></trkpt><trkpt lat="46.310472" lon="9.944437"><time>2021-07-03T13:16:09.000Z</time><ele>2053.2</ele></trkpt><trkpt lat="46.310462" lon="9.944427"><time>2021-07-03T13:16:10.000Z</time><ele>2053</ele></trkpt><trkpt lat="46.310375" lon="9.94442"><time>2021-07-03T13:16:17.000Z</time><ele>2052.2</ele></trkpt><trkpt lat="46.310364" lon="9.944422"><time>2021-07-03T13:16:18.000Z</time><ele>2051.8</ele></trkpt><trkpt lat="46.310298" lon="9.944416"><time>2021-07-03T13:16:24.000Z</time><ele>2050.8</ele></trkpt><trkpt lat="46.310264" lon="9.944412"><time>2021-07-03T13:16:27.000Z</time><ele>2050.4</ele></trkpt><trkpt lat="46.31022" lon="9.944387"><time>2021-07-03T13:16:31.000Z</time><ele>2049.6</ele></trkpt><trkpt lat="46.310188" lon="9.944363"><time>2021-07-03T13:16:34.000Z</time><ele>2049</ele></trkpt><trkpt lat="46.31018" lon="9.944358"><time>2021-07-03T13:16:35.000Z</time><ele>2049</ele></trkpt><trkpt lat="46.310161" lon="9.944336"><time>2021-07-03T13:16:37.000Z</time><ele>2048.4</ele></trkpt><trkpt lat="46.310101" lon="9.944262"><time>2021-07-03T13:16:44.000Z</time><ele>2047.8</ele></trkpt><trkpt lat="46.310078" lon="9.944232"><time>2021-07-03T13:16:47.000Z</time><ele>2047.2</ele></trkpt><trkpt lat="46.31001" lon="9.944141"><time>2021-07-03T13:16:55.000Z</time><ele>2046.4</ele></trkpt><trkpt lat="46.310002" lon="9.944128"><time>2021-07-03T13:16:56.000Z</time><ele>2046.2</ele></trkpt><trkpt lat="46.309959" lon="9.944064"><time>2021-07-03T13:17:02.000Z</time><ele>2045.4</ele></trkpt><trkpt lat="46.309948" lon="9.944032"><time>2021-07-03T13:17:04.000Z</time><ele>2045.2</ele></trkpt><trkpt lat="46.309934" lon="9.944008"><time>2021-07-03T13:17:06.000Z</time><ele>2045</ele></trkpt><trkpt lat="46.309886" lon="9.943895"><time>2021-07-03T13:17:14.000Z</time><ele>2044</ele></trkpt><trkpt lat="46.309872" lon="9.943873"><time>2021-07-03T13:17:16.000Z</time><ele>2044</ele></trkpt><trkpt lat="46.309843" lon="9.943813"><time>2021-07-03T13:17:20.000Z</time><ele>2043.4</ele></trkpt><trkpt lat="46.309828" lon="9.943795"><time>2021-07-03T13:17:22.000Z</time><ele>2043</ele></trkpt><trkpt lat="46.309812" lon="9.943776"><time>2021-07-03T13:17:24.000Z</time><ele>2042.8</ele></trkpt><trkpt lat="46.309768" lon="9.943672"><time>2021-07-03T13:17:31.000Z</time><ele>2042.2</ele></trkpt><trkpt lat="46.309751" lon="9.943645"><time>2021-07-03T13:17:33.000Z</time><ele>2042</ele></trkpt><trkpt lat="46.30973" lon="9.943603"><time>2021-07-03T13:17:36.000Z</time><ele>2041.6</ele></trkpt><trkpt lat="46.309715" lon="9.94356"><time>2021-07-03T13:17:39.000Z</time><ele>2041.4</ele></trkpt><trkpt lat="46.3097" lon="9.94354"><time>2021-07-03T13:17:41.000Z</time><ele>2041.2</ele></trkpt><trkpt lat="46.309688" lon="9.943509"><time>2021-07-03T13:17:43.000Z</time><ele>2041</ele></trkpt><trkpt lat="46.30966" lon="9.943459"><time>2021-07-03T13:17:47.000Z</time><ele>2040.2</ele></trkpt><trkpt lat="46.309653" lon="9.943449"><time>2021-07-03T13:17:48.000Z</time><ele>2040</ele></trkpt><trkpt lat="46.309638" lon="9.943429"><time>2021-07-03T13:17:50.000Z</time><ele>2039.8</ele></trkpt><trkpt lat="46.309614" lon="9.943395"><time>2021-07-03T13:17:53.000Z</time><ele>2039.4</ele></trkpt><trkpt lat="46.309584" lon="9.943353"><time>2021-07-03T13:17:57.000Z</time><ele>2039</ele></trkpt><trkpt lat="46.309576" lon="9.943338"><time>2021-07-03T13:17:58.000Z</time><ele>2039</ele></trkpt><trkpt lat="46.309567" lon="9.943323"><time>2021-07-03T13:17:59.000Z</time><ele>2038.8</ele></trkpt><trkpt lat="46.309551" lon="9.943295"><time>2021-07-03T13:18:01.000Z</time><ele>2038.4</ele></trkpt><trkpt lat="46.309523" lon="9.943246"><time>2021-07-03T13:18:05.000Z</time><ele>2038</ele></trkpt><trkpt lat="46.309517" lon="9.943229"><time>2021-07-03T13:18:06.000Z</time><ele>2038</ele></trkpt><trkpt lat="46.3095" lon="9.9432"><time>2021-07-03T13:18:08.000Z</time><ele>2037.8</ele></trkpt><trkpt lat="46.309458" lon="9.943116"><time>2021-07-03T13:18:14.000Z</time><ele>2036.8</ele></trkpt><trkpt lat="46.309451" lon="9.943102"><time>2021-07-03T13:18:15.000Z</time><ele>2036.6</ele></trkpt><trkpt lat="46.309429" lon="9.943064"><time>2021-07-03T13:18:18.000Z</time><ele>2036.2</ele></trkpt><trkpt lat="46.309399" lon="9.943015"><time>2021-07-03T13:18:22.000Z</time><ele>2035.4</ele></trkpt><trkpt lat="46.309388" lon="9.942994"><time>2021-07-03T13:18:24.000Z</time><ele>2035</ele></trkpt><trkpt lat="46.309347" lon="9.942903"><time>2021-07-03T13:18:31.000Z</time><ele>2034.4</ele></trkpt><trkpt lat="46.309342" lon="9.942885"><time>2021-07-03T13:18:32.000Z</time><ele>2034.4</ele></trkpt><trkpt lat="46.309303" lon="9.942785"><time>2021-07-03T13:18:39.000Z</time><ele>2033.6</ele></trkpt><trkpt lat="46.309298" lon="9.942767"><time>2021-07-03T13:18:40.000Z</time><ele>2033.6</ele></trkpt><trkpt lat="46.309289" lon="9.942757"><time>2021-07-03T13:18:41.000Z</time><ele>2033.4</ele></trkpt><trkpt lat="46.309273" lon="9.942738"><time>2021-07-03T13:18:43.000Z</time><ele>2033.4</ele></trkpt><trkpt lat="46.309249" lon="9.942693"><time>2021-07-03T13:18:47.000Z</time><ele>2032.8</ele></trkpt><trkpt lat="46.309217" lon="9.942646"><time>2021-07-03T13:18:51.000Z</time><ele>2032.4</ele></trkpt><trkpt lat="46.309208" lon="9.942631"><time>2021-07-03T13:18:52.000Z</time><ele>2032.2</ele></trkpt><trkpt lat="46.309199" lon="9.942606"><time>2021-07-03T13:18:54.000Z</time><ele>2032</ele></trkpt><trkpt lat="46.309188" lon="9.942591"><time>2021-07-03T13:18:55.000Z</time><ele>2031.8</ele></trkpt><trkpt lat="46.309181" lon="9.94258"><time>2021-07-03T13:18:56.000Z</time><ele>2031.6</ele></trkpt><trkpt lat="46.309163" lon="9.942553"><time>2021-07-03T13:18:58.000Z</time><ele>2031.4</ele></trkpt><trkpt lat="46.309147" lon="9.942531"><time>2021-07-03T13:19:00.000Z</time><ele>2031.2</ele></trkpt><trkpt lat="46.309137" lon="9.942524"><time>2021-07-03T13:19:01.000Z</time><ele>2031</ele></trkpt><trkpt lat="46.30911" lon="9.942492"><time>2021-07-03T13:19:04.000Z</time><ele>2030.6</ele></trkpt><trkpt lat="46.309104" lon="9.942477"><time>2021-07-03T13:19:05.000Z</time><ele>2030.6</ele></trkpt><trkpt lat="46.309091" lon="9.942448"><time>2021-07-03T13:19:07.000Z</time><ele>2030.2</ele></trkpt><trkpt lat="46.309085" lon="9.942434"><time>2021-07-03T13:19:08.000Z</time><ele>2030</ele></trkpt><trkpt lat="46.309071" lon="9.942396"><time>2021-07-03T13:19:11.000Z</time><ele>2029.8</ele></trkpt><trkpt lat="46.30905" lon="9.942337"><time>2021-07-03T13:19:15.000Z</time><ele>2029</ele></trkpt><trkpt lat="46.309046" lon="9.942324"><time>2021-07-03T13:19:16.000Z</time><ele>2028.8</ele></trkpt><trkpt lat="46.309006" lon="9.942221"><time>2021-07-03T13:19:24.000Z</time><ele>2028.2</ele></trkpt><trkpt lat="46.308988" lon="9.942178"><time>2021-07-03T13:19:27.000Z</time><ele>2028.2</ele></trkpt><trkpt lat="46.308983" lon="9.942166"><time>2021-07-03T13:19:28.000Z</time><ele>2028</ele></trkpt><trkpt lat="46.308973" lon="9.942128"><time>2021-07-03T13:19:31.000Z</time><ele>2027.8</ele></trkpt><trkpt lat="46.30897" lon="9.942111"><time>2021-07-03T13:19:32.000Z</time><ele>2027.6</ele></trkpt><trkpt lat="46.308967" lon="9.942098"><time>2021-07-03T13:19:33.000Z</time><ele>2027.4</ele></trkpt><trkpt lat="46.308976" lon="9.942004"><time>2021-07-03T13:19:40.000Z</time><ele>2026.4</ele></trkpt><trkpt lat="46.30899" lon="9.941975"><time>2021-07-03T13:19:42.000Z</time><ele>2026</ele></trkpt><trkpt lat="46.309016" lon="9.941961"><time>2021-07-03T13:19:45.000Z</time><ele>2025.6</ele></trkpt><trkpt lat="46.309034" lon="9.941972"><time>2021-07-03T13:19:47.000Z</time><ele>2025.4</ele></trkpt><trkpt lat="46.309052" lon="9.941994"><time>2021-07-03T13:19:49.000Z</time><ele>2025</ele></trkpt><trkpt lat="46.309064" lon="9.942014"><time>2021-07-03T13:19:51.000Z</time><ele>2024.8</ele></trkpt><trkpt lat="46.309095" lon="9.942077"><time>2021-07-03T13:19:55.000Z</time><ele>2024.4</ele></trkpt><trkpt lat="46.30911" lon="9.942113"><time>2021-07-03T13:19:58.000Z</time><ele>2024.2</ele></trkpt><trkpt lat="46.309127" lon="9.942137"><time>2021-07-03T13:20:00.000Z</time><ele>2023.8</ele></trkpt><trkpt lat="46.309153" lon="9.942168"><time>2021-07-03T13:20:03.000Z</time><ele>2023.6</ele></trkpt><trkpt lat="46.309184" lon="9.942217"><time>2021-07-03T13:20:07.000Z</time><ele>2023.4</ele></trkpt><trkpt lat="46.309194" lon="9.94223"><time>2021-07-03T13:20:08.000Z</time><ele>2023.2</ele></trkpt><trkpt lat="46.309247" lon="9.942311"><time>2021-07-03T13:20:15.000Z</time><ele>2022.8</ele></trkpt><trkpt lat="46.309262" lon="9.942331"><time>2021-07-03T13:20:17.000Z</time><ele>2022.4</ele></trkpt><trkpt lat="46.309298" lon="9.942363"><time>2021-07-03T13:20:21.000Z</time><ele>2022.2</ele></trkpt><trkpt lat="46.309354" lon="9.942406"><time>2021-07-03T13:20:27.000Z</time><ele>2021.6</ele></trkpt><trkpt lat="46.309403" lon="9.942484"><time>2021-07-03T13:20:35.000Z</time><ele>2021.2</ele></trkpt><trkpt lat="46.309425" lon="9.942545"><time>2021-07-03T13:20:39.000Z</time><ele>2021.2</ele></trkpt><trkpt lat="46.309448" lon="9.942572"><time>2021-07-03T13:20:42.000Z</time><ele>2021</ele></trkpt><trkpt lat="46.309484" lon="9.94259"><time>2021-07-03T13:20:46.000Z</time><ele>2021</ele></trkpt><trkpt lat="46.309531" lon="9.942558"><time>2021-07-03T13:20:52.000Z</time><ele>2020.8</ele></trkpt><trkpt lat="46.309602" lon="9.942518"><time>2021-07-03T13:21:01.000Z</time><ele>2020.4</ele></trkpt><trkpt lat="46.30961" lon="9.942515"><time>2021-07-03T13:21:02.000Z</time><ele>2020.2</ele></trkpt><trkpt lat="46.309641" lon="9.942511"><time>2021-07-03T13:21:05.000Z</time><ele>2020.2</ele></trkpt><trkpt lat="46.309668" lon="9.942498"><time>2021-07-03T13:21:08.000Z</time><ele>2020.2</ele></trkpt><trkpt lat="46.309688" lon="9.942484"><time>2021-07-03T13:21:12.000Z</time><ele>2020</ele></trkpt><trkpt lat="46.309689" lon="9.942482"><time>2021-07-03T13:21:13.000Z</time><ele>2020</ele></trkpt><trkpt lat="46.309706" lon="9.942468"><time>2021-07-03T13:21:16.000Z</time><ele>2020</ele></trkpt><trkpt lat="46.30972" lon="9.942427"><time>2021-07-03T13:21:25.000Z</time><ele>2019.8</ele></trkpt><trkpt lat="46.309731" lon="9.942435"><time>2021-07-03T13:21:29.000Z</time><ele>2019.6</ele></trkpt><trkpt lat="46.309735" lon="9.942441"><time>2021-07-03T13:21:37.000Z</time><ele>2020</ele></trkpt><trkpt lat="46.309735" lon="9.942442"><time>2021-07-03T13:21:48.000Z</time><ele>2020</ele></trkpt><trkpt lat="46.309739" lon="9.942454"><time>2021-07-03T13:21:57.000Z</time><ele>2020.2</ele></trkpt><trkpt lat="46.309741" lon="9.942455"><time>2021-07-03T13:22:00.000Z</time><ele>2020.4</ele></trkpt><trkpt lat="46.309753" lon="9.942465"><time>2021-07-03T13:22:19.000Z</time><ele>2020</ele></trkpt><trkpt lat="46.30975" lon="9.942477"><time>2021-07-03T13:22:33.000Z</time><ele>2020.4</ele></trkpt><trkpt lat="46.30975" lon="9.94248"><time>2021-07-03T13:22:44.000Z</time><ele>2019.8</ele></trkpt><trkpt lat="46.30975" lon="9.94248"><time>2021-07-03T13:22:46.000Z</time><ele>2019.8</ele></trkpt><trkpt lat="46.30975" lon="9.942478"><time>2021-07-03T13:22:53.000Z</time><ele>2019.8</ele></trkpt><trkpt lat="46.309746" lon="9.942477"><time>2021-07-03T13:23:02.000Z</time><ele>2019.8</ele></trkpt><trkpt lat="46.309742" lon="9.942476"><time>2021-07-03T13:23:10.000Z</time><ele>2019.8</ele></trkpt><trkpt lat="46.309737" lon="9.942476"><time>2021-07-03T13:23:15.000Z</time><ele>2019.8</ele></trkpt><trkpt lat="46.309735" lon="9.942476"><time>2021-07-03T13:23:17.000Z</time><ele>2019.8</ele></trkpt><trkpt lat="46.309733" lon="9.942476"><time>2021-07-03T13:23:18.000Z</time><ele>2019.8</ele></trkpt><trkpt lat="46.309732" lon="9.942477"><time>2021-07-03T13:23:19.000Z</time><ele>2019.8</ele></trkpt><trkpt lat="46.309731" lon="9.942478"><time>2021-07-03T13:23:20.000Z</time><ele>2019.8</ele></trkpt><trkpt lat="46.309721" lon="9.942479"><time>2021-07-03T13:23:26.000Z</time><ele>2019.8</ele></trkpt><trkpt lat="46.309708" lon="9.942487"><time>2021-07-03T13:23:36.000Z</time><ele>2019.8</ele></trkpt><trkpt lat="46.309713" lon="9.942493"><time>2021-07-03T13:23:46.000Z</time><ele>2019.8</ele></trkpt><trkpt lat="46.309715" lon="9.942493"><time>2021-07-03T13:23:48.000Z</time><ele>2019.8</ele></trkpt><trkpt lat="46.309717" lon="9.942493"><time>2021-07-03T13:23:59.000Z</time><ele>2019.8</ele></trkpt><trkpt lat="46.309711" lon="9.942491"><time>2021-07-03T13:24:07.000Z</time><ele>2019.8</ele></trkpt><trkpt lat="46.309703" lon="9.942484"><time>2021-07-03T13:24:11.000Z</time><ele>2019.8</ele></trkpt><trkpt lat="46.309703" lon="9.942478"><time>2021-07-03T13:24:44.000Z</time><ele>2019.8</ele></trkpt><trkpt lat="46.309703" lon="9.94248"><time>2021-07-03T13:24:48.000Z</time><ele>2019.8</ele></trkpt><trkpt lat="46.309703" lon="9.942481"><time>2021-07-03T13:24:52.000Z</time><ele>2019.8</ele></trkpt><trkpt lat="46.309703" lon="9.942481"><time>2021-07-03T13:25:02.000Z</time><ele>2019.8</ele></trkpt><trkpt lat="46.309704" lon="9.94248"><time>2021-07-03T13:25:44.000Z</time><ele>2019.8</ele></trkpt><trkpt lat="46.309704" lon="9.94248"><time>2021-07-03T13:25:52.000Z</time><ele>2019.8</ele></trkpt><trkpt lat="46.309704" lon="9.942481"><time>2021-07-03T13:26:17.000Z</time><ele>2019.8</ele></trkpt><trkpt lat="46.309704" lon="9.942481"><time>2021-07-03T13:26:19.000Z</time><ele>2019.8</ele></trkpt></trkseg></trk></gpx>